<
# Wetter Temperatur Luftdruck Luftfeuchtigkeit Sichtweite Windgeschwindigkeit Windrichtung Zeit
1 Clear 26 1006 47 10000 5.66 250 10:50 14.08.2022
2 Clear 21 1006 49 10000 1.54 50 08:52 14.08.2022
3 Clear 21 1007 47 10000 2.06 360 06:22 14.08.2022
4 Clear 22 1008 42 10000 4.12 70 02:57 14.08.2022
5 Clear 24 1009 37 10000 3.09 70 00:19 14.08.2022
6 Clear 26 1010 34 10000 2.57 70 22:56 13.08.2022
7 Clear 29 1010 28 10000 4.12 60 21:43 13.08.2022
8 Clear 31 1010 24 10000 3.6 100 20:46 13.08.2022
9 Clear 32 1010 23 10000 4.63 80 19:45 13.08.2022
10 Clear 33 1011 21 10000 5.14 90 17:59 13.08.2022
11 Clear 32 1012 23 10000 5.14 130 15:40 13.08.2022
12 Clear 32 1012 24 10000 5.66 100 14:32 13.08.2022
13 Clear 31 1013 25 10000 4.63 110 13:46 13.08.2022
14 Clear 29 1013 31 10000 5.14 100 11:53 13.08.2022
15 Clear 26 1013 37 10000 3.6 100 10:31 13.08.2022
16 Clear 24 1013 42 10000 3.6 90 09:19 13.08.2022
17 Clear 20 1013 47 10000 2.57 70 05:57 13.08.2022
18 Clear 25 1013 36 10000 2.06 80 00:30 13.08.2022
19 Clear 27 1013 34 10000 2.57 60 22:26 12.08.2022
20 Clear 30 1012 29 10000 3.6 70 21:20 12.08.2022
21 Clear 33 1012 23 10000 4.63 100 19:44 12.08.2022
22 Clear 34 1012 22 10000 4.63 70 18:58 12.08.2022
23 Clear 34 1013 22 10000 5.14 90 17:57 12.08.2022
24 Clear 33 1013 22 10000 5.66 50 16:25 12.08.2022
25 Clear 33 1014 23 10000 6.17 90 14:50 12.08.2022
26 Clear 31 1015 27 10000 7.72 90 12:59 12.08.2022
27 Clear 29 1015 32 10000 5.14 60 11:39 12.08.2022
28 Clear 22 1016 48 10000 2.57 20 08:48 12.08.2022
29 Clear 20 1016 54 10000 4.12 20 07:45 12.08.2022
30 Clear 21 1016 50 10000 2.57 20 03:56 12.08.2022
31 Clear 24 1016 41 10000 2.06 70 00:31 12.08.2022
32 Clear 25 1016 39 10000 2.06 360 23:42 11.08.2022
33 Clear 27 1016 35 10000 2.57 50 22:42 11.08.2022
34 Clear 28 1016 32 10000 4.12 70 21:52 11.08.2022
35 Clear 29 1016 30 10000 5.14 70 21:26 11.08.2022
36 Clear 31 1016 26 10000 6.17 80 20:30 11.08.2022
37 Clear 32 1015 25 10000 6.69 60 19:33 11.08.2022
38 Clear 32 1016 25 10000 6.69 70 18:41 11.08.2022
39 Clear 33 1017 24 10000 6.69 70 16:46 11.08.2022
40 Clear 32 1017 26 10000 7.72 70 15:42 11.08.2022
41 Clear 32 1018 25 10000 7.2 70 14:32 11.08.2022
42 Clear 29 1019 30 10000 4.63 60 11:56 11.08.2022
43 Clear 23 1019 45 10000 4.12 40 08:57 11.08.2022
44 Clear 20 1019 53 10000 2.57 10 05:58 11.08.2022
45 Clear 23 1019 46 10000 3.09 30 02:33 11.08.2022
46 Clear 25 1019 41 10000 2.57 50 23:41 10.08.2022
47 Clear 29 1018 33 10000 5.14 80 21:47 10.08.2022
48 Clear 30 1018 30 10000 5.66 80 20:56 10.08.2022
49 Clear 31 1018 29 10000 6.17 90 20:35 10.08.2022
50 Clear 32 1018 26 10000 5.66 70 18:53 10.08.2022
51 Clear 33 1019 25 10000 6.69 50 17:27 10.08.2022
52 Clear 32 1021 27 10000 6.69 50 14:53 10.08.2022
53 Clear 31 1021 31 10000 5.14 60 13:33 10.08.2022
54 Clear 26 1023 45 10000 3.6 40 10:50 10.08.2022
55 Clear 20 1022 64 10000 3.09 20 08:39 10.08.2022
56 Clear 19 1022 67 10000 3.09 360 07:35 10.08.2022
57 Clear 21 1022 58 10000 5.14 30 04:50 10.08.2022
58 Clear 23 1022 51 10000 5.66 40 01:52 10.08.2022
59 Clear 26 1023 45 10000 5.66 30 23:32 09.08.2022
60 Clear 26 1023 44 10000 5.14 30 22:45 09.08.2022
61 Clear 28 1022 36 10000 4.63 30 21:24 09.08.2022
62 Clear 30 1021 32 10000 5.66 40 19:33 09.08.2022
63 Clear 31 1022 30 10000 5.66 10 17:53 09.08.2022
64 Clear 31 1022 31 10000 5.14 70 17:26 09.08.2022
65 Clear 31 1023 31 10000 5.14 40 16:30 09.08.2022
66 Clear 30 1023 33 10000 5.66 40 15:26 09.08.2022
67 Clear 26 1024 46 10000 5.14 30 12:20 09.08.2022
68 Clear 19 1024 70 10000 4.12 10 08:54 09.08.2022
69 Clear 18 1024 73 10000 5.14 20 07:59 09.08.2022
70 Clear 17 1024 75 10000 3.6 20 07:18 09.08.2022
71 Clear 20 1024 59 10000 5.66 30 02:27 09.08.2022
72 Clear 23 1023 46 10000 5.66 20 23:26 08.08.2022
73 Clear 24 1023 41 10000 5.66 30 22:52 08.08.2022
74 Clear 25 1023 40 10000 6.17 30 21:48 08.08.2022
75 Clear 27 1022 35 10000 6.69 30 20:51 08.08.2022
76 Clear 28 1021 30 10000 6.69 10 19:50 08.08.2022
77 Clear 29 1021 28 10000 6.69 50 18:19 08.08.2022
78 Clear 28 1022 30 10000 6.17 20 15:57 08.08.2022
79 Clear 28 1022 30 10000 5.66 40 15:38 08.08.2022
80 Clear 25 1023 42 10000 6.69 30 12:39 08.08.2022
81 Clear 23 1024 47 10000 6.17 40 11:32 08.08.2022
82 Clear 19 1024 61 10000 5.66 30 09:29 08.08.2022
83 Clear 16 1022 66 10000 4.12 10 05:35 08.08.2022
84 Clear 19 1023 51 10000 4.63 30 01:56 08.08.2022
85 Clear 23 1022 41 10000 6.17 40 22:20 07.08.2022
86 Clear 24 1021 38 10000 5.66 30 21:38 07.08.2022
87 Clear 26 1020 35 10000 6.69 40 20:25 07.08.2022
88 Clear 26 1020 33 10000 7.2 30 19:54 07.08.2022
89 Clear 26 1020 33 10000 5.66 30 19:29 07.08.2022
90 Clear 27 1021 31 10000 7.2 50 18:22 07.08.2022
91 Clear 27 1021 31 10000 6.17 30 16:54 07.08.2022
92 Clear 26 1022 32 10000 5.66 30 15:54 07.08.2022
93 Clear 26 1022 33 10000 6.17 40 15:19 07.08.2022
94 Clear 24 1023 37 10000 6.17 50 13:22 07.08.2022
95 Clear 21 1024 46 10000 6.17 40 10:59 07.08.2022
96 Clear 20 1024 49 10000 5.66 40 10:33 07.08.2022
97 Clear 15 1024 61 10000 4.63 20 05:48 07.08.2022
98 Clear 17 1024 54 10000 5.66 30 03:19 07.08.2022
99 Clear 20 1025 44 10000 6.17 40 23:44 06.08.2022
100 Clear 21 1024 41 10000 5.66 40 22:20 06.08.2022
101 Clear 24 1024 34 10000 5.66 20 20:26 06.08.2022
102 Clear 24 1023 33 10000 6.69 20 19:41 06.08.2022
103 Clear 24 1023 33 10000 6.69 20 19:41 06.08.2022
104 Clear 25 1024 31 10000 6.69 40 18:25 06.08.2022
105 Clear 25 1024 31 10000 6.69 30 17:31 06.08.2022
106 Clear 23 1026 32 10000 6.17 30 14:35 06.08.2022
107 Clear 23 1026 32 10000 7.72 60 13:44 06.08.2022
108 Clear 20 1026 42 10000 7.72 40 11:33 06.08.2022
109 Clear 17 1026 54 10000 5.14 20 09:51 06.08.2022
110 Clear 15 1026 62 10000 5.14 40 08:32 06.08.2022
111 Clear 15 1025 63 10000 4.63 30 03:52 06.08.2022
112 Clear 19 1024 45 10000 6.17 10 23:36 05.08.2022
113 Clear 20 1023 42 10000 6.17 360 22:23 05.08.2022
114 Clear 24 1021 45 10000 5.14 350 19:46 05.08.2022
115 Clear 25 1020 44 10000 6.69 360 18:46 05.08.2022
116 Clear 26 1020 45 10000 6.69 360 18:22 05.08.2022
117 Clear 25 1020 46 10000 5.66 320 16:49 05.08.2022
118 Clear 26 1019 47 10000 5.14 340 15:22 05.08.2022
119 Clouds 25 1019 52 10000 5.66 340 14:31 05.08.2022
120 Clouds 24 1019 57 10000 4.63 330 13:24 05.08.2022
121 Clouds 23 1019 64 10000 5.14 330 12:30 05.08.2022
122 Clear 21 1018 75 10000 4.12 320 10:53 05.08.2022
123 Clear 17 1017 90 10000 4.12 300 08:30 05.08.2022
124 Clear 16 1016 93 10000 2.57 300 07:22 05.08.2022
125 Rain 20 1016 75 10000 4.63 360 01:28 05.08.2022
126 Clear 21 1015 73 10000 5.66 360 22:33 04.08.2022
127 Clear 23 1014 70 10000 6.69 330 21:27 04.08.2022
128 Clouds 25 1014 71 10000 3.6 340 20:45 04.08.2022
129 Clouds 25 1014 73 10000 3.6 40 19:58 04.08.2022
130 Clouds 25 1014 68 10000 4.63 340 18:52 04.08.2022
131 Rain 27 1015 54 10000 5.66 290 18:32 04.08.2022
132 Clear 27 1015 54 10000 4.12 330 14:45 04.08.2022
133 Clear 25 1014 62 10000 4.63 330 13:23 04.08.2022
134 Clouds 22 1014 76 10000 3.6 340 11:38 04.08.2022
135 Rain 23 1013 67 10000 3.6 340 09:58 04.08.2022
136 Clouds 21 1013 72 10000 4.63 320 07:31 04.08.2022
137 Clear 24 1012 64 10000 4.12 360 02:46 04.08.2022
138 Clear 27 1012 53 10000 4.63 340 23:58 03.08.2022
139 Clear 27 1012 50 10000 4.12 320 23:36 03.08.2022
140 Clear 32 1011 34 10000 1.54 230 21:26 03.08.2022
141 Clear 35 1011 29 10000 3.6 230 20:20 03.08.2022
142 Clear 36 1011 29 10000 2.57 220 18:53 03.08.2022
143 Clear 35 1013 31 10000 2.06 210 16:27 03.08.2022
144 Clear 35 1013 31 10000 2.06 0 15:53 03.08.2022
145 Clear 32 1014 38 10000 2.57 180 13:40 03.08.2022
146 Clear 28 1015 54 10000 1.03 0 10:50 03.08.2022
147 Clear 20 1015 81 10000 2.57 70 07:26 03.08.2022
148 Clear 21 1015 75 10000 3.09 30 04:22 03.08.2022
149 Clear 22 1016 73 10000 3.09 20 03:23 03.08.2022
150 Clear 23 1016 65 10000 3.6 350 00:49 03.08.2022
151 Clear 26 1015 53 10000 1.54 10 22:37 02.08.2022
152 Clear 28 1015 47 10000 1.54 0 21:51 02.08.2022
153 Clear 31 1015 39 10000 2.06 280 20:30 02.08.2022
154 Clear 32 1016 38 10000 2.57 350 18:34 02.08.2022
155 Clear 30 1017 41 10000 2.57 310 15:20 02.08.2022
156 Clear 24 1019 59 10000 2.06 320 10:51 02.08.2022
157 Clear 20 1019 71 10000 1.54 0 08:59 02.08.2022
158 Clear 19 1018 81 10000 1.54 330 07:52 02.08.2022
159 Clear 18 1018 82 10000 2.06 360 06:41 02.08.2022
160 Clear 19 1019 79 10000 2.06 330 04:31 02.08.2022
161 Clear 22 1019 66 10000 1.03 340 23:35 01.08.2022
162 Clear 24 1018 60 10000 1.03 340 22:23 01.08.2022
163 Clear 26 1018 51 10000 3.09 260 20:51 01.08.2022
164 Clear 27 1017 49 10000 2.57 330 19:23 01.08.2022
165 Clear 27 1018 50 10000 3.09 290 18:30 01.08.2022
166 Clear 27 1018 49 10000 4.12 280 16:53 01.08.2022
167 Clouds 26 1018 55 10000 2.57 330 15:52 01.08.2022
168 Clouds 26 1018 55 10000 2.57 330 15:52 01.08.2022
169 Clouds 26 1018 57 10000 2.57 350 15:30 01.08.2022
170 Clouds 25 1018 61 10000 3.09 280 13:48 01.08.2022
171 Clouds 22 1019 68 10000 3.09 260 11:50 01.08.2022
172 Clouds 21 1018 77 10000 3.6 300 09:39 01.08.2022
173 Clouds 20 1018 80 10000 3.09 270 08:22 01.08.2022
174 Clouds 19 1018 81 10000 1.54 320 04:48 01.08.2022
175 Clouds 20 1018 77 10000 2.06 300 02:32 01.08.2022
176 Clear 22 1019 69 10000 3.09 310 23:54 31.07.2022
177 Clear 24 1018 65 10000 4.12 340 22:38 31.07.2022
178 Clear 25 1018 58 10000 5.14 320 21:27 31.07.2022
179 Clear 29 1018 46 10000 4.63 310 19:41 31.07.2022
180 Clouds 29 1018 44 10000 4.12 270 17:48 31.07.2022
181 Clouds 28 1019 49 10000 4.12 0 15:37 31.07.2022
182 Clouds 26 1020 55 10000 4.63 300 13:43 31.07.2022
183 Clouds 23 1020 62 10000 3.6 280 11:58 31.07.2022
184 Clouds 21 1020 73 10000 5.14 290 09:43 31.07.2022
185 Clouds 19 1019 83 10000 2.06 280 07:38 31.07.2022
186 Clear 20 1020 73 10000 2.57 340 02:58 31.07.2022
187 Clear 24 1019 58 10000 4.63 330 23:40 30.07.2022
188 Clear 26 1018 49 10000 3.6 340 22:19 30.07.2022
189 Clear 27 1018 47 10000 3.6 340 21:48 30.07.2022
190 Clear 28 1018 41 10000 4.12 330 20:57 30.07.2022
191 Clear 30 1017 38 10000 4.63 330 19:59 30.07.2022
192 Clear 30 1018 36 10000 5.14 290 18:53 30.07.2022
193 Clear 30 1018 34 10000 4.12 310 17:44 30.07.2022
194 Clear 30 1018 35 10000 5.66 290 15:54 30.07.2022
195 Clear 30 1019 35 10000 4.12 250 15:24 30.07.2022
196 Clear 28 1019 38 10000 3.09 250 13:18 30.07.2022
197 Clear 26 1019 41 10000 1.54 0 12:19 30.07.2022
198 Clear 24 1019 52 10000 1.03 0 10:31 30.07.2022
199 Clear 24 1019 52 10000 1.03 0 10:31 30.07.2022
200 Clear 24 1019 52 10000 1.03 0 10:31 30.07.2022
201 Clear 24 1019 52 10000 1.03 0 10:31 30.07.2022
202 Clear 23 1020 54 10000 1.54 320 09:56 30.07.2022
203 Clear 18 1019 69 10000 1.03 0 07:55 30.07.2022
204 Clear 20 1018 57 10000 3.09 10 03:55 30.07.2022
205 Clear 21 1019 53 10000 2.06 350 02:25 30.07.2022
206 Clear 25 1018 45 10000 1.54 360 22:44 29.07.2022
207 Clear 27 1016 40 10000 2.06 330 21:24 29.07.2022
208 Clear 28 1016 36 10000 2.57 340 20:41 29.07.2022
209 Clear 29 1016 33 10000 4.63 330 18:26 29.07.2022
210 Clear 29 1016 33 10000 4.12 280 16:32 29.07.2022
211 Clear 28 1016 36 10000 2.57 0 13:45 29.07.2022
212 Clear 25 1017 43 10000 2.06 350 11:30 29.07.2022
213 Clear 19 1016 59 10000 1.03 0 08:50 29.07.2022
214 Clear 18 1016 65 10000 1.03 10 08:20 29.07.2022
215 Clear 18 1015 57 10000 1.54 60 02:52 29.07.2022
216 Clear 21 1015 46 10000 3.6 40 23:20 28.07.2022
217 Clear 24 1014 40 10000 3.6 30 21:30 28.07.2022
218 Clear 26 1014 37 10000 4.12 360 20:45 28.07.2022
219 Clouds 26 1014 37 10000 0.45 270 19:44 28.07.2022
220 Clear 26 1014 35 10000 4.63 340 19:26 28.07.2022
221 Clear 27 1014 34 10000 2.57 360 17:45 28.07.2022
222 Clear 27 1014 34 10000 2.57 360 17:19 28.07.2022
223 Clouds 26 1014 34 10000 4.12 350 16:40 28.07.2022
224 Clear 26 1014 35 10000 2.57 0 13:56 28.07.2022
225 Clear 24 1014 41 10000 2.57 30 12:33 28.07.2022
226 Clear 16 1015 64 10000 2.57 30 07:33 28.07.2022
227 Clear 16 1015 63 10000 2.06 360 05:39 28.07.2022
228 Clear 17 1015 61 10000 2.57 50 05:20 28.07.2022
229 Clear 21 1016 46 10000 6.17 50 23:19 27.07.2022
230 Clear 23 1016 40 10000 5.14 30 21:30 27.07.2022
231 Clear 24 1015 37 10000 3.6 20 19:48 27.07.2022
232 Clear 24 1016 37 10000 5.14 50 19:19 27.07.2022
233 Clear 25 1017 39 10000 3.6 0 16:31 27.07.2022
234 Clear 25 1017 40 10000 3.6 20 15:51 27.07.2022
235 Clear 24 1018 43 10000 4.12 20 14:41 27.07.2022
236 Clouds 23 1018 49 10000 3.6 70 13:34 27.07.2022
237 Clouds 18 1019 71 10000 3.6 30 09:29 27.07.2022
238 Clear 15 1019 80 10000 3.6 40 07:47 27.07.2022
239 Clear 15 1019 84 10000 2.57 340 04:53 27.07.2022
240 Clear 19 1019 65 10000 4.63 320 23:21 26.07.2022
241 Clear 21 1018 57 10000 2.57 320 21:49 26.07.2022
242 Clear 22 1018 53 10000 3.09 330 20:49 26.07.2022
243 Clear 22 1018 50 10000 4.12 330 19:22 26.07.2022
244 Clear 23 1018 50 10000 4.12 300 18:40 26.07.2022
245 Clear 23 1018 51 10000 3.6 280 17:47 26.07.2022
246 Clouds 22 1018 52 10000 3.6 280 15:43 26.07.2022
247 Clear 22 1019 54 10000 4.12 300 14:43 26.07.2022
248 Clouds 20 1019 66 10000 4.63 310 12:32 26.07.2022
249 Clouds 19 1018 77 10000 4.12 300 10:20 26.07.2022
250 Clouds 18 1018 81 10000 4.12 290 08:27 26.07.2022
251 Clear 18 1017 71 10000 4.63 290 01:55 26.07.2022
252 Clear 20 1017 66 10000 4.12 310 00:20 26.07.2022
253 Clear 21 1016 61 10000 6.69 310 22:40 25.07.2022
254 Clear 23 1015 54 10000 8.23 310 21:43 25.07.2022
255 Clear 25 1015 45 10000 8.23 300 20:43 25.07.2022
256 Clear 25 1014 43 10000 8.23 300 20:24 25.07.2022
257 Clear 27 1014 39 10000 6.69 270 19:25 25.07.2022
258 Clear 28 1013 41 9000 5.66 260 17:42 25.07.2022
259 Clear 27 1013 42 9000 7.72 280 17:20 25.07.2022
260 Clouds 25 1014 59 10000 6.17 260 13:28 25.07.2022
261 Clouds 24 1013 63 10000 6.69 270 10:55 25.07.2022
262 Clear 20 1011 72 10000 4.63 340 07:59 25.07.2022
263 Clear 26 1011 53 10000 2.06 200 01:36 25.07.2022
264 Clear 27 1012 49 10000 2.06 170 23:45 24.07.2022
265 Clear 28 1012 49 10000 3.09 160 22:49 24.07.2022
266 Clear 30 1012 42 10000 4.12 180 21:48 24.07.2022
267 Clear 31 1012 40 10000 4.12 180 21:18 24.07.2022
268 Clear 32 1012 37 10000 5.14 160 20:44 24.07.2022
269 Clear 33 1012 35 10000 4.63 180 19:23 24.07.2022
270 Clear 33 1013 35 10000 4.63 170 18:26 24.07.2022
271 Clear 32 1015 36 10000 4.63 180 15:55 24.07.2022
272 Clear 32 1015 37 10000 5.14 180 15:31 24.07.2022
273 Clear 30 1017 39 10000 4.12 210 13:50 24.07.2022
274 Clear 29 1017 44 10000 4.12 210 12:50 24.07.2022
275 Clear 27 1018 52 10000 3.6 160 11:35 24.07.2022
276 Clear 24 1019 64 10000 2.57 140 10:26 24.07.2022
277 Clear 20 1019 80 10000 2.57 110 08:29 24.07.2022
278 Clear 19 1019 83 10000 2.06 110 07:44 24.07.2022
279 Clear 18 1020 84 10000 2.06 50 03:57 24.07.2022
280 Clear 21 1019 73 10000 3.6 360 23:48 23.07.2022
281 Clear 26 1019 52 10000 3.6 320 20:51 23.07.2022
282 Clear 27 1019 51 10000 3.09 290 19:31 23.07.2022
283 Clouds 27 1019 51 10000 4.12 310 18:50 23.07.2022
284 Clouds 27 1020 54 9000 3.6 290 17:28 23.07.2022
285 Clouds 26 1020 58 9000 4.12 240 16:31 23.07.2022
286 Clouds 25 1020 63 10000 4.63 250 15:22 23.07.2022
287 Clouds 25 1020 67 10000 4.63 240 14:56 23.07.2022
288 Clouds 24 1021 70 10000 4.12 240 14:24 23.07.2022
289 Clouds 23 1020 76 10000 2.06 220 12:44 23.07.2022
290 Clouds 20 1020 87 7000 2.57 290 10:45 23.07.2022
291 Mist 20 1019 88 10000 3.6 290 09:56 23.07.2022
292 Mist 19 1019 90 10000 4.12 310 08:31 23.07.2022
293 Mist 18 1018 95 10000 2.57 270 03:38 23.07.2022
294 Mist 19 1018 93 10000 1.54 330 00:49 23.07.2022
295 Clouds 20 1017 90 10000 2.57 10 22:32 22.07.2022
296 Rain 22 1017 84 10000 3.09 360 20:51 22.07.2022
297 Rain 24 1017 77 10000 3.6 340 19:35 22.07.2022
298 Clouds 26 1016 68 10000 0.98 14 18:28 22.07.2022
299 Clear 25 1016 69 10000 3.09 360 16:49 22.07.2022
300 Clouds 24 1017 71 10000 2.57 80 14:51 22.07.2022
301 Clear 22 1018 72 10000 2.57 40 11:22 22.07.2022
302 Clear 20 1019 81 10000 3.09 40 09:26 22.07.2022
303 Clear 18 1019 86 10000 3.6 20 08:32 22.07.2022
304 Clear 17 1019 90 10000 3.6 30 06:59 22.07.2022
305 Clear 20 1020 83 10000 5.14 60 02:25 22.07.2022
306 Clear 23 1019 68 10000 3.6 40 22:43 21.07.2022
307 Clear 25 1020 61 10000 4.12 30 21:33 21.07.2022
308 Clear 27 1020 51 10000 3.09 360 19:28 21.07.2022
309 Clear 26 1021 51 10000 3.09 360 17:41 21.07.2022
310 Clear 26 1021 51 10000 1.54 360 17:19 21.07.2022
311 Clear 26 1021 51 10000 1.54 360 17:19 21.07.2022
312 Clouds 26 1022 56 10000 4.12 290 15:22 21.07.2022
313 Clouds 25 1022 61 10000 4.12 260 14:37 21.07.2022
314 Clouds 23 1022 73 10000 4.12 250 12:28 21.07.2022
315 Clouds 21 1022 81 10000 4.12 300 11:19 21.07.2022
316 Clouds 19 1021 87 10000 5.14 290 09:41 21.07.2022
317 Clouds 19 1021 89 10000 4.12 280 08:52 21.07.2022
318 Clouds 18 1021 91 10000 3.09 260 07:50 21.07.2022
319 Clouds 17 1020 92 10000 3.09 300 06:25 21.07.2022
320 Clouds 18 1020 91 10000 1.54 250 01:42 21.07.2022
321 Clear 20 1019 87 10000 2.57 240 22:22 20.07.2022
322 Clear 20 1019 87 10000 2.57 230 22:22 20.07.2022
323 Clear 21 1018 84 10000 2.06 220 21:30 20.07.2022
324 Rain 21 1019 81 10000 4.63 210 19:54 20.07.2022
325 Rain 21 1019 81 10000 4.63 210 19:54 20.07.2022
326 Clouds 21 1019 76 10000 5.66 200 19:25 20.07.2022
327 Clouds 22 1018 75 10000 5.66 170 18:52 20.07.2022
328 Clouds 23 1018 73 10000 6.69 160 18:29 20.07.2022
329 Fog 22 1019 77 10000 5.66 150 16:49 20.07.2022
330 Clouds 22 1019 82 10000 4.63 160 15:32 20.07.2022
331 Clouds 20 1019 86 10000 3.6 200 14:32 20.07.2022
332 Clouds 20 1019 86 10000 4.12 220 12:41 20.07.2022
333 Clouds 19 1018 92 10000 4.12 220 10:28 20.07.2022
334 Rain 21 1017 83 8000 4.63 260 05:52 20.07.2022
335 Clear 26 1015 59 10000 4.12 260 00:58 20.07.2022
336 Clear 26 1014 58 10000 4.63 260 00:40 20.07.2022
337 Clouds 28 1013 52 10000 7.72 260 22:35 19.07.2022
338 Clear 29 1012 53 10000 6.17 240 21:54 19.07.2022
339 Clouds 31 1011 52 8000 8.75 250 20:49 19.07.2022
340 Clear 38 1010 24 7000 8.23 190 19:22 19.07.2022
341 Clear 39 1010 22 7000 6.17 180 18:41 19.07.2022
342 Clear 40 1010 22 7000 6.69 160 17:53 19.07.2022
343 Clear 40 1011 20 8000 7.2 140 15:27 19.07.2022
344 Clear 38 1011 20 10000 7.2 110 13:37 19.07.2022
345 Clear 33 1013 29 10000 4.63 110 11:33 19.07.2022
346 Clear 30 1014 36 10000 3.6 130 09:52 19.07.2022
347 Clear 27 1014 41 10000 4.12 120 08:47 19.07.2022
348 Clear 25 1014 45 10000 2.57 50 07:57 19.07.2022
349 Clear 24 1015 46 10000 3.6 110 07:18 19.07.2022
350 Clear 24 1015 44 10000 3.09 30 05:19 19.07.2022
351 Clear 25 1015 41 10000 1.54 80 03:40 19.07.2022
352 Clear 29 1016 35 10000 2.57 50 23:57 18.07.2022
353 Clear 30 1016 32 10000 3.6 60 23:20 18.07.2022
354 Clear 31 1017 30 10000 2.57 50 22:42 18.07.2022
355 Clear 34 1016 26 10000 2.57 90 21:26 18.07.2022
356 Clear 36 1017 22 10000 3.09 90 20:45 18.07.2022
357 Clear 38 1017 19 10000 3.09 140 18:50 18.07.2022
358 Clear 37 1019 19 10000 2.06 160 16:45 18.07.2022
359 Clear 36 1019 20 10000 2.06 130 15:40 18.07.2022
360 Clear 34 1021 24 10000 3.09 90 13:40 18.07.2022
361 Clear 32 1020 30 10000 3.09 110 12:29 18.07.2022
362 Clear 27 1021 39 10000 2.06 100 10:24 18.07.2022
363 Clear 22 1021 47 10000 3.09 140 08:21 18.07.2022
364 Clear 20 1021 50 10000 2.57 110 06:48 18.07.2022
365 Clear 26 1022 33 10000 2.57 50 23:30 17.07.2022
366 Clear 27 1022 34 10000 3.6 60 22:32 17.07.2022
367 Clear 29 1021 30 10000 3.6 60 21:44 17.07.2022
368 Clear 30 1021 27 10000 3.6 100 20:54 17.07.2022
369 Clear 31 1022 24 10000 3.6 70 20:35 17.07.2022
370 Clear 32 1021 24 10000 3.6 60 19:26 17.07.2022
371 Clear 32 1022 24 10000 4.12 80 18:26 17.07.2022
372 Clear 32 1023 24 10000 4.12 70 17:38 17.07.2022
373 Clear 32 1023 25 10000 5.14 40 16:50 17.07.2022
374 Clear 31 1023 26 10000 5.14 40 16:25 17.07.2022
375 Clear 29 1024 30 10000 4.63 30 14:37 17.07.2022
376 Clear 27 1025 32 10000 2.57 0 13:30 17.07.2022
377 Clear 25 1025 41 10000 4.63 70 11:32 17.07.2022
378 Clear 20 1025 55 10000 4.12 50 08:57 17.07.2022
379 Clear 20 1025 55 10000 3.6 60 03:44 17.07.2022
380 Clear 21 1024 52 10000 5.14 60 02:32 17.07.2022
381 Clear 24 1024 44 10000 6.17 50 23:20 16.07.2022
382 Clear 26 1023 38 10000 5.66 40 21:30 16.07.2022
383 Clear 28 1022 33 10000 3.6 20 19:30 16.07.2022
384 Clear 29 1022 31 10000 4.63 30 18:32 16.07.2022
385 Clear 29 1022 31 10000 4.63 40 16:34 16.07.2022
386 Clear 26 1023 37 10000 4.63 50 13:49 16.07.2022
387 Clear 23 1023 48 10000 3.09 20 10:55 16.07.2022
388 Clear 20 1023 56 10000 2.57 10 09:33 16.07.2022
389 Clear 18 1023 64 10000 2.06 30 08:44 16.07.2022
390 Clear 17 1022 63 10000 1.03 0 08:23 16.07.2022
391 Clear 17 1022 64 10000 2.57 10 04:24 16.07.2022
392 Clear 17 1022 62 10000 3.09 350 03:22 16.07.2022
393 Clear 21 1021 42 10000 2.57 340 23:34 15.07.2022
394 Clear 23 1021 38 10000 3.09 50 22:41 15.07.2022
395 Clear 25 1021 33 10000 3.6 20 21:29 15.07.2022
396 Clear 26 1020 31 10000 3.6 10 20:30 15.07.2022
397 Clear 27 1021 29 10000 3.6 340 18:44 15.07.2022
398 Clear 27 1021 29 10000 4.12 20 17:44 15.07.2022
399 Clear 25 1022 32 10000 4.92 38 14:54 15.07.2022
400 Clear 24 1022 37 10000 5.14 50 13:20 15.07.2022
401 Clear 22 1023 47 10000 5.14 50 11:45 15.07.2022
402 Clear 20 1023 53 10000 5.66 40 10:27 15.07.2022
403 Clear 16 1023 66 10000 4.12 30 06:30 15.07.2022
404 Clear 20 1022 58 10000 4.12 360 02:24 15.07.2022
405 Clear 22 1021 51 10000 7.2 30 00:37 15.07.2022
406 Clear 24 1020 51 10000 6.69 10 22:53 14.07.2022
407 Clear 25 1020 47 10000 5.66 360 21:56 14.07.2022
408 Clear 26 1019 44 8000 7.2 330 21:32 14.07.2022
409 Clear 28 1019 37 7000 6.69 330 20:46 14.07.2022
410 Clear 28 1019 36 7000 6.69 330 20:28 14.07.2022
411 Clear 29 1018 34 7000 6.17 330 19:58 14.07.2022
412 Clear 31 1018 32 9000 5.14 340 16:23 14.07.2022
413 Clear 31 1018 30 10000 5.66 310 15:54 14.07.2022
414 Clear 30 1018 33 10000 5.14 320 14:44 14.07.2022
415 Clear 29 1018 39 10000 5.14 320 13:33 14.07.2022
416 Clear 27 1018 46 10000 3.6 320 12:19 14.07.2022
417 Clear 26 1018 52 10000 4.12 330 11:25 14.07.2022
418 Clear 25 1019 55 10000 4.12 320 10:49 14.07.2022
419 Clear 22 1019 66 10000 2.57 320 08:22 14.07.2022
420 Clear 23 1019 58 10000 1.54 230 03:42 14.07.2022
421 Clear 25 1019 51 10000 1.54 340 00:55 14.07.2022
422 Clear 27 1020 45 10000 3.09 30 23:41 13.07.2022
423 Clear 29 1019 43 10000 6.17 10 22:27 13.07.2022
424 Clear 31 1018 39 10000 4.63 360 21:32 13.07.2022
425 Clear 35 1018 27 10000 4.12 330 20:38 13.07.2022
426 Clear 36 1018 24 10000 3.09 220 18:22 13.07.2022
427 Clear 36 1019 24 10000 2.57 0 17:22 13.07.2022
428 Clear 35 1019 26 10000 4.63 240 15:59 13.07.2022
429 Clear 34 1021 29 10000 3.09 260 13:50 13.07.2022
430 Clear 29 1021 38 10000 3.09 240 11:33 13.07.2022
431 Clear 27 1021 42 10000 2.57 250 10:44 13.07.2022
432 Clear 25 1021 50 10000 1.54 200 09:30 13.07.2022
433 Clear 23 1021 57 10000 1.54 0 08:24 13.07.2022
434 Clear 22 1021 54 10000 1.54 0 04:50 13.07.2022
435 Clear 24 1023 47 10000 3.09 150 00:47 13.07.2022
436 Clear 27 1022 38 10000 2.57 120 22:47 12.07.2022
437 Clear 29 1023 33 10000 2.06 100 21:49 12.07.2022
438 Clear 31 1023 28 10000 1.54 130 20:54 12.07.2022
439 Clear 32 1022 27 10000 2.57 90 20:21 12.07.2022
440 Clear 33 1021 25 10000 3.09 120 18:51 12.07.2022
441 Clear 33 1022 25 10000 2.06 110 17:29 12.07.2022
442 Clear 32 1022 28 10000 3.09 150 15:35 12.07.2022
443 Clear 30 1023 36 10000 2.57 0 13:43 12.07.2022
444 Clear 28 1023 46 10000 2.57 60 11:59 12.07.2022
445 Clear 25 1023 57 10000 2.06 80 10:46 12.07.2022
446 Clear 22 1023 66 10000 2.57 80 09:18 12.07.2022
447 Clear 20 1023 73 10000 2.06 360 07:57 12.07.2022
448 Clear 19 1022 77 10000 2.06 350 05:54 12.07.2022
449 Clear 19 1022 76 10000 2.57 350 05:35 12.07.2022
450 Clear 23 1022 62 10000 4.63 70 01:36 12.07.2022
451 Clear 25 1021 46 10000 3.6 60 22:50 11.07.2022
452 Clear 28 1021 41 10000 4.63 30 21:44 11.07.2022
453 Clear 29 1020 40 10000 5.14 30 20:33 11.07.2022
454 Clear 30 1020 39 10000 4.63 30 19:32 11.07.2022
455 Clear 30 1020 39 10000 5.14 70 18:32 11.07.2022
456 Clear 30 1021 39 10000 4.63 20 17:31 11.07.2022
457 Clear 29 1021 43 10000 5.14 50 15:34 11.07.2022
458 Clear 27 1022 46 10000 5.66 70 13:39 11.07.2022
459 Clear 24 1022 52 10000 4.12 60 11:38 11.07.2022
460 Clear 23 1023 56 10000 6.17 80 10:18 11.07.2022
461 Clear 22 1023 59 10000 5.66 80 09:41 11.07.2022
462 Clear 20 1023 66 10000 5.66 70 08:33 11.07.2022
463 Clear 18 1023 70 10000 4.12 70 04:34 11.07.2022
464 Clear 21 1023 59 10000 5.14 70 00:20 11.07.2022
465 Clear 23 1023 54 10000 6.17 50 22:56 10.07.2022
466 Clear 24 1023 50 10000 5.66 60 21:51 10.07.2022
467 Clear 25 1023 47 10000 5.66 50 20:54 10.07.2022
468 Clear 27 1023 43 10000 6.17 40 19:50 10.07.2022
469 Clear 27 1023 41 10000 5.66 50 18:48 10.07.2022
470 Clear 27 1023 41 10000 5.14 40 17:37 10.07.2022
471 Clear 27 1024 41 10000 5.66 40 16:57 10.07.2022
472 Clear 25 1024 44 10000 5.14 40 15:28 10.07.2022
473 Clear 24 1025 45 10000 6.17 50 14:30 10.07.2022
474 Clear 22 1026 48 10000 5.66 50 12:29 10.07.2022
475 Clear 21 1026 50 10000 5.14 50 11:20 10.07.2022
476 Clear 17 1027 69 10000 4.12 40 08:45 10.07.2022
477 Clear 15 1027 77 10000 4.12 50 07:39 10.07.2022
478 Clear 17 1027 68 10000 4.63 20 02:50 10.07.2022
479 Clear 21 1027 54 10000 6.69 30 22:59 09.07.2022
480 Clear 22 1026 55 10000 7.2 30 22:25 09.07.2022
481 Clear 24 1026 56 10000 7.72 10 21:28 09.07.2022
482 Clear 29 1025 39 10000 5.14 360 18:45 09.07.2022
483 Clear 29 1025 38 10000 5.14 10 17:48 09.07.2022
484 Clear 29 1025 39 10000 4.63 20 16:58 09.07.2022
485 Clear 28 1026 41 10000 4.12 360 15:44 09.07.2022
486 Clear 28 1026 42 10000 4.12 360 15:25 09.07.2022
487 Clear 27 1027 45 10000 3.6 0 13:51 09.07.2022
488 Clear 26 1027 47 10000 4.12 360 12:53 09.07.2022
489 Clear 25 1028 50 10000 3.09 330 11:33 09.07.2022
490 Clear 23 1028 60 10000 2.06 340 10:23 09.07.2022
491 Clear 18 1028 77 10000 3.09 350 07:54 09.07.2022
492 Clear 16 1028 80 10000 3.6 350 06:58 09.07.2022
493 Clear 17 1029 76 10000 2.57 10 04:34 09.07.2022
494 Clear 22 1029 55 10000 3.09 50 23:22 08.07.2022
495 Clear 24 1029 44 10000 3.6 30 21:59 08.07.2022
496 Clear 26 1029 40 10000 4.12 20 20:59 08.07.2022
497 Clear 26 1029 38 10000 4.12 20 20:25 08.07.2022
498 Clear 27 1029 36 10000 4.63 20 18:33 08.07.2022
499 Clear 27 1030 36 10000 4.63 10 17:33 08.07.2022
500 Clear 27 1030 36 10000 4.63 10 17:33 08.07.2022
501 Clear 25 1031 41 10000 4.12 30 14:55 08.07.2022
502 Clear 24 1031 41 10000 4.12 40 14:29 08.07.2022
503 Clear 21 1032 51 10000 4.12 50 12:28 08.07.2022
504 Clear 18 1032 63 10000 3.6 20 10:45 08.07.2022
505 Clear 16 1032 71 10000 4.12 40 08:55 08.07.2022
506 Clear 12 1032 83 10000 2.57 30 06:55 08.07.2022
507 Clear 13 1031 79 10000 4.63 30 04:31 08.07.2022
508 Clear 17 1031 70 10000 3.58 42 23:56 07.07.2022
509 Clear 18 1030 68 10000 5.14 10 22:45 07.07.2022
510 Clouds 19 1029 63 10000 4.63 10 21:39 07.07.2022
511 Clouds 21 1028 62 10000 6.17 350 18:43 07.07.2022
512 Clouds 21 1028 62 10000 5.14 360 17:41 07.07.2022
513 Clouds 22 1028 63 10000 5.14 350 15:34 07.07.2022
514 Clouds 21 1027 66 10000 5.66 340 13:30 07.07.2022
515 Clouds 21 1026 65 10000 5.66 340 12:40 07.07.2022
516 Clouds 21 1026 66 10000 5.66 340 12:21 07.07.2022
517 Clouds 21 1025 66 10000 5.14 330 11:31 07.07.2022
518 Clouds 21 1025 72 10000 4.63 330 10:44 07.07.2022
519 Clouds 20 1025 73 10000 4.63 330 10:26 07.07.2022
520 Clouds 17 1024 86 10000 4.12 310 07:58 07.07.2022
521 Clear 16 1024 82 10000 3.6 310 05:23 07.07.2022
522 Clouds 21 1025 66 10000 0.89 270 23:37 06.07.2022
523 Clear 21 1025 62 10000 4.63 330 23:19 06.07.2022
524 Clear 21 1025 61 10000 4.63 330 22:58 06.07.2022
525 Clear 22 1025 59 10000 4.12 320 22:40 06.07.2022
526 Clear 22 1024 56 10000 5.14 320 21:59 06.07.2022
527 Clear 26 1024 41 10000 5.66 320 19:45 06.07.2022
528 Clear 26 1024 39 10000 5.14 320 18:41 06.07.2022
529 Clear 26 1025 40 10000 3.6 0 16:45 06.07.2022
530 Clear 25 1025 42 10000 4.12 310 15:39 06.07.2022
531 Clouds 23 1027 48 10000 3.09 0 12:44 06.07.2022
532 Clouds 22 1027 50 10000 3.09 20 11:49 06.07.2022
533 Clear 21 1027 53 10000 2.06 310 10:33 06.07.2022
534 Clear 17 1027 71 10000 2.57 340 08:43 06.07.2022
535 Clear 14 1027 81 10000 2.06 330 07:41 06.07.2022
536 Clear 13 1027 84 10000 3.09 340 06:40 06.07.2022
537 Clear 20 1025 53 10000 5.14 340 22:50 05.07.2022
538 Clear 21 1024 52 10000 6.17 340 22:28 05.07.2022
539 Clear 24 1023 43 10000 5.14 340 20:45 05.07.2022
540 Clear 25 1022 39 10000 4.12 330 19:54 05.07.2022
541 Clear 26 1022 37 10000 4.12 320 19:35 05.07.2022
542 Clear 26 1022 39 10000 3.6 330 17:49 05.07.2022
543 Clear 26 1023 40 10000 3.6 330 17:18 05.07.2022
544 Clear 25 1023 44 10000 3.6 320 15:39 05.07.2022
545 Clear 24 1023 47 10000 3.6 300 14:44 05.07.2022
546 Clouds 22 1024 52 10000 3.6 320 12:52 05.07.2022
547 Clouds 21 1024 57 10000 3.09 10 12:21 05.07.2022
548 Clouds 19 1023 67 10000 2.06 360 10:45 05.07.2022
549 Clear 17 1024 77 10000 2.57 350 09:32 05.07.2022
550 Clear 15 1024 83 10000 4.12 320 08:19 05.07.2022
551 Clear 13 1023 88 10000 3.09 320 06:47 05.07.2022
552 Clear 14 1022 81 10000 3.6 320 04:28 05.07.2022
553 Clear 17 1023 70 10000 5.14 350 00:43 05.07.2022
554 Clear 19 1022 65 10000 5.66 330 23:36 04.07.2022
555 Clear 20 1021 63 10000 4.63 340 22:54 04.07.2022
556 Clear 22 1020 52 10000 6.17 330 21:56 04.07.2022
557 Clear 25 1020 41 10000 4.12 340 20:54 04.07.2022
558 Clear 25 1019 39 10000 4.12 330 20:35 04.07.2022
559 Clear 26 1019 37 10000 3.6 350 19:56 04.07.2022
560 Clear 26 1019 36 10000 3.6 340 19:36 04.07.2022
561 Clear 26 1019 36 10000 4.12 350 18:34 04.07.2022
562 Clear 26 1020 38 10000 3.6 320 16:42 04.07.2022
563 Clear 24 1020 42 10000 3.6 340 15:34 04.07.2022
564 Clear 23 1021 45 10000 2.57 350 13:41 04.07.2022
565 Clear 22 1021 49 10000 2.57 290 12:38 04.07.2022
566 Clouds 19 1022 61 10000 2.06 250 10:39 04.07.2022
567 Clouds 19 1022 61 10000 2.06 340 10:18 04.07.2022
568 Clear 16 1022 75 10000 1.54 340 08:31 04.07.2022
569 Clear 13 1022 82 10000 1.54 340 05:36 04.07.2022
570 Clear 17 1021 66 10000 3.6 340 00:43 04.07.2022
571 Clear 18 1021 61 10000 4.63 330 23:27 03.07.2022
572 Clear 20 1021 54 10000 4.12 330 22:23 03.07.2022
573 Clear 23 1020 44 8000 5.14 360 20:42 03.07.2022
574 Clear 24 1019 42 9000 5.14 310 19:42 03.07.2022
575 Clear 24 1019 42 9000 5.14 310 19:23 03.07.2022
576 Clear 25 1019 42 10000 4.12 280 17:46 03.07.2022
577 Clouds 25 1019 44 10000 4.63 270 17:18 03.07.2022
578 Clear 23 1020 49 10000 4.63 300 15:26 03.07.2022
579 Clouds 23 1020 51 10000 4.63 300 14:49 03.07.2022
580 Clouds 22 1020 55 10000 3.6 280 13:49 03.07.2022
581 Clouds 21 1020 59 10000 4.12 300 12:42 03.07.2022
582 Clouds 21 1020 61 10000 2.57 320 11:46 03.07.2022
583 Clear 20 1020 63 10000 2.06 330 10:51 03.07.2022
584 Clear 19 1020 66 10000 2.57 310 10:33 03.07.2022
585 Clear 14 1020 77 10000 3.09 330 07:38 03.07.2022
586 Clear 14 1019 76 10000 2.57 340 05:34 03.07.2022
587 Clear 19 1019 65 10000 6.17 350 00:26 03.07.2022
588 Clear 22 1017 48 10000 2.57 260 22:37 02.07.2022
589 Clear 23 1018 44 10000 2.57 210 22:18 02.07.2022
590 Clear 26 1017 36 10000 3.6 200 20:26 02.07.2022
591 Clear 27 1017 35 10000 3.09 190 19:49 02.07.2022
592 Clear 27 1018 35 10000 3.09 150 18:20 02.07.2022
593 Clear 27 1018 36 10000 2.57 0 17:38 02.07.2022
594 Clear 26 1018 38 10000 2.06 130 15:46 02.07.2022
595 Clear 24 1020 41 10000 2.57 210 13:35 02.07.2022
596 Clear 22 1021 45 10000 3.6 180 11:48 02.07.2022
597 Clear 22 1021 49 10000 2.57 130 10:50 02.07.2022
598 Clear 20 1021 56 10000 3.09 140 09:49 02.07.2022
599 Clear 16 1021 74 10000 2.06 140 08:37 02.07.2022
600 Clear 15 1022 80 10000 1.54 30 08:19 02.07.2022
601 Clear 13 1021 80 10000 1.54 280 02:59 02.07.2022
602 Clear 15 1021 67 10000 2.06 230 00:28 02.07.2022
603 Clear 17 1021 62 10000 1.54 250 23:26 01.07.2022
604 Clouds 19 1021 55 10000 1.54 220 22:33 01.07.2022
605 Clouds 20 1020 48 10000 3.09 250 21:38 01.07.2022
606 Clear 21 1020 47 10000 3.09 220 20:58 01.07.2022
607 Clear 21 1020 45 10000 4.12 230 20:32 01.07.2022
608 Clear 21 1020 45 10000 4.63 230 19:36 01.07.2022
609 Clear 21 1020 46 10000 4.12 250 17:18 01.07.2022
610 Clouds 20 1020 50 10000 4.63 290 14:34 01.07.2022
611 Clouds 20 1019 52 10000 3.09 240 13:54 01.07.2022
612 Clouds 18 1019 60 10000 4.12 290 11:22 01.07.2022
613 Clouds 17 1019 64 10000 4.63 280 10:19 01.07.2022
614 Clear 12 1019 94 10000 2.06 260 07:38 01.07.2022
615 Clear 12 1017 91 10000 2.57 190 02:43 01.07.2022
616 Clear 14 1016 84 10000 2.06 220 00:21 01.07.2022
617 Clouds 14 1016 84 10000 2.57 290 22:52 30.06.2022
618 Clear 15 1016 83 10000 3.09 260 22:32 30.06.2022
619 Clear 15 1015 82 10000 2.57 200 21:55 30.06.2022
620 Clouds 17 1014 75 10000 4.63 200 20:58 30.06.2022
621 Clouds 17 1015 78 10000 5.14 210 20:22 30.06.2022
622 Clouds 17 1014 77 10000 4.63 180 19:51 30.06.2022
623 Clouds 18 1014 78 10000 5.14 180 19:18 30.06.2022
624 Clouds 17 1014 80 10000 4.12 200 18:34 30.06.2022
625 Clouds 17 1015 82 10000 3.6 160 17:37 30.06.2022
626 Clouds 16 1014 82 10000 3.6 160 16:48 30.06.2022
627 Clouds 14 1014 93 10000 2.57 250 14:47 30.06.2022
628 Rain 14 1014 94 6000 3.09 210 13:30 30.06.2022
629 Rain 14 1013 93 10000 2.06 230 12:35 30.06.2022
630 Rain 14 1013 92 10000 2.57 240 11:28 30.06.2022
631 Rain 14 1013 93 7000 3.09 230 09:53 30.06.2022
632 Rain 14 1014 93 10000 3.09 210 09:32 30.06.2022
633 Rain 14 1013 91 10000 1.54 0 07:51 30.06.2022
634 Clouds 15 1013 85 10000 2.06 250 05:57 30.06.2022
635 Clear 18 1013 75 10000 5.14 290 00:32 30.06.2022
636 Clear 18 1013 73 10000 4.63 280 23:34 29.06.2022
637 Clear 20 1013 71 10000 6.69 280 22:39 29.06.2022
638 Clear 22 1012 61 10000 6.17 290 21:37 29.06.2022
639 Clear 24 1011 52 10000 4.12 280 20:34 29.06.2022
640 Clear 25 1011 46 10000 5.14 250 19:37 29.06.2022
641 Clear 26 1011 41 10000 4.12 240 17:45 29.06.2022
642 Clear 26 1012 40 7000 4.63 270 16:41 29.06.2022
643 Clear 26 1013 41 7000 4.12 210 15:19 29.06.2022
644 Clear 23 1014 46 9000 5.14 220 12:47 29.06.2022
645 Clear 23 1014 50 10000 5.14 240 11:32 29.06.2022
646 Clear 20 1014 60 10000 1.03 0 09:33 29.06.2022
647 Clear 18 1014 70 10000 2.57 310 08:26 29.06.2022
648 Clear 15 1014 77 10000 1.03 0 04:57 29.06.2022
649 Clear 18 1015 63 10000 2.57 330 01:48 29.06.2022
650 Clear 20 1015 57 10000 3.6 290 00:37 29.06.2022
651 Clear 21 1015 52 10000 2.57 280 22:56 28.06.2022
652 Clear 21 1016 50 10000 1.54 210 22:34 28.06.2022
653 Clear 23 1016 43 10000 2.57 210 21:55 28.06.2022
654 Clear 25 1015 38 10000 3.6 240 21:33 28.06.2022
655 Clear 26 1016 35 10000 3.6 250 20:50 28.06.2022
656 Clear 27 1016 32 10000 2.06 210 19:43 28.06.2022
657 Clear 27 1016 32 10000 4.12 260 19:23 28.06.2022
658 Clear 27 1016 33 10000 4.12 210 17:44 28.06.2022
659 Clear 27 1016 34 10000 5.14 170 16:24 28.06.2022
660 Clear 27 1017 34 10000 5.14 170 15:53 28.06.2022
661 Clear 25 1018 39 10000 4.12 210 14:21 28.06.2022
662 Clear 25 1018 39 10000 3.6 180 13:55 28.06.2022
663 Clear 24 1018 42 10000 3.09 240 13:26 28.06.2022
664 Clear 22 1019 52 10000 3.09 130 11:37 28.06.2022
665 Clear 19 1020 65 10000 3.6 90 09:41 28.06.2022
666 Clear 17 1021 72 10000 3.6 80 08:45 28.06.2022
667 Clear 15 1021 79 10000 2.57 70 07:58 28.06.2022
668 Clear 14 1021 84 10000 2.06 40 07:19 28.06.2022
669 Clear 16 1021 75 10000 3.6 330 01:36 28.06.2022
670 Clear 17 1021 65 10000 4.63 320 23:45 27.06.2022
671 Clear 18 1021 56 10000 3.09 260 22:55 27.06.2022
672 Clear 21 1019 44 10000 4.12 250 21:38 27.06.2022
673 Clear 21 1019 43 10000 4.12 250 21:38 27.06.2022
674 Clouds 22 1020 41 10000 4.63 260 20:55 27.06.2022
675 Clear 23 1018 39 10000 5.66 260 19:44 27.06.2022
676 Clear 23 1018 38 10000 4.63 250 18:40 27.06.2022
677 Clear 23 1018 40 10000 6.17 250 17:24 27.06.2022
678 Clear 23 1018 39 10000 5.66 230 15:43 27.06.2022
679 Clear 22 1017 49 10000 4.63 250 13:44 27.06.2022
680 Clouds 21 1017 54 10000 5.14 260 12:57 27.06.2022
681 Clear 17 1017 75 10000 3.6 300 10:43 27.06.2022
682 Clear 16 1017 83 10000 3.6 260 09:43 27.06.2022
683 Clear 15 1016 88 10000 2.06 200 08:38 27.06.2022
684 Clouds 15 1015 89 10000 2.06 190 07:39 27.06.2022
685 Clear 15 1015 84 10000 1.03 0 04:40 27.06.2022
686 Clear 16 1015 82 10000 2.57 240 01:20 27.06.2022
687 Clouds 18 1015 69 10000 2.06 170 22:48 26.06.2022
688 Clear 19 1014 63 10000 3.09 160 21:23 26.06.2022
689 Clouds 20 1014 58 10000 3.09 160 19:59 26.06.2022
690 Clouds 21 1014 55 10000 2.57 140 18:33 26.06.2022
691 Clouds 22 1014 53 10000 2.57 150 17:38 26.06.2022
692 Clear 21 1014 53 10000 2.57 160 15:35 26.06.2022
693 Clouds 21 1015 52 10000 2.06 150 13:59 26.06.2022
694 Clouds 20 1015 53 10000 2.57 0 13:23 26.06.2022
695 Clouds 19 1015 59 10000 1.54 0 11:39 26.06.2022
696 Clear 17 1016 68 10000 1.54 270 10:42 26.06.2022
697 Clear 16 1016 74 10000 1.54 0 09:55 26.06.2022
698 Clear 14 1015 89 10000 2.06 280 07:47 26.06.2022
699 Clear 13 1014 92 10000 2.57 230 05:26 26.06.2022
700 Clear 15 1013 87 10000 3.09 190 00:36 26.06.2022
701 Clear 15 1013 86 10000 3.6 200 00:18 26.06.2022
702 Clear 15 1013 84 10000 3.6 200 23:29 25.06.2022
703 Clear 15 1013 81 10000 3.6 200 22:42 25.06.2022
704 Clear 15 1012 79 10000 3.6 200 22:24 25.06.2022
705 Clear 17 1011 75 10000 2.57 190 21:21 25.06.2022
706 Clear 17 1011 74 10000 2.57 190 20:36 25.06.2022
707 Clear 17 1012 77 10000 3.6 190 19:56 25.06.2022
708 Clouds 17 1012 84 10000 4.12 140 18:22 25.06.2022
709 Clouds 17 1012 85 10000 1.54 240 17:26 25.06.2022
710 Clouds 17 1012 82 10000 1.54 160 16:26 25.06.2022
711 Rain 18 1011 79 8000 2.57 190 14:29 25.06.2022
712 Clouds 18 1011 75 10000 3.6 230 12:45 25.06.2022
713 Clouds 18 1011 74 10000 3.09 230 11:55 25.06.2022
714 Clouds 17 1011 80 10000 3.09 240 09:24 25.06.2022
715 Rain 17 1011 80 10000 3.6 250 08:49 25.06.2022
716 Clouds 17 1011 80 10000 3.6 250 08:20 25.06.2022
717 Clouds 17 1010 86 10000 3.09 210 06:35 25.06.2022
718 Clear 19 1009 70 10000 4.63 220 00:45 25.06.2022
719 Clear 19 1009 70 10000 4.63 220 23:54 24.06.2022
720 Clear 20 1009 64 10000 3.6 210 22:26 24.06.2022
721 Clear 22 1008 60 10000 5.14 220 21:22 24.06.2022
722 Clouds 22 1007 60 10000 6.69 240 20:23 24.06.2022
723 Clouds 23 1007 60 10000 7.2 230 19:24 24.06.2022
724 Clouds 23 1008 61 10000 5.66 230 18:51 24.06.2022
725 Clouds 24 1007 57 10000 6.69 250 18:31 24.06.2022
726 Clouds 22 1007 61 10000 7.2 250 17:49 24.06.2022
727 Clouds 23 1007 64 10000 7.72 240 16:45 24.06.2022
728 Clouds 23 1007 64 10000 7.72 240 16:45 24.06.2022
729 Clouds 23 1007 67 10000 6.69 230 14:30 24.06.2022
730 Clouds 22 1007 66 10000 5.66 200 13:58 24.06.2022
731 Clouds 23 1007 63 10000 5.66 200 13:35 24.06.2022
732 Clouds 22 1007 68 10000 5.14 220 11:41 24.06.2022
733 Clouds 20 1008 79 10000 4.63 210 10:36 24.06.2022
734 Clouds 19 1008 87 10000 3.09 220 09:41 24.06.2022
735 Clouds 18 1008 89 10000 3.09 230 08:53 24.06.2022
736 Clouds 18 1008 92 10000 3.6 220 07:56 24.06.2022
737 Clear 18 1008 94 10000 2.06 220 06:43 24.06.2022
738 Clouds 18 1008 92 10000 2.06 190 06:20 24.06.2022
739 Rain 19 1008 86 10000 4.12 230 04:41 24.06.2022
740 Clear 24 1008 59 10000 2.06 250 23:24 23.06.2022
741 Clear 24 1008 56 10000 3.09 260 22:42 23.06.2022
742 Clear 26 1008 50 10000 3.6 230 20:59 23.06.2022
743 Clear 26 1008 49 10000 3.09 230 20:36 23.06.2022
744 Clear 27 1007 48 10000 3.6 240 19:48 23.06.2022
745 Clear 28 1008 46 10000 4.12 150 18:26 23.06.2022
746 Clear 28 1008 46 10000 3.09 210 17:34 23.06.2022
747 Clear 27 1009 49 10000 3.6 170 16:26 23.06.2022
748 Clear 27 1009 51 10000 3.09 220 15:26 23.06.2022
749 Clouds 26 1010 56 9000 4.63 160 14:18 23.06.2022
750 Clouds 23 1010 67 10000 4.12 200 11:33 23.06.2022
751 Clouds 22 1011 72 10000 4.12 200 10:40 23.06.2022
752 Clouds 20 1011 80 10000 4.63 200 09:19 23.06.2022
753 Mist 19 1009 92 5000 3.6 220 04:43 23.06.2022
754 Clear 21 1010 79 10000 4.12 70 00:27 23.06.2022
755 Clouds 22 1010 74 10000 3.6 50 23:49 22.06.2022
756 Clouds 22 1010 73 10000 3.09 60 22:53 22.06.2022
757 Clear 24 1009 67 10000 4.12 50 21:36 22.06.2022
758 Clear 24 1009 64 10000 3.6 50 20:51 22.06.2022
759 Clouds 24 1009 64 10000 5.14 60 20:18 22.06.2022
760 Clear 25 1009 61 10000 4.63 50 19:27 22.06.2022
761 Clear 25 1008 61 10000 5.14 50 17:33 22.06.2022
762 Clear 25 1010 66 10000 5.14 70 16:41 22.06.2022
763 Clear 25 1010 66 10000 5.14 70 16:41 22.06.2022
764 Clear 24 1010 68 10000 3.6 60 15:28 22.06.2022
765 Clear 23 1011 70 10000 3.6 40 14:47 22.06.2022
766 Clear 23 1010 67 10000 4.12 70 13:47 22.06.2022
767 Clear 22 1010 67 10000 3.6 90 13:24 22.06.2022
768 Clear 20 1010 68 10000 2.57 30 11:54 22.06.2022
769 Clear 20 1010 69 10000 3.6 40 11:29 22.06.2022
770 Clear 18 1010 72 10000 3.6 10 10:43 22.06.2022
771 Clear 17 1010 75 10000 4.12 360 09:18 22.06.2022
772 Clouds 17 1010 76 10000 3.13 42 06:55 22.06.2022
773 Clear 19 1010 68 10000 5.14 20 02:26 22.06.2022
774 Clear 20 1011 61 10000 4.12 40 00:57 22.06.2022
775 Clear 23 1011 63 10000 3.6 40 22:49 21.06.2022
776 Clear 25 1010 59 10000 4.12 20 20:58 21.06.2022
777 Clear 26 1009 57 10000 3.09 60 19:23 21.06.2022
778 Clouds 27 1009 55 10000 3.09 50 17:54 21.06.2022
779 Clouds 26 1010 56 10000 3.6 20 16:47 21.06.2022
780 Clouds 20 1012 76 10000 2.06 150 11:59 21.06.2022
781 Clouds 18 1012 79 10000 3.09 70 10:46 21.06.2022
782 Clouds 17 1012 81 10000 4.12 40 09:24 21.06.2022
783 Clouds 15 1011 89 10000 3.09 30 07:50 21.06.2022
784 Clouds 17 1013 76 10000 3.6 50 04:57 21.06.2022
785 Clear 18 1014 68 10000 5.14 60 00:31 21.06.2022
786 Clear 20 1014 62 10000 5.66 50 22:21 20.06.2022
787 Clear 21 1014 60 10000 5.66 60 21:40 20.06.2022
788 Clouds 22 1014 59 10000 5.66 40 20:30 20.06.2022
789 Clear 22 1014 62 10000 5.66 60 19:37 20.06.2022
790 Clouds 22 1014 64 10000 5.66 40 18:34 20.06.2022
791 Clouds 22 1014 65 10000 5.66 40 17:49 20.06.2022
792 Clouds 22 1015 68 10000 5.14 50 16:36 20.06.2022
793 Clouds 21 1015 69 10000 4.63 30 15:52 20.06.2022
794 Clouds 16 1015 88 10000 4.12 40 12:37 20.06.2022
795 Clouds 15 1015 93 9000 4.63 20 10:22 20.06.2022
796 Mist 15 1014 95 10000 4.63 20 08:56 20.06.2022
797 Mist 15 1013 94 10000 4.12 20 07:53 20.06.2022
798 Mist 16 1011 95 9000 3.6 310 05:26 20.06.2022
799 Rain 17 1011 92 6000 6.17 50 01:33 20.06.2022
800 Rain 17 1012 88 9000 3.6 20 00:25 20.06.2022
801 Thunderstorm 20 1008 79 10000 5.14 360 22:46 19.06.2022
802 Clear 22 1009 68 10000 5.66 10 21:48 19.06.2022
803 Clear 22 1009 67 10000 6.17 20 21:48 19.06.2022
804 Clear 22 1008 67 10000 6.17 20 21:29 19.06.2022
805 Clear 23 1008 64 10000 5.14 10 20:38 19.06.2022
806 Clear 24 1008 62 10000 5.66 40 19:47 19.06.2022
807 Clear 25 1008 59 10000 5.66 30 18:43 19.06.2022
808 Clear 24 1009 56 10000 6.17 30 17:48 19.06.2022
809 Clear 24 1009 58 10000 5.66 40 17:22 19.06.2022
810 Clear 23 1009 59 10000 6.69 50 16:34 19.06.2022
811 Clear 21 1010 64 10000 7.72 20 15:41 19.06.2022
812 Clear 21 1010 68 10000 7.2 360 14:57 19.06.2022
813 Clouds 21 1010 69 10000 8.75 10 14:19 19.06.2022
814 Clouds 21 1011 73 10000 4.63 20 13:21 19.06.2022
815 Clouds 16 1011 86 10000 4.63 70 10:55 19.06.2022
816 Clouds 16 1010 88 10000 4.12 310 09:46 19.06.2022
817 Rain 16 1009 87 10000 5.14 30 08:47 19.06.2022
818 Thunderstorm 16 1009 89 10000 6.69 10 07:59 19.06.2022
819 Clouds 17 1010 79 10000 6.69 320 05:37 19.06.2022
820 Clear 28 1006 54 10000 4.12 350 01:30 19.06.2022
821 Clear 29 1006 51 10000 3.09 150 00:25 19.06.2022
822 Clear 29 1006 53 10000 2.57 140 23:36 18.06.2022
823 Clear 30 1006 48 10000 2.57 110 22:39 18.06.2022
824 Clear 35 1007 37 10000 4.12 110 20:57 18.06.2022
825 Clear 35 1008 35 10000 4.63 100 20:38 18.06.2022
826 Clear 36 1008 31 10000 5.14 100 19:40 18.06.2022
827 Clear 36 1008 30 9000 5.14 110 18:53 18.06.2022
828 Clear 36 1011 31 9000 4.12 150 17:35 18.06.2022
829 Clear 36 1011 31 9000 4.12 140 16:59 18.06.2022
830 Clear 36 1013 33 10000 4.12 140 15:37 18.06.2022
831 Clear 35 1014 33 10000 4.12 130 14:46 18.06.2022
832 Clear 34 1015 32 10000 4.12 140 13:42 18.06.2022
833 Clear 32 1016 39 10000 2.57 160 11:58 18.06.2022
834 Clear 30 1017 46 10000 1.54 170 10:56 18.06.2022
835 Clear 30 1017 47 10000 1.54 170 10:56 18.06.2022
836 Clear 26 1017 55 10000 2.06 30 09:28 18.06.2022
837 Clear 24 1017 62 10000 1.54 160 08:32 18.06.2022
838 Clear 22 1018 67 10000 1.54 30 07:23 18.06.2022
839 Clear 22 1020 69 10000 2.06 40 03:58 18.06.2022
840 Clear 25 1020 56 10000 1.54 60 01:27 18.06.2022
841 Clear 25 1020 59 10000 1.54 60 00:49 18.06.2022
842 Clear 26 1020 55 10000 1.54 70 00:21 18.06.2022
843 Clear 27 1020 52 10000 1.54 90 23:29 17.06.2022
844 Clear 31 1020 42 10000 1.54 270 21:33 17.06.2022
845 Clear 33 1020 36 10000 2.57 270 20:28 17.06.2022
846 Clear 34 1020 29 10000 2.57 260 18:59 17.06.2022
847 Clear 34 1020 28 10000 1.54 0 17:46 17.06.2022
848 Clear 34 1020 30 10000 2.06 140 16:43 17.06.2022
849 Clear 33 1021 30 10000 2.57 250 16:19 17.06.2022
850 Clear 33 1021 32 10000 3.09 230 15:37 17.06.2022
851 Clear 31 1022 33 10000 2.06 270 14:22 17.06.2022
852 Clear 31 1022 34 10000 2.06 270 13:51 17.06.2022
853 Clear 30 1022 34 10000 2.06 140 13:31 17.06.2022
854 Clear 29 1022 37 10000 2.57 170 12:20 17.06.2022
855 Clear 29 1022 38 10000 2.57 170 11:49 17.06.2022
856 Clear 28 1022 40 10000 2.57 170 11:30 17.06.2022
857 Clear 22 1022 61 10000 3.09 120 08:45 17.06.2022
858 Clear 21 1022 65 10000 3.09 120 08:24 17.06.2022
859 Clear 19 1022 68 10000 2.06 120 06:35 17.06.2022
860 Clear 20 1022 59 10000 2.06 90 03:25 17.06.2022
861 Clear 20 1023 60 10000 2.57 70 01:55 17.06.2022
862 Clear 24 1022 46 10000 2.57 50 23:34 16.06.2022
863 Clear 24 1022 45 10000 2.57 40 22:40 16.06.2022
864 Clear 28 1021 37 10000 2.06 350 21:21 16.06.2022
865 Clear 28 1021 36 10000 2.06 350 20:51 16.06.2022
866 Clear 28 1021 34 10000 2.06 340 20:27 16.06.2022
867 Clear 30 1020 30 10000 2.06 350 19:31 16.06.2022
868 Clear 30 1020 29 10000 3.09 70 17:57 16.06.2022
869 Clear 29 1020 29 10000 3.6 30 17:33 16.06.2022
870 Clear 29 1020 31 10000 4.12 60 16:24 16.06.2022
871 Clear 29 1021 32 10000 2.57 60 15:21 16.06.2022
872 Clear 28 1021 33 10000 3.09 80 14:27 16.06.2022
873 Clear 26 1021 38 10000 3.09 70 12:59 16.06.2022
874 Clear 26 1021 39 10000 3.6 40 12:35 16.06.2022
875 Clear 25 1022 42 10000 3.6 330 11:49 16.06.2022
876 Clear 23 1021 50 10000 3.09 360 10:42 16.06.2022
877 Clear 21 1022 58 10000 3.6 360 09:43 16.06.2022
878 Clear 21 1021 60 10000 3.6 360 09:20 16.06.2022
879 Clear 19 1020 70 10000 2.06 320 07:57 16.06.2022
880 Clear 17 1019 76 10000 3.09 350 06:51 16.06.2022
881 Clear 18 1018 71 10000 3.09 350 04:28 16.06.2022
882 Clear 21 1017 58 10000 4.12 340 01:53 16.06.2022
883 Clear 21 1017 57 10000 4.12 350 01:34 16.06.2022
884 Clear 22 1018 52 10000 4.12 20 00:36 16.06.2022
885 Clear 24 1017 47 10000 5.14 20 23:25 15.06.2022
886 Clear 25 1016 43 10000 3.6 350 22:28 15.06.2022
887 Clear 28 1016 37 10000 4.63 320 21:21 15.06.2022
888 Clear 29 1016 34 10000 4.12 320 20:38 15.06.2022
889 Clear 30 1016 33 10000 4.63 320 20:19 15.06.2022
890 Clear 31 1016 32 10000 3.6 340 18:51 15.06.2022
891 Clear 31 1015 33 10000 3.6 350 17:55 15.06.2022
892 Clear 30 1015 34 10000 2.57 360 16:40 15.06.2022
893 Clear 29 1016 37 10000 3.09 320 15:35 15.06.2022
894 Clear 28 1016 40 10000 2.57 40 13:43 15.06.2022
895 Clear 27 1016 43 10000 3.09 30 12:54 15.06.2022
896 Clear 26 1016 45 10000 4.12 50 11:52 15.06.2022
897 Clear 22 1016 55 10000 3.6 40 10:24 15.06.2022
898 Clouds 21 1016 58 10000 2.68 39 09:39 15.06.2022
899 Clear 18 1016 71 10000 3.09 60 08:30 15.06.2022
900 Clouds 16 1016 77 10000 2.57 30 06:34 15.06.2022
901 Clear 16 1016 72 10000 2.57 30 03:59 15.06.2022
902 Clear 18 1017 66 10000 3.09 40 01:54 15.06.2022
903 Clear 18 1017 62 10000 3.09 50 00:50 15.06.2022
904 Clear 20 1017 58 10000 3.6 20 23:39 14.06.2022
905 Clear 20 1017 56 10000 3.09 80 23:19 14.06.2022
906 Clear 22 1016 49 10000 3.09 30 22:21 14.06.2022
907 Clear 24 1016 43 10000 3.6 40 21:36 14.06.2022
908 Clear 25 1016 38 10000 3.6 50 20:54 14.06.2022
909 Clear 25 1016 40 10000 3.6 50 20:28 14.06.2022
910 Clear 26 1017 37 10000 3.6 50 19:18 14.06.2022
911 Clear 26 1017 37 10000 3.6 60 17:54 14.06.2022
912 Clear 25 1018 39 10000 4.12 90 16:43 14.06.2022
913 Clear 25 1018 40 10000 4.12 50 15:50 14.06.2022
914 Clear 25 1018 41 10000 4.63 50 15:24 14.06.2022
915 Clear 24 1018 42 10000 4.63 70 14:33 14.06.2022
916 Clear 24 1019 43 10000 3.6 100 13:42 14.06.2022
917 Clear 23 1020 46 10000 3.6 60 12:45 14.06.2022
918 Clear 21 1020 49 10000 4.12 80 11:38 14.06.2022
919 Clear 20 1020 53 10000 4.12 70 10:48 14.06.2022
920 Clear 19 1021 58 10000 3.09 60 10:22 14.06.2022
921 Clear 16 1021 65 10000 3.6 50 08:48 14.06.2022
922 Clouds 15 1021 72 10000 4.12 60 07:49 14.06.2022
923 Clear 13 1021 74 10000 3.6 60 05:29 14.06.2022
924 Clear 15 1022 69 10000 3.09 60 03:20 14.06.2022
925 Clear 16 1023 66 10000 3.09 80 00:54 14.06.2022
926 Clear 18 1022 59 10000 4.12 60 23:41 13.06.2022
927 Clear 19 1022 53 10000 4.12 70 22:26 13.06.2022
928 Clear 20 1022 49 10000 5.14 60 21:52 13.06.2022
929 Clear 22 1022 44 10000 4.63 50 20:42 13.06.2022
930 Clear 23 1022 41 10000 3.6 350 19:35 13.06.2022
931 Clear 24 1022 39 10000 4.12 330 18:31 13.06.2022
932 Clear 23 1022 41 10000 3.09 0 17:48 13.06.2022
933 Clear 23 1023 42 10000 3.09 10 16:53 13.06.2022
934 Clear 23 1023 43 10000 3.09 20 15:41 13.06.2022
935 Clear 22 1024 45 10000 3.09 30 14:47 13.06.2022
936 Clear 21 1024 47 10000 3.09 320 13:55 13.06.2022
937 Clouds 20 1024 49 10000 3.6 340 12:59 13.06.2022
938 Clear 19 1025 55 10000 2.57 330 11:38 13.06.2022
939 Clear 17 1024 65 10000 3.6 340 10:28 13.06.2022
940 Clear 16 1024 73 10000 3.09 330 09:42 13.06.2022
941 Clear 14 1024 82 10000 4.12 320 08:25 13.06.2022
942 Clear 11 1024 86 10000 2.57 320 06:34 13.06.2022
943 Clear 13 1023 75 10000 4.63 330 03:45 13.06.2022
944 Clear 15 1023 65 10000 3.6 340 01:39 13.06.2022
945 Clear 16 1023 62 10000 4.63 340 00:48 13.06.2022
946 Clear 17 1023 58 10000 5.14 330 23:33 12.06.2022
947 Clear 19 1022 55 10000 6.17 320 22:23 12.06.2022
948 Clear 21 1022 52 10000 5.66 320 21:40 12.06.2022
949 Clear 22 1022 46 9000 5.66 310 20:40 12.06.2022
950 Clear 24 1021 41 9000 4.63 320 19:42 12.06.2022
951 Clear 24 1021 41 10000 4.12 350 18:44 12.06.2022
952 Clear 24 1022 41 10000 4.63 320 16:44 12.06.2022
953 Clear 23 1022 45 10000 3.6 350 15:33 12.06.2022
954 Clear 23 1023 46 10000 4.12 330 14:41 12.06.2022
955 Clear 23 1023 48 10000 3.09 320 14:18 12.06.2022
956 Clear 23 1023 49 10000 3.09 320 13:43 12.06.2022
957 Clouds 21 1024 54 10000 3.09 350 11:58 12.06.2022
958 Clouds 19 1024 58 10000 3.6 360 10:46 12.06.2022
959 Clouds 17 1025 65 10000 3.6 10 09:36 12.06.2022
960 Clear 16 1024 72 10000 2.68 43 08:49 12.06.2022
961 Clouds 15 1024 74 10000 3.6 10 07:49 12.06.2022
962 Clear 13 1024 81 10000 2.57 350 06:21 12.06.2022
963 Clear 15 1024 74 10000 3.6 10 03:44 12.06.2022
964 Clear 17 1024 68 10000 4.12 30 01:49 12.06.2022
965 Clear 17 1024 68 10000 4.12 10 01:29 12.06.2022
966 Clear 18 1024 67 10000 5.14 10 00:43 12.06.2022
967 Clear 18 1023 68 10000 5.14 10 00:18 12.06.2022
968 Clear 20 1023 66 10000 3.6 350 23:18 11.06.2022
969 Clear 21 1023 62 10000 4.12 340 22:35 11.06.2022
970 Clear 24 1022 55 10000 3.09 340 21:18 11.06.2022
971 Clear 24 1022 55 10000 3.09 340 21:18 11.06.2022
972 Clear 25 1022 52 10000 3.6 320 20:26 11.06.2022
973 Clear 26 1022 50 10000 3.6 290 19:33 11.06.2022
974 Clear 25 1022 51 10000 4.12 290 18:43 11.06.2022
975 Clear 26 1022 50 10000 4.12 290 18:25 11.06.2022
976 Clear 25 1022 51 10000 3.6 320 17:47 11.06.2022
977 Clear 26 1022 50 10000 3.6 320 17:25 11.06.2022
978 Clouds 26 1022 51 10000 3.09 340 16:42 11.06.2022
979 Clouds 25 1022 52 10000 3.6 270 16:18 11.06.2022
980 Clouds 25 1023 54 10000 2.06 300 14:44 11.06.2022
981 Clouds 24 1023 58 10000 2.57 270 13:52 11.06.2022
982 Clouds 21 1023 69 10000 2.57 360 11:55 11.06.2022
983 Clouds 20 1023 74 10000 2.57 10 10:30 11.06.2022
984 Clouds 19 1023 80 10000 3.09 10 09:41 11.06.2022
985 Clouds 17 1023 88 10000 1.54 10 08:38 11.06.2022
986 Clear 15 1023 93 10000 2.06 320 06:33 11.06.2022
987 Clear 15 1022 92 10000 2.57 310 05:33 11.06.2022
988 Clear 16 1022 88 10000 1.54 40 03:18 11.06.2022
989 Clear 16 1022 88 10000 1.54 260 01:51 11.06.2022
990 Clear 16 1022 88 10000 2.06 280 01:25 11.06.2022
991 Clear 18 1022 78 10000 1.54 260 23:26 10.06.2022
992 Clear 20 1022 71 10000 2.06 250 22:20 10.06.2022
993 Clouds 21 1022 67 10000 2.06 250 21:44 10.06.2022
994 Clouds 22 1022 63 10000 3.6 270 20:39 10.06.2022
995 Clouds 23 1021 62 10000 4.12 250 20:19 10.06.2022
996 Clouds 23 1022 64 10000 4.12 290 19:19 10.06.2022
997 Clouds 23 1022 64 10000 4.12 290 19:19 10.06.2022
998 Clouds 22 1022 65 10000 4.63 260 18:32 10.06.2022
999 Clouds 22 1022 64 10000 4.63 280 17:50 10.06.2022
1000 Clouds 23 1022 63 10000 4.63 240 17:21 10.06.2022
1001 Clouds 22 1022 62 10000 4.63 230 16:26 10.06.2022
1002 Clouds 23 1022 60 9000 5.14 230 15:39 10.06.2022
1003 Clouds 22 1022 60 9000 5.66 200 14:24 10.06.2022
1004 Clouds 22 1022 60 10000 6.17 200 12:57 10.06.2022
1005 Clouds 22 1022 59 10000 5.66 200 11:59 10.06.2022
1006 Clear 20 1022 64 10000 4.63 200 10:46 10.06.2022
1007 Clouds 19 1022 71 10000 3.09 210 09:56 10.06.2022
1008 Clear 17 1022 78 10000 3.09 240 08:47 10.06.2022
1009 Clear 15 1022 83 10000 2.57 220 07:31 10.06.2022
1010 Clear 15 1022 84 10000 2.57 220 06:45 10.06.2022
1011 Clear 15 1022 83 10000 2.57 220 06:26 10.06.2022
1012 Clear 15 1021 81 10000 3.09 200 04:47 10.06.2022
1013 Clear 17 1021 75 10000 2.06 180 01:59 10.06.2022
1014 Clear 17 1021 73 10000 1.54 190 01:36 10.06.2022
1015 Clear 17 1021 73 10000 1.54 190 01:36 10.06.2022
1016 Clear 18 1021 69 10000 1.54 210 23:57 09.06.2022
1017 Clear 19 1021 65 10000 2.57 260 22:22 09.06.2022
1018 Clear 19 1021 63 10000 3.6 280 21:37 09.06.2022
1019 Clouds 19 1021 60 10000 4.63 280 21:18 09.06.2022
1020 Clouds 20 1021 57 10000 4.12 270 20:27 09.06.2022
1021 Clear 20 1020 53 10000 4.12 270 19:31 09.06.2022
1022 Clear 21 1020 49 10000 5.66 280 18:35 09.06.2022
1023 Clear 22 1020 46 10000 5.14 300 17:25 09.06.2022
1024 Clear 21 1019 46 9000 4.12 280 16:21 09.06.2022
1025 Clouds 20 1019 52 10000 5.14 270 14:42 09.06.2022
1026 Clouds 20 1019 53 10000 5.14 270 14:23 09.06.2022
1027 Clouds 19 1019 57 10000 5.66 290 13:30 09.06.2022
1028 Clouds 18 1018 61 10000 5.14 280 12:50 09.06.2022
1029 Clouds 17 1018 66 10000 5.66 300 11:20 09.06.2022
1030 Clouds 16 1018 75 10000 6.69 300 09:55 09.06.2022
1031 Clouds 16 1018 75 10000 6.69 300 09:55 09.06.2022
1032 Clouds 15 1017 78 10000 5.66 310 09:36 09.06.2022
1033 Clouds 14 1017 84 10000 5.14 280 08:27 09.06.2022
1034 Clear 13 1016 89 10000 5.14 270 07:24 09.06.2022
1035 Clouds 13 1014 85 10000 4.63 280 03:29 09.06.2022
1036 Clear 15 1013 82 10000 4.12 280 00:34 09.06.2022
1037 Rain 16 1012 78 10000 2.57 300 23:18 08.06.2022
1038 Clear 16 1012 73 10000 3.09 280 22:42 08.06.2022
1039 Clear 17 1012 70 10000 4.63 300 22:23 08.06.2022
1040 Clouds 18 1011 66 10000 5.66 300 21:32 08.06.2022
1041 Clouds 19 1011 63 10000 8.75 310 20:25 08.06.2022
1042 Clouds 20 1010 57 10000 8.23 280 19:41 08.06.2022
1043 Clouds 21 1009 57 10000 7.2 280 18:48 08.06.2022
1044 Clear 21 1009 54 10000 6.69 280 17:41 08.06.2022
1045 Clear 20 1008 60 10000 7.72 280 15:54 08.06.2022
1046 Clouds 20 1008 70 10000 7.2 300 14:38 08.06.2022
1047 Rain 19 1008 80 10000 5.14 250 12:55 08.06.2022
1048 Clouds 19 1008 80 10000 5.14 250 12:55 08.06.2022
1049 Rain 19 1008 80 10000 5.14 250 12:55 08.06.2022
1050 Clouds 16 1008 95 10000 4.63 240 11:36 08.06.2022
1051 Clouds 16 1008 95 10000 4.12 210 10:51 08.06.2022
1052 Mist 15 1008 95 3900 4.12 200 09:28 08.06.2022
1053 Rain 14 1008 96 5000 4.12 180 08:54 08.06.2022
1054 Rain 14 1009 95 7000 3.09 170 06:56 08.06.2022
1055 Rain 15 1010 88 10000 3.09 220 04:47 08.06.2022
1056 Clear 17 1012 75 10000 2.06 230 01:25 08.06.2022
1057 Clouds 18 1013 70 10000 3.09 200 23:32 07.06.2022
1058 Clear 18 1013 69 10000 4.12 210 22:54 07.06.2022
1059 Clouds 19 1013 66 10000 4.12 200 22:34 07.06.2022
1060 Clear 20 1013 60 10000 5.14 230 21:41 07.06.2022
1061 Clear 20 1013 60 10000 5.14 230 21:20 07.06.2022
1062 Clouds 21 1013 57 10000 6.17 230 20:42 07.06.2022
1063 Clear 22 1013 55 10000 6.17 230 19:57 07.06.2022
1064 Clouds 23 1013 46 10000 6.17 250 18:26 07.06.2022
1065 Clouds 22 1014 53 10000 6.69 230 17:33 07.06.2022
1066 Clear 22 1014 57 10000 6.69 240 16:47 07.06.2022
1067 Clear 22 1014 57 10000 6.69 240 16:28 07.06.2022
1068 Clouds 22 1014 57 10000 5.66 240 15:37 07.06.2022
1069 Clouds 22 1014 58 10000 7.2 250 15:18 07.06.2022
1070 Clouds 21 1014 62 10000 6.69 250 14:43 07.06.2022
1071 Clouds 20 1014 63 10000 7.72 250 13:38 07.06.2022
1072 Clouds 20 1015 65 10000 6.17 220 13:20 07.06.2022
1073 Clouds 19 1015 71 10000 6.69 250 11:56 07.06.2022
1074 Clouds 18 1015 78 10000 6.69 250 10:53 07.06.2022
1075 Clouds 16 1015 89 10000 4.63 240 09:26 07.06.2022
1076 Clouds 16 1014 91 10000 4.63 230 08:22 07.06.2022
1077 Clouds 16 1014 91 6000 4.63 200 07:18 07.06.2022
1078 Clouds 15 1014 86 10000 3.09 210 04:52 07.06.2022
1079 Clear 16 1016 75 10000 2.06 220 01:28 07.06.2022
1080 Clear 17 1016 70 10000 2.57 210 23:59 06.06.2022
1081 Clear 17 1017 67 10000 3.09 220 22:59 06.06.2022
1082 Clear 18 1016 61 10000 3.6 230 22:30 06.06.2022
1083 Clear 20 1016 56 10000 5.14 230 21:28 06.06.2022
1084 Clear 21 1016 49 10000 5.14 220 19:29 06.06.2022
1085 Clear 21 1016 48 10000 4.63 240 18:59 06.06.2022
1086 Clear 21 1016 48 10000 5.66 240 18:33 06.06.2022
1087 Clear 21 1016 49 10000 5.14 250 17:31 06.06.2022
1088 Clear 21 1016 49 10000 4.63 250 16:21 06.06.2022
1089 Clear 21 1017 50 10000 6.17 230 15:33 06.06.2022
1090 Clouds 21 1017 51 10000 5.66 240 14:36 06.06.2022
1091 Clear 20 1017 53 10000 5.14 260 13:27 06.06.2022
1092 Clouds 19 1017 57 10000 4.63 240 12:37 06.06.2022
1093 Clouds 19 1017 60 10000 5.14 240 11:54 06.06.2022
1094 Clouds 18 1017 68 10000 4.63 240 10:46 06.06.2022
1095 Clear 16 1018 76 10000 4.12 240 09:40 06.06.2022
1096 Clear 15 1018 81 10000 4.12 260 08:35 06.06.2022
1097 Clear 13 1017 88 10000 2.06 250 07:28 06.06.2022
1098 Clear 13 1017 90 10000 2.57 230 05:29 06.06.2022
1099 Clear 13 1017 90 10000 2.57 230 05:29 06.06.2022
1100 Clear 13 1017 90 10000 2.57 230 05:29 06.06.2022
1101 Clear 14 1017 90 10000 3.09 270 03:46 06.06.2022
1102 Clouds 16 1017 89 10000 1.54 250 01:29 06.06.2022
1103 Clouds 16 1018 89 10000 3.09 320 00:42 06.06.2022
1104 Clouds 17 1017 88 10000 1.54 0 23:49 05.06.2022
1105 Clouds 17 1017 84 10000 2.57 290 22:52 05.06.2022
1106 Clear 18 1017 82 10000 4.12 300 21:26 05.06.2022
1107 Clouds 21 1016 74 10000 6.17 230 19:52 05.06.2022
1108 Clouds 22 1015 67 10000 5.66 240 18:31 05.06.2022
1109 Clouds 22 1016 67 10000 5.66 240 18:31 05.06.2022
1110 Clouds 22 1015 66 10000 4.63 290 17:56 05.06.2022
1111 Clouds 22 1015 68 10000 6.69 280 17:27 05.06.2022
1112 Clouds 21 1016 70 10000 7.72 300 16:58 05.06.2022
1113 Clouds 21 1016 72 10000 8.23 280 16:37 05.06.2022
1114 Clouds 21 1015 77 10000 7.2 290 14:46 05.06.2022
1115 Clouds 20 1014 83 10000 6.17 290 13:21 05.06.2022
1116 Clouds 20 1014 84 10000 3.6 250 11:51 05.06.2022
1117 Clear 20 1013 85 10000 3.6 240 10:44 05.06.2022
1118 Clear 20 1013 86 10000 3.6 240 10:23 05.06.2022
1119 Clouds 18 1013 94 10000 2.06 120 08:45 05.06.2022
1120 Clouds 18 1013 94 10000 2.06 120 08:21 05.06.2022
1121 Clear 16 1013 97 10000 2.06 250 05:23 05.06.2022
1122 Mist 16 1012 95 10000 1.54 270 04:33 05.06.2022
1123 Clear 17 1015 94 10000 2.57 170 01:45 05.06.2022
1124 Clear 17 1015 94 10000 2.57 170 01:45 05.06.2022
1125 Clear 17 1015 94 10000 2.57 170 01:45 05.06.2022
1126 Clear 17 1015 94 10000 2.57 170 01:45 05.06.2022
1127 Clear 17 1014 93 10000 2.57 170 01:23 05.06.2022
1128 Clear 17 1015 93 10000 4.63 70 22:45 04.06.2022
1129 Clouds 18 1015 94 10000 5.66 60 21:21 04.06.2022
1130 Rain 19 1015 89 2400 6.17 280 18:54 04.06.2022
1131 Clear 27 1014 52 10000 3.6 100 16:48 04.06.2022
1132 Thunderstorm 26 1014 54 10000 5.66 110 16:48 04.06.2022
1133 Clear 27 1014 52 10000 2.57 70 16:20 04.06.2022
1134 Clear 28 1014 49 10000 2.06 0 15:35 04.06.2022
1135 Clear 27 1016 52 10000 3.09 30 13:57 04.06.2022
1136 Clouds 22 1016 75 10000 2.57 30 11:28 04.06.2022
1137 Clear 20 1016 84 10000 2.57 180 10:52 04.06.2022
1138 Thunderstorm 17 1016 96 10000 2.06 70 09:46 04.06.2022
1139 Rain 17 1015 93 10000 2.06 360 08:50 04.06.2022
1140 Clear 17 1015 92 10000 3.09 110 08:31 04.06.2022
1141 Clear 16 1014 94 9000 3.09 90 06:25 04.06.2022
1142 Clouds 17 1014 94 9000 3.6 40 03:37 04.06.2022
1143 Clear 18 1014 92 10000 4.12 40 00:22 04.06.2022
1144 Clear 18 1014 87 10000 3.09 40 22:56 03.06.2022
1145 Clear 20 1014 81 10000 2.57 30 21:52 03.06.2022
1146 Clear 21 1014 77 10000 2.06 40 20:40 03.06.2022
1147 Clear 21 1014 76 10000 1.54 0 19:37 03.06.2022
1148 Clouds 20 1014 88 10000 2.06 90 16:58 03.06.2022
1149 Rain 19 1014 86 10000 3.09 170 15:55 03.06.2022
1150 Rain 21 1014 70 10000 3.6 170 14:25 03.06.2022
1151 Clear 22 1014 60 10000 2.57 20 12:21 03.06.2022
1152 Clear 18 1014 61 10000 3.6 50 09:57 03.06.2022
1153 Clear 18 1014 62 10000 3.09 40 09:29 03.06.2022
1154 Clear 18 1014 62 10000 3.09 40 09:29 03.06.2022
1155 Clear 16 1014 66 10000 3.6 50 07:47 03.06.2022
1156 Clear 15 1014 65 10000 2.57 360 07:19 03.06.2022
1157 Clear 14 1014 66 10000 2.57 30 06:29 03.06.2022
1158 Clear 15 1015 63 10000 3.09 40 03:52 03.06.2022
1159 Clear 19 1016 44 10000 5.14 50 23:53 02.06.2022
1160 Clear 20 1016 40 10000 4.63 40 22:33 02.06.2022
1161 Clear 23 1016 34 10000 4.12 30 20:57 02.06.2022
1162 Clear 24 1015 34 10000 4.63 40 19:58 02.06.2022
1163 Clear 24 1015 32 10000 4.63 40 19:39 02.06.2022
1164 Clear 24 1015 33 10000 5.14 30 18:59 02.06.2022
1165 Clear 24 1016 33 10000 4.63 70 16:30 02.06.2022
1166 Clear 24 1016 34 10000 5.14 80 15:47 02.06.2022
1167 Clear 22 1017 40 10000 5.14 110 13:32 02.06.2022
1168 Clear 21 1018 42 10000 4.63 60 12:51 02.06.2022
1169 Clear 19 1018 49 10000 5.14 70 10:48 02.06.2022
1170 Clear 16 1019 60 10000 4.63 50 09:45 02.06.2022
1171 Clear 16 1019 61 10000 4.63 50 09:26 02.06.2022
1172 Clear 13 1019 68 10000 5.14 60 08:24 02.06.2022
1173 Clear 11 1018 75 10000 3.09 60 06:26 02.06.2022
1174 Clear 12 1018 68 10000 3.6 50 03:53 02.06.2022
1175 Clear 14 1018 58 10000 3.6 30 01:36 02.06.2022
1176 Clear 17 1018 55 10000 4.63 30 23:36 01.06.2022
1177 Clear 18 1017 52 10000 3.6 360 22:18 01.06.2022
1178 Clear 19 1016 47 10000 4.63 20 21:26 01.06.2022
1179 Clear 20 1016 42 10000 3.6 330 20:39 01.06.2022
1180 Clear 21 1016 39 10000 3.6 360 19:52 01.06.2022
1181 Clear 22 1015 37 10000 4.12 340 18:52 01.06.2022
1182 Clear 22 1016 37 10000 3.6 310 17:40 01.06.2022
1183 Clear 22 1016 40 10000 3.09 0 16:22 01.06.2022
1184 Clear 21 1016 42 10000 4.12 280 14:51 01.06.2022
1185 Clear 20 1016 44 10000 5.14 310 13:44 01.06.2022
1186 Clouds 18 1016 53 10000 3.6 280 11:41 01.06.2022
1187 Clear 15 1016 61 10000 2.57 270 09:34 01.06.2022
1188 Clear 13 1016 72 10000 2.57 340 08:28 01.06.2022
1189 Clear 9 1016 84 10000 2.06 330 07:21 01.06.2022
1190 Clear 9 1015 80 10000 1.03 360 04:59 01.06.2022
1191 Clear 14 1015 60 10000 2.57 330 23:57 31.05.2022
1192 Clear 16 1015 55 10000 3.09 320 22:59 31.05.2022
1193 Clear 16 1015 54 10000 4.12 320 22:33 31.05.2022
1194 Clear 18 1014 46 10000 4.63 320 21:45 31.05.2022
1195 Clear 19 1013 46 10000 4.63 320 20:45 31.05.2022
1196 Clear 19 1013 46 10000 4.63 320 20:45 31.05.2022
1197 Clear 20 1013 45 10000 5.14 320 19:53 31.05.2022
1198 Clear 20 1013 44 10000 6.17 310 18:45 31.05.2022
1199 Clear 21 1012 38 10000 3.6 260 17:49 31.05.2022
1200 Clear 21 1012 38 10000 3.6 260 17:49 31.05.2022
1201 Clear 21 1012 36 10000 4.12 260 16:48 31.05.2022
1202 Clear 21 1012 37 10000 4.63 290 15:40 31.05.2022
1203 Clear 20 1013 40 10000 3.6 270 13:45 31.05.2022
1204 Clear 19 1012 42 10000 3.6 210 12:20 31.05.2022
1205 Clear 17 1013 52 10000 2.06 240 10:52 31.05.2022
1206 Clouds 14 1012 65 10000 2.57 330 08:41 31.05.2022
1207 Clear 12 1012 69 10000 1.54 0 06:57 31.05.2022
1208 Clear 12 1012 68 10000 1.54 340 04:53 31.05.2022
1209 Clear 13 1013 61 10000 3.09 30 00:26 31.05.2022
1210 Clear 14 1012 56 10000 3.6 40 23:26 30.05.2022
1211 Clear 15 1012 53 10000 3.6 40 22:48 30.05.2022
1212 Clear 16 1012 49 10000 4.12 40 21:51 30.05.2022
1213 Clear 17 1012 46 10000 2.57 360 21:32 30.05.2022
1214 Clear 18 1011 42 10000 3.09 360 19:51 30.05.2022
1215 Clear 19 1011 39 10000 3.09 360 18:39 30.05.2022
1216 Clear 19 1012 39 10000 2.57 80 17:24 30.05.2022
1217 Clear 18 1012 40 10000 3.09 330 16:40 30.05.2022
1218 Clear 17 1012 46 10000 3.6 30 14:23 30.05.2022
1219 Clouds 16 1013 50 10000 3.6 30 12:21 30.05.2022
1220 Clouds 13 1013 63 10000 3.6 30 10:41 30.05.2022
1221 Clear 12 1013 73 10000 4.12 40 09:19 30.05.2022
1222 Clear 8 1013 86 10000 3.09 40 06:40 30.05.2022
1223 Clear 8 1013 86 10000 3.6 30 05:48 30.05.2022
1224 Clear 11 1013 74 10000 4.63 20 01:33 30.05.2022
1225 Clear 13 1013 63 10000 5.14 40 22:57 29.05.2022
1226 Clear 14 1013 59 10000 5.14 30 22:36 29.05.2022
1227 Clear 15 1013 50 10000 4.12 10 20:54 29.05.2022
1228 Clear 16 1013 46 10000 4.12 360 19:32 29.05.2022
1229 Clear 16 1013 45 10000 5.14 20 18:44 29.05.2022
1230 Clear 16 1014 44 10000 4.12 30 17:31 29.05.2022
1231 Clear 16 1015 44 10000 4.63 10 15:48 29.05.2022
1232 Clear 15 1015 46 10000 4.63 50 14:58 29.05.2022
1233 Clear 15 1016 49 10000 4.12 350 13:53 29.05.2022
1234 Clouds 14 1017 54 10000 4.63 20 11:41 29.05.2022
1235 Clouds 13 1017 60 10000 5.14 40 10:39 29.05.2022
1236 Clear 11 1018 71 10000 5.14 30 09:18 29.05.2022
1237 Clear 8 1018 81 10000 4.63 30 06:18 29.05.2022
1238 Clear 9 1018 77 10000 4.63 30 04:45 29.05.2022
1239 Clear 10 1018 72 10000 4.12 10 03:53 29.05.2022
1240 Clear 14 1019 55 10000 7.2 20 23:50 28.05.2022
1241 Clear 14 1019 55 10000 7.2 20 23:26 28.05.2022
1242 Clear 15 1019 55 10000 7.2 30 22:39 28.05.2022
1243 Clear 16 1019 54 10000 7.2 30 21:38 28.05.2022
1244 Clear 19 1019 40 10000 5.14 40 19:51 28.05.2022
1245 Clear 19 1019 41 10000 5.66 30 18:54 28.05.2022
1246 Clear 20 1020 43 10000 5.14 350 17:38 28.05.2022
1247 Clear 20 1020 44 10000 4.63 350 16:50 28.05.2022
1248 Clear 20 1020 45 10000 4.12 340 15:43 28.05.2022
1249 Clouds 19 1021 49 10000 4.12 340 14:28 28.05.2022
1250 Clouds 18 1022 55 10000 3.09 350 13:21 28.05.2022
1251 Clouds 18 1022 58 10000 2.57 330 12:39 28.05.2022
1252 Clouds 17 1023 65 10000 2.06 60 11:23 28.05.2022
1253 Clouds 16 1023 70 10000 2.57 40 10:21 28.05.2022
1254 Clear 13 1024 81 10000 1.54 10 09:22 28.05.2022
1255 Clear 10 1024 91 10000 1.54 0 07:23 28.05.2022
1256 Clear 9 1023 90 10000 1.54 330 06:26 28.05.2022
1257 Clear 11 1023 83 10000 1.54 340 03:48 28.05.2022
1258 Clear 14 1024 70 10000 2.57 330 00:33 28.05.2022
1259 Clear 15 1024 64 10000 3.09 330 23:34 27.05.2022
1260 Clear 18 1024 57 10000 5.14 300 21:50 27.05.2022
1261 Clear 20 1024 50 10000 5.14 310 20:57 27.05.2022
1262 Clear 21 1023 51 10000 4.63 310 20:26 27.05.2022
1263 Clear 21 1023 48 10000 4.63 290 19:51 27.05.2022
1264 Clear 22 1023 49 10000 4.12 310 19:32 27.05.2022
1265 Clear 22 1023 49 10000 5.14 280 18:29 27.05.2022
1266 Clouds 21 1024 64 10000 4.12 280 16:42 27.05.2022
1267 Clouds 20 1024 69 10000 4.63 290 15:34 27.05.2022
1268 Clouds 18 1025 73 10000 4.12 270 14:45 27.05.2022
1269 Clouds 18 1025 75 10000 4.63 280 13:30 27.05.2022
1270 Clouds 15 1025 81 10000 3.6 260 11:41 27.05.2022
1271 Clouds 15 1025 81 10000 3.6 260 11:23 27.05.2022
1272 Clouds 15 1025 82 10000 3.09 220 10:32 27.05.2022
1273 Clouds 14 1025 83 10000 3.09 260 09:37 27.05.2022
1274 Clouds 13 1025 83 10000 3.6 280 08:24 27.05.2022
1275 Clouds 14 1025 80 10000 5.66 310 06:45 27.05.2022
1276 Clouds 15 1025 73 10000 6.69 290 02:56 27.05.2022
1277 Clouds 16 1026 75 10000 7.2 300 00:53 27.05.2022
1278 Clouds 17 1026 74 10000 5.14 300 22:50 26.05.2022
1279 Clouds 18 1025 72 10000 4.63 300 21:43 26.05.2022
1280 Clouds 18 1025 68 10000 4.12 290 20:59 26.05.2022
1281 Clouds 19 1025 66 10000 5.66 290 19:27 26.05.2022
1282 Clouds 21 1025 60 10000 5.14 270 18:21 26.05.2022
1283 Clouds 21 1025 60 10000 4.12 250 16:58 26.05.2022
1284 Clouds 20 1025 60 10000 4.12 280 15:49 26.05.2022
1285 Clouds 20 1025 62 10000 4.63 250 15:18 26.05.2022
1286 Clouds 19 1026 65 10000 4.63 290 13:45 26.05.2022
1287 Clouds 16 1026 78 10000 4.63 300 11:38 26.05.2022
1288 Clouds 15 1025 83 10000 5.66 290 10:37 26.05.2022
1289 Clouds 15 1025 79 10000 5.14 280 09:37 26.05.2022
1290 Clouds 14 1024 85 10000 3.6 260 08:38 26.05.2022
1291 Clouds 14 1023 86 10000 5.66 270 05:25 26.05.2022
1292 Clouds 15 1022 78 10000 6.17 250 01:26 26.05.2022
1293 Clouds 16 1022 70 10000 3.6 260 23:41 25.05.2022
1294 Clouds 17 1021 66 10000 4.63 270 22:51 25.05.2022
1295 Clouds 17 1020 60 10000 6.17 240 21:39 25.05.2022
1296 Clouds 18 1020 58 10000 5.14 240 20:43 25.05.2022
1297 Clear 18 1019 53 10000 6.69 270 19:32 25.05.2022
1298 Clear 19 1019 50 10000 6.69 270 18:23 25.05.2022
1299 Clear 20 1019 47 10000 6.69 250 16:42 25.05.2022
1300 Clear 20 1019 47 10000 6.17 240 16:21 25.05.2022
1301 Clear 20 1018 47 10000 7.72 260 15:24 25.05.2022
1302 Clouds 20 1018 48 9000 6.17 250 14:42 25.05.2022
1303 Clouds 19 1018 48 9000 6.17 240 14:24 25.05.2022
1304 Clear 18 1018 51 10000 5.66 240 13:21 25.05.2022
1305 Clouds 17 1018 59 10000 4.63 260 11:32 25.05.2022
1306 Clouds 15 1018 67 10000 2.57 260 10:23 25.05.2022
1307 Clouds 14 1017 76 10000 0.45 270 09:29 25.05.2022
1308 Clear 9 1016 93 10000 1.52 266 07:26 25.05.2022
1309 Clear 9 1016 92 10000 1.54 280 05:41 25.05.2022
1310 Clouds 11 1013 88 10000 1.31 288 01:51 25.05.2022
1311 Clear 12 1013 80 10000 2.06 260 23:48 24.05.2022
1312 Clear 13 1013 76 10000 2.06 250 22:58 24.05.2022
1313 Clear 15 1012 69 10000 2.57 250 21:57 24.05.2022
1314 Clear 15 1012 67 10000 4.63 250 21:37 24.05.2022
1315 Clear 15 1012 66 10000 4.63 250 21:18 24.05.2022
1316 Clear 17 1011 60 10000 5.14 300 19:23 24.05.2022
1317 Clouds 16 1011 64 10000 6.69 290 18:29 24.05.2022
1318 Clear 19 1010 49 10000 6.17 240 16:39 24.05.2022
1319 Clouds 18 1009 51 10000 5.66 220 15:52 24.05.2022
1320 Clouds 18 1009 55 10000 7.2 240 14:41 24.05.2022
1321 Clouds 17 1009 59 10000 6.17 230 13:47 24.05.2022
1322 Clouds 16 1009 60 10000 6.69 230 12:31 24.05.2022
1323 Clouds 13 1009 79 10000 5.66 250 09:52 24.05.2022
1324 Clouds 12 1008 84 10000 5.66 250 08:57 24.05.2022
1325 Clouds 12 1008 86 10000 5.66 240 08:38 24.05.2022
1326 Clouds 11 1007 91 10000 4.12 250 06:42 24.05.2022
1327 Clouds 12 1005 90 10000 4.63 260 03:48 24.05.2022
1328 Clouds 13 1005 92 10000 3.6 260 01:47 24.05.2022
1329 Clouds 13 1005 93 10000 3.09 260 00:53 24.05.2022
1330 Clouds 15 1005 88 10000 2.57 230 22:25 23.05.2022
1331 Clouds 15 1004 86 10000 2.57 240 21:53 23.05.2022
1332 Clouds 16 1004 84 10000 3.6 260 20:55 23.05.2022
1333 Clouds 16 1004 84 10000 5.14 270 20:21 23.05.2022
1334 Clouds 16 1003 89 10000 5.14 240 19:30 23.05.2022
1335 Clouds 16 1003 85 10000 6.17 260 18:42 23.05.2022
1336 Clouds 16 1003 84 10000 6.17 260 18:22 23.05.2022
1337 Clouds 18 1002 79 10000 5.66 270 16:51 23.05.2022
1338 Clouds 16 1001 93 8000 6.17 290 14:49 23.05.2022
1339 Clouds 18 1000 85 10000 4.63 260 12:30 23.05.2022
1340 Clouds 18 1001 89 10000 5.66 240 11:25 23.05.2022
1341 Rain 17 1001 89 10000 2.06 180 09:49 23.05.2022
1342 Rain 17 1001 89 10000 2.06 180 09:23 23.05.2022
1343 Clouds 16 1001 89 10000 2.57 350 07:48 23.05.2022
1344 Clouds 15 1002 90 10000 2.57 100 06:45 23.05.2022
1345 Clear 16 1003 85 10000 1.54 60 05:21 23.05.2022
1346 Clear 17 1005 81 10000 4.63 70 02:23 23.05.2022
1347 Clear 17 1006 81 10000 4.12 70 01:37 23.05.2022
1348 Rain 18 1008 72 10000 1.54 20 23:51 22.05.2022
1349 Clear 19 1008 70 10000 3.09 60 22:35 22.05.2022
1350 Clear 20 1008 66 10000 3.6 20 21:55 22.05.2022
1351 Clear 21 1008 63 10000 4.63 40 20:54 22.05.2022
1352 Clear 21 1009 61 10000 4.63 40 20:31 22.05.2022
1353 Clear 22 1009 59 10000 4.63 40 19:56 22.05.2022
1354 Clear 22 1009 57 10000 4.63 30 18:55 22.05.2022
1355 Clear 23 1009 57 10000 4.63 40 18:25 22.05.2022
1356 Clear 22 1010 59 10000 4.63 60 17:34 22.05.2022
1357 Clouds 22 1011 60 10000 3.09 80 16:36 22.05.2022
1358 Clouds 22 1012 58 10000 3.6 90 14:49 22.05.2022
1359 Rain 21 1012 61 10000 4.63 90 13:48 22.05.2022
1360 Clear 21 1013 58 10000 5.66 100 12:52 22.05.2022
1361 Clear 21 1014 58 10000 2.57 90 11:44 22.05.2022
1362 Clear 18 1015 68 10000 3.6 90 09:45 22.05.2022
1363 Clear 17 1015 72 10000 4.63 80 08:54 22.05.2022
1364 Clear 14 1016 83 10000 2.57 70 07:22 22.05.2022
1365 Clear 14 1016 83 10000 2.57 70 06:24 22.05.2022
1366 Clear 16 1018 77 10000 3.09 50 02:33 22.05.2022
1367 Clear 17 1019 71 10000 4.12 40 00:44 22.05.2022
1368 Clear 18 1019 69 10000 3.6 40 23:55 21.05.2022
1369 Clear 19 1019 67 10000 3.6 40 23:21 21.05.2022
1370 Clear 21 1019 57 10000 3.09 320 21:47 21.05.2022
1371 Clear 22 1019 56 10000 3.09 320 21:26 21.05.2022
1372 Clear 23 1018 50 10000 2.57 340 20:27 21.05.2022
1373 Clear 24 1019 46 10000 3.6 360 19:43 21.05.2022
1374 Clear 24 1020 47 10000 2.57 330 18:21 21.05.2022
1375 Clear 24 1020 47 10000 3.6 270 16:55 21.05.2022
1376 Clouds 22 1021 53 10000 2.57 0 14:38 21.05.2022
1377 Clouds 22 1021 53 10000 2.57 0 14:38 21.05.2022
1378 Clear 22 1022 55 10000 2.57 210 13:54 21.05.2022
1379 Clouds 21 1022 56 10000 2.57 260 13:18 21.05.2022
1380 Clear 21 1023 58 10000 2.24 46 12:38 21.05.2022
1381 Clouds 18 1023 70 10000 2.06 260 10:53 21.05.2022
1382 Clouds 17 1024 74 10000 2.06 190 09:53 21.05.2022
1383 Clouds 15 1023 84 10000 1.03 0 08:58 21.05.2022
1384 Clouds 14 1023 88 10000 2.06 200 08:36 21.05.2022
1385 Clouds 11 1022 92 10000 1.38 235 05:52 21.05.2022
1386 Clear 13 1024 85 10000 1.54 190 01:33 21.05.2022
1387 Clear 14 1023 81 10000 2.06 220 23:30 20.05.2022
1388 Clear 15 1023 76 10000 2.06 260 22:29 20.05.2022
1389 Clear 15 1022 73 10000 3.09 270 21:55 20.05.2022
1390 Clear 16 1023 73 10000 3.09 270 21:55 20.05.2022
1391 Clouds 17 1022 70 10000 5.14 290 21:18 20.05.2022
1392 Clouds 17 1022 69 10000 5.14 290 20:44 20.05.2022
1393 Clouds 17 1021 70 10000 6.17 320 19:45 20.05.2022
1394 Clouds 17 1021 74 10000 7.72 300 18:49 20.05.2022
1395 Clouds 18 1020 76 10000 8.23 300 17:48 20.05.2022
1396 Clouds 21 1018 76 10000 9.26 280 16:23 20.05.2022
1397 Clouds 21 1018 74 10000 9.26 280 15:53 20.05.2022
1398 Clouds 24 1016 72 10000 6.17 250 14:32 20.05.2022
1399 Clouds 23 1016 80 10000 4.12 260 13:59 20.05.2022
1400 Clouds 20 1017 87 10000 3.09 360 11:51 20.05.2022
1401 Rain 18 1016 90 10000 2.06 220 10:34 20.05.2022
1402 Rain 17 1016 90 10000 5.66 90 09:23 20.05.2022
1403 Clouds 17 1018 75 10000 1.54 90 07:43 20.05.2022
1404 Clear 17 1018 73 10000 2.57 50 06:40 20.05.2022
1405 Clear 17 1019 71 10000 3.09 50 05:39 20.05.2022
1406 Clear 19 1020 66 10000 5.14 40 01:29 20.05.2022
1407 Clear 20 1020 65 10000 4.63 40 23:46 19.05.2022
1408 Clear 21 1020 67 10000 3.6 10 22:35 19.05.2022
1409 Clear 22 1020 66 10000 3.09 350 21:50 19.05.2022
1410 Clear 22 1019 65 10000 4.12 10 21:23 19.05.2022
1411 Clear 23 1019 63 10000 3.6 340 20:43 19.05.2022
1412 Clear 24 1019 60 10000 4.63 340 19:54 19.05.2022
1413 Clear 25 1019 58 10000 3.6 300 19:00 19.05.2022
1414 Clear 25 1019 54 10000 3.6 280 17:44 19.05.2022
1415 Clouds 25 1019 52 10000 3.09 270 15:43 19.05.2022
1416 Clear 25 1019 53 10000 3.09 270 14:47 19.05.2022
1417 Clouds 24 1019 57 10000 3.6 360 14:20 19.05.2022
1418 Clouds 22 1018 70 10000 7.72 310 11:54 19.05.2022
1419 Clear 23 1017 77 10000 3.09 190 10:31 19.05.2022
1420 Clear 21 1016 83 10000 3.09 170 08:44 19.05.2022
1421 Clear 20 1015 88 10000 2.06 120 07:18 19.05.2022
1422 Clear 21 1015 83 10000 2.06 120 03:52 19.05.2022
1423 Clouds 22 1016 75 10000 2.57 120 00:58 19.05.2022
1424 Clear 24 1016 67 10000 4.12 100 23:40 18.05.2022
1425 Clear 24 1016 63 10000 2.57 40 22:43 18.05.2022
1426 Clear 26 1017 53 10000 4.12 40 21:45 18.05.2022
1427 Clear 26 1016 53 10000 4.12 40 21:23 18.05.2022
1428 Clear 27 1017 47 10000 4.12 60 20:21 18.05.2022
1429 Clear 28 1017 46 10000 5.14 60 19:18 18.05.2022
1430 Clear 28 1018 43 10000 4.12 60 18:18 18.05.2022
1431 Clear 28 1017 42 10000 4.63 100 17:40 18.05.2022
1432 Clear 29 1018 41 10000 4.63 40 17:22 18.05.2022
1433 Clear 28 1019 43 10000 3.6 40 15:58 18.05.2022
1434 Clear 28 1019 44 10000 2.57 70 15:35 18.05.2022
1435 Clear 26 1019 50 10000 3.09 30 14:21 18.05.2022
1436 Clear 25 1020 57 10000 3.09 50 12:58 18.05.2022
1437 Clear 24 1021 61 10000 3.09 30 12:25 18.05.2022
1438 Clear 22 1021 64 10000 3.09 30 11:33 18.05.2022
1439 Clear 21 1021 67 10000 3.6 40 10:48 18.05.2022
1440 Clear 18 1021 75 10000 3.6 350 08:25 18.05.2022
1441 Clear 17 1021 81 10000 4.12 330 07:28 18.05.2022
1442 Clear 19 1019 84 10000 3.09 320 04:26 18.05.2022
1443 Clouds 22 1018 73 10000 3.6 150 00:52 18.05.2022
1444 Clear 24 1017 59 10000 3.6 110 23:41 17.05.2022
1445 Clear 25 1016 55 10000 3.6 120 21:23 17.05.2022
1446 Clear 27 1016 44 10000 4.12 130 20:44 17.05.2022
1447 Clear 27 1016 44 10000 5.14 140 19:45 17.05.2022
1448 Clear 28 1016 45 10000 4.12 130 19:24 17.05.2022
1449 Clear 28 1017 44 10000 4.63 120 17:49 17.05.2022
1450 Clear 29 1017 44 10000 4.12 170 16:58 17.05.2022
1451 Clear 29 1017 44 10000 3.6 190 16:24 17.05.2022
1452 Clear 28 1017 42 10000 3.6 130 14:56 17.05.2022
1453 Clear 28 1018 42 10000 2.57 50 14:29 17.05.2022
1454 Clear 27 1018 41 10000 3.09 60 13:30 17.05.2022
1455 Clear 24 1019 50 10000 2.06 30 10:43 17.05.2022
1456 Clear 20 1020 71 10000 2.06 360 08:55 17.05.2022
1457 Clear 17 1019 83 10000 1.03 50 07:57 17.05.2022
1458 Clear 16 1019 85 10000 2.57 70 06:27 17.05.2022
1459 Clear 18 1019 79 10000 2.06 150 02:27 17.05.2022
1460 Clear 19 1019 72 10000 2.06 60 00:28 17.05.2022
1461 Clear 21 1019 63 10000 2.57 80 22:41 16.05.2022
1462 Clear 22 1019 57 10000 2.06 70 21:33 16.05.2022
1463 Clear 23 1019 46 10000 3.09 240 20:46 16.05.2022
1464 Clear 25 1018 43 10000 4.12 230 19:22 16.05.2022
1465 Clear 25 1018 44 10000 4.12 270 17:58 16.05.2022
1466 Clear 24 1018 53 10000 3.6 250 15:49 16.05.2022
1467 Clouds 23 1018 60 10000 4.12 240 13:49 16.05.2022
1468 Clouds 21 1019 69 10000 3.09 260 12:50 16.05.2022
1469 Clouds 18 1018 79 10000 4.12 240 10:53 16.05.2022
1470 Clouds 17 1017 87 10000 4.12 240 09:23 16.05.2022
1471 Clear 17 1014 91 10000 3.09 220 06:34 16.05.2022
1472 Thunderstorm 17 1012 93 10000 2.06 150 03:31 16.05.2022
1473 Clouds 18 1012 88 10000 2.57 180 23:26 15.05.2022
1474 Thunderstorm 19 1013 85 10000 4.12 210 22:29 15.05.2022
1475 Rain 19 1013 78 10000 4.63 190 21:44 15.05.2022
1476 Rain 23 1012 59 10000 6.69 210 20:54 15.05.2022
1477 Clear 28 1010 36 10000 5.66 110 19:32 15.05.2022
1478 Clear 29 1011 34 10000 6.17 110 17:51 15.05.2022
1479 Clear 28 1012 35 10000 6.17 100 15:59 15.05.2022
1480 Clear 27 1013 34 10000 6.17 90 13:54 15.05.2022
1481 Clear 25 1014 40 10000 7.2 100 12:26 15.05.2022
1482 Clear 23 1014 46 10000 4.63 100 11:39 15.05.2022
1483 Clear 21 1015 54 10000 4.12 110 10:25 15.05.2022
1484 Clear 17 1016 65 10000 3.09 100 08:45 15.05.2022
1485 Clear 14 1016 72 10000 3.09 80 06:58 15.05.2022
1486 Clear 14 1016 72 10000 2.06 350 05:47 15.05.2022
1487 Clear 16 1017 64 10000 3.6 70 00:49 15.05.2022
1488 Clear 18 1018 60 10000 3.09 70 23:39 14.05.2022
1489 Clear 18 1018 57 10000 2.06 50 22:47 14.05.2022
1490 Clear 21 1018 49 10000 3.09 60 21:29 14.05.2022
1491 Clear 22 1018 45 10000 3.6 70 20:53 14.05.2022
1492 Clear 23 1018 43 10000 3.6 80 19:38 14.05.2022
1493 Clear 23 1018 41 10000 3.09 110 19:19 14.05.2022
1494 Clear 23 1019 41 10000 3.09 110 18:44 14.05.2022
1495 Clear 23 1019 41 10000 3.6 90 16:46 14.05.2022
1496 Clear 23 1020 41 10000 1.54 0 15:30 14.05.2022
1497 Clear 22 1021 44 10000 1.54 0 14:34 14.05.2022
1498 Clear 19 1022 52 10000 1.54 0 12:24 14.05.2022
1499 Clear 18 1022 55 10000 2.06 100 11:35 14.05.2022
1500 Clear 16 1023 62 10000 1.54 0 10:21 14.05.2022
1501 Clear 16 1023 63 10000 1.54 0 09:53 14.05.2022
1502 Clear 14 1023 71 10000 2.57 60 08:49 14.05.2022
1503 Clear 10 1022 83 10000 2.06 360 06:41 14.05.2022
1504 Clear 13 1023 72 10000 3.6 20 02:39 14.05.2022
1505 Clear 16 1022 61 10000 3.09 320 23:44 13.05.2022
1506 Clear 16 1022 59 10000 2.57 320 22:58 13.05.2022
1507 Clear 17 1022 56 10000 2.57 330 22:27 13.05.2022
1508 Clear 18 1022 52 10000 3.09 330 21:52 13.05.2022
1509 Clear 20 1022 45 10000 3.09 320 20:45 13.05.2022
1510 Clear 21 1021 46 10000 3.09 300 20:27 13.05.2022
1511 Clear 22 1021 41 10000 2.57 310 19:28 13.05.2022
1512 Clear 22 1021 41 10000 3.09 310 17:51 13.05.2022
1513 Clear 22 1022 42 10000 3.09 290 17:28 13.05.2022
1514 Clear 21 1022 41 10000 3.09 290 16:20 13.05.2022
1515 Clear 20 1022 44 10000 3.09 310 15:29 13.05.2022
1516 Clouds 19 1023 47 10000 3.6 290 13:48 13.05.2022
1517 Clouds 18 1023 49 10000 3.6 260 12:32 13.05.2022
1518 Clouds 17 1023 53 10000 2.57 290 11:23 13.05.2022
1519 Clear 14 1023 70 10000 3.09 260 09:34 13.05.2022
1520 Clear 13 1023 75 10000 3.09 300 08:49 13.05.2022
1521 Clear 10 1023 82 10000 1.54 250 07:48 13.05.2022
1522 Clear 10 1022 78 10000 2.06 230 06:33 13.05.2022
1523 Clear 10 1022 78 10000 2.06 230 06:33 13.05.2022
1524 Clear 10 1022 77 10000 2.06 230 06:33 13.05.2022
1525 Clear 12 1022 69 10000 3.09 350 03:34 13.05.2022
1526 Clear 14 1022 68 10000 4.63 340 00:39 13.05.2022
1527 Clear 16 1020 66 10000 2.57 330 22:45 12.05.2022
1528 Clear 17 1020 63 10000 2.57 320 21:56 12.05.2022
1529 Clear 19 1019 55 10000 3.09 250 20:29 12.05.2022
1530 Clear 20 1019 53 10000 3.6 230 19:18 12.05.2022
1531 Clear 20 1019 52 10000 3.6 260 17:24 12.05.2022
1532 Clear 20 1019 52 10000 4.12 270 16:23 12.05.2022
1533 Clouds 20 1020 54 10000 3.6 240 14:42 12.05.2022
1534 Clouds 19 1020 56 10000 4.12 230 13:47 12.05.2022
1535 Clouds 17 1020 60 10000 3.09 220 11:23 12.05.2022
1536 Clear 15 1021 73 10000 1.03 0 09:31 12.05.2022
1537 Clear 14 1021 77 10000 1.54 260 08:51 12.05.2022
1538 Clear 12 1019 84 10000 3.09 310 07:41 12.05.2022
1539 Clouds 12 1019 83 10000 3.09 310 06:34 12.05.2022
1540 Clouds 15 1017 81 10000 2.57 290 02:59 12.05.2022
1541 Clouds 17 1016 72 10000 5.66 320 00:39 12.05.2022
1542 Clear 20 1014 63 10000 5.66 230 22:39 11.05.2022
1543 Clear 20 1014 63 10000 6.17 220 21:55 11.05.2022
1544 Clear 21 1014 62 10000 6.69 270 21:24 11.05.2022
1545 Clouds 23 1013 55 10000 7.72 230 19:36 11.05.2022
1546 Clouds 25 1012 48 8000 8.23 240 16:59 11.05.2022
1547 Clouds 25 1012 46 9000 8.23 220 15:59 11.05.2022
1548 Clear 24 1013 46 10000 8.75 230 14:39 11.05.2022
1549 Clear 24 1013 46 10000 8.75 230 14:39 11.05.2022
1550 Clear 24 1013 45 10000 7.2 200 14:19 11.05.2022
1551 Clear 22 1013 47 10000 6.17 210 11:55 11.05.2022
1552 Clear 21 1013 50 10000 5.66 240 11:30 11.05.2022
1553 Clear 18 1013 68 10000 4.63 250 09:29 11.05.2022
1554 Clear 12 1014 88 10000 2.06 240 06:24 11.05.2022
1555 Clear 17 1015 70 10000 1.54 20 01:29 11.05.2022
1556 Clear 20 1016 57 10000 1.54 230 22:53 10.05.2022
1557 Clear 22 1016 50 10000 2.57 250 22:19 10.05.2022
1558 Clear 24 1015 44 10000 3.6 260 21:21 10.05.2022
1559 Clear 26 1015 41 10000 5.66 240 20:21 10.05.2022
1560 Clear 27 1015 38 10000 7.72 250 18:36 10.05.2022
1561 Clear 27 1016 39 10000 6.17 210 17:37 10.05.2022
1562 Clear 27 1016 39 10000 7.72 190 15:56 10.05.2022
1563 Clear 25 1018 45 10000 6.69 220 12:51 10.05.2022
1564 Clear 24 1019 48 10000 6.17 220 11:53 10.05.2022
1565 Clear 23 1019 52 10000 5.14 230 11:28 10.05.2022
1566 Clear 22 1019 57 10000 4.12 190 10:56 10.05.2022
1567 Clear 19 1019 64 10000 3.6 160 09:28 10.05.2022
1568 Clear 17 1019 74 10000 2.57 190 07:51 10.05.2022
1569 Clear 15 1020 81 10000 2.06 50 05:54 10.05.2022
1570 Clear 16 1021 76 10000 1.03 20 01:53 10.05.2022
1571 Clear 18 1022 64 10000 1.54 70 23:43 09.05.2022
1572 Clear 20 1022 57 10000 1.54 0 22:33 09.05.2022
1573 Clear 22 1021 52 10000 2.57 260 21:36 09.05.2022
1574 Clear 25 1021 40 10000 2.57 230 19:56 09.05.2022
1575 Clear 26 1021 40 10000 3.6 240 18:25 09.05.2022
1576 Clear 26 1022 40 10000 2.57 250 17:25 09.05.2022
1577 Clear 26 1022 41 10000 3.09 180 16:18 09.05.2022
1578 Clear 25 1022 42 10000 3.09 250 15:47 09.05.2022
1579 Clear 24 1023 44 10000 2.57 0 14:33 09.05.2022
1580 Clear 24 1023 47 10000 2.57 0 13:56 09.05.2022
1581 Clear 22 1024 53 10000 1.54 0 12:55 09.05.2022
1582 Clear 21 1024 57 10000 2.06 60 11:52 09.05.2022
1583 Clear 18 1025 63 10000 1.54 0 10:47 09.05.2022
1584 Clear 17 1025 66 10000 1.54 340 10:20 09.05.2022
1585 Clear 12 1024 79 10000 2.06 30 07:56 09.05.2022
1586 Clear 11 1025 81 10000 3.09 20 04:35 09.05.2022
1587 Clear 15 1025 73 10000 3.09 40 00:30 09.05.2022
1588 Clear 16 1025 68 10000 3.6 40 23:28 08.05.2022
1589 Clear 18 1024 63 10000 4.12 40 22:29 08.05.2022
1590 Clear 20 1023 57 10000 4.12 30 20:54 08.05.2022
1591 Clouds 20 1023 55 10000 5.66 50 20:22 08.05.2022
1592 Clear 21 1023 53 10000 4.63 10 19:33 08.05.2022
1593 Clouds 22 1023 50 10000 5.14 30 18:35 08.05.2022
1594 Clouds 22 1023 51 10000 5.14 50 17:36 08.05.2022
1595 Clouds 21 1024 59 10000 4.12 360 15:46 08.05.2022
1596 Clouds 20 1024 63 10000 5.14 20 15:21 08.05.2022
1597 Clouds 16 1025 77 8000 5.66 30 12:46 08.05.2022
1598 Mist 14 1026 85 6000 5.14 20 10:59 08.05.2022
1599 Mist 13 1026 89 6000 4.63 20 10:22 08.05.2022
1600 Mist 13 1025 89 5000 5.14 10 09:51 08.05.2022
1601 Mist 12 1024 92 4000 4.12 10 07:43 08.05.2022
1602 Clear 12 1024 90 10000 4.63 30 05:22 08.05.2022
1603 Clear 13 1024 86 10000 4.12 350 03:21 08.05.2022
1604 Clear 14 1024 83 10000 4.12 10 00:42 08.05.2022
1605 Clear 15 1024 78 10000 4.12 20 23:55 07.05.2022
1606 Clear 16 1024 71 10000 4.63 330 22:59 07.05.2022
1607 Clear 17 1023 66 10000 3.6 30 22:35 07.05.2022
1608 Clear 17 1023 64 10000 3.6 40 21:55 07.05.2022
1609 Clear 18 1022 59 10000 4.63 30 21:20 07.05.2022
1610 Clear 20 1022 52 10000 4.12 350 19:59 07.05.2022
1611 Clouds 21 1022 52 10000 5.14 340 18:41 07.05.2022
1612 Clear 20 1023 55 10000 3.09 360 16:24 07.05.2022
1613 Clouds 19 1023 61 10000 3.09 340 14:51 07.05.2022
1614 Clear 15 1024 79 10000 3.6 350 11:21 07.05.2022
1615 Clouds 12 1025 85 10000 4.63 310 09:42 07.05.2022
1616 Clear 12 1024 88 10000 2.06 330 08:30 07.05.2022
1617 Clear 11 1024 84 10000 3.09 330 06:44 07.05.2022
1618 Clear 11 1024 85 10000 4.12 330 06:24 07.05.2022
1619 Clear 13 1024 76 10000 4.12 330 03:54 07.05.2022
1620 Clear 16 1025 68 10000 3.6 360 23:41 06.05.2022
1621 Clear 17 1024 62 10000 2.57 340 22:35 06.05.2022
1622 Clear 18 1025 56 10000 3.6 330 21:52 06.05.2022
1623 Clear 19 1024 50 10000 3.09 20 21:24 06.05.2022
1624 Clear 21 1024 42 10000 4.12 360 19:43 06.05.2022
1625 Clear 22 1024 42 10000 4.12 360 19:21 06.05.2022
1626 Clear 22 1024 41 10000 4.12 330 18:29 06.05.2022
1627 Clear 22 1024 42 10000 3.6 330 17:34 06.05.2022
1628 Clear 21 1025 45 10000 3.09 310 15:51 06.05.2022
1629 Clouds 21 1025 49 10000 3.09 300 14:58 06.05.2022
1630 Clouds 19 1025 54 10000 3.6 10 13:45 06.05.2022
1631 Clouds 18 1026 59 10000 3.6 20 12:47 06.05.2022
1632 Clouds 17 1026 63 10000 3.09 10 11:58 06.05.2022
1633 Clear 15 1026 73 9000 3.6 350 10:41 06.05.2022
1634 Clear 13 1026 80 9000 3.09 350 09:47 06.05.2022
1635 Clear 12 1026 86 9000 3.09 350 08:59 06.05.2022
1636 Clear 9 1026 91 9000 3.6 350 07:27 06.05.2022
1637 Clear 9 1026 89 8000 3.6 350 06:25 06.05.2022
1638 Clouds 11 1026 84 10000 3.09 340 02:54 06.05.2022
1639 Clear 11 1026 80 10000 4.12 340 01:57 06.05.2022
1640 Clouds 14 1025 67 10000 4.63 330 22:48 05.05.2022
1641 Clouds 16 1024 62 10000 4.12 330 21:46 05.05.2022
1642 Clear 17 1023 56 10000 5.66 340 20:34 05.05.2022
1643 Clouds 18 1023 53 10000 5.14 340 18:43 05.05.2022
1644 Clear 18 1023 55 10000 5.14 340 16:40 05.05.2022
1645 Clouds 17 1023 59 10000 4.12 320 14:59 05.05.2022
1646 Clouds 17 1023 60 10000 4.63 340 13:29 05.05.2022
1647 Clouds 17 1023 62 10000 4.63 320 12:55 05.05.2022
1648 Clouds 14 1023 79 10000 3.09 340 10:59 05.05.2022
1649 Clouds 12 1022 89 9000 4.63 310 09:40 05.05.2022
1650 Mist 11 1022 92 10000 3.6 300 08:30 05.05.2022
1651 Clouds 10 1021 89 10000 3.6 290 06:23 05.05.2022
1652 Clear 12 1021 83 9000 3.6 300 02:20 05.05.2022
1653 Clear 12 1021 84 6000 3.09 290 01:37 05.05.2022
1654 Clouds 12 1021 85 10000 2.57 270 23:57 04.05.2022
1655 Clear 12 1020 82 10000 2.57 270 22:54 04.05.2022
1656 Clouds 13 1020 76 10000 4.12 270 21:59 04.05.2022
1657 Clouds 14 1019 70 10000 4.63 330 21:30 04.05.2022
1658 Clouds 16 1019 60 10000 5.14 330 20:42 04.05.2022
1659 Clouds 16 1019 55 10000 6.17 320 19:59 04.05.2022
1660 Clear 17 1018 54 10000 4.12 330 19:35 04.05.2022
1661 Clear 18 1018 51 10000 5.14 360 18:22 04.05.2022
1662 Clear 18 1018 50 10000 6.17 340 17:59 04.05.2022
1663 Clear 18 1018 47 10000 3.6 320 16:29 04.05.2022
1664 Clouds 18 1018 50 10000 3.6 320 15:32 04.05.2022
1665 Clouds 18 1019 52 10000 4.12 320 14:38 04.05.2022
1666 Clear 17 1019 54 10000 3.09 360 14:18 04.05.2022
1667 Clear 16 1019 62 10000 3.09 330 12:36 04.05.2022
1668 Clear 13 1019 75 9000 3.09 350 11:28 04.05.2022
1669 Clear 11 1019 81 9000 3.09 340 09:50 04.05.2022
1670 Clear 10 1019 83 9000 3.09 340 09:20 04.05.2022
1671 Clouds 10 1018 86 8000 3.6 10 07:33 04.05.2022
1672 Clear 11 1018 82 9000 4.12 10 04:34 04.05.2022
1673 Clear 12 1019 79 10000 5.66 10 02:33 04.05.2022
1674 Clear 15 1018 59 10000 4.12 10 22:59 03.05.2022
1675 Clear 16 1017 56 10000 5.14 20 21:50 03.05.2022
1676 Clear 16 1017 53 10000 5.66 20 21:23 03.05.2022
1677 Clear 17 1017 51 10000 5.66 20 20:46 03.05.2022
1678 Clear 18 1016 46 10000 5.66 20 19:32 03.05.2022
1679 Clear 19 1016 43 10000 5.14 350 18:43 03.05.2022
1680 Clear 19 1016 42 10000 4.12 350 17:21 03.05.2022
1681 Clear 19 1017 43 10000 4.63 40 15:57 03.05.2022
1682 Clear 18 1017 46 10000 5.66 20 14:23 03.05.2022
1683 Clear 17 1018 52 10000 5.14 10 12:35 03.05.2022
1684 Clear 16 1018 57 10000 5.66 20 11:39 03.05.2022
1685 Clear 14 1018 64 10000 6.17 10 10:44 03.05.2022
1686 Clear 10 1018 75 9000 4.63 10 08:29 03.05.2022
1687 Clear 10 1017 75 9000 4.63 360 06:45 03.05.2022
1688 Clear 11 1018 70 10000 4.63 10 02:48 03.05.2022
1689 Clear 14 1018 62 10000 5.66 10 23:32 02.05.2022
1690 Clear 14 1017 58 10000 4.12 360 22:29 02.05.2022
1691 Clear 15 1017 54 10000 3.6 20 21:47 02.05.2022
1692 Clear 18 1016 49 10000 5.14 20 19:59 02.05.2022
1693 Clear 18 1016 47 10000 3.6 360 18:27 02.05.2022
1694 Clear 18 1016 48 10000 5.14 10 17:41 02.05.2022
1695 Clear 18 1017 49 10000 4.63 30 16:43 02.05.2022
1696 Clear 18 1017 51 10000 4.63 350 15:44 02.05.2022
1697 Clear 18 1017 51 10000 5.14 30 14:54 02.05.2022
1698 Clouds 17 1017 53 10000 5.14 40 13:45 02.05.2022
1699 Clear 15 1018 59 10000 4.63 20 11:41 02.05.2022
1700 Clear 12 1018 66 10000 4.63 10 10:18 02.05.2022
1701 Clear 10 1018 76 10000 2.57 360 08:44 02.05.2022
1702 Clear 8 1018 80 10000 2.57 350 07:23 02.05.2022
1703 Clear 10 1020 69 10000 3.09 350 01:27 02.05.2022
1704 Clear 12 1020 61 10000 3.09 40 00:23 02.05.2022
1705 Clear 12 1020 59 10000 3.6 40 23:43 01.05.2022
1706 Clear 14 1020 53 10000 3.6 50 21:46 01.05.2022
1707 Clear 15 1020 49 10000 4.63 50 20:50 01.05.2022
1708 Clear 16 1020 44 10000 4.63 50 19:46 01.05.2022
1709 Clear 16 1020 43 10000 4.63 60 18:53 01.05.2022
1710 Clear 17 1020 43 10000 5.14 30 17:57 01.05.2022
1711 Clear 17 1020 43 10000 5.66 30 16:46 01.05.2022
1712 Clear 17 1021 44 10000 5.66 50 16:23 01.05.2022
1713 Clear 16 1021 45 10000 5.14 50 14:58 01.05.2022
1714 Clear 15 1022 50 10000 4.63 70 13:23 01.05.2022
1715 Clear 12 1023 63 10000 5.14 40 10:46 01.05.2022
1716 Clear 8 1024 77 10000 3.09 350 08:51 01.05.2022
1717 Clear 5 1023 84 10000 2.57 350 06:53 01.05.2022
1718 Clear 8 1024 70 10000 3.13 42 02:51 01.05.2022
1719 Clear 12 1025 57 10000 4.63 30 22:58 30.04.2022
1720 Clear 13 1024 54 10000 4.12 30 21:35 30.04.2022
1721 Clear 14 1024 48 10000 6.17 20 20:35 30.04.2022
1722 Clear 16 1024 43 10000 6.17 50 19:33 30.04.2022
1723 Clear 17 1024 43 10000 6.17 20 17:40 30.04.2022
1724 Clear 17 1025 44 10000 6.17 30 16:34 30.04.2022
1725 Clear 16 1025 46 10000 5.66 30 15:21 30.04.2022
1726 Clear 16 1026 48 10000 6.17 30 14:33 30.04.2022
1727 Clouds 14 1027 58 10000 5.14 30 12:36 30.04.2022
1728 Clear 12 1027 67 10000 5.14 20 11:33 30.04.2022
1729 Clouds 12 1027 72 10000 5.14 10 10:40 30.04.2022
1730 Clear 9 1027 84 10000 5.14 20 08:54 30.04.2022
1731 Clouds 7 1026 88 9000 4.12 350 05:38 30.04.2022
1732 Clear 11 1027 72 10000 5.14 20 00:35 30.04.2022
1733 Clear 13 1027 68 10000 6.69 20 23:37 29.04.2022
1734 Clear 14 1026 65 10000 5.66 20 22:31 29.04.2022
1735 Clear 16 1025 56 10000 4.12 10 21:27 29.04.2022
1736 Clear 18 1025 52 10000 4.63 10 20:39 29.04.2022
1737 Clear 18 1025 48 10000 5.14 40 19:38 29.04.2022
1738 Clear 19 1025 45 10000 5.14 20 17:54 29.04.2022
1739 Clear 20 1025 45 10000 5.66 10 17:21 29.04.2022
1740 Clear 19 1026 50 10000 6.71 45 14:57 29.04.2022
1741 Clouds 18 1026 53 10000 5.14 30 14:20 29.04.2022
1742 Clear 17 1027 58 10000 4.63 360 12:48 29.04.2022
1743 Clear 13 1027 67 10000 4.12 20 10:59 29.04.2022
1744 Clear 12 1026 70 10000 4.12 20 08:46 29.04.2022
1745 Clear 11 1026 71 10000 4.12 20 07:27 29.04.2022
1746 Clear 12 1026 71 10000 3.6 10 06:38 29.04.2022
1747 Clear 12 1026 70 10000 3.6 20 04:43 29.04.2022
1748 Clear 15 1026 60 10000 5.14 30 00:19 29.04.2022
1749 Clear 16 1026 59 10000 5.14 40 23:27 28.04.2022
1750 Clear 16 1026 54 10000 3.6 40 22:41 28.04.2022
1751 Clear 17 1026 49 10000 3.09 50 21:47 28.04.2022
1752 Clear 18 1025 43 10000 3.6 50 20:57 28.04.2022
1753 Clear 19 1025 41 10000 4.12 70 20:24 28.04.2022
1754 Clear 20 1025 38 10000 6.17 40 19:41 28.04.2022
1755 Clear 20 1024 37 10000 6.17 40 19:21 28.04.2022
1756 Clear 21 1024 36 10000 6.69 80 18:35 28.04.2022
1757 Clear 21 1025 34 10000 5.14 70 17:20 28.04.2022
1758 Clear 21 1025 35 10000 5.14 60 16:40 28.04.2022
1759 Clear 21 1025 35 10000 5.14 60 16:18 28.04.2022
1760 Clear 21 1025 39 10000 5.66 60 15:27 28.04.2022
1761 Clear 19 1025 44 10000 7.72 70 13:44 28.04.2022
1762 Clear 18 1026 51 10000 6.69 60 12:44 28.04.2022
1763 Clear 17 1026 53 10000 6.69 60 11:58 28.04.2022
1764 Clear 15 1026 63 10000 5.14 60 10:46 28.04.2022
1765 Clear 13 1026 68 10000 4.63 50 09:54 28.04.2022
1766 Clear 10 1025 78 10000 4.63 30 08:31 28.04.2022
1767 Clear 8 1025 81 10000 3.6 30 07:19 28.04.2022
1768 Clear 9 1024 78 10000 4.63 30 05:56 28.04.2022
1769 Clear 9 1024 78 10000 5.14 30 05:38 28.04.2022
1770 Clear 10 1024 76 10000 5.14 30 04:39 28.04.2022
1771 Clear 14 1023 65 10000 5.66 40 00:30 28.04.2022
1772 Clear 15 1023 58 10000 6.17 40 22:40 27.04.2022
1773 Clear 16 1022 55 10000 5.14 40 21:55 27.04.2022
1774 Clear 16 1022 52 10000 4.63 50 21:18 27.04.2022
1775 Clear 18 1022 46 10000 6.17 60 20:37 27.04.2022
1776 Clear 18 1021 46 10000 6.69 30 19:38 27.04.2022
1777 Clear 18 1021 46 10000 6.69 30 19:18 27.04.2022
1778 Clear 19 1021 46 10000 7.2 60 18:22 27.04.2022
1779 Clear 19 1021 45 10000 7.2 60 18:22 27.04.2022
1780 Clear 18 1021 46 10000 7.2 60 18:22 27.04.2022
1781 Clear 18 1021 47 10000 6.17 50 17:24 27.04.2022
1782 Clear 18 1022 50 10000 6.17 60 15:21 27.04.2022
1783 Clear 14 1023 63 10000 4.12 40 12:27 27.04.2022
1784 Clear 13 1023 66 10000 3.6 40 11:21 27.04.2022
1785 Clear 10 1023 73 9000 3.6 40 09:45 27.04.2022
1786 Clear 6 1022 84 9000 4.63 30 07:19 27.04.2022
1787 Clear 7 1022 78 10000 4.63 30 05:37 27.04.2022
1788 Clear 9 1022 67 10000 5.66 40 01:35 27.04.2022
1789 Clear 10 1021 66 10000 6.17 40 00:52 27.04.2022
1790 Clear 11 1021 67 10000 5.14 10 23:57 26.04.2022
1791 Clear 12 1020 65 10000 3.6 50 23:23 26.04.2022
1792 Clear 12 1020 64 10000 4.12 50 22:41 26.04.2022
1793 Clear 13 1020 62 10000 4.12 50 21:49 26.04.2022
1794 Clouds 14 1019 57 10000 4.12 50 20:54 26.04.2022
1795 Clear 14 1019 55 10000 4.12 20 20:34 26.04.2022
1796 Clear 15 1019 54 10000 5.14 60 19:33 26.04.2022
1797 Clear 15 1019 54 10000 5.14 60 18:51 26.04.2022
1798 Clouds 15 1018 56 10000 4.12 50 18:18 26.04.2022
1799 Clouds 15 1018 56 10000 4.12 50 18:18 26.04.2022
1800 Clouds 16 1018 55 10000 4.63 20 17:32 26.04.2022
1801 Clouds 14 1019 62 10000 4.12 30 14:46 26.04.2022
1802 Clouds 13 1019 67 8000 4.63 30 13:34 26.04.2022
1803 Clouds 12 1019 69 6000 5.14 20 12:25 26.04.2022
1804 Clouds 11 1018 76 7000 4.12 350 10:46 26.04.2022
1805 Mist 10 1017 85 4300 3.6 30 09:41 26.04.2022
1806 Mist 8 1017 92 5000 3.6 360 08:28 26.04.2022
1807 Clear 8 1015 87 10000 3.09 350 04:37 26.04.2022
1808 Clear 8 1015 81 10000 3.6 10 02:20 26.04.2022
1809 Clear 10 1015 74 10000 4.12 360 00:28 26.04.2022
1810 Clear 11 1014 65 10000 4.12 20 22:50 25.04.2022
1811 Clear 13 1013 57 10000 5.36 44 21:44 25.04.2022
1812 Clear 14 1013 52 10000 4.12 350 20:46 25.04.2022
1813 Clear 16 1012 47 10000 5.66 330 19:39 25.04.2022
1814 Clear 16 1012 41 10000 6.69 340 18:25 25.04.2022
1815 Clear 16 1012 41 10000 4.12 330 17:32 25.04.2022
1816 Clear 16 1012 45 10000 4.12 340 15:38 25.04.2022
1817 Clouds 16 1011 48 10000 3.6 350 15:18 25.04.2022
1818 Clouds 15 1011 60 10000 3.6 360 13:43 25.04.2022
1819 Clouds 13 1011 71 10000 5.66 20 12:22 25.04.2022
1820 Clouds 10 1011 81 9000 4.63 350 10:27 25.04.2022
1821 Clouds 9 1010 84 7000 5.14 360 09:23 25.04.2022
1822 Clear 9 1009 84 10000 3.6 330 07:19 25.04.2022
1823 Clear 10 1008 78 10000 4.12 350 05:32 25.04.2022
1824 Clear 13 1008 67 10000 4.12 340 01:24 25.04.2022
1825 Clear 14 1007 65 10000 4.63 10 23:53 24.04.2022
1826 Clear 15 1007 63 10000 5.36 43 22:53 24.04.2022
1827 Clear 15 1006 60 10000 3.09 330 22:32 24.04.2022
1828 Clear 16 1006 55 10000 2.57 330 21:54 24.04.2022
1829 Clear 17 1005 53 10000 2.57 330 21:20 24.04.2022
1830 Clear 17 1005 52 10000 3.6 330 20:38 24.04.2022
1831 Clear 17 1004 51 10000 4.12 330 19:51 24.04.2022
1832 Clear 18 1004 49 10000 4.12 360 18:28 24.04.2022
1833 Clear 19 1003 49 10000 4.63 330 17:40 24.04.2022
1834 Clear 19 1003 50 10000 4.12 360 17:20 24.04.2022
1835 Clear 19 1003 50 10000 4.12 360 16:49 24.04.2022
1836 Clear 18 1003 52 10000 3.09 360 16:20 24.04.2022
1837 Clear 18 1003 52 10000 3.6 350 15:36 24.04.2022
1838 Clouds 18 1003 55 10000 4.63 350 14:30 24.04.2022
1839 Clear 17 1002 60 10000 5.14 350 13:26 24.04.2022
1840 Clear 16 1002 62 10000 5.14 340 12:44 24.04.2022
1841 Clear 15 1001 67 10000 4.12 360 11:44 24.04.2022
1842 Clear 14 1001 70 10000 4.12 350 10:32 24.04.2022
1843 Clear 13 1001 76 10000 3.6 360 09:41 24.04.2022
1844 Clear 9 1000 88 10000 2.57 330 07:39 24.04.2022
1845 Clear 10 999 83 10000 3.09 20 05:32 24.04.2022
1846 Clear 14 998 74 10000 5.14 70 01:50 24.04.2022
1847 Clear 14 998 69 10000 5.66 60 00:38 24.04.2022
1848 Clear 15 997 67 10000 5.14 60 23:45 23.04.2022
1849 Clear 15 997 66 10000 5.66 40 23:22 23.04.2022
1850 Clear 15 996 68 10000 7.2 70 21:55 23.04.2022
1851 Clear 16 996 66 10000 6.17 70 21:35 23.04.2022
1852 Clear 16 996 68 10000 5.66 80 20:58 23.04.2022
1853 Clear 16 996 67 10000 6.69 90 19:54 23.04.2022
1854 Clear 16 996 69 10000 7.72 100 19:19 23.04.2022
1855 Clouds 16 996 70 10000 7.2 110 18:53 23.04.2022
1856 Clouds 17 995 64 10000 7.2 50 18:28 23.04.2022
1857 Clouds 18 995 62 10000 6.69 60 17:43 23.04.2022
1858 Rain 19 996 56 10000 7.2 60 16:43 23.04.2022
1859 Clouds 20 996 52 10000 7.2 60 15:32 23.04.2022
1860 Clear 17 996 64 10000 5.14 60 12:50 23.04.2022
1861 Clear 14 997 71 10000 4.12 40 10:50 23.04.2022
1862 Clear 12 997 74 10000 4.63 70 09:38 23.04.2022
1863 Clear 10 997 79 10000 4.12 50 07:38 23.04.2022
1864 Clear 11 998 75 10000 4.12 30 03:54 23.04.2022
1865 Clear 12 999 69 10000 3.6 40 01:32 23.04.2022
1866 Clear 14 1000 63 10000 4.12 50 23:32 22.04.2022
1867 Clear 15 1000 58 10000 4.12 60 22:28 22.04.2022
1868 Clear 16 1000 55 10000 5.14 60 21:44 22.04.2022
1869 Clear 17 1000 52 10000 5.14 50 20:55 22.04.2022
1870 Clear 17 1000 50 10000 5.66 40 20:28 22.04.2022
1871 Clear 18 1000 47 10000 4.12 50 19:22 22.04.2022
1872 Clear 19 1000 44 10000 5.14 70 18:46 22.04.2022
1873 Clear 19 1000 44 10000 4.63 70 17:54 22.04.2022
1874 Clear 19 1000 44 10000 5.14 60 16:52 22.04.2022
1875 Clear 19 1000 45 10000 5.14 60 15:47 22.04.2022
1876 Clear 19 1000 45 10000 6.17 30 15:21 22.04.2022
1877 Clear 18 1001 48 10000 6.17 70 13:54 22.04.2022
1878 Clouds 18 1001 48 10000 6.69 50 13:27 22.04.2022
1879 Clear 16 1002 51 10000 7.2 60 12:29 22.04.2022
1880 Clear 15 1002 57 10000 6.17 50 11:22 22.04.2022
1881 Clear 14 1002 61 10000 6.17 70 10:52 22.04.2022
1882 Clear 14 1002 64 10000 6.17 60 10:31 22.04.2022
1883 Clear 13 1002 67 10000 6.17 50 09:54 22.04.2022
1884 Clear 11 1002 71 10000 5.66 50 08:56 22.04.2022
1885 Clear 11 1003 74 10000 4.63 40 08:24 22.04.2022
1886 Clear 10 1003 75 10000 4.63 60 05:20 22.04.2022
1887 Clear 13 1005 58 10000 4.63 40 00:53 22.04.2022
1888 Clear 14 1005 58 10000 4.63 30 23:29 21.04.2022
1889 Clear 15 1005 58 10000 3.09 10 22:29 21.04.2022
1890 Clear 15 1005 58 10000 3.09 10 22:29 21.04.2022
1891 Clear 18 1005 48 10000 6.69 60 20:55 21.04.2022
1892 Clear 18 1005 47 10000 6.17 70 20:27 21.04.2022
1893 Clear 19 1005 44 10000 6.69 50 18:48 21.04.2022
1894 Clear 19 1005 43 10000 6.69 70 18:19 21.04.2022
1895 Clear 20 1005 40 10000 6.17 40 16:53 21.04.2022
1896 Clear 20 1006 36 10000 6.17 70 15:24 21.04.2022
1897 Clear 19 1007 37 10000 6.17 70 14:51 21.04.2022
1898 Clear 19 1007 37 10000 6.69 60 13:56 21.04.2022
1899 Clear 17 1007 40 10000 7.2 60 13:20 21.04.2022
1900 Clear 15 1008 49 10000 5.66 50 11:37 21.04.2022
1901 Clear 12 1009 55 10000 4.63 40 09:23 21.04.2022
1902 Clear 10 1009 61 10000 3.09 40 08:29 21.04.2022
1903 Clear 9 1009 59 10000 3.6 10 06:26 21.04.2022
1904 Clear 10 1010 59 10000 3.09 10 03:39 21.04.2022
1905 Clear 10 1010 60 10000 3.6 60 03:18 21.04.2022
1906 Clear 10 1010 63 10000 3.09 70 02:43 21.04.2022
1907 Clear 12 1011 55 10000 2.57 360 00:27 21.04.2022
1908 Clear 13 1010 52 10000 2.57 360 23:25 20.04.2022
1909 Clear 14 1010 49 10000 3.6 70 22:58 20.04.2022
1910 Clear 14 1010 48 10000 3.6 50 22:33 20.04.2022
1911 Clear 16 1010 41 10000 4.63 80 21:35 20.04.2022
1912 Clear 17 1010 36 10000 5.14 80 20:43 20.04.2022
1913 Clear 17 1010 36 10000 5.14 80 20:20 20.04.2022
1914 Clear 18 1010 35 10000 5.14 70 19:38 20.04.2022
1915 Clear 18 1010 35 10000 5.66 60 18:45 20.04.2022
1916 Clear 19 1010 37 10000 5.66 60 17:18 20.04.2022
1917 Clear 20 1010 38 10000 5.66 60 16:39 20.04.2022
1918 Clear 19 1010 41 10000 6.69 70 14:55 20.04.2022
1919 Clear 16 1012 55 10000 3.6 60 12:22 20.04.2022
1920 Clear 15 1012 59 10000 3.6 70 11:40 20.04.2022
1921 Clear 13 1012 67 10000 4.12 40 10:39 20.04.2022
1922 Clouds 10 1012 80 8000 3.09 10 09:28 20.04.2022
1923 Clouds 9 1012 84 6000 3.6 350 08:27 20.04.2022
1924 Clouds 8 1012 87 6000 3.6 350 07:53 20.04.2022
1925 Clouds 8 1011 87 9000 3.09 340 05:29 20.04.2022
1926 Clear 10 1012 78 10000 5.14 340 01:37 20.04.2022
1927 Clear 11 1013 71 10000 5.14 340 00:21 20.04.2022
1928 Clear 13 1013 66 10000 5.66 350 22:53 19.04.2022
1929 Clear 13 1013 67 10000 6.17 330 22:23 19.04.2022
1930 Clear 14 1013 65 10000 5.14 340 21:49 19.04.2022
1931 Clear 15 1012 63 10000 4.63 330 20:58 19.04.2022
1932 Clear 16 1012 61 10000 5.66 310 20:37 19.04.2022
1933 Clear 17 1012 56 10000 4.63 330 19:32 19.04.2022
1934 Clear 18 1012 54 10000 4.63 320 18:31 19.04.2022
1935 Clouds 18 1012 54 10000 4.63 330 16:55 19.04.2022
1936 Clouds 17 1012 56 10000 5.14 330 16:33 19.04.2022
1937 Clouds 17 1013 58 10000 4.12 280 15:59 19.04.2022
1938 Clouds 17 1013 58 10000 5.66 280 14:46 19.04.2022
1939 Clear 16 1014 59 10000 3.09 10 12:58 19.04.2022
1940 Clear 15 1014 61 10000 3.09 10 12:36 19.04.2022
1941 Clear 13 1014 62 10000 3.6 360 11:35 19.04.2022
1942 Clear 11 1015 76 10000 3.6 340 09:51 19.04.2022
1943 Clear 8 1015 86 10000 4.12 320 08:22 19.04.2022
1944 Clear 9 1015 77 10000 3.09 340 04:26 19.04.2022
1945 Clear 10 1015 80 10000 3.09 360 02:41 19.04.2022
1946 Clear 12 1016 80 10000 6.69 340 00:23 19.04.2022
1947 Clear 14 1016 73 10000 5.66 330 22:54 18.04.2022
1948 Clear 16 1015 45 10000 2.57 340 21:28 18.04.2022
1949 Clear 17 1015 40 10000 2.57 340 20:46 18.04.2022
1950 Clear 18 1014 38 10000 2.57 330 20:25 18.04.2022
1951 Clear 19 1014 36 10000 2.57 330 19:41 18.04.2022
1952 Clear 19 1014 34 10000 3.09 20 18:52 18.04.2022
1953 Clear 19 1015 32 10000 2.57 340 17:49 18.04.2022
1954 Clear 20 1015 31 10000 1.54 0 17:28 18.04.2022
1955 Clear 20 1015 32 10000 2.57 20 16:40 18.04.2022
1956 Clear 19 1015 32 10000 2.57 60 15:54 18.04.2022
1957 Clear 19 1016 34 10000 3.09 10 14:42 18.04.2022
1958 Clear 19 1016 33 10000 3.09 10 14:42 18.04.2022
1959 Clear 18 1016 38 10000 2.57 20 13:31 18.04.2022
1960 Clear 16 1017 42 10000 2.68 28 12:28 18.04.2022
1961 Clear 14 1017 47 10000 1.03 0 11:20 18.04.2022
1962 Clear 13 1017 50 10000 1.54 0 10:29 18.04.2022
1963 Clear 11 1017 57 10000 2.06 70 09:30 18.04.2022
1964 Clear 7 1017 63 10000 2.06 350 07:35 18.04.2022
1965 Clear 10 1017 54 10000 2.57 20 05:35 18.04.2022
1966 Clear 14 1018 49 10000 3.6 100 23:51 17.04.2022
1967 Clear 14 1019 48 10000 3.09 110 22:40 17.04.2022
1968 Clear 16 1018 45 10000 3.6 110 21:42 17.04.2022
1969 Clear 16 1018 42 10000 4.12 110 21:21 17.04.2022
1970 Clear 18 1019 36 10000 4.63 90 20:33 17.04.2022
1971 Clear 21 1019 29 10000 4.63 80 19:23 17.04.2022
1972 Clear 21 1019 28 10000 5.14 90 17:43 17.04.2022
1973 Clear 20 1020 30 10000 5.14 80 15:39 17.04.2022
1974 Clear 20 1021 29 10000 5.14 90 14:54 17.04.2022
1975 Clear 20 1021 29 10000 5.14 90 14:54 17.04.2022
1976 Clear 18 1022 32 10000 4.63 100 13:47 17.04.2022
1977 Clear 17 1022 35 10000 4.63 90 12:58 17.04.2022
1978 Clear 15 1023 40 10000 4.63 90 12:18 17.04.2022
1979 Clear 12 1024 48 10000 4.63 120 10:46 17.04.2022
1980 Clear 12 1024 49 10000 4.63 120 10:27 17.04.2022
1981 Clear 12 1024 49 10000 4.63 120 10:27 17.04.2022
1982 Clear 10 1025 54 10000 3.6 90 09:29 17.04.2022
1983 Clear 9 1025 61 10000 4.12 80 08:42 17.04.2022
1984 Clear 7 1025 63 10000 3.09 80 07:26 17.04.2022
1985 Clear 10 1025 64 10000 4.63 80 03:53 17.04.2022
1986 Clear 13 1026 59 10000 4.12 80 00:55 17.04.2022
1987 Clear 13 1026 60 10000 3.6 80 23:50 16.04.2022
1988 Clear 15 1026 58 10000 4.63 70 22:29 16.04.2022
1989 Clear 16 1026 53 10000 5.14 60 21:31 16.04.2022
1990 Clear 18 1026 49 10000 6.17 60 20:32 16.04.2022
1991 Clear 19 1025 45 10000 6.69 40 18:59 16.04.2022
1992 Clear 19 1026 46 10000 6.17 60 17:46 16.04.2022
1993 Clear 19 1026 45 10000 6.69 50 16:39 16.04.2022
1994 Clear 19 1026 44 10000 5.14 50 15:45 16.04.2022
1995 Clear 19 1027 45 10000 5.14 50 14:56 16.04.2022
1996 Clear 18 1027 50 10000 5.14 50 13:58 16.04.2022
1997 Clear 18 1027 53 10000 5.66 70 13:32 16.04.2022
1998 Clear 16 1027 66 10000 4.63 40 12:22 16.04.2022
1999 Clear 14 1027 71 9000 4.12 40 10:50 16.04.2022
2000 Clear 12 1027 77 9000 4.12 40 09:56 16.04.2022
2001 Clear 11 1027 82 9000 4.12 30 08:57 16.04.2022
2002 Clear 9 1027 87 8000 3.6 40 07:52 16.04.2022
2003 Clear 10 1026 85 10000 4.12 20 06:58 16.04.2022
2004 Clear 12 1027 78 10000 3.6 40 02:52 16.04.2022
2005 Clear 14 1026 72 10000 4.12 40 00:30 16.04.2022
2006 Clear 15 1026 67 10000 3.6 30 23:21 15.04.2022
2007 Clear 16 1026 63 10000 3.6 20 22:32 15.04.2022
2008 Clear 17 1025 61 10000 4.63 20 21:50 15.04.2022
2009 Clear 18 1025 59 10000 5.14 30 21:18 15.04.2022
2010 Clear 19 1025 56 10000 4.47 43 20:22 15.04.2022
2011 Clear 20 1025 53 10000 4.12 50 19:40 15.04.2022
2012 Clear 21 1024 51 10000 4.63 20 18:54 15.04.2022
2013 Clear 21 1024 50 10000 4.63 30 18:25 15.04.2022
2014 Clear 21 1024 49 10000 3.6 40 17:34 15.04.2022
2015 Clear 21 1024 48 10000 3.6 50 16:53 15.04.2022
2016 Clouds 21 1025 49 10000 3.6 10 16:19 15.04.2022
2017 Clouds 20 1025 50 10000 3.09 340 15:24 15.04.2022
2018 Clouds 19 1025 55 10000 2.57 0 13:41 15.04.2022
2019 Clear 18 1026 60 10000 3.6 10 12:42 15.04.2022
2020 Clear 18 1026 62 10000 3.6 360 11:57 15.04.2022
2021 Clear 18 1026 62 10000 3.6 360 11:57 15.04.2022
2022 Clear 18 1026 63 10000 3.09 360 11:34 15.04.2022
2023 Clear 16 1026 73 10000 2.06 10 10:43 15.04.2022
2024 Clear 14 1026 82 10000 2.06 360 09:47 15.04.2022
2025 Clear 12 1025 88 10000 1.54 340 09:21 15.04.2022
2026 Clear 10 1025 89 10000 1.54 330 07:44 15.04.2022
2027 Clear 10 1024 88 10000 1.54 270 06:37 15.04.2022
2028 Clear 12 1024 83 10000 1.54 20 03:21 15.04.2022
2029 Clear 15 1023 72 10000 3.09 40 23:32 14.04.2022
2030 Clear 15 1024 72 10000 2.06 10 22:49 14.04.2022
2031 Clear 16 1023 68 10000 3.09 60 22:31 14.04.2022
2032 Clear 16 1023 69 10000 3.6 60 21:59 14.04.2022
2033 Clear 17 1023 65 10000 3.6 50 21:30 14.04.2022
2034 Clear 20 1022 51 10000 3.09 360 19:24 14.04.2022
2035 Clear 21 1021 48 10000 3.09 360 18:30 14.04.2022
2036 Clear 21 1021 48 10000 3.09 320 17:44 14.04.2022
2037 Clear 21 1021 47 10000 3.09 360 16:46 14.04.2022
2038 Clear 20 1021 50 10000 2.57 360 15:48 14.04.2022
2039 Clouds 19 1022 59 10000 2.06 350 13:49 14.04.2022
2040 Clear 19 1022 62 10000 2.06 50 13:18 14.04.2022
2041 Clear 18 1022 68 10000 2.57 60 12:32 14.04.2022
2042 Clear 17 1022 79 10000 3.09 60 11:36 14.04.2022
2043 Clear 16 1022 84 10000 2.57 70 10:56 14.04.2022
2044 Clouds 14 1022 91 10000 2.06 80 10:27 14.04.2022
2045 Clouds 12 1022 95 9000 1.54 350 09:26 14.04.2022
2046 Mist 10 1021 95 2900 0.51 360 07:52 14.04.2022
2047 Fog 11 1020 96 6000 1.54 220 05:23 14.04.2022
2048 Clear 13 1020 91 10000 1.54 320 00:22 14.04.2022
2049 Clear 14 1020 88 10000 1.54 280 22:37 13.04.2022
2050 Clear 15 1020 83 10000 1.54 220 21:42 13.04.2022
2051 Clear 15 1019 77 10000 1.54 160 20:35 13.04.2022
2052 Clouds 16 1018 72 10000 2.06 150 19:47 13.04.2022
2053 Clouds 16 1018 72 10000 2.57 170 18:37 13.04.2022
2054 Clouds 16 1018 73 10000 1.03 0 17:25 13.04.2022
2055 Clouds 16 1018 76 10000 1.54 0 16:52 13.04.2022
2056 Clouds 15 1018 83 10000 2.06 210 15:45 13.04.2022
2057 Clouds 15 1018 83 10000 1.54 0 15:23 13.04.2022
2058 Drizzle 15 1018 85 10000 1.54 0 14:34 13.04.2022
2059 Rain 14 1018 87 10000 2.06 190 13:38 13.04.2022
2060 Rain 14 1017 89 10000 3.6 160 12:51 13.04.2022
2061 Rain 13 1017 96 9000 1.54 30 11:32 13.04.2022
2062 Rain 13 1016 95 4400 1.54 290 10:31 13.04.2022
2063 Rain 12 1015 96 9000 1.03 90 08:45 13.04.2022
2064 Rain 12 1014 95 10000 0.51 0 07:57 13.04.2022
2065 Rain 13 1014 93 10000 1.54 0 06:48 13.04.2022
2066 Rain 12 1014 91 10000 1.54 220 06:24 13.04.2022
2067 Clear 14 1013 78 10000 3.09 250 01:51 13.04.2022
2068 Clear 15 1012 74 10000 2.57 230 00:19 13.04.2022
2069 Clear 16 1011 71 10000 3.09 250 22:33 12.04.2022
2070 Clear 16 1011 68 10000 2.57 200 21:54 12.04.2022
2071 Clear 17 1010 64 10000 5.66 230 20:48 12.04.2022
2072 Clear 18 1010 62 10000 5.66 260 20:20 12.04.2022
2073 Clear 18 1010 59 10000 4.63 240 19:40 12.04.2022
2074 Clear 19 1009 58 10000 5.66 240 18:56 12.04.2022
2075 Clear 21 1008 50 10000 7.2 230 17:39 12.04.2022
2076 Clear 21 1008 47 10000 6.69 190 16:47 12.04.2022
2077 Clear 20 1008 49 10000 6.69 200 15:35 12.04.2022
2078 Clear 20 1008 47 10000 8.23 180 14:53 12.04.2022
2079 Clear 20 1007 50 10000 7.72 190 13:53 12.04.2022
2080 Clear 19 1007 51 10000 6.17 190 13:27 12.04.2022
2081 Clear 18 1007 52 10000 5.14 200 12:21 12.04.2022
2082 Clear 17 1007 53 10000 5.66 200 11:39 12.04.2022
2083 Clear 14 1008 65 10000 4.63 170 09:52 12.04.2022
2084 Clear 12 1007 77 10000 3.6 140 08:51 12.04.2022
2085 Clear 11 1006 79 10000 3.6 140 07:20 12.04.2022
2086 Clear 12 1006 78 10000 3.09 140 05:42 12.04.2022
2087 Clear 13 1006 76 10000 4.12 140 02:49 12.04.2022
2088 Clear 15 1007 65 10000 3.6 120 23:25 11.04.2022
2089 Clear 16 1007 62 10000 4.12 110 22:33 11.04.2022
2090 Clear 17 1007 56 10000 4.12 110 21:23 11.04.2022
2091 Clear 17 1007 53 10000 4.63 100 20:37 11.04.2022
2092 Clear 18 1007 50 10000 5.66 110 20:19 11.04.2022
2093 Clear 19 1007 44 10000 5.14 120 19:27 11.04.2022
2094 Clear 19 1007 42 10000 5.14 120 18:56 11.04.2022
2095 Clear 20 1008 40 10000 4.63 120 17:58 11.04.2022
2096 Clear 19 1008 38 10000 6.17 120 17:39 11.04.2022
2097 Clear 19 1008 41 10000 7.2 110 16:36 11.04.2022
2098 Clear 18 1009 44 10000 5.66 130 15:21 11.04.2022
2099 Clear 16 1010 48 10000 5.66 130 13:37 11.04.2022
2100 Clear 14 1010 50 10000 5.14 100 12:40 11.04.2022
2101 Clear 14 1010 51 10000 5.14 100 12:21 11.04.2022
2102 Clear 10 1011 61 10000 4.12 90 10:47 11.04.2022
2103 Clear 8 1011 64 10000 4.63 90 09:58 11.04.2022
2104 Clear 5 1012 72 10000 3.09 60 08:22 11.04.2022
2105 Clear 6 1013 73 10000 4.12 100 04:56 11.04.2022
2106 Clear 9 1016 65 10000 4.12 80 00:30 11.04.2022
2107 Clear 10 1017 61 10000 3.6 90 22:27 10.04.2022
2108 Clear 11 1017 59 10000 4.12 80 21:53 10.04.2022
2109 Clear 12 1017 54 10000 4.12 100 20:55 10.04.2022
2110 Clear 12 1017 50 10000 4.12 110 20:18 10.04.2022
2111 Clear 13 1017 48 10000 5.14 130 19:36 10.04.2022
2112 Clear 13 1017 46 10000 4.63 140 18:50 10.04.2022
2113 Clear 14 1018 45 10000 3.6 130 18:26 10.04.2022
2114 Clear 14 1018 45 10000 4.12 160 17:44 10.04.2022
2115 Clear 15 1018 44 10000 4.63 150 16:59 10.04.2022
2116 Clear 14 1019 45 10000 3.6 160 15:40 10.04.2022
2117 Clear 13 1020 46 10000 4.12 190 14:42 10.04.2022
2118 Clear 12 1021 47 10000 2.57 0 13:44 10.04.2022
2119 Clear 11 1022 55 10000 1.54 0 12:32 10.04.2022
2120 Clear 9 1021 62 10000 2.57 140 11:44 10.04.2022
2121 Clear 9 1021 65 10000 2.57 120 11:18 10.04.2022
2122 Clear 8 1021 70 10000 2.57 100 10:31 10.04.2022
2123 Clear 6 1021 82 10000 1.03 0 09:41 10.04.2022
2124 Clear 1 1021 91 9000 1.54 360 08:28 10.04.2022
2125 Clear 1 1021 90 8000 1.54 10 07:57 10.04.2022
2126 Clear 0 1021 91 8000 1.54 360 06:59 10.04.2022
2127 Clear 3 1020 84 10000 1.03 10 03:38 10.04.2022
2128 Clear 3 1020 82 10000 2.57 290 02:19 10.04.2022
2129 Clear 5 1020 79 10000 3.09 280 23:53 09.04.2022
2130 Clear 6 1019 75 10000 2.06 310 22:56 09.04.2022
2131 Clouds 6 1019 75 10000 2.06 310 22:33 09.04.2022
2132 Clear 8 1018 64 10000 2.57 320 21:19 09.04.2022
2133 Clear 10 1018 57 10000 4.12 330 20:30 09.04.2022
2134 Clear 10 1018 57 10000 4.63 300 19:57 09.04.2022
2135 Clear 10 1018 52 10000 4.63 340 19:39 09.04.2022
2136 Clear 11 1017 56 10000 5.14 350 18:23 09.04.2022
2137 Clear 11 1017 57 10000 4.63 330 17:49 09.04.2022
2138 Clouds 11 1017 61 10000 4.63 260 16:56 09.04.2022
2139 Clouds 10 1017 63 10000 4.63 280 16:38 09.04.2022
2140 Clouds 10 1017 66 10000 2.57 230 15:49 09.04.2022
2141 Clouds 10 1017 63 10000 3.6 280 15:49 09.04.2022
2142 Clouds 10 1017 66 10000 2.57 230 15:49 09.04.2022
2143 Clouds 9 1017 69 10000 2.57 230 15:25 09.04.2022
2144 Clouds 8 1017 81 10000 2.57 10 14:25 09.04.2022
2145 Clouds 7 1017 83 10000 4.63 320 13:26 09.04.2022
2146 Clouds 6 1016 87 10000 3.6 320 12:54 09.04.2022
2147 Clouds 6 1015 90 10000 4.12 320 11:50 09.04.2022
2148 Clouds 5 1015 93 10000 5.14 300 10:52 09.04.2022
2149 Clouds 5 1014 95 10000 4.63 280 10:18 09.04.2022
2150 Clouds 4 1014 95 10000 3.6 270 09:22 09.04.2022
2151 Clouds 3 1013 96 10000 1.03 240 08:18 09.04.2022
2152 Drizzle 4 1011 94 10000 5.14 250 04:38 09.04.2022
2153 Clouds 4 1007 94 10000 6.17 280 00:35 09.04.2022
2154 Clouds 4 1006 95 10000 4.63 280 23:23 08.04.2022
2155 Clouds 3 1003 96 10000 7.2 340 21:53 08.04.2022
2156 Clouds 2 998 96 10000 6.69 360 20:44 08.04.2022
2157 Clouds 2 997 96 10000 7.72 10 19:50 08.04.2022
2158 Clouds 4 995 96 10000 8.75 10 18:56 08.04.2022
2159 Clouds 4 994 96 10000 7.2 20 18:24 08.04.2022
2160 Mist 6 993 96 5000 5.14 30 17:29 08.04.2022
2161 Drizzle 6 993 97 10000 4.63 70 16:58 08.04.2022
2162 Clouds 6 994 94 10000 6.69 360 16:31 08.04.2022
2163 Drizzle 8 994 96 10000 7.6 42 15:37 08.04.2022
2164 Clouds 7 993 97 10000 3.6 70 14:52 08.04.2022
2165 Rain 6 994 96 10000 5.66 60 14:21 08.04.2022
2166 Rain 6 994 96 10000 5.14 60 13:36 08.04.2022
2167 Rain 6 995 96 9000 5.66 30 13:18 08.04.2022
2168 Rain 6 996 94 9000 5.66 70 11:41 08.04.2022
2169 Rain 6 997 94 7000 5.14 50 10:26 08.04.2022
2170 Rain 7 999 92 6000 2.57 70 09:20 08.04.2022
2171 Rain 7 1000 89 10000 1.54 170 07:58 08.04.2022
2172 Rain 8 1002 84 10000 3.09 220 06:47 08.04.2022
2173 Clear 8 1004 72 10000 5.14 240 03:48 08.04.2022
2174 Clouds 9 1004 67 10000 7.2 270 00:32 08.04.2022
2175 Clear 9 1004 66 10000 6.17 260 23:53 07.04.2022
2176 Clouds 10 1003 66 10000 7.2 270 22:57 07.04.2022
2177 Clear 10 1003 66 10000 8.75 270 22:37 07.04.2022
2178 Clouds 10 1002 65 10000 8.23 250 22:19 07.04.2022
2179 Clouds 11 1001 62 10000 8.75 270 21:33 07.04.2022
2180 Clear 12 1000 57 10000 8.75 270 20:57 07.04.2022
2181 Clear 12 1000 57 10000 10.29 270 20:28 07.04.2022
2182 Clouds 15 997 54 10000 12.86 270 17:51 07.04.2022
2183 Clouds 15 997 56 10000 12.86 270 17:24 07.04.2022
2184 Clouds 15 997 59 10000 10.8 280 16:42 07.04.2022
2185 Clouds 15 996 61 10000 12.86 280 15:58 07.04.2022
2186 Clouds 14 995 76 10000 10.29 280 14:31 07.04.2022
2187 Rain 13 994 87 10000 9.77 270 13:41 07.04.2022
2188 Rain 14 993 82 10000 12.35 230 12:28 07.04.2022
2189 Clouds 13 993 89 10000 10.8 230 10:58 07.04.2022
2190 Clouds 12 993 90 10000 10.29 210 09:36 07.04.2022
2191 Clouds 12 993 87 10000 9.77 210 08:37 07.04.2022
2192 Rain 11 995 92 10000 8.75 200 06:42 07.04.2022
2193 Clouds 11 1000 84 10000 8.23 230 02:43 07.04.2022
2194 Clouds 11 1000 86 10000 7.72 210 01:52 07.04.2022
2195 Clouds 11 1002 85 10000 8.75 210 23:57 06.04.2022
2196 Clouds 11 1002 80 10000 9.26 210 22:48 06.04.2022
2197 Clouds 11 1002 77 10000 8.23 230 22:25 06.04.2022
2198 Clouds 12 1002 74 10000 7.72 210 21:32 06.04.2022
2199 Clouds 12 1002 75 10000 8.23 220 20:35 06.04.2022
2200 Clouds 12 1002 74 10000 8.23 210 19:53 06.04.2022
2201 Clouds 13 1003 71 10000 7.72 210 18:51 06.04.2022
2202 Clouds 13 1003 70 10000 8.23 210 18:22 06.04.2022
2203 Clouds 13 1003 70 10000 8.75 210 17:35 06.04.2022
2204 Clouds 13 1004 68 10000 8.23 240 16:38 06.04.2022
2205 Clouds 13 1005 70 10000 8.23 210 15:48 06.04.2022
2206 Clouds 12 1006 71 10000 7.2 210 14:57 06.04.2022
2207 Clouds 11 1007 73 10000 7.2 240 13:24 06.04.2022
2208 Clouds 11 1008 74 10000 7.2 230 12:26 06.04.2022
2209 Clouds 10 1008 79 10000 4.63 220 10:48 06.04.2022
2210 Clouds 9 1008 80 10000 4.63 220 10:29 06.04.2022
2211 Clouds 9 1008 82 10000 4.63 210 09:40 06.04.2022
2212 Clouds 9 1008 82 10000 4.63 210 09:40 06.04.2022
2213 Clouds 8 1009 83 10000 4.63 230 08:32 06.04.2022
2214 Clouds 8 1009 82 10000 4.12 230 07:50 06.04.2022
2215 Clouds 8 1010 82 10000 4.63 250 04:30 06.04.2022
2216 Clouds 11 1012 78 10000 6.17 250 23:54 05.04.2022
2217 Clouds 11 1012 79 10000 3.6 240 22:58 05.04.2022
2218 Clouds 12 1011 82 10000 5.14 280 21:23 05.04.2022
2219 Clouds 12 1011 84 10000 4.63 260 20:26 05.04.2022
2220 Clouds 13 1011 83 10000 5.14 260 19:47 05.04.2022
2221 Clouds 13 1011 83 10000 5.14 250 18:18 05.04.2022
2222 Clouds 13 1012 86 10000 5.66 240 16:55 05.04.2022
2223 Clouds 12 1012 88 10000 4.63 250 16:35 05.04.2022
2224 Clouds 12 1013 91 10000 4.63 240 15:35 05.04.2022
2225 Clouds 11 1013 93 10000 4.63 240 14:37 05.04.2022
2226 Mist 11 1013 95 10000 4.63 230 13:38 05.04.2022
2227 Mist 10 1013 94 8000 4.63 230 11:51 05.04.2022
2228 Mist 10 1013 94 8000 4.63 230 11:51 05.04.2022
2229 Mist 10 1013 95 7000 4.63 240 11:33 05.04.2022
2230 Mist 9 1013 94 6000 5.14 240 10:52 05.04.2022
2231 Clouds 8 1013 93 10000 4.12 230 08:55 05.04.2022
2232 Mist 8 1013 93 6000 5.14 230 07:24 05.04.2022
2233 Clouds 8 1014 77 10000 6.69 230 02:43 05.04.2022
2234 Clouds 8 1015 66 10000 6.17 240 23:18 04.04.2022
2235 Clouds 8 1015 66 10000 5.66 230 22:29 04.04.2022
2236 Clouds 8 1015 65 10000 6.17 240 21:22 04.04.2022
2237 Clouds 8 1015 66 10000 6.17 240 20:53 04.04.2022
2238 Clouds 8 1015 62 10000 7.72 230 20:35 04.04.2022
2239 Clouds 9 1015 62 10000 7.2 250 19:26 04.04.2022
2240 Clouds 9 1015 62 10000 7.72 260 18:39 04.04.2022
2241 Clouds 9 1016 59 10000 8.23 250 17:19 04.04.2022
2242 Clouds 10 1016 51 10000 8.23 250 16:27 04.04.2022
2243 Clouds 10 1017 46 10000 8.75 240 15:33 04.04.2022
2244 Clear 10 1017 45 10000 8.23 260 14:46 04.04.2022
2245 Clear 10 1018 41 10000 7.72 230 13:58 04.04.2022
2246 Clear 9 1019 44 10000 7.72 230 12:58 04.04.2022
2247 Clear 8 1020 54 10000 8.23 230 11:29 04.04.2022
2248 Clear 4 1020 70 10000 5.14 240 09:53 04.04.2022
2249 Clear 1 1022 82 10000 2.57 260 05:34 04.04.2022
2250 Clear 1 1023 80 10000 2.57 320 02:51 04.04.2022
2251 Clear 5 1023 62 10000 3.09 320 23:19 03.04.2022
2252 Clear 6 1023 50 10000 2.57 30 22:00 03.04.2022
2253 Clear 6 1023 48 10000 3.09 40 21:27 03.04.2022
2254 Clear 7 1022 45 10000 3.6 10 20:30 03.04.2022
2255 Clear 8 1022 41 10000 5.14 360 18:46 03.04.2022
2256 Clear 8 1022 40 10000 5.14 10 17:56 03.04.2022
2257 Clear 8 1022 40 10000 5.14 10 17:36 03.04.2022
2258 Clear 9 1022 40 10000 7.2 20 16:50 03.04.2022
2259 Clear 8 1023 41 10000 6.17 30 15:56 03.04.2022
2260 Clear 8 1023 41 10000 7.2 10 14:25 03.04.2022
2261 Clear 7 1024 41 10000 7.72 30 13:28 03.04.2022
2262 Clear 6 1024 46 10000 5.66 360 11:51 03.04.2022
2263 Clear 3 1023 66 10000 5.14 20 09:59 03.04.2022
2264 Clear 2 1023 70 10000 3.6 350 09:18 03.04.2022
2265 Clear 3 1022 69 10000 4.12 20 06:28 03.04.2022
2266 Clear 4 1022 63 10000 4.63 30 02:56 03.04.2022
2267 Clear 4 1021 58 10000 5.14 50 23:50 02.04.2022
2268 Clear 4 1021 58 10000 4.63 40 22:51 02.04.2022
2269 Clear 5 1020 58 10000 6.17 50 21:56 02.04.2022
2270 Clear 5 1020 58 10000 6.17 50 21:56 02.04.2022
2271 Clear 5 1020 57 10000 5.14 50 21:26 02.04.2022
2272 Clear 5 1019 52 10000 7.2 30 20:39 02.04.2022
2273 Clear 7 1018 45 10000 7.72 30 18:51 02.04.2022
2274 Clear 7 1018 44 10000 7.72 20 18:20 02.04.2022
2275 Clear 7 1017 43 10000 7.72 20 17:43 02.04.2022
2276 Clear 7 1018 43 10000 9.77 20 15:59 02.04.2022
2277 Clouds 7 1018 41 10000 9.39 42 15:20 02.04.2022
2278 Clear 7 1017 44 10000 9.77 10 14:42 02.04.2022
2279 Clear 6 1017 49 10000 9.26 30 13:34 02.04.2022
2280 Clouds 6 1017 52 10000 8.75 20 12:34 02.04.2022
2281 Clouds 4 1017 62 10000 8.23 10 10:50 02.04.2022
2282 Clear 1 1016 77 10000 5.14 330 08:44 02.04.2022
2283 Clear 1 1014 77 10000 5.66 360 06:43 02.04.2022
2284 Clear 3 1014 73 10000 6.17 360 03:31 02.04.2022
2285 Clear 3 1014 81 10000 5.66 360 23:55 01.04.2022
2286 Clear 3 1013 79 10000 7.72 20 23:18 01.04.2022
2287 Clouds 3 1012 81 10000 7.6 43 21:32 01.04.2022
2288 Clouds 3 1011 81 10000 7.72 10 20:50 01.04.2022
2289 Clouds 3 1010 81 10000 5.66 360 19:57 01.04.2022
2290 Clouds 3 1010 83 10000 8.75 20 19:31 01.04.2022
2291 Clouds 3 1010 85 10000 9.39 41 18:45 01.04.2022
2292 Snow 2 1009 89 10000 8.23 10 17:46 01.04.2022
2293 Snow 2 1009 91 10000 8.75 20 16:48 01.04.2022
2294 Rain 2 1008 88 10000 7.2 360 15:36 01.04.2022
2295 Snow 2 1007 87 10000 6.69 10 14:20 01.04.2022
2296 Rain 2 1007 87 10000 7.2 360 13:33 01.04.2022
2297 Clouds 2 1007 89 10000 8.23 360 12:32 01.04.2022
2298 Rain 1 1006 93 10000 7.6 43 11:37 01.04.2022
2299 Snow 1 1005 92 5000 5.66 320 10:18 01.04.2022
2300 Snow 1 1004 88 3800 8.75 330 08:30 01.04.2022
2301 Snow 2 1003 89 10000 9.26 300 06:39 01.04.2022
2302 Clouds 2 1004 84 10000 9.26 300 04:49 01.04.2022
2303 Clouds 2 1004 81 10000 9.77 320 04:30 01.04.2022
2304 Clouds 3 1005 73 10000 8.23 340 01:55 01.04.2022
2305 Clouds 4 1004 75 10000 9.26 350 22:58 31.03.2022
2306 Clouds 4 1004 76 10000 8.23 360 21:50 31.03.2022
2307 Clouds 4 1003 76 10000 8.23 360 21:32 31.03.2022
2308 Clouds 5 1002 74 10000 10.73 39 20:29 31.03.2022
2309 Clouds 7 1002 65 10000 7.2 330 19:48 31.03.2022
2310 Clouds 7 1001 63 10000 7.2 320 18:44 31.03.2022
2311 Clouds 7 1001 69 10000 6.69 330 17:49 31.03.2022
2312 Clouds 7 1002 67 10000 5.66 10 16:38 31.03.2022
2313 Clouds 7 1002 75 10000 5.14 360 15:43 31.03.2022
2314 Rain 6 1002 79 10000 7.15 43 15:19 31.03.2022
2315 Clouds 5 1002 82 10000 7.2 20 14:35 31.03.2022
2316 Rain 4 1001 92 10000 6.17 340 11:57 31.03.2022
2317 Rain 4 1001 89 10000 7.2 320 11:20 31.03.2022
2318 Mist 6 1000 89 5000 4.12 10 09:45 31.03.2022
2319 Mist 5 999 88 6000 2.57 340 07:59 31.03.2022
2320 Clouds 6 999 87 7000 3.6 340 05:23 31.03.2022
2321 Mist 9 1001 88 7000 3.6 360 23:58 30.03.2022
2322 Clouds 9 1001 86 6000 4.63 10 22:43 30.03.2022
2323 Clouds 10 1000 85 8000 5.14 10 21:39 30.03.2022
2324 Clouds 10 1000 85 9000 5.14 20 20:54 30.03.2022
2325 Mist 10 1000 87 8000 5.14 10 20:20 30.03.2022
2326 Mist 12 1000 84 9000 4.63 350 19:28 30.03.2022
2327 Clouds 12 1000 85 10000 3.09 340 18:28 30.03.2022
2328 Mist 12 1000 83 10000 2.57 350 17:47 30.03.2022
2329 Mist 13 1000 80 10000 4.12 220 16:57 30.03.2022
2330 Mist 13 1000 79 10000 3.6 330 16:33 30.03.2022
2331 Clouds 13 1001 77 9000 2.57 10 15:24 30.03.2022
2332 Mist 12 1002 88 5000 2.57 60 13:44 30.03.2022
2333 Mist 12 1002 90 4300 2.57 60 12:57 30.03.2022
2334 Rain 10 1003 94 2800 2.57 30 11:27 30.03.2022
2335 Mist 11 1003 94 3200 2.57 30 11:27 30.03.2022
2336 Mist 10 1003 96 2700 1.54 0 10:28 30.03.2022
2337 Mist 10 1003 97 3000 1.54 350 09:24 30.03.2022
2338 Mist 10 1003 93 3400 1.03 0 07:33 30.03.2022
2339 Fog 10 1003 93 3700 1.54 70 05:41 30.03.2022
2340 Mist 10 1004 93 4700 1.54 350 03:52 30.03.2022
2341 Rain 11 1006 88 10000 1.54 270 00:42 30.03.2022
2342 Clear 12 1006 82 10000 2.06 30 22:28 29.03.2022
2343 Clear 12 1006 82 10000 2.57 50 21:45 29.03.2022
2344 Clear 12 1006 80 10000 3.6 60 20:53 29.03.2022
2345 Clear 12 1006 83 10000 3.09 60 20:19 29.03.2022
2346 Clouds 13 1006 80 10000 3.6 10 18:56 29.03.2022
2347 Clouds 13 1006 77 10000 3.09 340 18:21 29.03.2022
2348 Clouds 14 1007 75 10000 2.57 270 17:35 29.03.2022
2349 Rain 14 1007 73 10000 4.12 290 16:57 29.03.2022
2350 Rain 15 1008 66 10000 4.63 300 15:57 29.03.2022
2351 Clear 17 1008 49 10000 6.17 250 14:53 29.03.2022
2352 Clear 17 1008 46 10000 3.09 50 13:58 29.03.2022
2353 Clear 17 1009 49 10000 2.57 20 12:53 29.03.2022
2354 Clouds 15 1009 53 10000 3.09 20 11:43 29.03.2022
2355 Clear 14 1010 55 10000 3.6 50 10:51 29.03.2022
2356 Clear 13 1011 58 10000 2.06 340 09:49 29.03.2022
2357 Clear 12 1010 57 10000 2.06 360 07:35 29.03.2022
2358 Clear 13 1012 54 10000 2.57 60 04:41 29.03.2022
2359 Clear 14 1015 50 10000 2.57 70 00:35 29.03.2022
2360 Clear 15 1015 45 10000 3.09 70 23:23 28.03.2022
2361 Clear 15 1016 45 10000 3.09 70 22:52 28.03.2022
2362 Clear 16 1016 42 10000 3.09 50 22:26 28.03.2022
2363 Clear 17 1016 40 10000 3.6 60 20:56 28.03.2022
2364 Clear 19 1016 35 10000 2.57 50 20:21 28.03.2022
2365 Clear 20 1016 32 10000 3.09 60 19:44 28.03.2022
2366 Clear 20 1017 32 10000 3.09 60 19:25 28.03.2022
2367 Clear 21 1017 31 10000 2.57 50 18:37 28.03.2022
2368 Clear 21 1018 29 10000 2.57 50 17:39 28.03.2022
2369 Clear 21 1019 29 10000 2.06 50 16:20 28.03.2022
2370 Clear 21 1021 34 10000 3.09 70 14:47 28.03.2022
2371 Clear 21 1021 35 10000 3.09 70 14:21 28.03.2022
2372 Clear 17 1023 55 10000 2.57 80 12:20 28.03.2022
2373 Clouds 15 1023 67 7000 2.06 60 11:24 28.03.2022
2374 Mist 11 1024 81 4500 2.06 70 09:43 28.03.2022
2375 Mist 9 1023 82 4300 1.54 10 09:19 28.03.2022
2376 Mist 8 1024 84 4400 2.06 40 08:22 28.03.2022
2377 Mist 8 1024 83 5000 1.03 40 07:28 28.03.2022
2378 Clear 10 1025 69 10000 1.03 350 03:44 28.03.2022
2379 Clear 13 1026 46 10000 2.57 350 23:30 27.03.2022
2380 Clear 14 1026 45 10000 1.03 80 22:24 27.03.2022
2381 Clear 15 1026 44 10000 2.06 360 22:24 27.03.2022
2382 Clear 16 1026 40 10000 2.57 70 21:42 27.03.2022
2383 Clear 16 1026 38 10000 2.57 40 20:57 27.03.2022
2384 Clear 19 1025 31 10000 3.09 40 19:48 27.03.2022
2385 Clear 20 1025 30 10000 3.6 50 19:24 27.03.2022
2386 Clear 21 1025 30 10000 3.09 80 18:27 27.03.2022
2387 Clear 21 1025 30 10000 4.12 90 17:39 27.03.2022
2388 Clear 21 1026 31 10000 4.63 60 16:28 27.03.2022
2389 Clear 20 1026 34 10000 5.14 80 15:21 27.03.2022
2390 Clear 18 1027 42 10000 4.63 50 13:55 27.03.2022
2391 Clear 16 1028 50 10000 3.6 50 12:31 27.03.2022
2392 Clear 13 1028 59 10000 4.12 40 10:57 27.03.2022
2393 Clear 9 1028 70 10000 3.6 40 08:51 27.03.2022
2394 Clear 9 1027 67 10000 4.12 30 05:54 27.03.2022
2395 Clear 12 1028 55 10000 5.14 50 00:48 27.03.2022
2396 Clear 13 1028 52 10000 5.14 40 23:42 26.03.2022
2397 Clear 13 1027 47 10000 4.12 30 22:36 26.03.2022
2398 Clear 15 1027 39 10000 5.14 50 21:34 26.03.2022
2399 Clear 15 1026 35 10000 5.66 60 20:52 26.03.2022
2400 Clear 18 1026 28 10000 6.69 50 19:21 26.03.2022
2401 Clear 19 1026 27 10000 7.72 60 17:54 26.03.2022
2402 Clear 19 1026 27 10000 7.2 40 17:33 26.03.2022
2403 Clear 19 1026 29 10000 6.69 60 16:27 26.03.2022
2404 Clear 19 1026 31 10000 6.69 50 14:57 26.03.2022
2405 Clear 19 1027 31 10000 7.2 60 13:53 26.03.2022
2406 Clear 18 1027 34 10000 8.23 60 12:59 26.03.2022
2407 Clear 16 1028 42 10000 5.66 50 11:41 26.03.2022
2408 Clear 16 1028 42 10000 5.66 50 11:41 26.03.2022
2409 Clear 12 1028 51 10000 4.12 40 10:22 26.03.2022
2410 Clear 9 1028 62 8000 3.6 30 08:35 26.03.2022
2411 Clear 8 1027 63 9000 4.12 30 05:54 26.03.2022
2412 Clear 9 1027 61 10000 4.12 30 04:23 26.03.2022
2413 Clear 11 1027 51 10000 5.14 30 00:22 26.03.2022
2414 Clear 14 1027 44 10000 5.14 40 21:49 25.03.2022
2415 Clear 15 1027 41 10000 5.14 40 20:46 25.03.2022
2416 Clear 16 1026 36 10000 5.66 40 19:38 25.03.2022
2417 Clear 17 1026 33 10000 6.17 40 18:47 25.03.2022
2418 Clear 19 1026 29 10000 6.17 40 17:47 25.03.2022
2419 Clear 19 1026 29 10000 6.17 40 17:26 25.03.2022
2420 Clear 19 1026 27 10000 6.69 60 16:18 25.03.2022
2421 Clear 19 1027 30 10000 5.66 30 14:26 25.03.2022
2422 Clear 18 1028 34 10000 5.14 60 12:48 25.03.2022
2423 Clear 13 1028 46 10000 4.63 30 10:22 25.03.2022
2424 Clear 11 1028 52 9000 4.12 30 09:28 25.03.2022
2425 Clear 8 1027 57 10000 4.12 40 07:54 25.03.2022
2426 Clear 8 1027 57 10000 4.12 30 07:27 25.03.2022
2427 Clear 8 1027 54 10000 3.09 40 05:55 25.03.2022
2428 Clear 12 1027 44 10000 4.63 40 00:46 25.03.2022
2429 Clear 13 1027 44 10000 3.6 40 22:51 24.03.2022
2430 Clear 14 1026 44 10000 3.09 50 21:45 24.03.2022
2431 Clear 15 1026 38 10000 3.6 20 20:26 24.03.2022
2432 Clear 17 1026 37 10000 3.6 60 19:47 24.03.2022
2433 Clear 20 1025 29 10000 3.6 40 17:47 24.03.2022
2434 Clear 20 1025 28 10000 3.6 50 17:19 24.03.2022
2435 Clear 20 1026 29 10000 2.57 30 15:45 24.03.2022
2436 Clear 20 1026 29 10000 3.09 50 14:48 24.03.2022
2437 Clear 20 1027 30 10000 4.12 60 14:18 24.03.2022
2438 Clear 19 1027 34 10000 4.63 80 13:23 24.03.2022
2439 Clear 16 1028 39 10000 3.09 90 11:47 24.03.2022
2440 Clear 12 1028 53 10000 2.57 70 09:55 24.03.2022
2441 Clear 9 1028 61 10000 3.09 70 08:42 24.03.2022
2442 Clear 7 1027 61 10000 2.06 60 06:49 24.03.2022
2443 Clear 8 1028 54 10000 2.57 360 03:57 24.03.2022
2444 Clear 11 1028 47 10000 3.09 60 23:20 23.03.2022
2445 Clear 12 1028 47 10000 2.57 70 21:40 23.03.2022
2446 Clear 13 1028 43 10000 2.06 50 21:18 23.03.2022
2447 Clear 15 1028 38 10000 3.09 80 19:46 23.03.2022
2448 Clear 17 1028 34 10000 4.63 70 18:55 23.03.2022
2449 Clear 18 1028 31 10000 3.6 110 17:37 23.03.2022
2450 Clear 19 1028 32 10000 5.66 90 16:39 23.03.2022
2451 Clear 18 1029 31 10000 4.12 130 14:51 23.03.2022
2452 Clear 18 1029 31 10000 4.12 130 14:26 23.03.2022
2453 Clear 17 1030 33 10000 3.6 100 12:55 23.03.2022
2454 Clear 12 1031 49 10000 2.57 150 10:20 23.03.2022
2455 Clear 6 1029 62 10000 1.54 200 06:55 23.03.2022
2456 Clear 7 1029 62 10000 2.57 60 05:27 23.03.2022
2457 Clear 10 1028 62 8000 2.57 120 00:35 23.03.2022
2458 Clear 11 1028 61 9000 2.06 70 23:41 22.03.2022
2459 Clear 13 1028 54 10000 3.6 70 21:30 22.03.2022
2460 Clear 14 1028 49 10000 3.6 60 20:51 22.03.2022
2461 Clear 15 1027 43 10000 3.6 100 19:52 22.03.2022
2462 Clear 15 1027 42 10000 3.6 100 19:25 22.03.2022
2463 Clear 17 1027 37 10000 5.14 110 18:45 22.03.2022
2464 Clear 18 1027 32 10000 6.69 110 17:38 22.03.2022
2465 Clear 18 1027 32 10000 7.2 110 16:32 22.03.2022
2466 Clear 18 1027 33 10000 7.2 120 15:23 22.03.2022
2467 Clear 18 1028 34 10000 6.69 110 14:59 22.03.2022
2468 Clear 18 1028 34 10000 4.63 100 14:41 22.03.2022
2469 Clear 17 1028 33 10000 4.12 150 13:36 22.03.2022
2470 Clear 15 1029 34 10000 5.66 170 11:52 22.03.2022
2471 Clear 13 1030 42 10000 5.66 200 10:46 22.03.2022
2472 Clear 9 1029 69 10000 2.06 140 08:40 22.03.2022
2473 Clear 8 1029 75 10000 3.09 150 06:58 22.03.2022
2474 Clear 10 1028 69 10000 3.09 60 03:54 22.03.2022
2475 Clear 11 1028 72 10000 2.57 130 00:34 22.03.2022
2476 Clear 12 1028 68 10000 2.06 110 22:42 21.03.2022
2477 Clear 14 1027 65 10000 3.09 90 21:20 21.03.2022
2478 Clear 14 1027 64 10000 3.09 90 20:42 21.03.2022
2479 Clear 15 1027 59 10000 2.57 110 19:59 21.03.2022
2480 Clear 16 1027 57 10000 3.09 130 19:35 21.03.2022
2481 Clear 17 1026 53 10000 3.6 140 18:46 21.03.2022
2482 Clear 18 1026 49 10000 5.14 120 17:35 21.03.2022
2483 Clear 18 1027 48 10000 5.14 150 16:58 21.03.2022
2484 Clear 18 1026 47 10000 4.63 150 16:24 21.03.2022
2485 Clear 18 1027 48 10000 4.12 120 15:21 21.03.2022
2486 Clear 18 1027 50 10000 3.6 90 14:29 21.03.2022
2487 Clear 17 1028 52 10000 2.57 150 12:58 21.03.2022
2488 Clear 16 1028 55 10000 2.57 130 11:57 21.03.2022
2489 Clear 14 1029 61 10000 3.6 160 10:59 21.03.2022
2490 Clear 11 1029 74 10000 2.06 150 09:42 21.03.2022
2491 Clear 7 1028 82 9000 2.06 150 07:22 21.03.2022
2492 Clouds 7 1027 83 9000 1.54 10 05:42 21.03.2022
2493 Clear 6 1027 76 10000 2.06 30 00:46 21.03.2022
2494 Clear 8 1027 65 10000 2.06 100 22:57 20.03.2022
2495 Clouds 9 1027 64 10000 2.57 110 22:23 20.03.2022
2496 Clouds 9 1027 60 10000 3.09 100 21:37 20.03.2022
2497 Clouds 9 1026 58 10000 2.57 110 20:54 20.03.2022
2498 Clear 10 1026 55 10000 2.57 130 20:27 20.03.2022
2499 Clear 10 1026 52 10000 2.57 120 19:48 20.03.2022
2500 Clear 10 1026 50 10000 2.57 140 19:19 20.03.2022
2501 Clear 12 1025 39 10000 4.12 150 17:44 20.03.2022
2502 Clear 12 1025 38 10000 4.12 150 17:24 20.03.2022
2503 Clear 13 1025 35 10000 3.09 160 15:58 20.03.2022
2504 Clear 13 1025 38 10000 2.57 120 14:38 20.03.2022
2505 Clear 11 1026 42 10000 3.09 100 13:38 20.03.2022
2506 Clear 10 1026 45 10000 3.6 90 12:19 20.03.2022
2507 Clear 7 1026 62 10000 2.57 50 09:59 20.03.2022
2508 Clear 4 1026 68 10000 3.09 360 08:20 20.03.2022
2509 Clear 4 1025 65 10000 4.63 50 06:37 20.03.2022
2510 Clear 6 1026 50 10000 6.17 70 03:18 20.03.2022
2511 Clear 8 1027 45 10000 6.17 80 00:54 20.03.2022
2512 Clear 9 1027 44 10000 6.17 80 00:34 20.03.2022
2513 Clear 10 1028 51 10000 5.14 90 22:31 19.03.2022
2514 Clear 11 1028 50 10000 4.12 60 21:26 19.03.2022
2515 Clear 14 1028 43 10000 6.17 50 19:29 19.03.2022
2516 Clear 14 1028 41 10000 6.17 50 18:44 19.03.2022
2517 Clear 16 1028 39 10000 8.75 50 17:52 19.03.2022
2518 Clear 16 1028 39 10000 8.75 50 17:33 19.03.2022
2519 Clear 16 1030 40 10000 7.72 60 15:40 19.03.2022
2520 Clear 15 1031 43 10000 8.75 70 14:19 19.03.2022
2521 Clear 14 1032 45 10000 8.23 80 12:56 19.03.2022
2522 Clear 13 1033 47 10000 8.75 80 12:37 19.03.2022
2523 Clear 12 1033 51 10000 9.26 70 11:46 19.03.2022
2524 Clear 8 1034 67 10000 8.23 70 09:31 19.03.2022
2525 Clear 7 1034 60 10000 7.72 70 05:44 19.03.2022
2526 Clear 8 1035 51 10000 6.69 60 02:34 19.03.2022
2527 Clear 9 1036 51 10000 7.2 50 00:32 19.03.2022
2528 Clear 10 1036 47 10000 7.2 50 23:19 18.03.2022
2529 Clear 11 1036 45 10000 6.69 40 22:22 18.03.2022
2530 Clear 12 1036 39 10000 7.2 50 20:40 18.03.2022
2531 Clear 13 1036 38 10000 6.69 50 19:48 18.03.2022
2532 Clear 14 1036 36 10000 7.2 50 19:19 18.03.2022
2533 Clear 15 1035 34 10000 9.26 50 17:27 18.03.2022
2534 Clear 15 1036 32 10000 10.8 60 16:42 18.03.2022
2535 Clear 15 1037 33 10000 9.26 50 14:29 18.03.2022
2536 Clear 13 1038 38 10000 8.23 50 13:41 18.03.2022
2537 Clear 12 1038 44 10000 8.23 60 12:18 18.03.2022
2538 Clear 8 1038 63 10000 7.2 40 10:27 18.03.2022
2539 Clear 6 1038 74 10000 6.17 50 09:20 18.03.2022
2540 Clear 5 1038 80 10000 6.17 40 07:45 18.03.2022
2541 Clear 5 1037 86 10000 5.66 30 05:39 18.03.2022
2542 Clear 5 1037 86 10000 4.63 20 02:44 18.03.2022
2543 Clear 6 1037 84 10000 4.12 360 00:21 18.03.2022
2544 Clear 7 1037 82 10000 4.12 20 22:56 17.03.2022
2545 Clear 7 1036 82 10000 3.6 20 22:22 17.03.2022
2546 Clear 7 1036 80 10000 4.63 20 21:47 17.03.2022
2547 Clear 7 1035 78 10000 4.12 20 21:19 17.03.2022
2548 Clear 8 1035 77 10000 5.14 20 20:32 17.03.2022
2549 Clear 8 1034 75 10000 4.63 20 19:41 17.03.2022
2550 Clear 8 1034 74 10000 4.12 20 18:57 17.03.2022
2551 Clear 9 1033 69 10000 6.69 20 17:55 17.03.2022
2552 Clouds 9 1033 69 10000 5.14 10 16:43 17.03.2022
2553 Clouds 9 1032 68 10000 5.14 10 15:44 17.03.2022
2554 Clouds 9 1032 68 10000 5.14 10 15:22 17.03.2022
2555 Clouds 9 1032 68 10000 5.14 20 13:49 17.03.2022
2556 Clouds 9 1032 72 10000 5.66 20 12:49 17.03.2022
2557 Clouds 9 1031 74 10000 5.66 20 12:21 17.03.2022
2558 Clouds 8 1031 76 10000 5.66 10 11:25 17.03.2022
2559 Clouds 8 1030 77 10000 5.14 360 09:48 17.03.2022
2560 Clouds 8 1028 78 10000 6.17 340 08:31 17.03.2022
2561 Clouds 8 1027 83 10000 5.14 350 07:32 17.03.2022
2562 Clouds 9 1025 82 10000 5.66 330 05:47 17.03.2022
2563 Clouds 11 1022 81 10000 5.14 310 00:45 17.03.2022
2564 Clouds 11 1021 82 10000 5.66 310 23:39 16.03.2022
2565 Clouds 12 1020 85 10000 4.63 260 22:44 16.03.2022
2566 Clouds 12 1020 86 10000 4.63 260 22:21 16.03.2022
2567 Clear 13 1019 85 10000 2.68 221 21:34 16.03.2022
2568 Clear 13 1018 82 10000 2.57 160 19:40 16.03.2022
2569 Clear 13 1018 81 10000 2.57 160 19:19 16.03.2022
2570 Clear 13 1018 81 10000 3.09 150 18:35 16.03.2022
2571 Clear 13 1018 77 10000 4.63 130 17:41 16.03.2022
2572 Clear 14 1018 75 10000 3.6 140 16:51 16.03.2022
2573 Clear 14 1018 73 10000 2.57 130 15:55 16.03.2022
2574 Clear 14 1018 78 10000 4.12 130 14:25 16.03.2022
2575 Clear 13 1019 82 10000 2.06 80 13:24 16.03.2022
2576 Clear 11 1020 91 10000 1.54 90 11:53 16.03.2022
2577 Mist 10 1020 91 10000 1.54 130 11:20 16.03.2022
2578 Mist 9 1020 92 10000 2.57 140 10:22 16.03.2022
2579 Mist 9 1020 96 10000 2.06 120 08:51 16.03.2022
2580 Clear 9 1020 93 10000 2.06 60 04:45 16.03.2022
2581 Clear 10 1021 94 10000 2.06 90 00:48 16.03.2022
2582 Clouds 11 1021 93 10000 3.09 70 22:38 15.03.2022
2583 Clouds 11 1021 92 10000 4.12 80 21:52 15.03.2022
2584 Clouds 11 1021 92 10000 3.09 70 20:18 15.03.2022
2585 Clouds 11 1021 91 10000 3.6 80 18:57 15.03.2022
2586 Clouds 12 1020 90 10000 3.09 150 16:57 15.03.2022
2587 Mist 11 1020 91 10000 3.6 120 16:28 15.03.2022
2588 Clouds 11 1021 93 10000 2.57 130 14:58 15.03.2022
2589 Clouds 11 1021 95 10000 2.57 100 14:39 15.03.2022
2590 Mist 10 1021 95 7000 2.57 40 13:38 15.03.2022
2591 Clouds 10 1022 94 9000 1.54 50 12:24 15.03.2022
2592 Rain 9 1022 98 6000 1.54 50 11:31 15.03.2022
2593 Mist 9 1022 95 5000 2.06 50 09:40 15.03.2022
2594 Rain 9 1022 95 3700 1.54 40 08:42 15.03.2022
2595 Rain 9 1022 94 4600 2.06 40 07:50 15.03.2022
2596 Rain 9 1022 94 6000 2.06 100 07:28 15.03.2022
2597 Clear 9 1023 77 10000 3.09 110 03:30 15.03.2022
2598 Clear 9 1026 75 10000 3.6 90 23:40 14.03.2022
2599 Clear 9 1026 74 10000 5.14 80 23:21 14.03.2022
2600 Clear 10 1026 71 10000 4.63 80 22:26 14.03.2022
2601 Clear 10 1026 68 10000 4.63 80 21:30 14.03.2022
2602 Clear 11 1026 64 10000 3.6 100 20:41 14.03.2022
2603 Clear 11 1026 63 10000 3.6 100 20:19 14.03.2022
2604 Clear 13 1026 54 10000 5.66 60 18:42 14.03.2022
2605 Clouds 14 1025 53 10000 5.14 60 17:54 14.03.2022
2606 Clouds 15 1026 50 10000 3.6 100 16:58 14.03.2022
2607 Clouds 15 1026 52 10000 3.09 110 15:43 14.03.2022
2608 Clear 15 1026 54 10000 3.09 120 14:40 14.03.2022
2609 Clear 12 1027 72 10000 2.57 150 12:22 14.03.2022
2610 Clear 9 1027 83 10000 2.57 150 10:51 14.03.2022
2611 Clear 7 1026 89 10000 3.09 160 09:44 14.03.2022
2612 Clear 6 1025 93 10000 2.57 180 09:21 14.03.2022
2613 Clear 5 1025 94 10000 2.57 180 08:55 14.03.2022
2614 Clear 5 1024 92 10000 2.57 150 07:32 14.03.2022
2615 Clear 5 1023 92 10000 2.57 150 05:45 14.03.2022
2616 Clouds 7 1019 89 10000 4.12 210 01:55 14.03.2022
2617 Clouds 7 1019 91 10000 5.14 200 01:24 14.03.2022
2618 Clouds 8 1016 91 10000 4.12 210 22:44 13.03.2022
2619 Clouds 8 1014 92 10000 4.12 200 21:31 13.03.2022
2620 Clouds 8 1014 93 10000 3.6 190 20:56 13.03.2022
2621 Clouds 8 1013 93 10000 3.6 190 20:30 13.03.2022
2622 Clouds 8 1013 92 10000 3.6 190 19:49 13.03.2022
2623 Rain 8 1012 92 10000 3.6 190 19:28 13.03.2022
2624 Clouds 8 1012 91 10000 4.63 200 18:59 13.03.2022
2625 Rain 8 1011 90 10000 5.14 210 18:35 13.03.2022
2626 Clouds 8 1011 89 10000 4.63 200 17:41 13.03.2022
2627 Rain 9 1010 88 10000 4.63 180 17:19 13.03.2022
2628 Rain 10 1010 83 10000 5.66 170 16:30 13.03.2022
2629 Drizzle 10 1009 81 10000 5.66 160 15:47 13.03.2022
2630 Rain 10 1009 80 10000 5.66 150 14:56 13.03.2022
2631 Clouds 11 1009 70 10000 5.14 160 13:45 13.03.2022
2632 Rain 11 1010 65 10000 7.2 170 12:55 13.03.2022
2633 Clouds 11 1010 66 10000 6.17 170 11:53 13.03.2022
2634 Clouds 11 1010 67 10000 7.72 170 11:32 13.03.2022
2635 Clouds 11 1010 64 10000 6.69 160 10:47 13.03.2022
2636 Clear 11 1010 66 10000 6.17 160 10:24 13.03.2022
2637 Clear 10 1010 71 10000 6.69 150 09:41 13.03.2022
2638 Clear 9 1010 74 10000 5.66 150 08:46 13.03.2022
2639 Clear 8 1010 79 10000 4.12 150 07:42 13.03.2022
2640 Clear 8 1009 81 10000 6.17 150 05:42 13.03.2022
2641 Clouds 9 1011 81 10000 7.2 150 02:43 13.03.2022
2642 Clouds 9 1011 85 10000 8.23 150 23:59 12.03.2022
2643 Clouds 8 1012 86 10000 5.66 140 22:31 12.03.2022
2644 Rain 9 1012 81 10000 5.66 140 20:54 12.03.2022
2645 Clouds 9 1013 80 10000 6.17 150 19:50 12.03.2022
2646 Clouds 9 1013 80 10000 7.2 140 19:32 12.03.2022
2647 Clouds 9 1013 80 10000 6.17 150 18:27 12.03.2022
2648 Clouds 10 1013 79 10000 7.72 150 17:34 12.03.2022
2649 Clouds 10 1013 82 10000 7.2 150 16:24 12.03.2022
2650 Clouds 10 1014 82 10000 6.69 140 15:24 12.03.2022
2651 Clouds 10 1014 84 10000 5.14 140 14:50 12.03.2022
2652 Clouds 10 1015 83 10000 4.63 160 13:32 12.03.2022
2653 Clouds 10 1016 86 10000 3.6 170 11:56 12.03.2022
2654 Clear 9 1016 88 10000 4.12 170 11:38 12.03.2022
2655 Clouds 8 1016 90 10000 4.12 160 10:58 12.03.2022
2656 Clouds 8 1016 91 10000 4.63 160 09:46 12.03.2022
2657 Clouds 7 1015 93 10000 4.12 160 08:56 12.03.2022
2658 Clouds 7 1014 92 10000 3.09 150 07:27 12.03.2022
2659 Clouds 8 1013 90 10000 4.12 180 03:36 12.03.2022
2660 Clouds 9 1012 89 10000 5.14 170 23:56 11.03.2022
2661 Clouds 9 1012 89 10000 5.14 170 23:56 11.03.2022
2662 Clouds 9 1012 89 10000 5.14 170 23:56 11.03.2022
2663 Clouds 9 1012 89 10000 5.14 170 23:56 11.03.2022
2664 Clouds 9 1011 88 10000 5.14 160 23:18 11.03.2022
2665 Clear 10 1011 86 10000 5.66 170 21:41 11.03.2022
2666 Clear 10 1010 87 10000 5.66 150 20:56 11.03.2022
2667 Clear 10 1010 88 10000 5.14 170 20:35 11.03.2022
2668 Clear 10 1010 88 10000 5.14 150 19:52 11.03.2022
2669 Clouds 10 1009 89 10000 5.66 150 19:22 11.03.2022
2670 Clouds 10 1009 86 10000 6.69 190 17:34 11.03.2022
2671 Rain 11 1009 81 10000 8.75 210 16:38 11.03.2022
2672 Rain 13 1008 75 10000 5.66 140 15:55 11.03.2022
2673 Rain 12 1008 77 10000 7.72 150 14:20 11.03.2022
2674 Clouds 12 1009 73 10000 6.17 160 12:52 11.03.2022
2675 Rain 12 1008 71 10000 7.2 130 12:21 11.03.2022
2676 Clouds 12 1008 69 10000 7.2 140 11:53 11.03.2022
2677 Clear 10 1009 72 10000 5.66 140 09:59 11.03.2022
2678 Clouds 8 1009 81 10000 5.14 130 08:57 11.03.2022
2679 Clear 8 1010 82 10000 4.63 130 08:24 11.03.2022
2680 Clear 8 1010 82 10000 4.12 120 07:45 11.03.2022
2681 Clear 8 1011 79 10000 3.6 140 05:44 11.03.2022
2682 Clear 9 1012 75 10000 3.6 140 03:48 11.03.2022
2683 Clear 10 1014 68 10000 2.57 150 23:38 10.03.2022
2684 Clear 11 1015 65 10000 2.57 110 22:30 10.03.2022
2685 Clear 11 1015 64 10000 3.09 110 21:47 10.03.2022
2686 Clear 11 1015 64 10000 3.09 110 21:19 10.03.2022
2687 Clear 13 1016 56 10000 3.6 120 19:45 10.03.2022
2688 Clear 14 1016 51 10000 5.14 140 18:53 10.03.2022
2689 Clear 16 1016 45 10000 5.14 130 17:28 10.03.2022
2690 Clear 17 1017 44 10000 5.14 120 15:55 10.03.2022
2691 Clouds 17 1018 50 10000 4.63 160 14:48 10.03.2022
2692 Clear 15 1019 55 10000 4.63 140 13:21 10.03.2022
2693 Clear 14 1020 60 10000 4.12 140 11:58 10.03.2022
2694 Clear 12 1021 65 10000 4.12 140 10:54 10.03.2022
2695 Clear 7 1021 75 10000 4.12 140 09:21 10.03.2022
2696 Clear 5 1020 77 10000 3.09 50 07:38 10.03.2022
2697 Clear 6 1020 71 10000 2.57 140 04:36 10.03.2022
2698 Clear 8 1020 67 10000 2.57 40 01:46 10.03.2022
2699 Clear 9 1020 68 10000 2.57 90 23:26 09.03.2022
2700 Clear 10 1020 65 10000 3.6 110 21:51 09.03.2022
2701 Clear 11 1020 64 10000 4.63 110 21:31 09.03.2022
2702 Clear 12 1020 62 10000 2.57 110 19:50 09.03.2022
2703 Clear 14 1019 54 10000 4.12 140 18:34 09.03.2022
2704 Clear 15 1019 53 10000 5.14 130 17:27 09.03.2022
2705 Clouds 15 1019 54 10000 5.66 120 16:31 09.03.2022
2706 Clouds 15 1019 54 10000 5.14 170 15:28 09.03.2022
2707 Clouds 14 1020 61 10000 4.63 170 13:54 09.03.2022
2708 Clouds 12 1021 71 10000 4.12 200 12:47 09.03.2022
2709 Clouds 11 1021 76 10000 4.12 170 11:54 09.03.2022
2710 Clouds 10 1021 81 10000 4.63 200 11:35 09.03.2022
2711 Clouds 7 1021 88 10000 3.09 180 10:26 09.03.2022
2712 Clouds 5 1021 86 9000 2.57 170 08:54 09.03.2022
2713 Clouds 3 1020 84 9000 4.12 140 07:54 09.03.2022
2714 Clear 5 1019 65 8000 2.06 230 02:57 09.03.2022
2715 Clear 6 1019 58 9000 2.57 130 00:43 09.03.2022
2716 Clear 7 1018 60 8000 3.09 110 22:47 08.03.2022
2717 Clear 7 1018 60 8000 3.09 110 22:26 08.03.2022
2718 Clear 8 1017 57 10000 3.09 90 21:23 08.03.2022
2719 Clear 8 1017 58 10000 3.09 90 20:42 08.03.2022
2720 Clear 10 1017 53 10000 3.09 100 19:42 08.03.2022
2721 Clear 12 1016 47 10000 4.12 130 18:44 08.03.2022
2722 Clear 13 1016 44 10000 5.66 110 17:32 08.03.2022
2723 Clear 13 1016 41 10000 4.63 110 15:56 08.03.2022
2724 Clear 12 1016 44 10000 4.63 90 14:19 08.03.2022
2725 Clear 9 1016 51 10000 4.12 120 12:43 08.03.2022
2726 Clear 7 1016 55 9000 3.6 140 11:45 08.03.2022
2727 Clear 4 1016 60 10000 3.6 100 10:48 08.03.2022
2728 Clear 3 1017 65 10000 3.6 120 09:51 08.03.2022
2729 Clear -1 1016 72 10000 4.12 100 06:59 08.03.2022
2730 Clear 0 1016 71 10000 4.12 100 05:43 08.03.2022
2731 Clear 2 1018 61 10000 4.63 100 23:51 07.03.2022
2732 Clear 3 1018 56 10000 5.14 90 21:57 07.03.2022
2733 Clear 3 1018 56 10000 5.66 80 21:32 07.03.2022
2734 Clear 4 1018 56 10000 6.17 80 20:46 07.03.2022
2735 Clear 4 1019 54 10000 5.66 80 19:55 07.03.2022
2736 Clear 5 1019 52 10000 5.14 90 19:31 07.03.2022
2737 Clear 6 1018 49 10000 6.69 90 18:42 07.03.2022
2738 Clear 6 1018 47 10000 7.2 90 17:48 07.03.2022
2739 Clear 7 1019 46 10000 6.69 90 16:55 07.03.2022
2740 Clear 7 1019 47 10000 7.2 80 15:50 07.03.2022
2741 Clear 6 1020 47 10000 7.72 70 13:51 07.03.2022
2742 Clear 5 1021 51 10000 8.23 70 12:27 07.03.2022
2743 Clear 3 1022 62 10000 6.69 70 10:38 07.03.2022
2744 Clear 0 1022 73 10000 5.66 70 08:57 07.03.2022
2745 Clear 1 1022 72 10000 4.63 40 04:43 07.03.2022
2746 Clear 3 1023 63 10000 6.17 40 00:22 07.03.2022
2747 Clear 3 1023 63 10000 6.69 40 23:35 06.03.2022
2748 Clear 4 1023 62 10000 6.17 40 22:52 06.03.2022
2749 Clear 4 1023 59 10000 6.17 40 21:58 06.03.2022
2750 Clear 5 1023 59 10000 5.66 30 20:50 06.03.2022
2751 Clear 5 1022 56 10000 5.14 30 20:23 06.03.2022
2752 Clear 6 1022 50 10000 5.66 40 19:21 06.03.2022
2753 Clear 7 1022 47 10000 6.69 40 18:25 06.03.2022
2754 Clear 8 1022 43 10000 6.17 40 17:21 06.03.2022
2755 Clear 8 1022 42 10000 7.2 50 16:42 06.03.2022
2756 Clear 9 1022 41 10000 7.2 30 15:52 06.03.2022
2757 Clear 8 1022 43 10000 8.23 50 14:49 06.03.2022
2758 Clear 8 1022 44 10000 8.23 50 14:31 06.03.2022
2759 Clear 8 1023 45 10000 8.75 50 13:29 06.03.2022
2760 Clear 7 1023 49 10000 6.69 50 12:35 06.03.2022
2761 Clear 6 1023 64 10000 4.63 40 11:18 06.03.2022
2762 Mist 3 1023 79 6000 4.12 40 10:27 06.03.2022
2763 Mist 1 1022 91 3200 3.6 10 08:30 06.03.2022
2764 Mist 1 1022 92 3200 3.6 10 08:30 06.03.2022
2765 Mist 1 1021 90 4800 3.6 10 07:35 06.03.2022
2766 Mist 2 1020 89 5000 3.6 10 05:40 06.03.2022
2767 Mist 6 1020 92 3800 3.09 340 00:53 06.03.2022
2768 Mist 6 1020 91 3800 3.09 340 00:31 06.03.2022
2769 Mist 6 1020 89 4300 2.57 350 23:23 05.03.2022
2770 Mist 6 1020 86 4600 3.6 10 22:53 05.03.2022
2771 Mist 7 1020 83 5000 3.6 20 22:23 05.03.2022
2772 Mist 7 1020 81 5000 2.06 350 21:23 05.03.2022
2773 Clear 8 1019 73 7000 3.6 330 19:49 05.03.2022
2774 Mist 9 1019 68 9000 3.6 340 18:56 05.03.2022
2775 Clear 10 1018 65 10000 4.12 340 18:27 05.03.2022
2776 Clear 11 1018 61 10000 4.63 330 16:49 05.03.2022
2777 Clouds 12 1019 57 10000 3.6 350 15:40 05.03.2022
2778 Clouds 12 1019 57 10000 3.13 42 14:52 05.03.2022
2779 Clear 12 1019 56 10000 3.09 350 14:33 05.03.2022
2780 Clouds 12 1019 60 10000 0.89 45 13:22 05.03.2022
2781 Clear 10 1019 77 10000 2.06 60 11:48 05.03.2022
2782 Clear 9 1019 81 10000 1.54 0 11:19 05.03.2022
2783 Clouds 8 1019 87 9000 1.54 40 10:20 05.03.2022
2784 Mist 7 1019 91 4200 2.06 70 09:26 05.03.2022
2785 Mist 6 1019 93 4800 1.54 350 07:51 05.03.2022
2786 Mist 7 1018 93 6000 2.06 50 05:43 05.03.2022
2787 Mist 7 1018 90 7000 2.57 310 03:49 05.03.2022
2788 Clouds 8 1019 87 7000 3.6 340 23:38 04.03.2022
2789 Clouds 8 1019 87 9000 3.09 330 22:44 04.03.2022
2790 Clouds 8 1019 87 10000 4.12 310 22:23 04.03.2022
2791 Clouds 9 1019 87 10000 4.63 310 20:57 04.03.2022
2792 Clouds 9 1019 86 10000 4.63 300 20:27 04.03.2022
2793 Clouds 9 1018 85 10000 4.63 300 19:36 04.03.2022
2794 Clouds 10 1018 84 10000 1.79 293 18:45 04.03.2022
2795 Clouds 10 1018 83 10000 4.63 300 18:20 04.03.2022
2796 Clouds 11 1018 80 9000 4.63 300 17:28 04.03.2022
2797 Clear 12 1018 74 10000 3.09 350 15:31 04.03.2022
2798 Clouds 12 1018 75 8000 2.57 10 14:36 04.03.2022
2799 Clouds 12 1018 77 8000 1.54 0 13:27 04.03.2022
2800 Clouds 11 1018 82 7000 1.03 0 11:56 04.03.2022
2801 Clouds 9 1018 87 8000 1.54 0 10:57 04.03.2022
2802 Mist 9 1018 89 7000 1.54 70 10:18 04.03.2022
2803 Mist 8 1018 92 5000 1.54 30 08:40 04.03.2022
2804 Clouds 8 1017 91 6000 2.06 90 07:41 04.03.2022
2805 Mist 7 1016 96 3200 1.03 320 04:59 04.03.2022
2806 Clouds 8 1016 87 6000 1.54 320 00:41 04.03.2022
2807 Clouds 9 1016 86 9000 1.54 300 22:54 03.03.2022
2808 Clouds 9 1016 83 10000 2.06 60 21:58 03.03.2022
2809 Clouds 10 1016 80 10000 3.09 20 21:34 03.03.2022
2810 Clouds 10 1016 77 10000 1.54 10 20:27 03.03.2022
2811 Clouds 11 1015 75 10000 1.03 0 18:58 03.03.2022
2812 Clouds 11 1015 74 10000 1.54 70 18:25 03.03.2022
2813 Clouds 12 1015 71 10000 2.57 240 17:31 03.03.2022
2814 Clouds 11 1015 77 10000 3.09 240 16:28 03.03.2022
2815 Clouds 12 1015 77 10000 3.6 220 15:43 03.03.2022
2816 Clouds 12 1015 77 10000 3.09 220 14:44 03.03.2022
2817 Clouds 12 1015 77 10000 3.09 200 14:25 03.03.2022
2818 Clouds 11 1016 83 10000 3.09 160 12:32 03.03.2022
2819 Clouds 10 1016 86 10000 2.06 160 10:58 03.03.2022
2820 Clouds 9 1016 88 9000 2.57 150 09:58 03.03.2022
2821 Clouds 8 1016 89 7000 1.54 110 08:42 03.03.2022
2822 Clouds 8 1016 88 7000 2.06 70 06:55 03.03.2022
2823 Clouds 8 1016 87 6000 2.06 60 05:22 03.03.2022
2824 Clear 7 1018 75 8000 1.54 70 23:48 02.03.2022
2825 Clear 8 1018 74 10000 1.54 70 22:54 02.03.2022
2826 Clear 8 1018 72 10000 1.54 80 22:33 02.03.2022
2827 Clear 9 1018 69 10000 1.54 80 21:22 02.03.2022
2828 Clear 9 1018 68 10000 1.54 100 20:25 02.03.2022
2829 Clear 10 1018 63 10000 2.57 90 19:38 02.03.2022
2830 Clear 10 1018 62 10000 2.57 90 19:18 02.03.2022
2831 Clear 11 1018 57 10000 2.57 90 18:35 02.03.2022
2832 Clear 12 1018 57 10000 3.09 70 17:42 02.03.2022
2833 Clear 12 1018 54 10000 3.6 40 16:53 02.03.2022
2834 Clouds 13 1018 52 10000 3.09 60 15:59 02.03.2022
2835 Clear 12 1019 53 10000 3.6 50 14:32 02.03.2022
2836 Clear 10 1019 54 10000 2.57 40 12:58 02.03.2022
2837 Clear 10 1020 58 10000 1.54 0 12:35 02.03.2022
2838 Clear 8 1020 63 10000 2.57 70 11:28 02.03.2022
2839 Clear 8 1020 63 10000 3.09 110 10:50 02.03.2022
2840 Clear 6 1020 67 10000 2.57 80 09:40 02.03.2022
2841 Clear 6 1021 70 10000 3.09 80 08:44 02.03.2022
2842 Clear 6 1021 72 10000 2.57 80 07:24 02.03.2022
2843 Clear 6 1021 73 10000 2.06 70 05:42 02.03.2022
2844 Clear 7 1023 70 10000 2.06 90 00:51 02.03.2022
2845 Clear 8 1024 68 10000 2.06 100 23:40 01.03.2022
2846 Clear 8 1024 64 10000 3.09 100 22:42 01.03.2022
2847 Clear 9 1024 62 10000 3.6 110 21:55 01.03.2022
2848 Clear 10 1024 60 10000 3.6 130 20:56 01.03.2022
2849 Clear 10 1024 58 10000 3.09 130 20:24 01.03.2022
2850 Clear 10 1024 54 10000 3.09 120 19:21 01.03.2022
2851 Clear 11 1024 49 10000 3.09 90 18:26 01.03.2022
2852 Clear 12 1024 44 10000 4.63 70 17:55 01.03.2022
2853 Clear 13 1025 45 10000 2.06 170 16:50 01.03.2022
2854 Clouds 13 1025 47 10000 2.06 140 15:51 01.03.2022
2855 Clear 12 1025 46 10000 2.57 140 14:55 01.03.2022
2856 Clear 12 1026 47 10000 2.57 140 14:34 01.03.2022
2857 Clear 11 1026 49 10000 3.09 150 13:27 01.03.2022
2858 Clear 10 1027 50 10000 3.09 160 12:58 01.03.2022
2859 Clouds 9 1026 57 10000 2.06 170 12:22 01.03.2022
2860 Clear 6 1027 69 10000 2.06 100 10:27 01.03.2022
2861 Clear 4 1026 76 10000 1.54 50 08:41 01.03.2022
2862 Clear 4 1026 76 10000 2.57 50 07:40 01.03.2022
2863 Clear 3 1026 78 10000 2.57 70 04:50 01.03.2022
2864 Clear 4 1027 68 10000 1.54 50 01:43 01.03.2022
2865 Clear 5 1027 64 10000 2.06 60 23:48 28.02.2022
2866 Clear 5 1027 65 10000 3.09 80 23:19 28.02.2022
2867 Clear 6 1027 60 10000 1.54 0 21:59 28.02.2022
2868 Clear 6 1027 58 10000 2.06 120 21:24 28.02.2022
2869 Clear 7 1027 52 10000 3.09 110 19:53 28.02.2022
2870 Clear 8 1027 49 10000 2.06 130 19:27 28.02.2022
2871 Clear 10 1026 41 10000 2.57 150 18:38 28.02.2022
2872 Clear 12 1027 35 10000 1.54 160 17:24 28.02.2022
2873 Clear 12 1027 34 10000 2.06 180 16:33 28.02.2022
2874 Clear 12 1027 35 10000 2.57 160 15:23 28.02.2022
2875 Clear 11 1027 39 10000 2.06 130 14:31 28.02.2022
2876 Clear 11 1028 41 10000 2.57 170 13:47 28.02.2022
2877 Clear 9 1028 49 10000 2.57 160 12:41 28.02.2022
2878 Clear 8 1028 55 10000 2.57 140 11:55 28.02.2022
2879 Clear 6 1028 62 10000 3.09 140 10:48 28.02.2022
2880 Clear 4 1028 69 10000 3.6 130 10:20 28.02.2022
2881 Clear 2 1028 72 10000 2.57 120 09:32 28.02.2022
2882 Clear -1 1028 82 10000 1.54 360 08:29 28.02.2022
2883 Clear -1 1027 79 10000 1.54 10 07:28 28.02.2022
2884 Clear 1 1027 72 10000 2.57 110 04:55 28.02.2022
2885 Clear 1 1027 73 10000 2.57 60 04:26 28.02.2022
2886 Clear 3 1027 66 10000 3.09 80 23:44 27.02.2022
2887 Clear 4 1026 65 10000 2.06 40 22:35 27.02.2022
2888 Clear 5 1026 63 10000 2.57 110 21:52 27.02.2022
2889 Clear 5 1026 63 10000 2.57 110 21:21 27.02.2022
2890 Clear 6 1026 62 10000 2.57 50 20:37 27.02.2022
2891 Clear 7 1026 58 10000 3.09 80 19:58 27.02.2022
2892 Clear 7 1026 56 10000 4.63 100 19:27 27.02.2022
2893 Clear 9 1025 53 10000 1.34 113 18:48 27.02.2022
2894 Clear 10 1025 49 10000 5.66 110 17:57 27.02.2022
2895 Clear 10 1025 50 10000 5.14 110 17:20 27.02.2022
2896 Clear 10 1025 48 10000 5.14 130 16:22 27.02.2022
2897 Clear 8 1025 51 10000 5.66 100 13:40 27.02.2022
2898 Clear 7 1026 54 10000 5.66 120 12:33 27.02.2022
2899 Clear 6 1026 57 10000 5.66 110 11:27 27.02.2022
2900 Clear 4 1026 63 10000 6.17 100 10:20 27.02.2022
2901 Clear 2 1026 71 10000 4.12 110 09:51 27.02.2022
2902 Clear 2 1026 73 10000 4.12 110 09:20 27.02.2022
2903 Clear 0 1026 79 10000 4.12 100 08:31 27.02.2022
2904 Clear 1 1026 78 10000 4.63 110 05:39 27.02.2022
2905 Clear 3 1026 74 10000 4.12 110 02:45 27.02.2022
2906 Clear 4 1027 70 10000 5.14 100 23:34 26.02.2022
2907 Clear 4 1027 70 10000 5.14 90 22:34 26.02.2022
2908 Clear 5 1027 68 10000 5.66 90 21:19 26.02.2022
2909 Clear 6 1028 65 10000 4.63 90 20:37 26.02.2022
2910 Clear 6 1028 63 10000 5.14 90 19:52 26.02.2022
2911 Clear 7 1028 61 10000 5.14 100 19:33 26.02.2022
2912 Clear 9 1028 50 10000 5.66 80 17:58 26.02.2022
2913 Clear 9 1028 50 10000 7.2 90 17:31 26.02.2022
2914 Clear 10 1029 48 10000 7.2 100 16:36 26.02.2022
2915 Clear 10 1030 49 10000 7.2 100 15:27 26.02.2022
2916 Clear 10 1030 51 10000 7.72 100 14:59 26.02.2022
2917 Clear 10 1031 51 10000 7.2 90 14:41 26.02.2022
2918 Clear 9 1032 54 10000 5.66 100 13:46 26.02.2022
2919 Clear 8 1032 60 10000 4.63 110 12:53 26.02.2022
2920 Clear 7 1033 64 10000 5.14 120 11:45 26.02.2022
2921 Clear 6 1033 75 10000 3.6 110 11:24 26.02.2022
2922 Clear 3 1033 86 10000 3.6 110 09:31 26.02.2022
2923 Clear 1 1033 90 10000 3.09 100 08:26 26.02.2022
2924 Clear 1 1033 90 10000 2.57 30 04:23 26.02.2022
2925 Clear 4 1033 79 10000 1.54 50 23:50 25.02.2022
2926 Clear 5 1032 74 10000 2.06 320 22:31 25.02.2022
2927 Clear 5 1031 72 10000 2.57 320 21:31 25.02.2022
2928 Clear 6 1031 69 10000 2.06 340 20:51 25.02.2022
2929 Clear 6 1031 66 10000 2.57 330 20:25 25.02.2022
2930 Clear 10 1029 51 10000 6.17 310 17:57 25.02.2022
2931 Clear 11 1029 53 10000 6.17 270 16:55 25.02.2022
2932 Clouds 10 1028 57 10000 6.17 290 15:56 25.02.2022
2933 Clouds 10 1028 56 10000 5.66 310 15:23 25.02.2022
2934 Clouds 10 1028 61 10000 5.66 270 14:56 25.02.2022
2935 Clouds 10 1028 64 10000 6.17 290 14:27 25.02.2022
2936 Clouds 10 1028 61 10000 6.69 280 13:30 25.02.2022
2937 Clouds 9 1028 69 10000 6.17 290 12:33 25.02.2022
2938 Clear 7 1028 74 10000 6.17 300 11:22 25.02.2022
2939 Clouds 6 1027 81 10000 5.14 270 10:24 25.02.2022
2940 Clouds 4 1027 85 10000 3.6 240 09:51 25.02.2022
2941 Clear 2 1026 91 10000 3.09 240 08:42 25.02.2022
2942 Clouds 1 1026 88 10000 3.6 240 07:35 25.02.2022
2943 Clear 2 1024 87 10000 4.63 250 05:43 25.02.2022
2944 Clear 3 1024 80 10000 4.12 240 02:49 25.02.2022
2945 Clear 4 1022 73 10000 5.14 280 22:55 24.02.2022
2946 Clear 5 1021 68 10000 5.66 270 21:51 24.02.2022
2947 Clouds 5 1021 69 10000 5.14 270 21:31 24.02.2022
2948 Clouds 5 1020 69 10000 6.69 270 20:53 24.02.2022
2949 Clouds 6 1019 64 10000 2.68 270 19:38 24.02.2022
2950 Clear 7 1017 68 10000 7.72 280 18:37 24.02.2022
2951 Clouds 8 1017 70 10000 11.83 280 18:18 24.02.2022
2952 Clouds 8 1016 74 10000 6.69 280 17:33 24.02.2022
2953 Clouds 8 1016 74 10000 6.69 280 17:33 24.02.2022
2954 Clouds 7 1016 84 10000 6.69 280 16:29 24.02.2022
2955 Rain 7 1016 85 10000 9.77 290 15:47 24.02.2022
2956 Rain 9 1015 79 5000 10.8 260 14:53 24.02.2022
2957 Clouds 12 1013 67 10000 8.75 220 14:24 24.02.2022
2958 Clouds 11 1014 69 10000 10.29 230 13:39 24.02.2022
2959 Clouds 11 1014 68 10000 9.26 230 12:49 24.02.2022
2960 Clouds 9 1015 74 10000 7.2 220 10:40 24.02.2022
2961 Clear 7 1015 80 10000 4.63 230 08:58 24.02.2022
2962 Clear 7 1015 81 10000 4.12 230 08:39 24.02.2022
2963 Clouds 8 1016 86 10000 2.57 210 05:52 24.02.2022
2964 Clear 9 1019 82 10000 2.57 230 01:56 24.02.2022
2965 Clear 9 1019 83 10000 2.57 230 01:56 24.02.2022
2966 Clouds 10 1021 74 10000 2.06 240 22:56 23.02.2022
2967 Clouds 10 1021 70 10000 3.09 180 21:40 23.02.2022
2968 Clouds 10 1021 69 10000 3.6 170 20:31 23.02.2022
2969 Clouds 10 1022 67 10000 2.57 200 19:47 23.02.2022
2970 Clouds 11 1022 65 10000 3.09 190 18:32 23.02.2022
2971 Clouds 11 1022 64 10000 3.09 210 17:44 23.02.2022
2972 Clouds 11 1025 63 10000 4.63 230 14:44 23.02.2022
2973 Clouds 10 1027 75 8000 3.09 170 12:45 23.02.2022
2974 Mist 9 1027 89 4700 2.06 210 11:59 23.02.2022
2975 Fog 6 1028 97 700 2.06 240 10:31 23.02.2022
2976 Fog 4 1027 98 900 1.54 260 08:59 23.02.2022
2977 Fog 4 1027 98 900 1.54 260 08:59 23.02.2022
2978 Fog 4 1027 98 900 1.54 260 08:59 23.02.2022
2979 Fog 3 1027 98 550 1.54 250 08:23 23.02.2022
2980 Mist 5 1027 95 3800 2.57 310 05:49 23.02.2022
2981 Clouds 9 1026 90 10000 3.6 260 00:47 23.02.2022
2982 Clouds 10 1025 90 10000 4.12 280 23:39 22.02.2022
2983 Clouds 10 1025 91 10000 4.12 260 22:41 22.02.2022
2984 Drizzle 10 1024 90 10000 4.12 270 21:49 22.02.2022
2985 Drizzle 10 1024 90 10000 4.12 270 21:31 22.02.2022
2986 Drizzle 11 1024 87 8000 5.66 270 20:59 22.02.2022
2987 Drizzle 11 1023 85 10000 6.69 260 20:30 22.02.2022
2988 Clouds 11 1023 83 10000 7.2 240 19:47 22.02.2022
2989 Clouds 12 1023 82 10000 7.2 240 19:28 22.02.2022
2990 Clouds 12 1022 81 10000 6.17 230 18:23 22.02.2022
2991 Clouds 12 1022 81 10000 6.17 240 17:26 22.02.2022
2992 Clouds 12 1022 82 10000 6.17 240 16:41 22.02.2022
2993 Clouds 12 1022 82 10000 6.17 240 16:41 22.02.2022
2994 Clouds 12 1022 84 10000 7.2 240 15:59 22.02.2022
2995 Clouds 11 1023 84 10000 6.17 240 14:48 22.02.2022
2996 Drizzle 9 1024 88 10000 5.66 230 12:48 22.02.2022
2997 Clouds 8 1024 90 10000 6.17 230 10:53 22.02.2022
2998 Clouds 6 1024 89 10000 4.12 220 08:53 22.02.2022
2999 Clear 5 1024 89 10000 3.6 230 07:27 22.02.2022
3000 Clear 5 1025 89 10000 4.12 240 06:30 22.02.2022
3001 Clouds 6 1024 88 10000 5.14 270 02:47 22.02.2022
3002 Clouds 9 1022 77 10000 7.2 290 23:18 21.02.2022
3003 Clouds 9 1021 75 7000 9.26 290 21:56 21.02.2022
3004 Clouds 10 1019 72 10000 9.77 290 20:38 21.02.2022
3005 Clouds 10 1017 68 10000 9.77 290 18:47 21.02.2022
3006 Clouds 10 1016 67 10000 10.29 290 17:41 21.02.2022
3007 Clouds 10 1016 67 10000 10.29 290 17:41 21.02.2022
3008 Clouds 10 1014 63 10000 10.8 280 15:26 21.02.2022
3009 Clouds 9 1013 70 10000 10.8 280 14:22 21.02.2022
3010 Clouds 10 1013 66 10000 12.35 280 13:30 21.02.2022
3011 Clouds 10 1013 63 10000 12.35 270 12:24 21.02.2022
3012 Clouds 8 1013 69 10000 10.8 270 11:31 21.02.2022
3013 Clouds 7 1012 76 10000 8.75 250 10:23 21.02.2022
3014 Clouds 6 1011 74 10000 8.23 260 05:35 21.02.2022
3015 Rain 11 1008 89 5000 10.29 240 00:30 21.02.2022
3016 Clouds 12 1008 79 10000 11.32 230 22:30 20.02.2022
3017 Clouds 12 1009 77 10000 9.77 240 21:43 20.02.2022
3018 Clouds 12 1009 77 10000 9.77 240 21:19 20.02.2022
3019 Clouds 12 1010 77 10000 9.77 230 20:42 20.02.2022
3020 Clouds 12 1011 75 10000 9.26 230 19:42 20.02.2022
3021 Clouds 12 1011 75 10000 8.23 230 18:54 20.02.2022
3022 Clouds 12 1012 75 10000 3.13 225 18:34 20.02.2022
3023 Clouds 12 1012 74 10000 9.26 210 17:53 20.02.2022
3024 Clouds 13 1014 71 10000 9.26 230 16:18 20.02.2022
3025 Clouds 13 1015 72 10000 8.75 240 14:53 20.02.2022
3026 Clouds 13 1016 72 10000 8.75 240 13:53 20.02.2022
3027 Clouds 12 1017 75 10000 9.26 230 12:35 20.02.2022
3028 Clouds 11 1017 84 10000 6.17 230 10:47 20.02.2022
3029 Clouds 11 1018 84 10000 8.23 220 10:20 20.02.2022
3030 Clouds 9 1018 88 10000 7.2 230 08:58 20.02.2022
3031 Clouds 9 1018 84 10000 2.24 225 01:19 20.02.2022
3032 Clouds 9 1018 81 10000 7.72 240 00:30 20.02.2022
3033 Clouds 9 1017 78 10000 8.23 240 23:19 19.02.2022
3034 Clouds 9 1017 72 10000 9.26 250 22:23 19.02.2022
3035 Clouds 9 1016 68 10000 9.26 240 21:45 19.02.2022
3036 Clouds 9 1016 65 10000 7.72 220 20:23 19.02.2022
3037 Clouds 9 1016 66 10000 8.23 230 19:34 19.02.2022
3038 Clouds 9 1016 65 10000 8.75 210 18:38 19.02.2022
3039 Rain 10 1017 58 10000 8.75 210 17:37 19.02.2022
3040 Clouds 10 1017 55 10000 7.72 210 16:44 19.02.2022
3041 Clear 10 1018 55 10000 8.75 230 15:20 19.02.2022
3042 Clear 10 1018 53 10000 8.75 220 14:52 19.02.2022
3043 Clear 10 1019 54 10000 7.2 230 13:50 19.02.2022
3044 Clear 7 1020 71 10000 6.69 240 11:40 19.02.2022
3045 Clear 5 1020 77 10000 6.69 240 10:30 19.02.2022
3046 Clear 2 1019 85 10000 4.63 240 08:31 19.02.2022
3047 Clear 3 1019 84 10000 4.12 240 06:45 19.02.2022
3048 Clear 7 1015 68 10000 8.75 250 23:55 18.02.2022
3049 Clear 7 1014 66 10000 8.75 250 22:24 18.02.2022
3050 Clouds 8 1012 62 10000 7.72 260 20:57 18.02.2022
3051 Clouds 9 1011 60 10000 8.75 260 19:56 18.02.2022
3052 Clear 9 1010 59 10000 8.75 250 18:51 18.02.2022
3053 Clear 10 1010 57 10000 10.8 270 18:25 18.02.2022
3054 Clear 10 1008 58 10000 10.29 270 17:56 18.02.2022
3055 Clouds 11 1005 69 10000 11.83 240 15:35 18.02.2022
3056 Clouds 11 1004 87 10000 12.86 260 13:56 18.02.2022
3057 Rain 11 1004 91 7000 11.32 220 13:28 18.02.2022
3058 Clouds 12 1003 90 10000 9.26 200 12:42 18.02.2022
3059 Drizzle 12 1004 91 10000 9.77 190 11:55 18.02.2022
3060 Clouds 12 1005 85 10000 10.29 210 10:42 18.02.2022
3061 Clouds 12 1007 89 10000 8.23 200 06:58 18.02.2022
3062 Clouds 12 1008 90 10000 7.2 200 05:42 18.02.2022
3063 Clouds 10 1015 75 10000 2.57 210 23:53 17.02.2022
3064 Clouds 11 1016 70 10000 3.09 240 21:50 17.02.2022
3065 Clouds 11 1016 68 10000 2.57 230 21:27 17.02.2022
3066 Clear 11 1016 65 10000 5.14 220 20:40 17.02.2022
3067 Clouds 11 1017 64 10000 3.09 250 19:54 17.02.2022
3068 Clear 12 1016 58 10000 4.63 240 18:57 17.02.2022
3069 Clear 13 1016 53 10000 6.69 250 17:59 17.02.2022
3070 Clear 14 1016 51 10000 8.75 250 16:43 17.02.2022
3071 Clear 14 1016 52 10000 7.72 260 15:44 17.02.2022
3072 Clouds 13 1016 60 10000 8.23 260 14:29 17.02.2022
3073 Clouds 12 1016 63 10000 9.77 270 12:51 17.02.2022
3074 Clouds 12 1016 68 10000 9.26 260 11:30 17.02.2022
3075 Clouds 11 1014 71 10000 8.75 250 09:38 17.02.2022
3076 Clouds 12 1012 71 10000 8.75 280 06:37 17.02.2022
3077 Clouds 13 1007 88 10000 9.77 230 23:23 16.02.2022
3078 Clouds 14 1007 87 10000 10.29 240 22:27 16.02.2022
3079 Clouds 13 1007 89 10000 8.75 230 20:21 16.02.2022
3080 Drizzle 14 1006 92 10000 3.13 225 18:56 16.02.2022
3081 Clouds 14 1006 92 10000 6.69 230 17:56 16.02.2022
3082 Clouds 15 1007 85 10000 8.23 220 16:44 16.02.2022
3083 Clouds 15 1007 80 10000 9.26 250 15:21 16.02.2022
3084 Clouds 14 1007 86 10000 8.23 230 13:40 16.02.2022
3085 Clouds 13 1007 90 10000 8.23 230 12:24 16.02.2022
3086 Clouds 13 1006 90 10000 7.2 230 11:45 16.02.2022
3087 Clouds 12 1006 94 10000 7.72 230 10:34 16.02.2022
3088 Clouds 12 1006 94 10000 6.17 230 09:34 16.02.2022
3089 Rain 11 1005 95 10000 6.17 220 06:43 16.02.2022
3090 Rain 9 1010 93 10000 6.69 210 00:37 16.02.2022
3091 Drizzle 9 1011 92 10000 7.72 220 22:34 15.02.2022
3092 Clouds 9 1012 90 10000 7.2 220 21:50 15.02.2022
3093 Drizzle 9 1012 90 10000 7.2 220 21:29 15.02.2022
3094 Clouds 9 1012 90 10000 6.69 220 20:58 15.02.2022
3095 Clouds 9 1012 88 10000 7.2 200 20:22 15.02.2022
3096 Clouds 9 1013 91 10000 6.69 220 19:43 15.02.2022
3097 Clouds 9 1013 87 10000 6.17 210 18:25 15.02.2022
3098 Clouds 9 1013 84 10000 6.69 210 17:53 15.02.2022
3099 Clouds 9 1014 84 10000 5.66 210 17:28 15.02.2022
3100 Clouds 9 1015 81 10000 6.69 220 15:43 15.02.2022
3101 Clouds 10 1016 74 10000 7.2 220 13:57 15.02.2022
3102 Clouds 10 1016 73 10000 7.2 230 13:25 15.02.2022
3103 Clouds 8 1017 80 10000 3.6 220 11:41 15.02.2022
3104 Clouds 6 1016 89 10000 5.14 240 10:27 15.02.2022
3105 Clouds 4 1016 93 10000 3.6 240 08:42 15.02.2022
3106 Clouds 5 1015 91 10000 4.12 260 06:45 15.02.2022
3107 Clouds 6 1010 94 10000 4.12 260 23:35 14.02.2022
3108 Clouds 6 1008 92 10000 3.6 280 21:57 14.02.2022
3109 Clouds 7 1008 90 10000 5.14 290 20:53 14.02.2022
3110 Clouds 7 1006 89 10000 4.12 260 19:49 14.02.2022
3111 Clouds 7 1006 90 10000 4.12 260 19:29 14.02.2022
3112 Rain 8 1005 90 8000 4.12 200 18:24 14.02.2022
3113 Clouds 9 1005 83 10000 3.6 230 17:28 14.02.2022
3114 Clouds 10 1004 79 10000 5.66 200 16:37 14.02.2022
3115 Clouds 11 1004 69 10000 6.17 220 15:22 14.02.2022
3116 Clouds 11 1005 68 10000 6.69 210 13:35 14.02.2022
3117 Clouds 11 1005 70 10000 5.66 230 12:58 14.02.2022
3118 Clouds 10 1005 71 10000 6.17 210 12:32 14.02.2022
3119 Clouds 9 1005 77 10000 6.69 210 11:38 14.02.2022
3120 Clouds 8 1004 83 10000 5.66 220 10:21 14.02.2022
3121 Clouds 8 1003 85 10000 5.14 220 08:18 14.02.2022
3122 Clouds 8 1002 85 10000 5.14 240 07:26 14.02.2022
3123 Clear 12 1002 68 10000 6.69 180 22:49 13.02.2022
3124 Clouds 12 1002 68 10000 6.69 180 22:30 13.02.2022
3125 Clear 12 1002 66 10000 7.2 180 21:59 13.02.2022
3126 Clear 12 1003 66 10000 7.72 190 21:24 13.02.2022
3127 Clear 12 1003 66 10000 6.17 180 20:28 13.02.2022
3128 Clear 13 1004 64 10000 1.34 203 19:23 13.02.2022
3129 Clear 13 1004 63 10000 6.17 180 18:41 13.02.2022
3130 Clear 13 1005 60 10000 7.72 180 17:32 13.02.2022
3131 Clear 14 1006 59 10000 9.26 200 15:53 13.02.2022
3132 Clear 12 1008 65 10000 8.75 170 14:50 13.02.2022
3133 Clear 11 1010 67 10000 8.75 180 13:39 13.02.2022
3134 Clear 9 1012 74 10000 7.2 180 12:44 13.02.2022
3135 Clear 3 1014 82 10000 4.63 160 10:46 13.02.2022
3136 Clear 3 1014 82 10000 4.63 160 10:27 13.02.2022
3137 Clear 0 1015 83 10000 2.57 140 08:59 13.02.2022
3138 Clear 0 1017 83 10000 3.09 160 05:27 13.02.2022
3139 Clear 2 1020 75 10000 3.09 160 00:34 13.02.2022
3140 Clear 3 1021 72 10000 4.12 160 22:58 12.02.2022
3141 Clear 3 1021 73 10000 4.63 150 22:33 12.02.2022
3142 Clear 3 1021 72 10000 2.57 160 21:18 12.02.2022
3143 Clear 4 1022 70 10000 3.6 150 20:25 12.02.2022
3144 Clear 5 1022 65 10000 3.09 130 19:18 12.02.2022
3145 Clear 6 1022 58 10000 3.6 130 18:41 12.02.2022
3146 Clear 7 1022 55 10000 4.12 150 18:23 12.02.2022
3147 Clear 9 1023 47 10000 3.6 150 16:55 12.02.2022
3148 Clear 9 1023 46 10000 3.6 140 16:25 12.02.2022
3149 Clear 9 1023 46 10000 3.6 160 15:49 12.02.2022
3150 Clear 9 1025 46 10000 4.63 160 14:30 12.02.2022
3151 Clear 7 1027 59 10000 5.66 150 12:55 12.02.2022
3152 Clear 2 1029 86 10000 4.12 130 10:36 12.02.2022
3153 Clear 0 1028 89 10000 2.06 130 09:39 12.02.2022
3154 Clear 0 1028 89 10000 2.57 120 08:48 12.02.2022
3155 Clear 0 1029 88 10000 1.54 20 07:53 12.02.2022
3156 Clear 1 1030 87 10000 2.57 40 05:33 12.02.2022
3157 Clear 1 1031 88 9000 1.54 30 03:32 12.02.2022
3158 Clear 2 1032 84 6000 2.06 50 02:18 12.02.2022
3159 Clear 2 1033 85 10000 1.54 20 22:28 11.02.2022
3160 Clear 3 1033 82 10000 1.54 10 21:51 11.02.2022
3161 Clear 4 1033 77 10000 2.06 110 20:40 11.02.2022
3162 Clear 5 1034 77 10000 2.06 90 19:40 11.02.2022
3163 Clear 5 1034 76 10000 2.06 90 19:20 11.02.2022
3164 Clear 7 1033 69 10000 2.57 80 17:55 11.02.2022
3165 Clouds 8 1033 66 10000 2.57 70 17:25 11.02.2022
3166 Clouds 8 1034 61 10000 3.09 70 16:22 11.02.2022
3167 Clouds 8 1034 65 10000 2.57 50 14:43 11.02.2022
3168 Clouds 8 1034 68 10000 3.6 30 14:21 11.02.2022
3169 Clouds 8 1034 68 10000 3.6 30 13:59 11.02.2022
3170 Clouds 8 1034 72 10000 3.09 350 13:39 11.02.2022
3171 Clear 6 1034 87 10000 2.57 310 11:42 11.02.2022
3172 Clear 3 1033 93 10000 3.09 310 09:59 11.02.2022
3173 Mist 1 1032 93 4300 2.57 310 08:49 11.02.2022
3174 Clear 0 1031 96 8000 2.06 290 08:27 11.02.2022
3175 Clear 0 1031 96 8000 2.06 290 08:27 11.02.2022
3176 Clear 1 1030 94 10000 3.09 300 07:22 11.02.2022
3177 Clear 3 1027 93 10000 2.57 280 02:39 11.02.2022
3178 Clear 3 1027 93 10000 3.09 290 02:18 11.02.2022
3179 Clear 5 1026 92 10000 5.14 330 22:53 10.02.2022
3180 Clouds 5 1026 92 10000 4.63 320 21:50 10.02.2022
3181 Clouds 5 1025 93 10000 4.63 340 21:21 10.02.2022
3182 Clouds 6 1025 91 10000 7.2 340 20:45 10.02.2022
3183 Clouds 7 1024 88 10000 6.69 340 19:26 10.02.2022
3184 Clouds 9 1023 82 10000 1.79 293 18:47 10.02.2022
3185 Clouds 10 1023 79 10000 4.63 230 17:27 10.02.2022
3186 Clouds 10 1023 80 10000 3.6 240 16:57 10.02.2022
3187 Drizzle 10 1023 80 10000 4.12 230 15:59 10.02.2022
3188 Clouds 10 1023 82 10000 4.12 220 15:33 10.02.2022
3189 Clouds 9 1023 84 10000 5.14 230 14:49 10.02.2022
3190 Clouds 9 1023 82 10000 5.66 240 14:26 10.02.2022
3191 Clouds 9 1024 78 10000 5.66 260 13:30 10.02.2022
3192 Clouds 9 1024 81 10000 4.63 240 12:51 10.02.2022
3193 Clouds 9 1024 81 10000 4.63 240 12:51 10.02.2022
3194 Clouds 7 1024 86 10000 5.66 230 11:38 10.02.2022
3195 Clouds 7 1025 86 10000 5.66 230 11:20 10.02.2022
3196 Mist 7 1024 90 10000 4.12 240 10:18 10.02.2022
3197 Clouds 6 1024 92 10000 5.14 230 09:25 10.02.2022
3198 Clouds 6 1023 91 10000 4.63 240 07:37 10.02.2022
3199 Mist 6 1023 92 4400 5.14 250 05:51 10.02.2022
3200 Clouds 6 1022 90 8000 2.24 221 01:57 10.02.2022
3201 Clouds 6 1023 91 7000 2.06 240 00:50 10.02.2022
3202 Clouds 6 1023 91 7000 2.06 240 00:50 10.02.2022
3203 Clouds 6 1023 91 7000 1.54 270 00:29 10.02.2022
3204 Clouds 6 1023 89 9000 4.12 260 23:26 09.02.2022
3205 Clear 5 1023 91 10000 2.06 360 22:37 09.02.2022
3206 Clear 6 1023 87 10000 1.54 10 21:52 09.02.2022
3207 Clear 6 1023 80 10000 1.54 320 21:30 09.02.2022
3208 Clear 7 1023 83 10000 1.54 130 20:51 09.02.2022
3209 Clear 7 1023 81 10000 1.54 130 20:31 09.02.2022
3210 Clear 8 1024 79 10000 2.06 220 19:56 09.02.2022
3211 Clear 9 1024 75 10000 2.06 210 19:32 09.02.2022
3212 Clear 12 1024 62 10000 2.57 170 17:38 09.02.2022
3213 Clear 13 1024 58 10000 1.54 120 16:52 09.02.2022
3214 Clear 13 1025 59 10000 2.57 170 15:52 09.02.2022
3215 Clear 12 1025 62 10000 2.57 190 14:42 09.02.2022
3216 Clear 9 1027 79 10000 3.09 160 12:28 09.02.2022
3217 Clear 6 1027 88 10000 2.06 120 10:55 09.02.2022
3218 Clear 6 1027 88 10000 2.06 120 10:55 09.02.2022
3219 Clear 5 1027 92 10000 2.57 140 10:30 09.02.2022
3220 Mist 4 1028 95 7000 1.03 50 09:40 09.02.2022
3221 Mist 3 1028 95 7000 1.03 50 09:19 09.02.2022
3222 Mist 3 1028 95 6000 1.03 10 07:55 09.02.2022
3223 Mist 4 1028 96 6000 2.06 80 05:30 09.02.2022
3224 Mist 4 1029 95 6000 2.06 110 03:50 09.02.2022
3225 Fog 6 1030 95 6000 0.45 135 01:27 09.02.2022
3226 Clear 7 1030 93 10000 2.57 140 23:34 08.02.2022
3227 Clouds 7 1030 91 10000 2.57 150 22:50 08.02.2022
3228 Clouds 8 1031 88 10000 2.57 150 22:22 08.02.2022
3229 Clouds 8 1031 89 10000 2.06 170 21:49 08.02.2022
3230 Clouds 8 1031 88 10000 2.06 170 21:21 08.02.2022
3231 Clouds 9 1031 87 10000 2.06 230 20:45 08.02.2022
3232 Clouds 9 1031 84 10000 2.57 250 19:46 08.02.2022
3233 Clouds 10 1031 85 10000 4.63 240 18:48 08.02.2022
3234 Clouds 10 1031 82 10000 4.63 240 17:43 08.02.2022
3235 Clouds 11 1031 80 10000 5.14 240 16:34 08.02.2022
3236 Clouds 11 1031 81 10000 5.66 240 15:30 08.02.2022
3237 Clouds 11 1031 81 10000 5.14 240 14:38 08.02.2022
3238 Clouds 10 1032 84 10000 4.12 220 13:29 08.02.2022
3239 Clouds 9 1033 87 10000 4.12 220 11:55 08.02.2022
3240 Clouds 8 1033 89 10000 3.09 210 10:23 08.02.2022
3241 Clouds 8 1033 89 10000 3.09 210 10:23 08.02.2022
3242 Clouds 7 1033 90 10000 2.57 200 09:45 08.02.2022
3243 Clouds 7 1032 90 10000 3.6 210 07:55 08.02.2022
3244 Clouds 6 1032 86 10000 3.09 240 05:41 08.02.2022
3245 Clouds 6 1032 85 10000 2.57 230 04:39 08.02.2022
3246 Clouds 6 1032 84 10000 2.57 230 04:21 08.02.2022
3247 Clouds 6 1032 86 10000 2.06 240 03:36 08.02.2022
3248 Clouds 5 1032 87 10000 2.06 240 03:18 08.02.2022
3249 Clouds 5 1032 86 10000 3.09 210 02:59 08.02.2022
3250 Clouds 6 1032 84 10000 2.06 240 02:36 08.02.2022
3251 Clouds 5 1032 87 10000 2.06 230 02:18 08.02.2022
3252 Clouds 5 1032 86 10000 1.54 230 01:44 08.02.2022
3253 Clouds 5 1032 85 10000 2.06 230 01:24 08.02.2022
3254 Clouds 5 1032 85 10000 2.06 230 00:55 08.02.2022
3255 Clouds 5 1032 82 10000 3.09 240 23:58 07.02.2022
3256 Clouds 5 1032 84 10000 3.09 240 23:40 07.02.2022
3257 Clouds 5 1032 82 10000 2.06 220 23:18 07.02.2022
3258 Clouds 5 1032 80 10000 2.06 220 22:54 07.02.2022
3259 Clear 5 1031 80 10000 2.06 210 22:18 07.02.2022
3260 Clear 5 1031 78 10000 2.06 210 21:44 07.02.2022
3261 Clear 6 1031 76 10000 2.06 220 21:25 07.02.2022
3262 Clear 6 1031 77 10000 2.06 230 20:41 07.02.2022
3263 Clear 6 1031 75 10000 1.54 240 19:56 07.02.2022
3264 Clear 6 1031 73 10000 1.54 220 19:38 07.02.2022
3265 Clear 9 1030 63 10000 3.6 290 18:21 07.02.2022
3266 Clear 10 1031 59 10000 4.63 300 16:53 07.02.2022
3267 Clear 10 1030 57 10000 5.14 280 16:20 07.02.2022
3268 Clear 10 1030 58 10000 5.14 310 15:48 07.02.2022
3269 Clouds 10 1030 61 10000 3.6 300 13:37 07.02.2022
3270 Clouds 10 1030 60 10000 3.6 300 13:19 07.02.2022
3271 Clouds 8 1030 74 10000 1.34 293 11:58 07.02.2022
3272 Clouds 8 1030 74 10000 1.34 293 11:58 07.02.2022
3273 Clear 8 1030 77 10000 1.34 270 11:37 07.02.2022
3274 Clear 7 1029 81 10000 1.34 270 10:52 07.02.2022
3275 Clear 6 1028 84 10000 0.89 270 10:32 07.02.2022
3276 Clear 4 1027 88 10000 1.03 0 09:53 07.02.2022
3277 Clear 3 1026 88 10000 0.45 46 09:18 07.02.2022
3278 Clear 3 1026 87 10000 1.03 0 08:43 07.02.2022
3279 Clouds 4 1025 83 10000 1.79 293 07:26 07.02.2022
3280 Clear 5 1024 81 10000 1.79 270 06:34 07.02.2022
3281 Clear 7 1021 74 10000 2.24 270 03:49 07.02.2022
3282 Clouds 9 1016 81 10000 1.79 270 00:47 07.02.2022
3283 Clouds 9 1014 83 10000 3.13 270 23:49 06.02.2022
3284 Clouds 10 1014 86 10000 4.47 270 23:19 06.02.2022
3285 Clouds 10 1013 90 10000 3.58 270 22:34 06.02.2022
3286 Clouds 10 1012 95 10000 4.92 270 21:36 06.02.2022
3287 Rain 10 1012 95 8000 1.79 248 20:58 06.02.2022
3288 Clouds 10 1012 93 10000 3.58 248 20:36 06.02.2022
3289 Clouds 10 1012 94 10000 2.24 248 19:45 06.02.2022
3290 Clouds 10 1012 91 6000 3.13 270 18:50 06.02.2022
3291 Clouds 10 1012 91 10000 3.13 270 18:24 06.02.2022
3292 Drizzle 10 1012 92 10000 3.13 248 17:26 06.02.2022
3293 Clouds 10 1012 92 10000 2.68 225 16:48 06.02.2022
3294 Clouds 10 1012 92 8000 3.13 248 15:50 06.02.2022
3295 Clouds 10 1012 92 8000 3.13 225 15:27 06.02.2022
3296 Clouds 10 1013 89 9000 3.13 225 14:50 06.02.2022
3297 Clouds 10 1013 88 10000 3.58 248 13:51 06.02.2022
3298 Clouds 10 1014 89 10000 4.02 225 13:20 06.02.2022
3299 Clouds 9 1015 92 10000 3.58 225 11:44 06.02.2022
3300 Clouds 8 1016 90 10000 3.58 225 10:31 06.02.2022
3301 Clouds 8 1016 87 10000 2.68 225 09:26 06.02.2022
3302 Clouds 8 1017 87 10000 3.58 225 08:41 06.02.2022
3303 Clouds 7 1019 87 10000 3.58 225 06:27 06.02.2022
3304 Clouds 7 1020 85 10000 3.58 225 05:27 06.02.2022
3305 Clear 7 1022 82 10000 2.24 225 02:25 06.02.2022
3306 Clear 7 1023 79 10000 3.13 225 00:30 06.02.2022
3307 Clouds 7 1024 80 10000 2.68 225 23:27 05.02.2022
3308 Clouds 7 1024 80 10000 3.13 225 21:43 05.02.2022
3309 Clear 7 1024 79 10000 1.79 225 20:39 05.02.2022
3310 Clear 7 1025 77 10000 2.68 225 20:19 05.02.2022
3311 Clouds 7 1025 77 10000 1.79 225 19:41 05.02.2022
3312 Clear 8 1025 73 10000 2.68 225 18:26 05.02.2022
3313 Clouds 9 1025 67 10000 1.79 248 17:34 05.02.2022
3314 Clear 10 1025 57 10000 1.34 248 15:43 05.02.2022
3315 Clear 10 1025 57 10000 2.68 225 15:25 05.02.2022
3316 Clouds 9 1026 75 10000 1.34 225 13:25 05.02.2022
3317 Clouds 9 1026 75 10000 1.34 225 13:25 05.02.2022
3318 Clear 8 1026 80 10000 1.79 248 12:42 05.02.2022
3319 Clear 6 1026 88 10000 1.34 270 11:29 05.02.2022
3320 Clear 4 1025 91 10000 1.34 49 10:43 05.02.2022
3321 Clear 3 1025 91 10000 0.45 48 09:49 05.02.2022
3322 Clear 2 1025 93 10000 0.51 0 08:39 05.02.2022
3323 Clear 2 1024 92 10000 1.54 0 06:59 05.02.2022
3324 Clear 2 1024 92 10000 1.03 150 06:27 05.02.2022
3325 Clear 3 1023 89 10000 0.45 48 02:40 05.02.2022
3326 Clear 3 1022 87 10000 0.89 46 01:18 05.02.2022
3327 Clear 3 1022 87 10000 3.09 240 00:36 05.02.2022
3328 Clouds 4 1021 87 10000 4.12 230 23:33 04.02.2022
3329 Clouds 4 1020 87 10000 0.89 44 22:39 04.02.2022
3330 Clouds 4 1020 86 10000 0.89 44 21:36 04.02.2022
3331 Clear 4 1019 86 10000 2.24 43 21:18 04.02.2022
3332 Clear 5 1019 83 10000 2.57 260 20:29 04.02.2022
3333 Clear 6 1018 83 10000 1.79 270 19:18 04.02.2022
3334 Clouds 10 1013 81 10000 4.47 248 16:22 04.02.2022
3335 Clouds 11 1012 75 10000 2.68 248 15:18 04.02.2022
3336 Clouds 11 1013 76 10000 2.68 225 14:40 04.02.2022
3337 Drizzle 9 1015 88 10000 2.24 225 12:43 04.02.2022
3338 Clouds 8 1015 91 10000 2.24 203 11:45 04.02.2022
3339 Clouds 8 1015 91 10000 1.79 225 10:55 04.02.2022
3340 Drizzle 7 1015 93 10000 1.79 225 09:56 04.02.2022
3341 Clouds 7 1015 94 10000 1.34 225 08:30 04.02.2022
3342 Drizzle 7 1017 93 10000 1.79 225 03:47 04.02.2022
3343 Clouds 7 1017 90 10000 1.79 225 02:36 04.02.2022
3344 Clouds 7 1017 91 10000 1.79 225 23:40 03.02.2022
3345 Clouds 7 1017 91 10000 1.79 225 22:51 03.02.2022
3346 Clouds 8 1017 90 10000 1.79 225 21:52 03.02.2022
3347 Clouds 8 1017 90 10000 1.79 225 21:29 03.02.2022
3348 Clouds 8 1017 88 10000 1.79 225 20:22 03.02.2022
3349 Clouds 8 1017 86 10000 1.34 225 19:46 03.02.2022
3350 Clouds 8 1017 84 10000 1.34 225 18:56 03.02.2022
3351 Clouds 8 1016 84 10000 0.89 248 17:59 03.02.2022
3352 Clouds 8 1016 82 10000 0.45 225 17:19 03.02.2022
3353 Clouds 8 1017 84 10000 1.34 270 15:34 03.02.2022
3354 Clouds 7 1017 83 10000 1.34 225 13:50 03.02.2022
3355 Clouds 7 1018 81 10000 1.34 225 12:22 03.02.2022
3356 Clouds 7 1019 82 10000 1.79 225 08:56 03.02.2022
3357 Clouds 7 1019 81 10000 1.34 225 07:43 03.02.2022
3358 Clouds 8 1024 79 10000 0.89 203 00:49 03.02.2022
3359 Clouds 9 1024 79 10000 1.34 225 00:22 03.02.2022
3360 Clouds 9 1024 81 10000 1.79 203 22:39 02.02.2022
3361 Clouds 9 1025 79 10000 1.34 216 21:51 02.02.2022
3362 Clouds 9 1025 78 10000 1.79 225 21:29 02.02.2022
3363 Clouds 9 1025 79 10000 0.89 270 20:27 02.02.2022
3364 Clouds 9 1025 80 10000 0.89 248 19:46 02.02.2022
3365 Clouds 10 1025 79 10000 1.79 225 18:56 02.02.2022
3366 Clouds 10 1025 80 10000 1.34 225 18:24 02.02.2022
3367 Clouds 10 1025 80 10000 1.79 270 17:20 02.02.2022
3368 Clouds 10 1025 80 10000 1.79 270 16:58 02.02.2022
3369 Clouds 11 1025 79 10000 3.13 270 15:29 02.02.2022
3370 Clouds 10 1025 89 10000 2.24 270 12:31 02.02.2022
3371 Clouds 10 1025 89 10000 1.79 270 11:49 02.02.2022
3372 Clouds 10 1025 90 10000 2.24 270 11:30 02.02.2022
3373 Clouds 10 1025 91 10000 1.79 270 09:18 02.02.2022
3374 Clouds 10 1024 90 10000 2.68 270 04:57 02.02.2022
3375 Clouds 10 1023 90 10000 3.13 270 22:34 01.02.2022
3376 Clouds 10 1023 91 10000 3.58 270 20:55 01.02.2022
3377 Clouds 10 1022 92 10000 3.58 270 19:39 01.02.2022
3378 Clouds 10 1022 92 10000 3.58 270 17:37 01.02.2022
3379 Clouds 10 1022 92 10000 4.02 270 16:31 01.02.2022
3380 Clouds 8 1023 95 10000 2.24 248 13:27 01.02.2022
3381 Drizzle 7 1024 95 10000 1.79 270 12:28 01.02.2022
3382 Drizzle 6 1025 94 10000 2.68 225 10:42 01.02.2022
3383 Clouds 2 1028 77 10000 2.06 260 02:24 01.02.2022
3384 Clear 2 1028 76 10000 2.57 270 23:39 31.01.2022
3385 Clear 3 1027 69 10000 1.34 270 22:42 31.01.2022
3386 Clear 4 1027 65 10000 0.89 270 21:36 31.01.2022
3387 Clear 5 1026 63 10000 0.89 270 20:44 31.01.2022
3388 Clear 5 1026 63 10000 1.79 270 20:24 31.01.2022
3389 Clear 6 1025 58 10000 1.34 270 18:54 31.01.2022
3390 Clear 6 1025 58 10000 3.13 270 18:20 31.01.2022
3391 Clear 7 1024 57 10000 2.68 293 17:25 31.01.2022
3392 Clear 7 1023 55 10000 1.79 270 16:25 31.01.2022
3393 Clouds 8 1023 59 10000 2.68 270 14:54 31.01.2022
3394 Clouds 8 1022 75 10000 3.13 270 13:43 31.01.2022
3395 Clouds 9 1022 65 10000 3.13 293 12:38 31.01.2022
3396 Clouds 8 1022 73 10000 4.47 270 11:34 31.01.2022
3397 Clouds 8 1021 76 10000 4.02 270 10:49 31.01.2022
3398 Clouds 7 1021 79 10000 2.24 270 09:39 31.01.2022
3399 Clouds 7 1020 77 10000 3.58 270 08:57 31.01.2022
3400 Clear 7 1020 78 10000 2.68 270 08:38 31.01.2022
3401 Clear 7 1020 78 10000 3.13 270 08:19 31.01.2022
3402 Clouds 7 1020 93 10000 3.13 270 06:18 31.01.2022
3403 Clouds 7 1025 79 10000 2.24 248 00:44 31.01.2022
3404 Clouds 6 1026 79 10000 1.54 230 22:38 30.01.2022
3405 Clouds 7 1026 78 10000 0.89 225 22:20 30.01.2022
3406 Clouds 6 1027 82 10000 1.03 0 21:38 30.01.2022
3407 Clouds 6 1027 82 10000 1.03 260 21:18 30.01.2022
3408 Clouds 6 1028 78 10000 1.34 270 20:45 30.01.2022
3409 Clouds 6 1028 78 10000 1.34 270 20:26 30.01.2022
3410 Clouds 7 1028 77 10000 0.89 68 19:24 30.01.2022
3411 Clouds 7 1029 74 10000 0.45 68 18:35 30.01.2022
3412 Clouds 8 1029 70 10000 0.89 270 17:53 30.01.2022
3413 Clouds 9 1029 66 10000 0.89 270 17:20 30.01.2022
3414 Clouds 9 1030 65 10000 0.89 45 16:37 30.01.2022
3415 Clouds 10 1030 65 10000 0.45 23 16:37 30.01.2022
3416 Clouds 10 1030 66 10000 0.89 315 16:19 30.01.2022
3417 Clouds 10 1030 65 10000 0.89 270 15:49 30.01.2022
3418 Clouds 10 1030 67 10000 1.79 270 15:30 30.01.2022
3419 Clouds 10 1031 67 10000 0.45 270 14:45 30.01.2022
3420 Clouds 9 1033 69 10000 1.03 0 12:46 30.01.2022
3421 Clear 9 1033 74 10000 1.34 68 11:53 30.01.2022
3422 Clear 7 1033 82 10000 0.89 90 10:29 30.01.2022
3423 Clear 6 1033 85 10000 0.45 45 09:50 30.01.2022
3424 Clear 6 1033 84 10000 2.24 42 08:54 30.01.2022
3425 Clouds 7 1032 82 10000 0.89 68 07:28 30.01.2022
3426 Drizzle 9 1032 95 10000 1.34 270 01:56 30.01.2022
3427 Drizzle 9 1032 95 10000 1.34 270 01:56 30.01.2022
3428 Drizzle 9 1032 95 10000 1.34 270 01:56 30.01.2022
3429 Clouds 9 1032 95 10000 1.34 248 00:23 30.01.2022
3430 Clouds 9 1032 95 10000 1.79 270 23:18 29.01.2022
3431 Clouds 10 1032 91 10000 1.34 248 21:49 29.01.2022
3432 Clouds 10 1032 90 10000 1.79 270 21:24 29.01.2022
3433 Clouds 10 1032 90 10000 3.13 270 20:32 29.01.2022
3434 Drizzle 10 1032 92 10000 2.68 270 19:34 29.01.2022
3435 Clouds 10 1032 92 10000 2.24 270 18:52 29.01.2022
3436 Clouds 10 1032 92 10000 1.79 270 18:23 29.01.2022
3437 Clouds 10 1031 93 10000 1.79 270 17:29 29.01.2022
3438 Drizzle 10 1031 95 10000 2.24 270 15:57 29.01.2022
3439 Mist 10 1032 94 10000 4.63 250 14:23 29.01.2022
3440 Mist 9 1033 95 10000 5.14 250 13:44 29.01.2022
3441 Mist 9 1032 94 10000 1.34 270 13:24 29.01.2022
3442 Clouds 9 1033 93 10000 2.24 225 11:49 29.01.2022
3443 Drizzle 9 1033 93 10000 1.79 225 11:24 29.01.2022
3444 Clouds 7 1033 95 10000 1.79 225 08:57 29.01.2022
3445 Mist 7 1033 97 10000 1.79 225 06:55 29.01.2022
3446 Clouds 6 1036 90 10000 1.34 225 00:36 29.01.2022
3447 Clouds 6 1036 90 10000 0.89 225 23:59 28.01.2022
3448 Clouds 6 1036 90 10000 2.24 225 22:51 28.01.2022
3449 Clouds 6 1036 91 10000 1.34 225 22:22 28.01.2022
3450 Clouds 6 1036 90 10000 0.89 225 21:37 28.01.2022
3451 Clouds 6 1037 91 10000 0.89 248 20:30 28.01.2022
3452 Clouds 6 1037 91 10000 0.89 248 20:30 28.01.2022
3453 Clouds 6 1036 90 10000 0.89 180 19:31 28.01.2022
3454 Clouds 7 1037 89 10000 0.45 203 18:43 28.01.2022
3455 Clouds 7 1036 87 10000 0.45 203 17:31 28.01.2022
3456 Clouds 7 1037 87 10000 0.89 293 15:20 28.01.2022
3457 Clouds 7 1037 89 10000 0.89 203 13:52 28.01.2022
3458 Clouds 7 1038 93 10000 0.89 203 12:30 28.01.2022
3459 Mist 6 1038 94 9000 0.89 248 11:25 28.01.2022
3460 Mist 6 1037 96 4500 0.45 218 09:52 28.01.2022
3461 Mist 6 1036 97 1500 0.45 113 08:26 28.01.2022
3462 Mist 6 1036 97 3100 1.54 0 07:34 28.01.2022
3463 Fog 6 1035 96 450 0 0 05:23 28.01.2022
3464 Mist 7 1035 96 1300 0.89 270 03:44 28.01.2022
3465 Mist 7 1034 97 4400 0.89 270 02:22 28.01.2022
3466 Mist 7 1034 97 4500 0.45 270 01:33 28.01.2022
3467 Mist 7 1033 96 5000 1.34 270 23:25 27.01.2022
3468 Mist 7 1032 94 3000 1.34 270 21:49 27.01.2022
3469 Mist 7 1032 94 4000 1.79 270 21:29 27.01.2022
3470 Drizzle 6 1031 95 2500 1.34 225 20:44 27.01.2022
3471 Mist 6 1031 92 4800 1.34 225 18:55 27.01.2022
3472 Clouds 7 1031 86 10000 1.34 225 17:56 27.01.2022
3473 Clouds 7 1030 86 7000 1.79 225 15:18 27.01.2022
3474 Clouds 5 1031 85 10000 0.45 225 13:36 27.01.2022
3475 Clouds 5 1031 86 10000 0.89 203 12:40 27.01.2022
3476 Mist 3 1032 90 9000 0.89 203 10:24 27.01.2022
3477 Mist 3 1032 90 8000 0.45 203 08:57 27.01.2022
3478 Mist 3 1032 91 8000 0.45 225 08:31 27.01.2022
3479 Mist 3 1031 92 7000 0.45 180 05:59 27.01.2022
3480 Mist 2 1033 92 7000 3.09 160 02:43 27.01.2022
3481 Mist 2 1033 91 7000 0.89 248 23:32 26.01.2022
3482 Mist 2 1034 92 7000 1.34 270 21:59 26.01.2022
3483 Mist 2 1034 92 7000 0.89 270 21:35 26.01.2022
3484 Mist 2 1034 92 7000 1.34 270 20:36 26.01.2022
3485 Mist 2 1034 92 7000 0.89 270 20:36 26.01.2022
3486 Mist 3 1034 91 7000 1.34 270 19:59 26.01.2022
3487 Mist 3 1034 90 8000 0.45 180 19:20 26.01.2022
3488 Mist 3 1034 90 9000 1.03 0 18:45 26.01.2022
3489 Mist 3 1034 91 9000 0.89 270 17:50 26.01.2022
3490 Mist 3 1034 90 10000 0.45 293 17:23 26.01.2022
3491 Mist 3 1034 90 10000 0.89 270 16:31 26.01.2022
3492 Mist 3 1034 88 8000 0.89 293 15:49 26.01.2022
3493 Mist 3 1034 91 6000 0.45 68 14:20 26.01.2022
3494 Mist 2 1035 91 6000 0.45 225 11:52 26.01.2022
3495 Mist 1 1035 93 6000 1.54 180 10:28 26.01.2022
3496 Mist 1 1035 95 6000 0.45 203 09:48 26.01.2022
3497 Clouds 0 1034 96 7000 0.89 270 07:44 26.01.2022
3498 Mist 0 1035 97 5000 0.45 68 03:31 26.01.2022
3499 Mist 0 1034 97 2100 1.34 270 23:58 25.01.2022
3500 Mist 0 1034 97 1500 0.89 270 23:19 25.01.2022
3501 Mist 0 1034 97 1600 1.34 270 22:21 25.01.2022
3502 Mist 1 1034 97 1500 0.89 270 21:58 25.01.2022
3503 Mist 1 1034 98 1900 1.03 0 20:59 25.01.2022
3504 Mist 1 1033 98 1700 0.51 0 20:40 25.01.2022
3505 Mist 1 1033 98 1500 1.03 0 19:53 25.01.2022
3506 Mist 1 1033 98 3700 1.54 0 18:38 25.01.2022
3507 Mist 1 1033 98 3000 1.54 330 17:45 25.01.2022
3508 Mist 1 1033 93 3700 2.06 310 16:45 25.01.2022
3509 Mist 1 1033 98 3700 2.06 310 16:21 25.01.2022
3510 Mist 1 1033 98 3100 2.06 310 15:38 25.01.2022
3511 Mist 1 1033 98 3200 1.54 290 14:57 25.01.2022
3512 Mist 1 1034 100 2100 1.03 0 13:42 25.01.2022
3513 Fog 0 1033 94 500 0 0 10:58 25.01.2022
3514 Fog -1 1033 95 250 0.51 0 08:38 25.01.2022
3515 Fog -1 1032 95 1000 0.89 68 07:29 25.01.2022
3516 Fog -1 1032 95 450 0.45 135 06:49 25.01.2022
3517 Fog -1 1032 94 400 1.03 160 05:22 25.01.2022
3518 Mist 0 1032 92 6000 1.54 30 23:37 24.01.2022
3519 Mist 0 1032 92 7000 2.06 30 23:19 24.01.2022
3520 Mist 1 1032 92 7000 2.06 30 22:59 24.01.2022
3521 Mist 1 1032 92 6000 1.54 30 22:41 24.01.2022
3522 Clear 1 1032 89 6000 1.54 10 21:54 24.01.2022
3523 Clear 2 1031 88 7000 1.03 0 21:29 24.01.2022
3524 Clear 2 1031 88 9000 0.45 68 20:32 24.01.2022
3525 Clear 3 1031 87 10000 2.06 30 19:52 24.01.2022
3526 Clear 3 1031 84 10000 0.45 68 19:30 24.01.2022
3527 Clear 4 1031 81 10000 0.45 45 18:19 24.01.2022
3528 Clear 6 1031 75 10000 0.89 68 17:24 24.01.2022
3529 Clear 7 1031 72 10000 2.24 45 16:55 24.01.2022
3530 Clear 7 1031 71 10000 1.34 68 16:21 24.01.2022
3531 Clear 7 1030 71 10000 1.34 90 14:44 24.01.2022
3532 Clear 6 1031 75 10000 1.34 68 13:26 24.01.2022
3533 Clear 5 1031 82 10000 0.89 68 12:30 24.01.2022
3534 Clear 2 1032 90 9000 0.89 68 10:46 24.01.2022
3535 Clear 0 1032 95 6000 0.89 45 09:49 24.01.2022
3536 Clear 0 1031 96 6000 0.45 68 08:54 24.01.2022
3537 Clear 0 1031 95 6000 0.45 68 07:19 24.01.2022
3538 Clear 0 1031 94 7000 0.45 68 07:19 24.01.2022
3539 Clear 1 1032 90 9000 0.89 45 01:31 24.01.2022
3540 Clear 2 1032 89 9000 0.89 68 00:45 24.01.2022
3541 Clear 2 1032 90 8000 0.89 45 00:26 24.01.2022
3542 Clouds 3 1033 87 10000 0.45 68 22:43 23.01.2022
3543 Clouds 4 1033 83 10000 0.45 45 21:50 23.01.2022
3544 Clouds 4 1033 81 10000 0.89 68 21:26 23.01.2022
3545 Clouds 4 1033 80 10000 1.79 90 20:54 23.01.2022
3546 Clouds 5 1033 81 10000 1.34 68 19:55 23.01.2022
3547 Clouds 5 1033 81 10000 0.89 90 18:52 23.01.2022
3548 Clouds 4 1033 83 10000 1.34 90 17:52 23.01.2022
3549 Clouds 5 1033 83 10000 1.34 68 16:52 23.01.2022
3550 Clouds 4 1033 86 10000 0.89 68 15:18 23.01.2022
3551 Clouds 4 1034 86 10000 1.34 90 14:33 23.01.2022
3552 Clouds 4 1035 86 10000 1.34 90 13:27 23.01.2022
3553 Clouds 4 1035 88 10000 1.34 68 12:40 23.01.2022
3554 Clouds 4 1035 89 10000 0.89 135 12:18 23.01.2022
3555 Clouds 4 1036 89 10000 0.89 90 11:25 23.01.2022
3556 Clouds 4 1036 89 10000 1.34 90 10:57 23.01.2022
3557 Clouds 4 1036 88 10000 1.34 90 10:23 23.01.2022
3558 Clouds 4 1035 88 10000 1.34 68 09:25 23.01.2022
3559 Clouds 4 1035 89 10000 1.34 68 05:59 23.01.2022
3560 Clouds 4 1036 88 10000 1.34 68 03:20 23.01.2022
3561 Clouds 4 1036 88 10000 1.34 68 01:36 23.01.2022
3562 Clouds 5 1036 87 10000 0.45 315 00:42 23.01.2022
3563 Clouds 5 1036 86 10000 1.34 68 23:58 22.01.2022
3564 Clouds 5 1037 86 10000 0.45 270 22:48 22.01.2022
3565 Clouds 5 1037 85 10000 1.34 270 22:19 22.01.2022
3566 Clouds 5 1037 84 10000 0.89 68 20:29 22.01.2022
3567 Clouds 5 1037 84 10000 0.89 270 19:41 22.01.2022
3568 Clouds 5 1037 83 10000 1.34 270 18:37 22.01.2022
3569 Clouds 6 1036 80 10000 0.45 293 17:45 22.01.2022
3570 Clouds 6 1036 79 10000 0.45 270 17:19 22.01.2022
3571 Clouds 6 1036 79 10000 0.89 293 16:54 22.01.2022
3572 Clouds 6 1037 78 10000 0.89 270 15:45 22.01.2022
3573 Clouds 6 1037 77 10000 0.45 270 14:52 22.01.2022
3574 Clouds 6 1037 78 10000 0.89 68 13:30 22.01.2022
3575 Clouds 5 1038 80 10000 0.89 270 12:37 22.01.2022
3576 Clouds 5 1038 81 10000 0.89 293 12:19 22.01.2022
3577 Clouds 5 1038 83 10000 0.89 270 10:54 22.01.2022
3578 Clouds 5 1037 83 10000 0.45 43 10:25 22.01.2022
3579 Clouds 4 1037 83 10000 1.34 68 08:59 22.01.2022
3580 Clouds 4 1037 83 10000 0.89 68 08:39 22.01.2022
3581 Clouds 4 1036 83 10000 0.89 270 06:46 22.01.2022
3582 Clouds 4 1037 82 10000 1.34 270 02:40 22.01.2022
3583 Clouds 3 1037 85 10000 0.89 270 23:52 21.01.2022
3584 Clouds 3 1037 85 10000 1.34 293 23:21 21.01.2022
3585 Clouds 3 1037 82 10000 0.45 270 21:45 21.01.2022
3586 Clouds 3 1037 86 10000 0.45 44 19:48 21.01.2022
3587 Clouds 4 1037 82 10000 0.45 270 18:20 21.01.2022
3588 Clouds 5 1037 80 10000 0.89 270 16:54 21.01.2022
3589 Clouds 5 1037 83 10000 0.89 68 15:24 21.01.2022
3590 Clouds 5 1037 85 10000 1.34 44 12:53 21.01.2022
3591 Clouds 4 1038 88 10000 0.45 225 11:42 21.01.2022
3592 Clouds 4 1038 89 10000 1.34 44 11:23 21.01.2022
3593 Clouds 2 1037 91 10000 0.45 23 09:34 21.01.2022
3594 Clouds 2 1037 90 10000 0.89 68 08:21 21.01.2022
3595 Clear 2 1036 90 10000 0.89 338 04:37 21.01.2022
3596 Clouds 4 1036 85 10000 0.89 293 23:19 20.01.2022
3597 Clouds 4 1035 82 10000 0.45 270 21:50 20.01.2022
3598 Clear 4 1035 82 10000 0.45 68 21:31 20.01.2022
3599 Clear 4 1034 81 10000 1.79 68 20:21 20.01.2022
3600 Clear 4 1034 81 10000 0.89 45 19:19 20.01.2022
3601 Clouds 5 1033 78 10000 2.24 68 18:18 20.01.2022
3602 Clouds 6 1033 75 10000 1.34 68 16:40 20.01.2022
3603 Clouds 7 1032 73 10000 2.68 68 15:40 20.01.2022
3604 Clouds 7 1033 77 10000 1.79 90 14:40 20.01.2022
3605 Clouds 6 1032 84 10000 0.89 270 13:33 20.01.2022
3606 Clouds 5 1033 92 10000 1.34 270 12:32 20.01.2022
3607 Clouds 5 1033 92 10000 0.89 270 11:49 20.01.2022
3608 Clear 3 1032 94 10000 0.89 270 10:38 20.01.2022
3609 Clear 2 1032 95 10000 0.89 270 09:34 20.01.2022
3610 Clear 2 1030 95 10000 1.34 270 07:50 20.01.2022
3611 Mist 6 1028 97 5000 0.89 270 00:44 20.01.2022
3612 Mist 6 1028 95 3500 0.89 293 22:54 19.01.2022
3613 Drizzle 6 1027 96 3600 1.79 270 22:21 19.01.2022
3614 Drizzle 6 1027 95 5000 1.34 225 21:23 19.01.2022
3615 Drizzle 6 1026 95 5000 0.89 225 20:46 19.01.2022
3616 Rain 6 1026 92 7000 1.34 270 19:42 19.01.2022
3617 Clouds 6 1027 91 7000 1.34 225 18:29 19.01.2022
3618 Clouds 6 1026 90 7000 1.79 270 17:44 19.01.2022
3619 Clouds 6 1026 91 7000 0.89 225 16:47 19.01.2022
3620 Clouds 6 1027 89 10000 1.79 270 14:42 19.01.2022
3621 Mist 6 1028 91 5000 1.34 270 12:42 19.01.2022
3622 Clouds 5 1028 92 7000 0.45 225 11:41 19.01.2022
3623 Clouds 5 1028 91 7000 0.89 293 10:23 19.01.2022
3624 Clouds 4 1028 92 7000 1.79 270 09:34 19.01.2022
3625 Clouds 4 1028 92 10000 1.54 260 06:45 19.01.2022
3626 Clouds 4 1030 89 10000 0.89 68 02:41 19.01.2022
3627 Clear 4 1032 90 10000 0.45 68 23:20 18.01.2022
3628 Clouds 5 1032 89 10000 0.89 68 22:34 18.01.2022
3629 Clear 5 1033 85 10000 0.45 90 21:00 18.01.2022
3630 Clouds 6 1033 84 10000 0.45 90 19:55 18.01.2022
3631 Clouds 6 1033 84 10000 0.89 68 19:36 18.01.2022
3632 Clouds 6 1033 82 10000 0.89 68 18:54 18.01.2022
3633 Clear 7 1033 78 10000 1.79 68 17:58 18.01.2022
3634 Clear 9 1033 72 10000 2.24 45 16:58 18.01.2022
3635 Clouds 9 1033 71 10000 1.34 68 15:47 18.01.2022
3636 Clouds 9 1034 72 10000 2.24 68 15:22 18.01.2022
3637 Clear 8 1036 81 9000 1.79 135 12:49 18.01.2022
3638 Mist 4 1037 98 9000 0.89 45 10:47 18.01.2022
3639 Clouds 2 1037 98 6000 0.89 45 09:21 18.01.2022
3640 Fog 2 1037 98 7000 0.89 68 07:56 18.01.2022
3641 Mist 1 1038 96 5000 0.89 68 02:35 18.01.2022
3642 Mist 2 1038 95 5000 1.54 30 23:47 17.01.2022
3643 Mist 3 1039 93 5000 0.45 45 22:29 17.01.2022
3644 Clear 4 1038 93 6000 0.45 45 21:35 17.01.2022
3645 Clouds 4 1038 93 9000 0.45 45 20:27 17.01.2022
3646 Clouds 6 1038 87 10000 0.45 68 18:31 17.01.2022
3647 Clouds 7 1038 87 10000 0.45 68 17:44 17.01.2022
3648 Clouds 7 1037 86 10000 0.89 270 16:45 17.01.2022
3649 Clouds 7 1037 90 10000 1.79 270 15:23 17.01.2022
3650 Clouds 7 1037 91 10000 0.89 293 14:57 17.01.2022
3651 Clouds 7 1037 93 8000 1.34 293 13:27 17.01.2022
3652 Clouds 7 1038 94 7000 0.89 248 12:56 17.01.2022
3653 Mist 6 1038 96 6000 0.89 293 11:49 17.01.2022
3654 Clouds 5 1037 96 6000 0.89 270 10:25 17.01.2022
3655 Mist 5 1037 97 3400 0.89 293 10:25 17.01.2022
3656 Clouds 5 1037 96 6000 2.06 270 09:35 17.01.2022
3657 Fog 5 1036 96 550 1.03 0 07:43 17.01.2022
3658 Fog 5 1035 96 500 1.03 0 07:18 17.01.2022
3659 Mist 5 1034 96 10000 0.89 270 00:56 17.01.2022
3660 Mist 5 1033 96 10000 1.34 225 22:31 16.01.2022
3661 Mist 4 1032 96 10000 0.89 203 20:38 16.01.2022
3662 Mist 4 1031 95 10000 0.89 203 18:53 16.01.2022
3663 Mist 4 1030 96 10000 0.89 225 17:59 16.01.2022
3664 Mist 4 1030 95 10000 1.34 225 17:25 16.01.2022
3665 Mist 4 1030 94 10000 1.34 203 16:45 16.01.2022
3666 Drizzle 3 1030 96 3100 0.89 203 14:50 16.01.2022
3667 Mist 3 1029 93 10000 0.45 203 14:27 16.01.2022
3668 Mist 3 1030 93 10000 5.14 190 12:51 16.01.2022
3669 Clouds 2 1030 94 8000 1.79 225 11:47 16.01.2022
3670 Mist 1 1029 96 7000 0.45 180 10:55 16.01.2022
3671 Mist 1 1029 96 6000 0.45 158 10:26 16.01.2022
3672 Mist 0 1029 97 7000 0.45 203 09:54 16.01.2022
3673 Fog 0 1029 97 6000 0.45 180 09:22 16.01.2022
3674 Mist 0 1029 97 5000 0.89 225 08:38 16.01.2022
3675 Mist -1 1027 94 5000 1.34 293 03:21 16.01.2022
3676 Mist -1 1026 99 5000 3.09 270 23:50 15.01.2022
3677 Mist 0 1025 95 3300 4.12 260 22:19 15.01.2022
3678 Mist 0 1025 93 3100 4.12 250 21:19 15.01.2022
3679 Mist 1 1025 92 4700 2.57 240 20:40 15.01.2022
3680 Mist 2 1024 91 5000 1.54 350 19:30 15.01.2022
3681 Mist 3 1024 85 5000 0.89 270 18:47 15.01.2022
3682 Mist 5 1024 80 5000 0.45 270 17:30 15.01.2022
3683 Clouds 7 1024 73 9000 1.79 293 16:37 15.01.2022
3684 Clouds 7 1026 80 7000 0.45 45 13:56 15.01.2022
3685 Mist 4 1027 92 5000 0.89 68 12:20 15.01.2022
3686 Mist 1 1027 97 3200 1.03 350 10:43 15.01.2022
3687 Mist 0 1027 96 4800 0.51 60 08:32 15.01.2022
3688 Mist 2 1030 92 5000 1.54 30 00:35 15.01.2022
3689 Clear 2 1032 91 6000 1.54 10 21:52 14.01.2022
3690 Clear 3 1032 86 9000 1.54 40 20:41 14.01.2022
3691 Clear 3 1032 84 10000 1.03 0 20:21 14.01.2022
3692 Clear 4 1033 82 10000 2.06 20 18:49 14.01.2022
3693 Clear 4 1033 82 10000 2.57 50 18:20 14.01.2022
3694 Clear 7 1033 72 10000 0.45 113 16:50 14.01.2022
3695 Clear 7 1033 68 10000 0.89 68 15:48 14.01.2022
3696 Clear 7 1034 70 10000 1.34 68 14:42 14.01.2022
3697 Clear 6 1035 76 10000 0.45 68 13:36 14.01.2022
3698 Clear 5 1036 86 10000 0.89 135 12:29 14.01.2022
3699 Clear 3 1036 93 8000 0.89 68 10:57 14.01.2022
3700 Mist 1 1036 95 5000 0.89 45 09:44 14.01.2022
3701 Mist 0 1036 97 5000 0.89 45 08:44 14.01.2022
3702 Mist 0 1036 94 5000 0.89 68 06:45 14.01.2022
3703 Clear 1 1038 94 6000 1.54 10 01:33 14.01.2022
3704 Clear 1 1039 95 6000 3.09 360 23:19 13.01.2022
3705 Clear 1 1039 95 6000 1.34 68 21:40 13.01.2022
3706 Clear 1 1039 95 6000 0.89 68 21:22 13.01.2022
3707 Clear 2 1039 96 10000 1.79 68 19:40 13.01.2022
3708 Clear 2 1039 95 10000 0.89 68 19:22 13.01.2022
3709 Clear 3 1039 91 10000 1.34 68 17:54 13.01.2022
3710 Clear 4 1039 90 10000 2.57 30 16:21 13.01.2022
3711 Clouds 4 1040 93 10000 1.54 10 15:37 13.01.2022
3712 Clouds 4 1040 95 10000 2.06 60 14:49 13.01.2022
3713 Mist 2 1041 100 1700 2.06 50 12:46 13.01.2022
3714 Mist 2 1041 97 1400 0.89 90 10:25 13.01.2022
3715 Mist 2 1041 98 3600 0.89 68 09:20 13.01.2022
3716 Mist 2 1041 98 2600 1.34 68 08:27 13.01.2022
3717 Mist 2 1041 98 2700 0.89 68 07:24 13.01.2022
3718 Mist 2 1041 98 2900 1.34 68 06:38 13.01.2022
3719 Mist 2 1041 97 1900 1.34 68 05:20 13.01.2022
3720 Fog 3 1041 97 900 1.34 68 02:33 13.01.2022
3721 Mist 3 1041 97 1200 1.34 68 00:56 13.01.2022
3722 Mist 4 1041 94 4600 1.79 68 23:50 12.01.2022
3723 Mist 4 1041 94 4600 1.79 68 23:29 12.01.2022
3724 Clouds 4 1041 90 7000 1.34 68 21:58 12.01.2022
3725 Clouds 4 1040 89 8000 1.34 68 21:23 12.01.2022
3726 Clouds 4 1040 88 8000 2.24 68 20:57 12.01.2022
3727 Clouds 4 1040 87 10000 1.34 68 19:57 12.01.2022
3728 Clouds 4 1040 86 10000 1.34 68 18:43 12.01.2022
3729 Clouds 4 1039 85 10000 0.45 68 17:51 12.01.2022
3730 Clouds 5 1039 86 10000 1.34 45 16:39 12.01.2022
3731 Mist 4 1039 91 4900 0.45 68 14:49 12.01.2022
3732 Mist 3 1040 95 9000 0.89 68 13:37 12.01.2022
3733 Mist 2 1040 96 10000 0.45 90 12:35 12.01.2022
3734 Mist 0 1038 98 1200 0.45 135 08:55 12.01.2022
3735 Mist 0 1038 98 1100 0.45 90 07:55 12.01.2022
3736 Fog 0 1038 98 900 0.45 0 07:32 12.01.2022
3737 Fog 0 1036 97 800 0.45 135 01:34 12.01.2022
3738 Mist 0 1036 97 2100 0.89 90 23:26 11.01.2022
3739 Fog 0 1035 98 750 0.89 45 22:25 11.01.2022
3740 Fog 1 1035 96 1200 0.45 90 21:28 11.01.2022
3741 Mist 1 1034 96 3500 0.45 135 20:36 11.01.2022
3742 Mist 1 1034 95 6000 0.89 135 19:23 11.01.2022
3743 Mist 2 1033 91 8000 3.09 70 17:53 11.01.2022
3744 Clear 4 1033 87 10000 0.45 135 16:39 11.01.2022
3745 Clouds 4 1033 85 10000 1.54 140 16:18 11.01.2022
3746 Clouds 3 1032 91 10000 0.51 0 14:50 11.01.2022
3747 Mist 3 1033 90 10000 1.03 0 14:32 11.01.2022
3748 Mist 2 1033 95 9000 3.09 140 13:48 11.01.2022
3749 Mist 2 1033 95 9000 3.09 140 13:25 11.01.2022
3750 Fog 2 1033 95 8000 0.45 135 12:25 11.01.2022
3751 Fog 1 1032 96 7000 0.45 90 10:32 11.01.2022
3752 Mist 1 1031 95 9000 0.45 158 07:55 11.01.2022
3753 Mist 2 1030 95 9000 0.89 135 04:28 11.01.2022
3754 Clouds 3 1028 95 10000 0.45 158 00:27 11.01.2022
3755 Clouds 3 1028 95 7000 0.45 135 23:39 10.01.2022
3756 Mist 3 1028 95 10000 0.45 135 22:39 10.01.2022
3757 Mist 3 1028 95 10000 0.45 135 22:18 10.01.2022
3758 Clouds 3 1027 95 10000 0.89 135 21:36 10.01.2022
3759 Clouds 3 1027 95 10000 0.89 135 21:18 10.01.2022
3760 Clouds 3 1027 95 10000 0.45 113 20:54 10.01.2022
3761 Mist 3 1026 95 10000 3.09 110 20:19 10.01.2022
3762 Mist 3 1026 96 10000 0.45 113 19:39 10.01.2022
3763 Mist 3 1026 97 10000 0.45 90 19:19 10.01.2022
3764 Mist 3 1025 97 10000 0.89 135 18:46 10.01.2022
3765 Mist 4 1024 96 10000 0.89 135 16:49 10.01.2022
3766 Fog 4 1023 97 10000 0.45 90 16:27 10.01.2022
3767 Mist 4 1022 98 3800 1.54 90 14:49 10.01.2022
3768 Mist 4 1021 98 2800 2.06 100 13:35 10.01.2022
3769 Mist 4 1021 98 3400 0.45 158 11:57 10.01.2022
3770 Fog 3 1020 98 6000 0.45 90 10:50 10.01.2022
3771 Mist 3 1018 98 3900 0.45 158 09:40 10.01.2022
3772 Mist 3 1014 96 3200 0.45 68 05:52 10.01.2022
3773 Mist 3 1013 95 2700 0.45 68 04:48 10.01.2022
3774 Clear 4 1010 96 6000 2.06 60 01:22 10.01.2022
3775 Clouds 4 1010 95 7000 0.45 203 00:22 10.01.2022
3776 Clouds 4 1009 97 10000 1.54 250 22:48 09.01.2022
3777 Clouds 4 1009 96 10000 1.54 220 22:21 09.01.2022
3778 Clouds 4 1008 95 10000 1.03 0 21:42 09.01.2022
3779 Clouds 4 1008 95 10000 1.03 0 21:22 09.01.2022
3780 Clouds 4 1008 95 10000 0.51 0 20:49 09.01.2022
3781 Clouds 4 1008 95 10000 0.51 0 20:29 09.01.2022
3782 Clouds 5 1007 94 10000 2.06 230 19:44 09.01.2022
3783 Clear 5 1007 94 10000 0.45 270 19:22 09.01.2022
3784 Clear 5 1007 93 10000 0.89 270 18:49 09.01.2022
3785 Clear 5 1007 92 10000 0.89 248 18:30 09.01.2022
3786 Clear 5 1007 93 10000 1.34 270 17:30 09.01.2022
3787 Clouds 5 1006 93 10000 0.89 270 16:51 09.01.2022
3788 Clear 5 1006 92 10000 0.89 225 15:56 09.01.2022
3789 Clear 5 1006 92 10000 0.89 270 15:34 09.01.2022
3790 Clouds 5 1006 89 10000 2.57 230 14:40 09.01.2022
3791 Clouds 5 1006 91 10000 3.09 220 13:50 09.01.2022
3792 Clouds 5 1006 93 9000 1.03 0 12:44 09.01.2022
3793 Mist 5 1006 93 3300 1.79 215 11:48 09.01.2022
3794 Clouds 5 1005 93 10000 0.89 45 10:49 09.01.2022
3795 Clouds 5 1005 93 10000 1.79 225 09:42 09.01.2022
3796 Rain 4 1005 93 10000 2.24 270 08:31 09.01.2022
3797 Clouds 5 1003 88 10000 2.68 270 03:55 09.01.2022
3798 Clouds 6 1000 87 10000 3.13 270 01:23 09.01.2022
3799 Clouds 7 997 88 10000 3.58 270 23:39 08.01.2022
3800 Clouds 7 996 89 10000 4.92 270 22:59 08.01.2022
3801 Clouds 8 995 88 10000 3.13 270 22:19 08.01.2022
3802 Clouds 8 995 88 10000 2.68 248 21:25 08.01.2022
3803 Clouds 8 996 91 10000 2.24 225 20:41 08.01.2022
3804 Clouds 8 996 92 10000 2.68 225 20:19 08.01.2022
3805 Rain 8 999 94 10000 2.68 225 18:34 08.01.2022
3806 Clouds 8 1001 93 10000 1.34 203 17:22 08.01.2022
3807 Clouds 8 1004 94 10000 1.79 203 15:52 08.01.2022
3808 Rain 8 1007 94 10000 2.24 225 14:44 08.01.2022
3809 Clouds 8 1011 95 8000 1.34 203 13:25 08.01.2022
3810 Clouds 7 1013 96 10000 1.79 225 11:28 08.01.2022
3811 Clouds 6 1014 94 10000 0.45 203 10:28 08.01.2022
3812 Clouds 5 1014 94 10000 1.34 203 09:48 08.01.2022
3813 Clouds 3 1015 95 10000 0.89 221 08:22 08.01.2022
3814 Clear 3 1016 92 10000 2.57 250 03:31 08.01.2022
3815 Clouds 5 1014 85 10000 2.68 270 00:42 08.01.2022
3816 Clouds 7 1011 92 10000 3.58 270 22:49 07.01.2022
3817 Clouds 6 1011 91 10000 2.68 225 21:18 07.01.2022
3818 Clouds 6 1012 91 10000 3.13 225 20:20 07.01.2022
3819 Rain 7 1013 84 10000 2.68 203 19:25 07.01.2022
3820 Clear 7 1013 82 10000 1.79 203 18:45 07.01.2022
3821 Clear 7 1015 78 10000 2.24 225 17:28 07.01.2022
3822 Clouds 8 1015 74 10000 2.24 270 16:41 07.01.2022
3823 Clouds 8 1015 79 10000 3.13 270 14:37 07.01.2022
3824 Clouds 7 1016 85 10000 2.24 270 13:41 07.01.2022
3825 Clouds 7 1016 88 10000 2.68 225 12:50 07.01.2022
3826 Rain 5 1016 94 10000 2.24 225 09:48 07.01.2022
3827 Clouds 3 1017 93 10000 2.68 225 02:58 07.01.2022
3828 Clouds 3 1017 92 10000 1.34 203 02:19 07.01.2022
3829 Rain 3 1018 87 10000 1.34 180 01:41 07.01.2022
3830 Rain 3 1018 86 10000 2.24 225 01:20 07.01.2022
3831 Clear 4 1019 82 10000 0.89 225 00:28 07.01.2022
3832 Clear 4 1020 84 10000 0.89 203 21:39 06.01.2022
3833 Clear 4 1020 85 10000 1.34 225 20:36 06.01.2022
3834 Clouds 4 1020 84 10000 1.34 180 19:54 06.01.2022
3835 Clear 4 1021 82 10000 0.89 203 19:28 06.01.2022
3836 Clouds 5 1021 69 10000 1.79 225 17:51 06.01.2022
3837 Clouds 5 1021 68 10000 1.79 225 17:19 06.01.2022
3838 Clouds 6 1020 63 10000 1.34 227 16:21 06.01.2022
3839 Clouds 6 1020 63 10000 1.79 248 15:40 06.01.2022
3840 Clouds 6 1020 67 10000 1.34 270 15:19 06.01.2022
3841 Clear 6 1021 76 10000 0.89 270 14:19 06.01.2022
3842 Clear 5 1022 85 10000 0.89 293 12:59 06.01.2022
3843 Clouds 3 1022 87 10000 1.34 293 11:58 06.01.2022
3844 Clear 2 1022 93 10000 1.54 0 11:29 06.01.2022
3845 Clear 0 1021 93 10000 1.54 240 09:33 06.01.2022
3846 Clear 1 1019 90 10000 0.51 0 01:57 06.01.2022
3847 Clear 2 1019 87 10000 1.34 270 23:56 05.01.2022
3848 Clear 2 1019 87 10000 1.03 0 23:21 05.01.2022
3849 Clear 2 1018 87 10000 2.06 280 22:42 05.01.2022
3850 Clear 2 1018 88 10000 2.06 270 22:18 05.01.2022
3851 Clouds 3 1018 83 10000 0.89 270 21:23 05.01.2022
3852 Clouds 2 1018 86 10000 2.06 230 20:30 05.01.2022
3853 Clear 3 1017 82 10000 1.34 270 19:29 05.01.2022
3854 Clear 3 1017 83 10000 2.57 290 19:29 05.01.2022
3855 Clear 4 1016 81 10000 2.06 280 18:21 05.01.2022
3856 Clouds 6 1015 74 10000 2.24 270 16:56 05.01.2022
3857 Clouds 6 1015 72 10000 3.13 270 16:18 05.01.2022
3858 Clouds 7 1015 73 10000 2.24 270 14:56 05.01.2022
3859 Clear 6 1015 75 10000 2.24 270 13:34 05.01.2022
3860 Clouds 5 1014 82 10000 1.79 270 12:20 05.01.2022
3861 Clouds 1 1012 91 10000 2.68 45 08:35 05.01.2022
3862 Clouds 1 1011 87 10000 1.34 46 06:46 05.01.2022
3863 Clear 3 1008 84 10000 2.24 270 01:47 05.01.2022
3864 Rain 4 1006 85 10000 1.79 293 23:44 04.01.2022
3865 Clouds 4 1006 86 10000 2.24 270 23:25 04.01.2022
3866 Clouds 6 1004 88 10000 3.58 270 21:50 04.01.2022
3867 Clouds 8 1002 85 10000 2.68 270 20:45 04.01.2022
3868 Clouds 9 1001 81 10000 2.68 248 18:41 04.01.2022
3869 Clouds 9 1001 88 10000 1.79 225 17:33 04.01.2022
3870 Clouds 9 1000 88 10000 2.24 225 16:39 04.01.2022
3871 Clouds 9 1001 88 10000 2.24 225 16:20 04.01.2022
3872 Clouds 9 1000 92 10000 1.79 225 14:42 04.01.2022
3873 Clouds 9 1001 93 10000 1.79 248 13:57 04.01.2022
3874 Clouds 9 1001 95 10000 1.79 225 12:36 04.01.2022
3875 Clouds 8 1001 95 10000 1.34 270 10:28 04.01.2022
3876 Clouds 8 1000 95 10000 1.34 270 08:59 04.01.2022
3877 Rain 8 999 97 6000 0.89 270 06:46 04.01.2022
3878 Rain 11 1004 95 6000 0.89 225 00:50 04.01.2022
3879 Drizzle 11 1004 94 10000 1.34 225 00:31 04.01.2022
3880 Drizzle 12 1006 93 10000 1.79 225 22:30 03.01.2022
3881 Drizzle 12 1007 93 10000 1.79 225 21:41 03.01.2022
3882 Drizzle 12 1008 93 10000 2.68 225 20:51 03.01.2022
3883 Mist 12 1009 96 4200 2.24 225 19:46 03.01.2022
3884 Rain 11 1010 95 7000 1.79 225 18:33 03.01.2022
3885 Rain 11 1011 94 10000 0.45 203 17:40 03.01.2022
3886 Rain 12 1012 92 10000 1.34 203 16:57 03.01.2022
3887 Clouds 13 1014 82 10000 2.24 225 14:54 03.01.2022
3888 Clouds 12 1015 84 10000 1.79 225 13:53 03.01.2022
3889 Clouds 12 1016 86 10000 1.34 225 12:35 03.01.2022
3890 Clouds 11 1017 87 10000 2.68 225 11:33 03.01.2022
3891 Clouds 11 1017 88 10000 1.34 203 09:49 03.01.2022
3892 Clouds 11 1018 87 10000 1.79 225 08:46 03.01.2022
3893 Clouds 11 1018 87 10000 1.34 203 06:48 03.01.2022
3894 Clouds 12 1019 79 10000 2.24 225 23:47 02.01.2022
3895 Clouds 12 1019 79 10000 2.68 225 23:18 02.01.2022
3896 Clouds 12 1019 79 10000 2.24 248 22:43 02.01.2022
3897 Clouds 13 1018 80 10000 2.24 225 21:38 02.01.2022
3898 Clouds 13 1018 79 10000 2.68 225 20:31 02.01.2022
3899 Clouds 13 1017 80 10000 2.68 225 19:52 02.01.2022
3900 Clouds 13 1017 80 10000 2.68 225 19:25 02.01.2022
3901 Clouds 13 1017 83 10000 2.24 225 18:33 02.01.2022
3902 Clouds 13 1018 82 10000 2.24 225 17:43 02.01.2022
3903 Clouds 13 1017 82 10000 1.79 225 17:21 02.01.2022
3904 Clouds 14 1017 81 10000 2.24 225 16:33 02.01.2022
3905 Clouds 14 1018 81 10000 2.68 225 15:51 02.01.2022
3906 Clouds 13 1018 83 10000 1.34 225 13:58 02.01.2022
3907 Clouds 13 1018 81 10000 2.24 225 12:34 02.01.2022
3908 Clouds 13 1018 80 10000 2.68 225 11:56 02.01.2022
3909 Clouds 11 1018 85 10000 2.24 225 10:59 02.01.2022
3910 Clear 11 1018 84 10000 2.68 225 10:26 02.01.2022
3911 Clear 11 1017 78 10000 1.34 225 08:27 02.01.2022
3912 Clear 10 1019 87 10000 0.45 203 03:22 02.01.2022
3913 Clear 10 1021 87 10000 0.45 225 23:56 01.01.2022
3914 Clear 9 1021 90 10000 2.06 120 23:36 01.01.2022
3915 Clear 10 1021 88 10000 0.89 225 22:44 01.01.2022
3916 Clear 10 1021 86 10000 1.54 120 22:18 01.01.2022
3917 Clear 10 1022 88 10000 0.45 203 21:43 01.01.2022
3918 Clear 10 1022 87 10000 0.45 180 20:52 01.01.2022
3919 Clear 11 1022 87 10000 0.89 203 19:55 01.01.2022
3920 Clear 11 1022 87 10000 0.89 203 18:58 01.01.2022
3921 Clear 11 1022 84 10000 2.06 170 17:57 01.01.2022
3922 Clear 13 1022 78 10000 0.45 180 16:35 01.01.2022
3923 Clear 14 1022 76 10000 0.45 158 15:57 01.01.2022
3924 Clear 14 1022 75 10000 0.89 135 15:22 01.01.2022
3925 Clear 13 1023 83 10000 0.45 158 13:42 01.01.2022
3926 Clear 12 1024 90 10000 0.45 158 12:49 01.01.2022
3927 Clear 10 1024 93 10000 0.45 203 11:51 01.01.2022
3928 Clear 9 1024 95 10000 0.45 203 11:22 01.01.2022
3929 Fog 8 1025 98 10000 0.45 158 10:26 01.01.2022
3930 Mist 7 1025 98 3600 0.89 113 09:41 01.01.2022
3931 Fog 8 1025 97 6000 2.57 120 08:25 01.01.2022
3932 Mist 8 1025 98 5000 0.45 113 07:44 01.01.2022
3933 Mist 9 1025 97 1500 3.09 140 06:47 01.01.2022
3934 Mist 9 1025 97 5000 0.45 113 05:26 01.01.2022
3935 Mist 9 1025 97 4100 2.06 120 04:37 01.01.2022
3936 Mist 10 1026 97 4400 2.57 110 01:28 01.01.2022
3937 Clouds 11 1026 96 10000 3.6 230 23:36 31.12.2021
3938 Mist 11 1026 95 5000 1.34 225 21:53 31.12.2021
3939 Clouds 12 1026 93 10000 1.34 225 20:38 31.12.2021
3940 Clouds 12 1025 93 10000 1.34 225 19:30 31.12.2021
3941 Clouds 13 1025 90 10000 2.06 270 18:37 31.12.2021
3942 Clouds 14 1024 86 10000 0.45 158 17:40 31.12.2021
3943 Clouds 14 1024 85 10000 2.57 220 17:19 31.12.2021
3944 Clouds 14 1023 85 10000 3.09 220 16:38 31.12.2021
3945 Clouds 15 1023 80 10000 1.79 248 15:57 31.12.2021
3946 Clear 15 1022 78 10000 0.89 225 15:29 31.12.2021
3947 Clear 15 1022 78 10000 4.12 240 14:57 31.12.2021
3948 Clear 15 1022 79 10000 0.89 225 14:30 31.12.2021
3949 Clear 14 1022 84 10000 0.89 225 13:37 31.12.2021
3950 Clear 13 1023 86 10000 0.89 203 12:49 31.12.2021
3951 Clear 11 1022 92 10000 0.89 225 11:52 31.12.2021
3952 Clear 10 1022 93 10000 0.45 203 11:33 31.12.2021
3953 Clear 9 1021 95 10000 0.45 158 10:38 31.12.2021
3954 Clear 9 1021 95 10000 0.45 203 10:20 31.12.2021
3955 Clear 8 1021 96 10000 3.09 140 09:33 31.12.2021
3956 Clear 8 1021 95 10000 0.45 225 08:47 31.12.2021
3957 Fog 8 1020 95 10000 0.45 203 07:32 31.12.2021
3958 Clouds 11 1022 95 10000 2.06 110 23:36 30.12.2021
3959 Clouds 12 1022 96 10000 0.45 203 22:50 30.12.2021
3960 Clouds 12 1022 94 10000 0.45 203 22:26 30.12.2021
3961 Clouds 12 1022 94 10000 0.45 203 21:37 30.12.2021
3962 Clouds 12 1022 94 10000 0.89 203 21:37 30.12.2021
3963 Clouds 12 1022 92 10000 0.45 203 20:49 30.12.2021
3964 Clouds 13 1022 93 10000 0.45 225 20:28 30.12.2021
3965 Clouds 13 1022 91 10000 0.45 203 19:48 30.12.2021
3966 Clouds 14 1022 91 10000 0.89 203 19:18 30.12.2021
3967 Clouds 14 1022 90 10000 1.34 225 18:21 30.12.2021
3968 Clouds 14 1021 87 10000 0.89 203 16:37 30.12.2021
3969 Clouds 15 1021 86 10000 1.79 225 15:53 30.12.2021
3970 Clouds 15 1021 86 10000 1.79 225 14:51 30.12.2021
3971 Clouds 15 1021 87 10000 2.24 225 14:31 30.12.2021
3972 Clouds 14 1021 89 10000 2.24 225 13:24 30.12.2021
3973 Clouds 14 1021 91 10000 1.79 225 11:45 30.12.2021
3974 Clouds 13 1021 92 10000 2.24 225 10:27 30.12.2021
3975 Clouds 13 1020 93 10000 2.68 225 09:27 30.12.2021
3976 Clouds 14 1018 91 10000 1.79 203 06:56 30.12.2021
3977 Clouds 14 1018 91 10000 1.79 225 04:56 30.12.2021
3978 Clouds 14 1018 95 10000 1.79 225 03:40 30.12.2021
3979 Clouds 14 1017 94 10000 2.24 225 02:19 30.12.2021
3980 Clouds 14 1016 92 10000 1.79 225 23:37 29.12.2021
3981 Clouds 14 1015 93 10000 2.68 225 22:35 29.12.2021
3982 Clouds 14 1015 94 10000 2.68 248 21:55 29.12.2021
3983 Clouds 14 1014 95 10000 2.24 225 20:57 29.12.2021
3984 Clouds 14 1014 94 10000 1.79 225 20:29 29.12.2021
3985 Clouds 15 1013 94 10000 2.24 225 19:31 29.12.2021
3986 Clouds 15 1012 96 10000 1.34 225 18:36 29.12.2021
3987 Drizzle 15 1011 96 10000 2.24 248 17:49 29.12.2021
3988 Drizzle 15 1011 96 10000 2.24 225 17:26 29.12.2021
3989 Drizzle 15 1010 96 8000 2.24 225 16:21 29.12.2021
3990 Clouds 15 1010 94 10000 2.24 225 15:21 29.12.2021
3991 Mist 14 1009 97 5000 1.34 225 12:57 29.12.2021
3992 Clouds 13 1009 97 7000 1.34 225 12:35 29.12.2021
3993 Mist 12 1008 97 7000 0.45 270 11:23 29.12.2021
3994 Clouds 10 1008 96 10000 0.45 203 09:35 29.12.2021
3995 Rain 10 1008 96 4800 0.45 158 07:47 29.12.2021
3996 Drizzle 10 1008 94 10000 0.45 203 06:36 29.12.2021
3997 Drizzle 10 1009 93 10000 0.89 203 05:57 29.12.2021
3998 Clouds 10 1009 91 10000 0.45 215 05:27 29.12.2021
3999 Clouds 10 1008 85 10000 3.13 199 01:27 29.12.2021
4000 Clouds 10 1007 80 10000 1.79 248 23:59 28.12.2021
4001 Clouds 11 1006 77 10000 2.24 225 22:57 28.12.2021
4002 Clouds 11 1006 77 10000 2.68 270 22:26 28.12.2021
4003 Clouds 11 1006 76 10000 2.68 248 21:56 28.12.2021
4004 Clouds 11 1005 74 10000 2.24 270 21:35 28.12.2021
4005 Clouds 11 1004 73 10000 1.79 225 20:32 28.12.2021
4006 Clouds 11 1003 72 10000 3.58 248 18:56 28.12.2021
4007 Clouds 11 1002 72 10000 3.58 248 18:28 28.12.2021
4008 Clouds 11 1001 73 10000 4.02 248 17:48 28.12.2021
4009 Clouds 11 1000 78 10000 3.58 225 16:25 28.12.2021
4010 Clouds 11 1000 78 10000 3.58 270 15:41 28.12.2021
4011 Clouds 12 1000 73 10000 4.02 270 15:19 28.12.2021
4012 Clouds 12 999 75 10000 3.58 225 14:45 28.12.2021
4013 Clouds 12 999 75 10000 3.58 270 14:20 28.12.2021
4014 Clouds 12 1000 73 10000 2.68 270 13:42 28.12.2021
4015 Clouds 12 1000 72 10000 4.47 270 13:24 28.12.2021
4016 Clouds 12 999 77 10000 3.58 248 12:39 28.12.2021
4017 Clouds 12 999 78 10000 2.68 248 11:27 28.12.2021
4018 Clouds 12 996 86 10000 2.24 225 07:40 28.12.2021
4019 Clouds 12 995 89 10000 1.79 225 06:40 28.12.2021
4020 Rain 11 994 92 8000 0.89 203 23:43 27.12.2021
4021 Drizzle 11 995 91 10000 1.34 135 22:58 27.12.2021
4022 Clouds 11 996 92 10000 1.34 203 21:33 27.12.2021
4023 Clouds 11 997 92 10000 1.34 158 20:46 27.12.2021
4024 Clouds 11 997 91 10000 0.89 158 19:58 27.12.2021
4025 Clouds 11 998 91 10000 0.45 180 19:39 27.12.2021
4026 Clouds 11 998 89 10000 0.89 203 18:23 27.12.2021
4027 Clouds 11 997 86 10000 1.34 203 17:46 27.12.2021
4028 Clouds 12 997 84 10000 2.68 225 16:40 27.12.2021
4029 Clouds 13 997 87 10000 1.79 225 15:52 27.12.2021
4030 Clouds 12 996 93 10000 2.24 225 14:32 27.12.2021
4031 Clouds 10 996 96 10000 0.89 225 13:39 27.12.2021
4032 Mist 9 996 96 10000 0.89 135 12:36 27.12.2021
4033 Drizzle 9 996 96 10000 0.45 158 10:31 27.12.2021
4034 Clouds 9 997 96 10000 0.89 135 09:47 27.12.2021
4035 Clouds 10 998 96 10000 0.89 203 07:38 27.12.2021
4036 Clouds 10 999 96 10000 0.89 203 07:20 27.12.2021
4037 Clouds 10 1000 97 6000 0.45 225 02:19 27.12.2021
4038 Clouds 10 1001 96 10000 0.45 158 23:58 26.12.2021
4039 Clouds 10 1002 96 10000 0.45 203 23:36 26.12.2021
4040 Clouds 10 1002 96 10000 0.89 203 22:34 26.12.2021
4041 Clouds 9 1002 94 10000 0.45 203 20:59 26.12.2021
4042 Rain 10 1003 93 10000 0.45 225 19:47 26.12.2021
4043 Clouds 9 1003 92 10000 1.79 225 18:24 26.12.2021
4044 Clouds 10 1003 90 10000 1.79 225 17:24 26.12.2021
4045 Clouds 11 1002 96 10000 0.89 203 14:29 26.12.2021
4046 Clouds 11 1003 98 6000 1.34 203 13:41 26.12.2021
4047 Rain 10 1003 98 5000 0.89 225 13:20 26.12.2021
4048 Rain 10 1003 98 10000 0.45 203 12:33 26.12.2021
4049 Rain 10 1003 98 10000 0.45 203 12:33 26.12.2021
4050 Mist 9 1003 98 10000 1.54 160 10:42 26.12.2021
4051 Fog 9 1003 98 10000 2.06 170 09:28 26.12.2021
4052 Fog 9 1002 98 7000 3.09 160 08:44 26.12.2021
4053 Mist 9 1003 97 5000 2.06 150 07:59 26.12.2021
4054 Mist 9 1004 98 6000 2.57 140 01:30 26.12.2021
4055 Mist 9 1004 98 6000 0.45 158 23:58 25.12.2021
4056 Fog 9 1004 97 7000 2.06 160 23:27 25.12.2021
4057 Mist 9 1004 97 6000 2.06 160 22:28 25.12.2021
4058 Mist 9 1004 97 7000 0.45 158 21:18 25.12.2021
4059 Mist 9 1004 98 3900 2.06 60 19:28 25.12.2021
4060 Mist 9 1004 98 4100 1.54 40 18:57 25.12.2021
4061 Mist 10 1004 97 5000 1.54 40 18:21 25.12.2021
4062 Mist 10 1004 96 3100 0.89 45 16:42 25.12.2021
4063 Clouds 10 1004 95 10000 1.54 30 15:26 25.12.2021
4064 Clouds 10 1004 95 10000 1.03 0 13:43 25.12.2021
4065 Mist 10 1004 97 10000 0.45 270 12:18 25.12.2021
4066 Mist 9 1004 98 3500 0.89 225 10:32 25.12.2021
4067 Mist 9 1004 98 2500 1.54 120 09:48 25.12.2021
4068 Clouds 9 1003 97 10000 0.45 203 05:39 25.12.2021
4069 Rain 9 1003 98 7000 0.45 225 01:34 25.12.2021
4070 Rain 9 1004 96 7000 2.06 190 00:18 25.12.2021
4071 Clouds 9 1004 97 6000 0.45 203 21:46 24.12.2021
4072 Rain 9 1004 97 7000 0.45 248 19:26 24.12.2021
4073 Mist 9 1005 97 7000 0.45 180 18:41 24.12.2021
4074 Mist 10 1005 96 10000 0.45 203 16:43 24.12.2021
4075 Fog 10 1005 96 1000 0.45 203 15:50 24.12.2021
4076 Mist 10 1005 96 4700 0.45 203 15:20 24.12.2021
4077 Mist 10 1006 96 3600 0.89 225 14:33 24.12.2021
4078 Mist 10 1006 96 1300 0.89 203 13:54 24.12.2021
4079 Fog 10 1006 96 10000 0.89 225 13:32 24.12.2021
4080 Fog 10 1007 97 10000 0.45 203 12:40 24.12.2021
4081 Mist 9 1007 96 10000 0.89 203 11:43 24.12.2021
4082 Mist 9 1008 96 10000 0.45 225 11:24 24.12.2021
4083 Clouds 9 1008 97 10000 0.89 225 10:35 24.12.2021
4084 Clouds 8 1008 96 10000 0.45 224 08:48 24.12.2021
4085 Rain 8 1008 94 10000 2.06 190 07:58 24.12.2021
4086 Rain 8 1008 93 10000 2.06 160 07:31 24.12.2021
4087 Clouds 8 1011 90 10000 0.89 225 00:47 24.12.2021
4088 Clouds 8 1011 91 10000 1.03 0 23:50 23.12.2021
4089 Clouds 8 1011 92 10000 0.89 223 22:53 23.12.2021
4090 Clouds 8 1011 89 10000 0.45 270 22:24 23.12.2021
4091 Clear 8 1011 89 10000 0.89 203 21:47 23.12.2021
4092 Clear 8 1011 88 10000 1.34 248 20:31 23.12.2021
4093 Clear 8 1012 86 10000 0.45 158 19:30 23.12.2021
4094 Clear 8 1012 85 10000 0.45 203 18:28 23.12.2021
4095 Clear 8 1012 84 10000 0.45 225 17:46 23.12.2021
4096 Clear 9 1012 82 10000 0.89 203 16:27 23.12.2021
4097 Clear 9 1011 80 10000 0.45 203 15:54 23.12.2021
4098 Clear 9 1011 80 10000 0.89 225 15:30 23.12.2021
4099 Clouds 9 1012 82 10000 1.79 225 14:42 23.12.2021
4100 Clouds 8 1012 82 10000 1.34 203 14:19 23.12.2021
4101 Clouds 5 1013 87 10000 0.45 225 12:39 23.12.2021
4102 Clouds 2 1013 88 9000 0.45 203 10:36 23.12.2021
4103 Clouds 1 1014 90 8000 0.45 203 09:34 23.12.2021
4104 Clouds 1 1014 90 8000 0.45 180 08:58 23.12.2021
4105 Mist -1 1014 95 7000 1.54 130 06:23 23.12.2021
4106 Mist -2 1016 95 6000 2.57 130 03:28 23.12.2021
4107 Clouds -1 1018 88 7000 0.89 135 22:55 22.12.2021
4108 Clouds -1 1018 88 8000 0.89 135 22:23 22.12.2021
4109 Clouds -1 1018 88 8000 0.45 158 21:53 22.12.2021
4110 Clouds -1 1018 89 8000 0.89 113 21:27 22.12.2021
4111 Clouds -1 1019 89 8000 0.45 135 20:41 22.12.2021
4112 Clouds 0 1019 87 9000 0.89 135 19:59 22.12.2021
4113 Clouds 0 1020 88 8000 0.89 203 19:19 22.12.2021
4114 Clouds 0 1020 85 7000 1.34 113 17:39 22.12.2021
4115 Clouds 0 1020 84 8000 4.63 110 16:36 22.12.2021
4116 Mist 0 1020 86 8000 3.09 120 15:36 22.12.2021
4117 Mist 0 1021 86 8000 3.6 120 13:23 22.12.2021
4118 Mist -1 1022 90 7000 1.79 90 12:31 22.12.2021
4119 Mist -1 1023 90 7000 2.24 113 09:53 22.12.2021
4120 Mist -2 1023 92 5000 1.79 135 09:33 22.12.2021
4121 Mist -1 1023 92 8000 1.34 90 07:22 22.12.2021
4122 Mist -1 1023 93 6000 1.34 113 05:41 22.12.2021
4123 Mist -1 1023 93 6000 1.34 90 05:22 22.12.2021
4124 Mist -1 1023 93 5000 0.89 158 04:45 22.12.2021
4125 Mist -1 1023 93 5000 1.34 90 04:22 22.12.2021
4126 Mist -2 1023 94 4500 0.45 90 03:32 22.12.2021
4127 Mist -1 1023 93 10000 1.54 70 00:29 22.12.2021
4128 Mist -1 1024 91 10000 0.89 68 22:52 21.12.2021
4129 Clear -1 1024 91 10000 1.54 10 22:27 21.12.2021
4130 Clear 0 1024 88 10000 0.45 90 21:43 21.12.2021
4131 Clear 0 1024 87 10000 0.89 113 20:54 21.12.2021
4132 Clear 0 1023 88 10000 0.89 68 20:20 21.12.2021
4133 Clear 0 1023 87 10000 0.89 68 19:41 21.12.2021
4134 Clear 0 1023 85 10000 1.34 68 18:43 21.12.2021
4135 Clear 1 1023 83 10000 0.45 68 18:21 21.12.2021
4136 Clear 2 1023 82 10000 1.34 68 17:41 21.12.2021
4137 Clear 4 1022 76 10000 0.89 113 15:55 21.12.2021
4138 Clear 4 1022 75 10000 2.24 68 15:20 21.12.2021
4139 Clear 4 1023 78 10000 1.34 68 13:50 21.12.2021
4140 Clear 3 1023 77 10000 1.34 68 13:30 21.12.2021
4141 Clear 2 1024 85 10000 0.89 113 11:36 21.12.2021
4142 Clear 0 1024 88 10000 1.79 45 10:21 21.12.2021
4143 Clear -1 1023 90 10000 0.89 45 09:23 21.12.2021
4144 Clear 0 1023 89 10000 1.34 68 07:58 21.12.2021
4145 Clear 0 1023 86 10000 1.34 45 07:27 21.12.2021
4146 Clear 1 1023 85 10000 0.89 68 05:31 21.12.2021
4147 Clear 2 1024 80 10000 0.89 68 02:40 21.12.2021
4148 Clouds 4 1025 73 10000 0.89 68 23:58 20.12.2021
4149 Clouds 5 1025 72 10000 0.45 45 23:27 20.12.2021
4150 Clouds 5 1025 72 10000 0.89 68 22:28 20.12.2021
4151 Clouds 5 1025 72 10000 0.89 68 22:28 20.12.2021
4152 Clouds 5 1025 72 10000 0.89 68 21:47 20.12.2021
4153 Clouds 5 1025 72 10000 0.89 113 21:23 20.12.2021
4154 Clouds 5 1025 72 10000 0.89 90 20:44 20.12.2021
4155 Clouds 5 1025 73 10000 1.34 68 19:53 20.12.2021
4156 Clouds 5 1025 73 10000 1.34 68 19:53 20.12.2021
4157 Clouds 5 1025 73 10000 1.79 68 19:31 20.12.2021
4158 Clouds 5 1025 75 10000 0.89 68 18:54 20.12.2021
4159 Clouds 5 1025 76 10000 1.34 90 17:53 20.12.2021
4160 Clouds 5 1025 77 10000 2.24 68 17:25 20.12.2021
4161 Clouds 6 1025 76 10000 0.89 68 16:40 20.12.2021
4162 Clouds 6 1025 77 10000 1.34 90 15:51 20.12.2021
4163 Clouds 5 1026 80 10000 0.89 90 14:51 20.12.2021
4164 Clouds 5 1026 83 10000 1.34 90 13:18 20.12.2021
4165 Clouds 5 1027 85 10000 2.68 45 11:19 20.12.2021
4166 Clouds 5 1027 88 10000 2.68 45 09:48 20.12.2021
4167 Clouds 5 1026 89 10000 1.34 68 09:29 20.12.2021
4168 Clouds 5 1026 89 10000 2.24 68 08:42 20.12.2021
4169 Clouds 5 1026 89 10000 0.89 68 07:50 20.12.2021
4170 Clouds 5 1026 89 10000 1.34 68 07:30 20.12.2021
4171 Clouds 5 1026 90 10000 1.79 68 04:24 20.12.2021
4172 Clouds 5 1027 93 10000 1.79 45 23:58 19.12.2021
4173 Clouds 5 1028 95 10000 2.68 68 22:45 19.12.2021
4174 Mist 5 1028 95 10000 2.24 45 21:50 19.12.2021
4175 Mist 5 1028 95 9000 3.13 68 21:30 19.12.2021
4176 Mist 5 1028 96 7000 1.34 68 20:32 19.12.2021
4177 Mist 5 1028 96 7000 2.68 68 19:51 19.12.2021
4178 Fog 5 1029 96 6000 1.79 45 19:22 19.12.2021
4179 Mist 5 1029 96 6000 1.34 68 18:29 19.12.2021
4180 Mist 5 1029 97 5000 2.68 45 17:53 19.12.2021
4181 Mist 5 1029 95 10000 2.24 68 17:19 19.12.2021
4182 Mist 6 1029 95 10000 2.24 68 16:26 19.12.2021
4183 Clouds 6 1029 94 8000 1.79 68 15:43 19.12.2021
4184 Clouds 6 1030 94 10000 1.79 45 15:20 19.12.2021
4185 Clouds 6 1030 94 10000 1.79 45 14:42 19.12.2021
4186 Mist 5 1031 96 8000 2.24 45 13:22 19.12.2021
4187 Mist 5 1031 98 8000 1.34 45 12:46 19.12.2021
4188 Fog 5 1032 97 10000 1.34 68 12:23 19.12.2021
4189 Mist 5 1032 97 4800 2.24 68 11:21 19.12.2021
4190 Mist 5 1032 97 3100 1.79 68 10:26 19.12.2021
4191 Mist 5 1033 97 4500 0.89 68 09:42 19.12.2021
4192 Fog 5 1032 97 6000 1.34 68 08:43 19.12.2021
4193 Mist 5 1033 97 5000 2.68 68 04:45 19.12.2021
4194 Mist 6 1035 96 5000 2.68 68 01:33 19.12.2021
4195 Mist 6 1035 95 6000 3.13 45 00:52 19.12.2021
4196 Mist 6 1035 96 6000 1.79 68 22:42 18.12.2021
4197 Mist 5 1034 95 5000 2.68 45 21:58 18.12.2021
4198 Mist 5 1034 93 5000 2.68 45 21:36 18.12.2021
4199 Mist 6 1034 92 5000 2.68 45 20:44 18.12.2021
4200 Mist 6 1034 92 5000 2.24 45 20:19 18.12.2021
4201 Clear 6 1034 86 6000 1.79 45 19:25 18.12.2021
4202 Clear 7 1034 81 10000 1.79 68 18:22 18.12.2021
4203 Clear 7 1034 79 10000 2.68 68 17:48 18.12.2021
4204 Clear 9 1034 77 10000 1.79 68 16:26 18.12.2021
4205 Clear 9 1034 76 10000 2.68 45 15:28 18.12.2021
4206 Clear 9 1034 76 10000 3.58 45 14:51 18.12.2021
4207 Clear 8 1035 77 9000 1.79 45 13:29 18.12.2021
4208 Clear 6 1035 89 9000 1.79 68 11:23 18.12.2021
4209 Clouds 4 1036 94 7000 0.89 68 09:52 18.12.2021
4210 Clouds 4 1035 95 9000 1.34 68 08:47 18.12.2021
4211 Clouds 4 1035 94 9000 1.34 68 08:27 18.12.2021
4212 Mist 4 1035 96 8000 2.68 45 05:56 18.12.2021
4213 Clear 5 1036 94 6000 0.45 68 00:34 18.12.2021
4214 Clear 5 1036 95 6000 0.45 113 23:46 17.12.2021
4215 Mist 6 1036 93 5000 0.89 68 21:58 17.12.2021
4216 Mist 6 1035 93 4800 1.34 68 21:23 17.12.2021
4217 Clouds 6 1035 92 6000 0.89 68 20:42 17.12.2021
4218 Clouds 7 1035 90 7000 0.89 68 19:45 17.12.2021
4219 Clear 7 1035 88 10000 1.79 68 18:39 17.12.2021
4220 Clear 8 1035 85 10000 2.68 45 17:40 17.12.2021
4221 Clear 9 1035 83 10000 2.68 68 16:50 17.12.2021
4222 Clear 9 1035 83 10000 3.13 68 16:25 17.12.2021
4223 Clear 9 1035 82 10000 3.58 68 15:25 17.12.2021
4224 Clouds 9 1035 84 10000 2.24 68 14:41 17.12.2021
4225 Clouds 9 1036 87 10000 2.68 68 13:30 17.12.2021
4226 Clouds 8 1037 91 10000 1.79 68 12:21 17.12.2021
4227 Clouds 8 1037 93 10000 2.24 68 10:39 17.12.2021
4228 Clouds 8 1037 93 10000 2.24 68 09:44 17.12.2021
4229 Clouds 7 1036 94 8000 0.45 92 08:31 17.12.2021
4230 Clouds 7 1036 95 7000 0.89 68 07:20 17.12.2021
4231 Mist 6 1036 94 5000 1.79 68 04:40 17.12.2021
4232 Mist 6 1037 92 5000 0.45 68 23:58 16.12.2021
4233 Clear 7 1038 88 7000 2.57 10 22:24 16.12.2021
4234 Clear 7 1038 90 7000 0.45 68 21:51 16.12.2021
4235 Clear 7 1038 90 6000 0.45 68 21:30 16.12.2021
4236 Clear 8 1037 85 9000 0.45 45 20:31 16.12.2021
4237 Clear 9 1037 83 10000 0.89 68 19:51 16.12.2021
4238 Clouds 10 1037 81 10000 1.34 45 18:41 16.12.2021
4239 Clouds 10 1037 82 10000 1.34 68 18:22 16.12.2021
4240 Clouds 10 1037 81 10000 0.89 68 17:32 16.12.2021
4241 Clouds 10 1037 82 10000 0.89 68 16:23 16.12.2021
4242 Clouds 11 1037 80 10000 1.34 45 15:20 16.12.2021
4243 Clouds 11 1037 83 10000 0.89 68 13:44 16.12.2021
4244 Clouds 10 1037 91 10000 0.45 113 11:48 16.12.2021
4245 Clouds 9 1037 92 10000 0.45 90 11:18 16.12.2021
4246 Clouds 8 1037 94 9000 0.51 0 10:32 16.12.2021
4247 Clouds 8 1036 93 10000 1.03 350 08:56 16.12.2021
4248 Clouds 8 1036 93 7000 0.51 0 06:23 16.12.2021
4249 Clouds 8 1035 94 6000 0.89 68 03:19 16.12.2021
4250 Clouds 7 1035 94 6000 0.45 135 23:36 15.12.2021
4251 Clouds 7 1035 94 10000 1.54 110 22:49 15.12.2021
4252 Clouds 7 1035 95 10000 0 0 22:19 15.12.2021
4253 Clouds 7 1035 93 10000 1.54 50 21:31 15.12.2021
4254 Clouds 7 1034 92 10000 0.45 68 20:32 15.12.2021
4255 Clear 8 1034 91 10000 1.54 10 19:53 15.12.2021
4256 Clouds 9 1033 87 10000 0 0 18:41 15.12.2021
4257 Clouds 9 1033 87 10000 1.03 50 18:18 15.12.2021
4258 Clouds 9 1033 87 10000 1.03 0 17:40 15.12.2021
4259 Clouds 9 1033 87 10000 0.45 113 16:57 15.12.2021
4260 Clouds 9 1033 87 10000 0.89 113 15:47 15.12.2021
4261 Clouds 9 1033 88 10000 1.34 68 15:29 15.12.2021
4262 Clouds 9 1033 88 10000 0.45 68 14:44 15.12.2021
4263 Clouds 9 1033 88 10000 0.51 0 13:27 15.12.2021
4264 Clouds 8 1033 93 10000 0.45 113 10:58 15.12.2021
4265 Clouds 7 1033 94 9000 1.54 100 09:38 15.12.2021
4266 Clouds 7 1032 96 9000 1.54 40 07:52 15.12.2021
4267 Mist 7 1031 95 7000 1.54 0 03:58 15.12.2021
4268 Mist 7 1031 95 7000 2.06 140 23:53 14.12.2021
4269 Mist 7 1031 95 7000 2.06 140 22:55 14.12.2021
4270 Mist 7 1031 95 7000 1.54 120 22:37 14.12.2021
4271 Mist 7 1031 94 7000 2.06 140 21:25 14.12.2021
4272 Mist 7 1031 94 8000 1.03 150 20:20 14.12.2021
4273 Mist 7 1030 93 8000 2.06 150 19:21 14.12.2021
4274 Clouds 8 1030 92 9000 1.54 160 18:38 14.12.2021
4275 Clouds 8 1030 92 10000 0 0 17:51 14.12.2021
4276 Clouds 8 1030 91 10000 0 0 16:43 14.12.2021
4277 Clouds 8 1030 91 10000 0 0 16:43 14.12.2021
4278 Clouds 8 1030 91 10000 0 0 16:18 14.12.2021
4279 Mist 8 1029 93 10000 1.03 0 13:58 14.12.2021
4280 Clouds 7 1030 95 10000 0.45 293 12:48 14.12.2021
4281 Mist 6 1030 96 10000 0.45 270 11:25 14.12.2021
4282 Fog 6 1030 96 10000 1.54 240 10:45 14.12.2021
4283 Fog 5 1030 97 9000 0.45 270 09:54 14.12.2021
4284 Mist 5 1029 97 9000 0.45 225 08:49 14.12.2021
4285 Mist 5 1029 97 9000 1.03 230 08:21 14.12.2021
4286 Mist 5 1028 97 10000 1.34 293 07:23 14.12.2021
4287 Fog 6 1027 97 6000 0.45 135 23:51 13.12.2021
4288 Fog 6 1027 96 7000 0.45 158 22:26 13.12.2021
4289 Fog 6 1027 96 9000 0.89 135 21:39 13.12.2021
4290 Fog 7 1027 96 10000 3.09 180 20:51 13.12.2021
4291 Fog 7 1027 96 10000 3.09 150 20:22 13.12.2021
4292 Fog 7 1027 96 10000 0.45 135 19:49 13.12.2021
4293 Mist 7 1027 96 10000 3.6 120 17:39 13.12.2021
4294 Clouds 7 1026 96 10000 0.89 135 17:18 13.12.2021
4295 Mist 8 1026 95 10000 1.34 135 15:47 13.12.2021
4296 Mist 8 1026 94 10000 3.6 120 14:43 13.12.2021
4297 Clouds 8 1026 94 10000 0.89 90 13:37 13.12.2021
4298 Clouds 8 1027 93 10000 0.45 180 12:41 13.12.2021
4299 Clouds 8 1027 94 10000 1.79 113 11:54 13.12.2021
4300 Clouds 8 1027 94 10000 1.34 135 11:34 13.12.2021
4301 Mist 8 1027 96 10000 0.89 135 10:41 13.12.2021
4302 Mist 9 1027 96 10000 0.45 135 08:45 13.12.2021
4303 Clouds 9 1027 96 10000 0.45 158 06:56 13.12.2021
4304 Clouds 9 1026 97 9000 0.45 135 05:19 13.12.2021
4305 Clouds 9 1027 97 10000 2.57 160 00:41 13.12.2021
4306 Mist 10 1027 96 10000 1.34 203 21:59 12.12.2021
4307 Mist 10 1027 97 8000 0.45 203 21:30 12.12.2021
4308 Mist 10 1026 97 5000 0.45 203 19:38 12.12.2021
4309 Mist 10 1026 96 9000 0.45 135 18:28 12.12.2021
4310 Mist 10 1026 96 10000 0.45 221 16:54 12.12.2021
4311 Clouds 10 1026 95 10000 1.34 221 16:26 12.12.2021
4312 Drizzle 11 1026 95 10000 0.89 179 15:28 12.12.2021
4313 Clouds 11 1025 95 10000 0.45 203 14:54 12.12.2021
4314 Clouds 11 1026 94 10000 0.45 203 14:28 12.12.2021
4315 Drizzle 10 1026 96 10000 0.45 180 12:55 12.12.2021
4316 Clouds 10 1026 97 10000 0.45 203 12:24 12.12.2021
4317 Clouds 9 1026 97 9000 0.45 203 11:43 12.12.2021
4318 Clouds 9 1026 98 10000 0.45 203 10:45 12.12.2021
4319 Mist 9 1025 97 7000 0.45 203 10:22 12.12.2021
4320 Fog 8 1025 98 10000 1.34 225 08:53 12.12.2021
4321 Fog 8 1024 97 10000 0.45 225 07:31 12.12.2021
4322 Fog 7 1023 97 10000 0.45 203 05:56 12.12.2021
4323 Drizzle 7 1023 97 10000 0.45 225 04:55 12.12.2021
4324 Drizzle 7 1023 96 4200 0.89 180 02:56 12.12.2021
4325 Clouds 6 1023 90 10000 0.89 203 23:30 11.12.2021
4326 Clear 6 1023 90 10000 0.89 203 22:21 11.12.2021
4327 Clear 6 1023 90 10000 0.45 180 21:50 11.12.2021
4328 Clear 6 1022 90 10000 0.89 203 20:22 11.12.2021
4329 Clear 6 1022 89 10000 0.89 203 19:21 11.12.2021
4330 Clear 6 1022 88 10000 0.45 203 18:50 11.12.2021
4331 Clear 6 1021 86 10000 3.6 160 17:56 11.12.2021
4332 Clouds 7 1021 83 10000 1.54 210 16:59 11.12.2021
4333 Clear 8 1020 80 10000 1.34 225 15:48 11.12.2021
4334 Clouds 7 1020 82 10000 0.89 203 14:54 11.12.2021
4335 Clear 6 1020 88 10000 3.6 240 12:42 11.12.2021
4336 Clear 4 1019 91 10000 3.09 240 11:24 11.12.2021
4337 Clear 2 1018 94 10000 0.45 49 09:45 11.12.2021
4338 Clear 2 1018 94 10000 0.45 49 09:45 11.12.2021
4339 Clear 2 1018 94 10000 0.45 49 09:45 11.12.2021
4340 Clear 2 1018 94 10000 0.45 49 09:45 11.12.2021
4341 Clear 2 1016 93 10000 2.57 250 07:32 11.12.2021
4342 Clear 4 1010 86 10000 2.24 270 00:51 11.12.2021
4343 Clear 4 1009 83 10000 2.24 270 23:49 10.12.2021
4344 Clear 4 1008 84 10000 2.24 270 23:18 10.12.2021
4345 Clear 5 1007 81 10000 2.24 270 21:52 10.12.2021
4346 Clear 5 1006 79 10000 2.24 270 20:57 10.12.2021
4347 Clouds 6 1004 77 10000 2.24 270 19:21 10.12.2021
4348 Clouds 6 1003 74 10000 3.58 270 17:55 10.12.2021
4349 Clouds 7 1002 73 10000 3.13 270 16:55 10.12.2021
4350 Clouds 7 1001 72 10000 4.47 270 16:19 10.12.2021
4351 Clouds 7 1000 74 10000 4.02 270 15:39 10.12.2021
4352 Clouds 7 1000 74 10000 3.13 270 15:20 10.12.2021
4353 Clouds 8 998 70 10000 3.13 270 13:51 10.12.2021
4354 Clouds 8 998 75 10000 4.47 270 13:26 10.12.2021
4355 Clouds 7 997 78 10000 4.47 270 12:34 10.12.2021
4356 Clouds 7 997 87 10000 4.47 270 11:28 10.12.2021
4357 Clouds 7 997 87 10000 4.47 270 11:28 10.12.2021
4358 Clouds 6 995 86 10000 3.58 270 09:54 10.12.2021
4359 Clouds 7 992 89 10000 3.58 270 08:32 10.12.2021
4360 Clouds 8 990 92 10000 3.13 270 06:22 10.12.2021
4361 Rain 5 991 96 7000 1.79 158 02:48 10.12.2021
4362 Rain 5 997 95 10000 1.34 135 23:54 09.12.2021
4363 Rain 5 998 95 8000 1.34 135 23:20 09.12.2021
4364 Mist 6 1000 93 10000 0.89 180 22:24 09.12.2021
4365 Mist 6 1001 92 10000 1.34 135 21:50 09.12.2021
4366 Clouds 5 1003 90 10000 0.89 135 20:42 09.12.2021
4367 Clouds 5 1003 90 10000 0.89 135 20:42 09.12.2021
4368 Clouds 5 1004 91 10000 0.89 158 20:21 09.12.2021
4369 Clouds 5 1005 90 10000 0.89 180 19:21 09.12.2021
4370 Clear 5 1005 90 10000 0.89 180 18:36 09.12.2021
4371 Clear 5 1006 87 10000 0.89 203 17:51 09.12.2021
4372 Clear 5 1006 87 10000 1.34 225 17:26 09.12.2021
4373 Clear 6 1006 83 10000 0.89 203 16:54 09.12.2021
4374 Clear 7 1006 82 10000 0.89 225 15:34 09.12.2021
4375 Clouds 7 1007 77 10000 2.24 203 14:46 09.12.2021
4376 Clear 7 1007 80 10000 2.24 225 13:23 09.12.2021
4377 Clear 6 1007 80 10000 1.79 225 12:40 09.12.2021
4378 Clouds 5 1008 85 10000 0.89 203 11:24 09.12.2021
4379 Clear 2 1007 90 10000 1.79 225 09:21 09.12.2021
4380 Clear 3 1006 90 10000 1.79 218 06:44 09.12.2021
4381 Clear 2 1006 92 10000 4.02 217 03:41 09.12.2021
4382 Clear 2 1004 91 10000 3.09 240 23:44 08.12.2021
4383 Clear 3 1004 91 10000 3.09 240 23:21 08.12.2021
4384 Clear 3 1004 90 10000 0.45 217 22:48 08.12.2021
4385 Clear 3 1003 89 10000 2.57 240 21:42 08.12.2021
4386 Clear 3 1003 88 10000 2.24 225 21:24 08.12.2021
4387 Clear 4 1002 89 10000 3.6 240 19:58 08.12.2021
4388 Clear 4 1002 87 10000 0.89 217 19:34 08.12.2021
4389 Clouds 5 1001 85 10000 0.45 217 18:46 08.12.2021
4390 Clouds 6 1000 80 10000 1.34 225 17:37 08.12.2021
4391 Clouds 7 1000 77 10000 1.34 270 15:57 08.12.2021
4392 Clouds 7 999 76 10000 1.34 270 15:29 08.12.2021
4393 Clouds 8 999 77 10000 0.89 225 14:40 08.12.2021
4394 Clouds 5 998 86 10000 2.24 225 11:36 08.12.2021
4395 Clouds 5 998 88 10000 1.79 225 10:32 08.12.2021
4396 Clouds 3 997 92 10000 2.24 221 09:25 08.12.2021
4397 Clouds 4 997 89 10000 1.79 225 07:26 08.12.2021
4398 Clouds 5 996 86 10000 1.79 225 04:57 08.12.2021
4399 Clouds 8 995 90 8000 1.79 248 23:34 07.12.2021
4400 Clouds 8 994 92 10000 3.13 225 21:55 07.12.2021
4401 Clouds 8 993 95 10000 1.34 203 21:23 07.12.2021
4402 Clouds 8 993 95 10000 1.34 203 21:23 07.12.2021
4403 Mist 7 994 95 4700 1.34 203 20:24 07.12.2021
4404 Clouds 7 995 90 10000 1.34 135 18:55 07.12.2021
4405 Rain 7 997 89 10000 1.79 135 17:53 07.12.2021
4406 Rain 7 998 88 10000 1.34 135 17:20 07.12.2021
4407 Clouds 7 1000 89 10000 1.34 135 16:34 07.12.2021
4408 Clouds 7 1002 91 10000 1.34 135 15:35 07.12.2021
4409 Clouds 6 1003 94 10000 1.34 135 14:36 07.12.2021
4410 Mist 6 1006 97 10000 0.89 135 13:18 07.12.2021
4411 Fog 5 1008 97 10000 1.79 135 12:21 07.12.2021
4412 Fog 4 1010 97 6000 0.89 180 10:44 07.12.2021
4413 Fog 3 1012 97 10000 2.57 160 08:46 07.12.2021
4414 Clouds 3 1013 94 10000 2.24 227 06:22 07.12.2021
4415 Clouds 4 1013 94 10000 0.89 222 05:45 07.12.2021
4416 Clear 6 1012 91 10000 1.34 225 00:54 07.12.2021
4417 Clouds 6 1010 92 10000 0.89 219 23:18 06.12.2021
4418 Clear 6 1010 92 10000 4.02 222 22:39 06.12.2021
4419 Clouds 6 1010 92 10000 1.79 225 21:58 06.12.2021
4420 Clouds 6 1010 93 10000 2.68 219 21:20 06.12.2021
4421 Clouds 6 1010 91 10000 1.79 225 20:30 06.12.2021
4422 Rain 6 1010 91 10000 3.13 225 19:24 06.12.2021
4423 Clouds 6 1009 90 10000 2.68 225 18:29 06.12.2021
4424 Rain 6 1010 90 10000 1.79 203 17:52 06.12.2021
4425 Rain 6 1011 89 10000 2.68 225 17:20 06.12.2021
4426 Rain 7 1011 84 10000 1.79 203 15:49 06.12.2021
4427 Clouds 7 1013 88 10000 1.34 203 13:53 06.12.2021
4428 Clouds 7 1014 89 10000 0.89 180 12:40 06.12.2021
4429 Clouds 6 1015 92 10000 0.89 203 11:54 06.12.2021
4430 Mist 5 1015 96 3700 1.03 210 09:37 06.12.2021
4431 Clouds 5 1014 96 10000 0.45 270 06:59 06.12.2021
4432 Clouds 5 1010 90 10000 1.79 270 00:38 06.12.2021
4433 Clouds 6 1008 93 10000 1.34 270 21:54 05.12.2021
4434 Clouds 6 1008 94 9000 2.24 270 21:25 05.12.2021
4435 Mist 5 1007 93 5000 1.34 248 20:20 05.12.2021
4436 Mist 5 1007 93 5000 0.89 270 19:58 05.12.2021
4437 Clouds 5 1007 92 10000 1.34 270 19:23 05.12.2021
4438 Clouds 5 1006 92 10000 1.79 270 18:26 05.12.2021
4439 Clouds 5 1006 93 10000 1.79 270 17:49 05.12.2021
4440 Clouds 6 1005 92 10000 1.79 293 16:58 05.12.2021
4441 Clouds 6 1004 92 10000 1.79 270 16:28 05.12.2021
4442 Drizzle 6 1004 92 10000 1.34 270 15:59 05.12.2021
4443 Clouds 5 1003 93 10000 2.68 270 14:48 05.12.2021
4444 Clouds 5 1003 93 10000 1.79 270 14:29 05.12.2021
4445 Clouds 5 1003 91 10000 1.79 270 13:32 05.12.2021
4446 Rain 6 1003 91 10000 1.79 270 12:42 05.12.2021
4447 Clouds 6 1003 91 10000 1.79 270 12:23 05.12.2021
4448 Clouds 5 1003 93 10000 1.34 270 11:41 05.12.2021
4449 Clouds 4 1002 93 10000 1.79 225 10:24 05.12.2021
4450 Rain 4 1002 93 10000 2.24 270 09:35 05.12.2021
4451 Clouds 3 1002 92 10000 1.34 225 04:57 05.12.2021
4452 Clouds 4 1004 89 10000 0.89 270 01:24 05.12.2021
4453 Clouds 4 1005 91 10000 1.79 248 22:44 04.12.2021
4454 Clouds 5 1005 90 10000 1.79 225 21:37 04.12.2021
4455 Clouds 4 1005 92 10000 1.79 225 20:46 04.12.2021
4456 Clouds 4 1005 88 10000 1.34 225 19:54 04.12.2021
4457 Clouds 5 1004 86 10000 3.58 270 19:24 04.12.2021
4458 Clear 6 1004 79 10000 2.24 270 17:52 04.12.2021
4459 Clouds 6 1003 78 10000 1.79 270 17:32 04.12.2021
4460 Clear 7 1003 75 10000 2.68 270 16:47 04.12.2021
4461 Clear 8 1003 73 10000 2.68 270 16:28 04.12.2021
4462 Rain 8 1000 89 5000 1.79 270 13:30 04.12.2021
4463 Clouds 11 999 84 10000 3.13 270 11:41 04.12.2021
4464 Clouds 11 999 85 10000 3.58 270 11:18 04.12.2021
4465 Clouds 11 998 92 10000 2.68 270 09:57 04.12.2021
4466 Drizzle 11 997 94 10000 0.89 248 08:38 04.12.2021
4467 Drizzle 12 998 95 10000 1.79 270 05:18 04.12.2021
4468 Clouds 12 998 95 10000 2.24 225 04:39 04.12.2021
4469 Mist 9 1000 98 5000 0.45 203 23:48 03.12.2021
4470 Clouds 8 1001 97 10000 0.89 203 22:55 03.12.2021
4471 Clouds 7 1002 98 7000 0.89 203 21:58 03.12.2021
4472 Rain 6 1003 98 8000 0.89 203 21:24 03.12.2021
4473 Rain 6 1004 97 5000 0.89 203 20:43 03.12.2021
4474 Rain 5 1005 97 5000 0.89 203 19:36 03.12.2021
4475 Drizzle 4 1006 96 7000 0.89 180 18:26 03.12.2021
4476 Drizzle 4 1007 97 5000 0.89 225 17:42 03.12.2021
4477 Drizzle 3 1010 95 7000 1.79 225 13:48 03.12.2021
4478 Rain 3 1011 94 5000 1.34 225 12:52 03.12.2021
4479 Clouds 3 1013 87 10000 1.79 225 11:24 03.12.2021
4480 Clear 3 1014 87 10000 1.79 225 09:55 03.12.2021
4481 Clear 2 1014 91 10000 0.89 203 08:24 03.12.2021
4482 Clear 2 1014 93 10000 3.09 140 07:37 03.12.2021
4483 Clear 1 1015 93 10000 1.54 250 01:56 03.12.2021
4484 Clear 1 1015 91 10000 1.34 270 00:47 03.12.2021
4485 Clear 2 1014 90 10000 1.34 270 23:45 02.12.2021
4486 Clouds 4 1014 84 10000 0.89 270 21:42 02.12.2021
4487 Clear 4 1014 82 10000 1.34 270 20:57 02.12.2021
4488 Clouds 4 1013 82 10000 1.34 270 20:37 02.12.2021
4489 Clouds 4 1012 78 10000 1.34 270 19:25 02.12.2021
4490 Clouds 5 1011 74 10000 1.79 293 17:43 02.12.2021
4491 Clouds 6 1009 66 10000 1.79 270 15:42 02.12.2021
4492 Clouds 6 1009 60 10000 2.24 270 14:59 02.12.2021
4493 Clouds 6 1009 64 10000 2.68 270 14:33 02.12.2021
4494 Clouds 5 1009 73 10000 2.68 270 12:52 02.12.2021
4495 Clouds 5 1009 75 10000 3.13 270 12:18 02.12.2021
4496 Clear 3 1008 87 10000 1.34 270 09:41 02.12.2021
4497 Clouds 3 1007 86 10000 0.89 293 08:55 02.12.2021
4498 Clouds 6 1005 88 10000 1.34 293 04:54 02.12.2021
4499 Clouds 5 1003 91 10000 2.24 270 00:53 02.12.2021
4500 Clouds 6 1003 88 10000 1.79 270 23:28 01.12.2021
4501 Clouds 6 1003 89 10000 1.34 270 22:24 01.12.2021
4502 Clouds 7 1002 86 10000 1.79 225 20:53 01.12.2021
4503 Clouds 7 1002 84 10000 2.24 225 19:58 01.12.2021
4504 Clouds 7 1002 84 10000 0.89 270 19:28 01.12.2021
4505 Clouds 8 1001 81 10000 1.79 248 17:50 01.12.2021
4506 Clouds 9 1001 80 10000 3.58 270 16:50 01.12.2021
4507 Clouds 10 1000 83 10000 3.13 270 14:59 01.12.2021
4508 Clouds 11 1000 82 10000 2.68 270 13:49 01.12.2021
4509 Clouds 10 1000 85 10000 2.68 270 12:51 01.12.2021
4510 Clouds 10 1000 85 10000 1.79 270 12:51 01.12.2021
4511 Clouds 10 1000 92 10000 1.79 270 10:43 01.12.2021
4512 Clouds 10 1000 95 10000 2.24 225 09:32 01.12.2021
4513 Drizzle 9 1000 96 10000 2.24 225 08:36 01.12.2021
4514 Clouds 9 1001 96 7000 2.24 225 07:37 01.12.2021
4515 Clouds 9 1002 96 7000 2.24 225 07:19 01.12.2021
4516 Clouds 9 1006 91 6000 3.13 225 03:47 01.12.2021
4517 Clouds 9 1008 88 10000 1.79 225 02:34 01.12.2021
4518 Clouds 8 1012 89 10000 2.24 225 23:56 30.11.2021
4519 Clouds 8 1012 90 10000 1.79 225 23:28 30.11.2021
4520 Clouds 8 1014 89 10000 2.24 225 21:55 30.11.2021
4521 Clouds 8 1015 90 10000 1.79 225 20:46 30.11.2021
4522 Clouds 8 1015 89 10000 1.79 225 20:23 30.11.2021
4523 Clouds 8 1015 89 10000 2.68 225 19:38 30.11.2021
4524 Clouds 8 1015 89 10000 3.13 225 18:51 30.11.2021
4525 Clouds 8 1016 92 10000 3.13 225 17:21 30.11.2021
4526 Drizzle 7 1017 93 9000 2.68 225 15:50 30.11.2021
4527 Clouds 7 1017 91 10000 2.68 225 14:31 30.11.2021
4528 Clouds 7 1017 92 10000 2.24 225 13:40 30.11.2021
4529 Clouds 7 1018 92 10000 2.68 225 12:53 30.11.2021
4530 Clouds 6 1018 92 10000 2.68 225 11:54 30.11.2021
4531 Clouds 6 1018 92 10000 1.79 225 11:25 30.11.2021
4532 Clouds 5 1018 92 10000 1.79 225 10:35 30.11.2021
4533 Clouds 5 1018 92 10000 2.24 225 08:55 30.11.2021
4534 Clouds 4 1018 92 10000 2.24 225 08:32 30.11.2021
4535 Clouds 4 1018 94 10000 1.79 225 07:49 30.11.2021
4536 Drizzle 4 1018 94 5000 2.24 225 06:36 30.11.2021
4537 Clear 2 1019 92 10000 1.34 225 01:47 30.11.2021
4538 Clear 2 1019 92 10000 1.79 222 01:27 30.11.2021
4539 Clear 1 1019 91 10000 1.34 226 23:32 29.11.2021
4540 Clear 1 1019 91 10000 0.89 36 22:59 29.11.2021
4541 Clear 1 1019 91 10000 0.45 42 22:37 29.11.2021
4542 Clear 1 1019 90 10000 1.34 43 21:52 29.11.2021
4543 Clear 1 1018 91 10000 1.03 250 21:20 29.11.2021
4544 Clear 2 1018 89 10000 0.45 42 20:46 29.11.2021
4545 Clear 2 1018 88 10000 0.45 43 19:58 29.11.2021
4546 Clear 2 1018 87 10000 2.57 230 19:40 29.11.2021
4547 Clear 3 1017 84 10000 1.54 270 18:59 29.11.2021
4548 Clouds 4 1018 71 10000 2.68 287 18:40 29.11.2021
4549 Clouds 5 1017 67 10000 3.06 294 17:21 29.11.2021
4550 Clouds 5 1017 67 10000 3.06 294 16:45 29.11.2021
4551 Clouds 6 1016 62 10000 3.3 300 16:24 29.11.2021
4552 Clouds 6 1015 60 10000 3.55 304 14:46 29.11.2021
4553 Clouds 6 1015 62 10000 3.9 310 13:52 29.11.2021
4554 Clouds 6 1015 67 10000 3.99 324 12:58 29.11.2021
4555 Clouds 5 1014 70 10000 3.78 318 12:19 29.11.2021
4556 Clouds 4 1014 74 10000 3.37 314 11:28 29.11.2021
4557 Clouds 1 1013 93 10000 1.54 240 09:58 29.11.2021
4558 Clouds 0 1011 93 10000 1.03 0 07:26 29.11.2021
4559 Clouds 1 1009 88 10000 1.54 300 05:51 29.11.2021
4560 Clear 0 1007 93 10000 1.54 280 01:24 29.11.2021
4561 Clear 1 1006 89 10000 1.54 290 23:54 28.11.2021
4562 Clear 2 1006 89 10000 2.57 300 23:36 28.11.2021
4563 Clouds 3 1005 83 10000 3.09 290 22:18 28.11.2021
4564 Clear 3 1005 85 10000 3.09 290 21:39 28.11.2021
4565 Clouds 3 1005 83 10000 3.6 310 20:44 28.11.2021
4566 Clouds 4 1004 79 10000 5.14 300 19:51 28.11.2021
4567 Clouds 4 1004 73 10000 3.09 300 18:40 28.11.2021
4568 Clouds 4 1004 73 10000 3.09 300 18:19 28.11.2021
4569 Clouds 5 1003 72 10000 4.63 310 17:45 28.11.2021
4570 Clouds 5 1003 73 10000 6.17 320 16:48 28.11.2021
4571 Clouds 5 1003 73 10000 6.17 320 16:28 28.11.2021
4572 Clouds 5 1002 75 10000 6.17 320 15:50 28.11.2021
4573 Clouds 5 1002 75 10000 6.69 320 14:56 28.11.2021
4574 Clouds 5 1002 77 10000 6.17 320 14:28 28.11.2021
4575 Clouds 5 1002 83 10000 5.14 290 12:54 28.11.2021
4576 Clouds 5 1002 83 10000 6.17 310 11:51 28.11.2021
4577 Clouds 5 1001 87 10000 5.14 310 10:37 28.11.2021
4578 Clouds 5 1001 87 10000 5.14 310 09:56 28.11.2021
4579 Clouds 5 1001 87 10000 5.66 320 09:36 28.11.2021
4580 Clouds 5 999 87 10000 4.63 300 05:23 28.11.2021
4581 Rain 4 996 95 10000 2.57 270 22:58 27.11.2021
4582 Clouds 2 996 93 10000 2.06 260 20:28 27.11.2021
4583 Clouds 3 994 93 10000 4.12 330 18:44 27.11.2021
4584 Clouds 4 991 93 10000 2.57 350 16:31 27.11.2021
4585 Rain 3 990 95 10000 3.6 360 15:32 27.11.2021
4586 Rain 4 989 89 8000 2.57 230 13:41 27.11.2021
4587 Clouds 4 988 91 10000 5.66 230 12:29 27.11.2021
4588 Clouds 2 987 98 10000 5.14 210 10:31 27.11.2021
4589 Clouds 2 987 91 7000 7.2 210 09:41 27.11.2021
4590 Rain 3 987 89 10000 6.17 200 07:44 27.11.2021
4591 Clear 2 988 91 10000 4.63 230 04:56 27.11.2021
4592 Clouds 5 989 87 10000 2.57 280 00:55 27.11.2021
4593 Clouds 5 989 89 10000 5.14 260 23:29 26.11.2021
4594 Clouds 5 989 93 10000 4.63 240 22:25 26.11.2021
4595 Clouds 6 990 83 10000 4.12 250 21:34 26.11.2021
4596 Clouds 6 990 85 10000 6.69 250 20:45 26.11.2021
4597 Clouds 7 991 91 10000 7.2 230 20:18 26.11.2021
4598 Drizzle 6 991 91 10000 6.69 240 19:47 26.11.2021
4599 Clouds 6 992 91 10000 5.66 220 17:57 26.11.2021
4600 Clouds 6 994 85 10000 7.2 230 17:22 26.11.2021
4601 Drizzle 7 995 81 10000 8.23 210 15:56 26.11.2021
4602 Clouds 6 1000 78 10000 3.13 225 13:35 26.11.2021
4603 Clouds 6 1001 81 10000 3.13 225 12:34 26.11.2021
4604 Clear 4 1004 92 10000 1.79 225 10:38 26.11.2021
4605 Clouds 3 1005 95 10000 2.68 38 08:59 26.11.2021
4606 Clear 3 1006 95 10000 0.89 43 08:21 26.11.2021
4607 Mist 3 1007 95 10000 0.45 43 07:29 26.11.2021
4608 Mist 3 1008 95 10000 1.54 260 06:27 26.11.2021
4609 Clear 3 1009 93 10000 2.57 230 04:51 26.11.2021
4610 Clear 4 1010 92 10000 0.45 248 02:52 26.11.2021
4611 Clouds 6 1012 92 10000 0.89 270 23:27 25.11.2021
4612 Clouds 6 1013 92 10000 0.89 270 21:48 25.11.2021
4613 Clouds 6 1013 91 10000 0.45 68 20:29 25.11.2021
4614 Drizzle 6 1013 91 7000 0.45 45 18:48 25.11.2021
4615 Clouds 6 1013 89 6000 0.51 0 17:48 25.11.2021
4616 Mist 6 1013 89 5000 1.34 42 17:26 25.11.2021
4617 Clouds 6 1013 88 7000 0.45 270 16:34 25.11.2021
4618 Clouds 6 1013 87 7000 0 0 15:49 25.11.2021
4619 Clouds 6 1013 84 8000 0.45 270 14:19 25.11.2021
4620 Clouds 6 1013 80 6000 0.45 293 12:28 25.11.2021
4621 Clouds 5 1014 84 6000 0.89 270 11:52 25.11.2021
4622 Mist 2 1014 94 4200 0.45 248 09:56 25.11.2021
4623 Clouds 4 1012 83 7000 0.89 90 06:22 25.11.2021
4624 Clouds 4 1012 83 10000 0.89 41 02:52 25.11.2021
4625 Clouds 5 1013 82 10000 0.45 68 23:32 24.11.2021
4626 Clouds 4 1014 83 10000 0.89 68 22:28 24.11.2021
4627 Clouds 5 1014 82 10000 0.45 68 21:44 24.11.2021
4628 Clouds 5 1015 82 10000 0.89 45 20:56 24.11.2021
4629 Clouds 5 1015 83 10000 1.34 45 20:26 24.11.2021
4630 Clouds 5 1016 85 10000 0.89 68 18:37 24.11.2021
4631 Clouds 5 1016 85 10000 0.89 45 18:18 24.11.2021
4632 Clouds 6 1017 80 10000 0.89 23 16:19 24.11.2021
4633 Clouds 6 1018 79 10000 1.34 68 14:54 24.11.2021
4634 Clouds 6 1019 81 10000 1.34 45 14:20 24.11.2021
4635 Clouds 6 1019 81 10000 1.34 45 14:20 24.11.2021
4636 Clouds 5 1021 88 10000 0.89 68 12:50 24.11.2021
4637 Mist 4 1022 95 10000 0.89 45 11:22 24.11.2021
4638 Mist 3 1022 96 5000 1.34 68 10:50 24.11.2021
4639 Mist 3 1022 96 3500 2.24 45 10:27 24.11.2021
4640 Mist 3 1023 96 5000 0.89 45 07:56 24.11.2021
4641 Mist 3 1023 96 2300 0.89 68 06:59 24.11.2021
4642 Clouds 3 1025 96 6000 1.34 68 03:59 24.11.2021
4643 Clear 4 1026 94 7000 1.34 68 01:30 24.11.2021
4644 Clear 5 1027 90 10000 1.79 45 22:59 23.11.2021
4645 Clear 5 1027 89 10000 1.34 68 22:34 23.11.2021
4646 Clear 5 1027 88 10000 2.24 68 21:45 23.11.2021
4647 Clear 6 1027 85 10000 1.79 68 20:21 23.11.2021
4648 Clear 6 1027 80 10000 1.34 68 19:20 23.11.2021
4649 Clear 6 1027 74 10000 1.79 68 18:29 23.11.2021
4650 Clear 8 1027 67 10000 2.68 68 17:23 23.11.2021
4651 Clear 8 1027 62 10000 3.13 68 16:35 23.11.2021
4652 Clear 9 1027 56 10000 3.58 45 15:25 23.11.2021
4653 Clear 9 1027 54 10000 3.13 68 14:39 23.11.2021
4654 Clear 7 1028 54 10000 3.13 68 12:50 23.11.2021
4655 Clear 4 1029 66 10000 2.24 68 10:26 23.11.2021
4656 Clear 3 1029 74 10000 1.34 68 09:43 23.11.2021
4657 Clear 2 1028 83 10000 0.89 68 07:42 23.11.2021
4658 Clear 2 1028 84 10000 1.79 23 04:38 23.11.2021
4659 Clear 2 1028 86 10000 1.79 45 03:27 23.11.2021
4660 Clear 3 1027 81 10000 1.79 45 23:26 22.11.2021
4661 Clear 4 1027 80 10000 2.24 45 22:56 22.11.2021
4662 Clear 4 1027 79 10000 1.34 68 22:30 22.11.2021
4663 Clear 4 1027 77 10000 3.13 68 21:44 22.11.2021
4664 Clear 4 1027 77 10000 2.68 45 20:56 22.11.2021
4665 Clear 5 1026 75 10000 2.24 68 20:23 22.11.2021
4666 Clear 6 1025 75 10000 1.79 68 19:20 22.11.2021
4667 Clear 6 1025 75 10000 2.24 68 18:40 22.11.2021
4668 Clouds 6 1025 74 10000 2.68 45 17:46 22.11.2021
4669 Clouds 7 1024 73 10000 3.58 45 16:30 22.11.2021
4670 Clouds 8 1023 72 10000 4.02 45 14:41 22.11.2021
4671 Clouds 7 1023 76 10000 3.58 68 12:48 22.11.2021
4672 Clouds 7 1023 80 10000 4.02 45 11:27 22.11.2021
4673 Clouds 6 1022 85 10000 2.24 45 09:56 22.11.2021
4674 Clouds 5 1021 91 10000 3.13 45 08:42 22.11.2021
4675 Clouds 4 1020 93 10000 3.13 45 07:33 22.11.2021
4676 Clear 5 1016 92 10000 1.79 68 00:50 22.11.2021
4677 Clear 6 1016 91 10000 2.24 68 23:19 21.11.2021
4678 Clear 6 1015 90 10000 1.79 68 22:42 21.11.2021
4679 Clear 7 1014 89 10000 2.24 68 20:44 21.11.2021
4680 Clear 7 1014 90 10000 1.79 68 20:26 21.11.2021
4681 Clear 7 1014 90 10000 1.34 68 18:53 21.11.2021
4682 Clouds 8 1013 92 10000 1.79 68 17:52 21.11.2021
4683 Clear 8 1013 93 10000 1.34 68 17:29 21.11.2021
4684 Clouds 8 1013 97 10000 2.24 45 14:49 21.11.2021
4685 Clouds 8 1013 97 7000 1.03 0 14:18 21.11.2021
4686 Drizzle 8 1014 96 3100 0.45 248 12:58 21.11.2021
4687 Clouds 7 1014 97 9000 1.54 0 12:20 21.11.2021
4688 Mist 7 1014 97 8000 0.45 248 11:37 21.11.2021
4689 Mist 6 1014 96 6000 2.06 230 10:19 21.11.2021
4690 Mist 6 1014 96 6000 0.45 225 09:45 21.11.2021
4691 Mist 6 1014 97 5000 2.06 240 08:32 21.11.2021
4692 Mist 6 1014 97 5000 0.89 203 07:52 21.11.2021
4693 Mist 6 1015 97 5000 0.45 270 06:28 21.11.2021
4694 Fog 6 1016 96 6000 0.45 248 05:41 21.11.2021
4695 Mist 6 1017 95 6000 1.54 240 03:22 21.11.2021
4696 Mist 6 1017 95 5000 1.54 230 02:55 21.11.2021
4697 Mist 6 1018 96 4300 0.45 42 01:28 21.11.2021
4698 Mist 6 1018 94 5000 0.45 68 00:43 21.11.2021
4699 Mist 6 1019 95 6000 0.45 270 22:35 20.11.2021
4700 Mist 6 1020 95 6000 0.45 270 21:32 20.11.2021
4701 Mist 6 1020 95 7000 0.45 225 19:58 20.11.2021
4702 Mist 6 1021 96 7000 2.06 170 18:45 20.11.2021
4703 Mist 6 1021 96 8000 2.06 140 18:23 20.11.2021
4704 Mist 7 1022 96 8000 2.57 150 17:22 20.11.2021
4705 Fog 7 1023 98 10000 1.54 150 15:23 20.11.2021
4706 Fog 7 1024 98 10000 2.57 60 14:39 20.11.2021
4707 Fog 7 1024 98 10000 2.57 60 14:20 20.11.2021
4708 Mist 7 1025 95 10000 0.45 90 11:56 20.11.2021
4709 Mist 7 1025 95 10000 0.45 90 11:56 20.11.2021
4710 Mist 7 1027 97 10000 2.06 140 09:59 20.11.2021
4711 Mist 7 1027 97 10000 4.12 160 08:48 20.11.2021
4712 Mist 8 1027 96 10000 0.45 158 06:57 20.11.2021
4713 Mist 8 1028 95 10000 0.45 135 05:21 20.11.2021
4714 Mist 8 1028 95 10000 0.45 90 04:50 20.11.2021
4715 Clouds 9 1030 91 10000 1.34 135 00:45 20.11.2021
4716 Clouds 9 1030 91 10000 0.45 135 00:27 20.11.2021
4717 Clouds 9 1031 90 10000 0.89 90 22:54 19.11.2021
4718 Clouds 10 1031 88 10000 0.89 135 21:44 19.11.2021
4719 Clouds 10 1031 88 10000 0.89 113 20:54 19.11.2021
4720 Clouds 10 1031 87 10000 0.45 135 20:35 19.11.2021
4721 Clouds 10 1031 86 10000 0.89 113 19:49 19.11.2021
4722 Clouds 10 1031 85 10000 0.45 113 18:50 19.11.2021
4723 Clouds 10 1031 85 10000 1.03 0 18:19 19.11.2021
4724 Clouds 11 1031 82 10000 0.45 45 16:47 19.11.2021
4725 Clouds 11 1031 82 10000 0.45 68 15:31 19.11.2021
4726 Clouds 10 1033 87 10000 0.45 68 12:53 19.11.2021
4727 Clouds 8 1033 95 10000 1.03 110 10:27 19.11.2021
4728 Clouds 7 1032 95 9000 0.45 203 08:47 19.11.2021
4729 Clouds 6 1032 95 9000 1.03 120 07:34 19.11.2021
4730 Fog 7 1032 97 9000 0.45 225 04:28 19.11.2021
4731 Fog 7 1033 97 6000 2.06 150 01:32 19.11.2021
4732 Mist 6 1033 97 5000 2.06 140 23:50 18.11.2021
4733 Mist 7 1033 97 4500 2.06 160 21:48 18.11.2021
4734 Mist 7 1032 96 1700 0.45 113 20:48 18.11.2021
4735 Mist 7 1032 96 2900 2.06 130 20:29 18.11.2021
4736 Mist 7 1032 94 3800 0.45 158 19:44 18.11.2021
4737 Fog 7 1032 93 6000 0.45 180 18:55 18.11.2021
4738 Fog 8 1032 91 7000 3.09 140 18:27 18.11.2021
4739 Mist 9 1031 90 8000 3.09 140 17:49 18.11.2021
4740 Clear 11 1031 82 10000 0.45 225 16:44 18.11.2021
4741 Clear 12 1031 74 10000 0.45 225 15:25 18.11.2021
4742 Clouds 11 1032 80 10000 0.45 248 13:31 18.11.2021
4743 Clear 10 1032 89 10000 1.54 0 12:33 18.11.2021
4744 Clear 9 1032 94 8000 0.45 293 11:42 18.11.2021
4745 Clear 7 1032 96 8000 0.45 248 11:24 18.11.2021
4746 Fog 5 1031 97 600 0.51 110 09:37 18.11.2021
4747 Mist 4 1031 97 1300 0.51 40 07:35 18.11.2021
4748 Fog 4 1030 97 3700 0.51 10 05:55 18.11.2021
4749 Mist 5 1030 97 6000 0.45 248 05:36 18.11.2021
4750 Mist 6 1029 94 5000 0 0 01:23 18.11.2021
4751 Clear 8 1029 93 10000 1.03 310 22:49 17.11.2021
4752 Clouds 8 1028 92 10000 1.03 0 22:21 17.11.2021
4753 Clouds 8 1028 91 10000 1.54 350 21:39 17.11.2021
4754 Clear 9 1028 91 10000 1.54 0 20:58 17.11.2021
4755 Clear 11 1025 86 10000 1.03 310 18:34 17.11.2021
4756 Clouds 12 1025 84 10000 1.54 320 17:28 17.11.2021
4757 Clouds 13 1024 82 10000 0.45 248 14:52 17.11.2021
4758 Clouds 11 1024 95 7000 2.06 250 12:42 17.11.2021
4759 Mist 11 1024 96 6000 2.06 250 11:49 17.11.2021
4760 Mist 10 1024 96 4500 2.57 250 10:49 17.11.2021
4761 Mist 9 1023 97 4300 1.34 42 09:26 17.11.2021
4762 Mist 8 1022 96 4300 0.89 203 07:45 17.11.2021
4763 Mist 8 1022 97 4200 0.45 225 04:47 17.11.2021
4764 Mist 8 1022 96 5000 1.54 220 02:42 17.11.2021
4765 Mist 8 1022 95 10000 0.45 203 23:27 16.11.2021
4766 Mist 7 1022 94 10000 1.54 150 21:48 16.11.2021
4767 Clouds 7 1022 93 10000 0 0 20:19 16.11.2021
4768 Clouds 7 1022 92 9000 1.03 250 18:54 16.11.2021
4769 Clouds 8 1022 90 9000 0 0 18:36 16.11.2021
4770 Clouds 8 1022 90 9000 0 0 18:36 16.11.2021
4771 Clouds 8 1022 87 10000 0.51 0 17:44 16.11.2021
4772 Clouds 8 1022 86 10000 1.54 0 16:58 16.11.2021
4773 Clouds 8 1022 85 10000 1.03 0 16:18 16.11.2021
4774 Clouds 8 1022 85 10000 1.54 0 15:41 16.11.2021
4775 Clouds 7 1023 86 10000 0.45 42 12:40 16.11.2021
4776 Clouds 6 1024 93 10000 0.89 68 10:21 16.11.2021
4777 Clouds 6 1024 92 8000 0.45 135 09:38 16.11.2021
4778 Clouds 6 1024 94 8000 0.89 68 07:34 16.11.2021
4779 Clouds 6 1024 93 10000 0.45 90 05:27 16.11.2021
4780 Clouds 7 1025 90 7000 0.89 68 23:24 15.11.2021
4781 Mist 7 1025 92 8000 0.89 68 22:40 15.11.2021
4782 Mist 7 1024 93 8000 1.79 68 21:56 15.11.2021
4783 Mist 7 1025 92 6000 1.79 68 21:30 15.11.2021
4784 Drizzle 7 1024 94 6000 1.79 68 20:32 15.11.2021
4785 Mist 7 1024 94 5000 1.79 68 19:18 15.11.2021
4786 Mist 7 1024 94 6000 2.57 10 17:31 15.11.2021
4787 Mist 8 1023 94 7000 2.57 350 15:50 15.11.2021
4788 Mist 8 1023 93 8000 4.12 360 15:32 15.11.2021
4789 Mist 7 1024 98 5000 4.12 360 14:27 15.11.2021
4790 Mist 7 1024 95 5000 0.45 43 12:37 15.11.2021
4791 Mist 6 1024 97 4800 0.89 90 09:59 15.11.2021
4792 Mist 6 1024 96 4500 1.79 68 09:19 15.11.2021
4793 Mist 6 1023 97 1500 1.79 68 06:54 15.11.2021
4794 Clear 7 1023 93 7000 0.45 45 00:56 15.11.2021
4795 Clouds 9 1023 91 10000 1.34 68 22:44 14.11.2021
4796 Clear 9 1023 90 10000 1.34 45 21:45 14.11.2021
4797 Clouds 11 1021 86 10000 1.79 68 19:18 14.11.2021
4798 Clouds 11 1021 86 10000 1.34 68 18:54 14.11.2021
4799 Clouds 11 1021 85 10000 1.79 45 18:36 14.11.2021
4800 Clouds 11 1021 85 10000 1.79 68 18:18 14.11.2021
4801 Clouds 11 1021 84 10000 1.79 68 17:58 14.11.2021
4802 Clouds 12 1021 84 10000 1.34 68 17:40 14.11.2021
4803 Clouds 12 1021 84 10000 1.34 68 17:21 14.11.2021
4804 Clouds 12 1020 82 10000 1.79 45 16:58 14.11.2021
4805 Clouds 12 1020 82 10000 1.79 68 16:40 14.11.2021
4806 Clouds 12 1020 82 10000 2.24 68 16:18 14.11.2021
4807 Clouds 12 1020 82 10000 2.24 45 15:19 14.11.2021
4808 Clouds 12 1020 85 10000 1.79 68 14:45 14.11.2021
4809 Clouds 12 1020 86 10000 1.79 45 14:20 14.11.2021
4810 Clouds 12 1020 87 10000 1.79 45 13:51 14.11.2021
4811 Clouds 12 1020 88 10000 1.79 68 13:27 14.11.2021
4812 Clouds 11 1020 90 10000 1.79 68 12:22 14.11.2021
4813 Clouds 11 1019 93 10000 1.34 68 10:58 14.11.2021
4814 Mist 11 1019 94 10000 1.79 68 10:36 14.11.2021
4815 Clouds 10 1019 95 10000 0.45 68 09:27 14.11.2021
4816 Drizzle 10 1019 95 10000 2.06 350 08:51 14.11.2021
4817 Clouds 10 1018 95 10000 1.54 300 04:47 14.11.2021
4818 Clouds 10 1018 94 10000 0.45 42 22:50 13.11.2021
4819 Clouds 10 1018 94 10000 0.45 270 22:20 13.11.2021
4820 Mist 10 1018 94 10000 0.89 43 21:35 13.11.2021
4821 Clouds 11 1018 92 6000 0.45 270 20:43 13.11.2021
4822 Clouds 11 1017 92 10000 0.45 248 18:56 13.11.2021
4823 Clouds 11 1017 91 10000 0.45 248 18:32 13.11.2021
4824 Clouds 11 1016 90 10000 2.57 290 17:41 13.11.2021
4825 Clouds 12 1016 87 10000 2.57 290 15:55 13.11.2021
4826 Clouds 13 1015 85 10000 0.89 248 14:45 13.11.2021
4827 Clouds 13 1016 87 10000 1.34 270 13:47 13.11.2021
4828 Clouds 12 1016 94 10000 0.45 225 12:43 13.11.2021
4829 Clouds 12 1016 94 10000 0.45 270 11:51 13.11.2021
4830 Drizzle 12 1016 94 10000 0.45 248 11:22 13.11.2021
4831 Clouds 11 1016 96 10000 0.89 225 10:34 13.11.2021
4832 Clouds 11 1015 96 10000 0.89 248 09:49 13.11.2021
4833 Mist 11 1015 95 10000 0.45 225 09:28 13.11.2021
4834 Clouds 11 1015 95 10000 1.34 225 08:49 13.11.2021
4835 Drizzle 11 1014 94 10000 0.89 225 07:54 13.11.2021
4836 Mist 11 1014 93 10000 1.79 225 04:43 13.11.2021
4837 Clouds 11 1014 93 10000 1.34 225 04:20 13.11.2021
4838 Clouds 11 1015 92 10000 0.89 203 00:18 13.11.2021
4839 Clouds 10 1015 91 10000 0.89 225 22:42 12.11.2021
4840 Clouds 11 1015 87 10000 1.34 225 20:54 12.11.2021
4841 Clouds 10 1015 84 10000 2.24 225 19:40 12.11.2021
4842 Clouds 10 1015 84 10000 0.45 225 19:22 12.11.2021
4843 Clouds 10 1016 80 10000 0.45 225 18:20 12.11.2021
4844 Clear 13 1016 70 10000 0.45 38 16:18 12.11.2021
4845 Clear 13 1016 73 10000 3.09 160 14:46 12.11.2021
4846 Mist 4 1019 100 5000 5.14 140 11:31 12.11.2021
4847 Mist 3 1019 100 2900 3.09 140 10:48 12.11.2021
4848 Fog 2 1019 100 800 2.06 120 09:27 12.11.2021
4849 Fog 1 1020 100 800 1.54 120 08:35 12.11.2021
4850 Fog 2 1022 96 1700 2.06 50 02:19 12.11.2021
4851 Mist 4 1022 97 3600 1.54 80 23:31 11.11.2021
4852 Mist 4 1023 96 4400 1.03 90 22:28 11.11.2021
4853 Mist 5 1023 93 5000 0.51 130 21:26 11.11.2021
4854 Mist 5 1024 91 6000 1.03 0 20:26 11.11.2021
4855 Clear 6 1024 88 10000 1.03 110 18:54 11.11.2021
4856 Clear 7 1024 82 10000 2.06 80 17:42 11.11.2021
4857 Clear 10 1023 75 10000 0.45 68 16:38 11.11.2021
4858 Clear 10 1024 78 8000 0.45 45 14:44 11.11.2021
4859 Clear 10 1024 77 7000 0.89 113 14:26 11.11.2021
4860 Clear 10 1024 80 6000 0.45 45 13:36 11.11.2021
4861 Mist 8 1024 90 5000 1.54 0 12:48 11.11.2021
4862 Fog 3 1026 99 400 1.03 0 10:35 11.11.2021
4863 Fog 1 1026 99 300 0.45 68 09:33 11.11.2021
4864 Fog 0 1025 98 700 1.54 0 07:36 11.11.2021
4865 Mist 1 1024 98 3400 1.54 350 02:35 11.11.2021
4866 Mist 3 1025 96 5000 1.54 360 22:59 10.11.2021
4867 Mist 4 1025 93 5000 1.54 0 22:22 10.11.2021
4868 Mist 4 1024 94 6000 1.54 60 21:18 10.11.2021
4869 Mist 4 1024 93 7000 1.03 0 20:45 10.11.2021
4870 Mist 5 1024 92 8000 1.03 10 19:46 10.11.2021
4871 Mist 7 1024 81 10000 0.45 135 17:50 10.11.2021
4872 Mist 9 1024 78 10000 1.54 0 16:33 10.11.2021
4873 Clear 10 1024 75 10000 1.54 100 14:52 10.11.2021
4874 Clear 10 1024 74 10000 0.45 45 13:41 10.11.2021
4875 Clear 9 1024 78 10000 0.89 45 12:47 10.11.2021
4876 Fog 5 1025 95 9000 0.45 0 10:39 10.11.2021
4877 Mist 1 1025 96 5000 0.45 68 08:45 10.11.2021
4878 Mist 1 1024 95 7000 0.89 45 07:44 10.11.2021
4879 Mist 2 1024 94 4400 2.06 50 06:26 10.11.2021
4880 Fog 2 1024 96 6000 0.51 0 05:51 10.11.2021
4881 Clear 4 1025 89 10000 0.45 68 23:53 09.11.2021
4882 Clear 5 1025 87 10000 2.06 350 21:50 09.11.2021
4883 Clear 5 1025 87 10000 2.06 350 21:50 09.11.2021
4884 Clear 6 1025 83 10000 1.03 30 20:32 09.11.2021
4885 Clear 7 1025 78 10000 1.03 40 19:25 09.11.2021
4886 Clear 9 1024 70 10000 2.06 50 17:44 09.11.2021
4887 Clear 12 1025 61 10000 2.06 70 15:45 09.11.2021
4888 Clear 12 1025 61 10000 0.89 68 14:44 09.11.2021
4889 Clear 11 1026 74 10000 0.45 68 12:53 09.11.2021
4890 Clear 10 1026 77 10000 0.89 45 12:53 09.11.2021
4891 Clear 9 1027 85 10000 0.45 23 11:56 09.11.2021
4892 Clear 7 1027 88 10000 1.03 0 10:45 09.11.2021
4893 Mist 3 1026 98 8000 2.06 60 09:35 09.11.2021
4894 Mist 3 1027 96 7000 1.54 30 08:27 09.11.2021
4895 Fog 3 1026 96 9000 1.54 30 05:56 09.11.2021
4896 Fog 4 1025 94 10000 1.54 350 02:25 09.11.2021
4897 Fog 5 1025 91 10000 0.45 135 01:46 09.11.2021
4898 Clear 5 1025 91 10000 1.54 30 23:59 08.11.2021
4899 Clear 6 1026 91 10000 1.54 360 22:51 08.11.2021
4900 Clear 6 1026 89 10000 1.54 360 22:28 08.11.2021
4901 Clouds 7 1025 87 10000 1.03 60 20:56 08.11.2021
4902 Clouds 8 1025 84 10000 1.03 0 19:53 08.11.2021
4903 Clear 8 1025 80 10000 1.03 0 18:57 08.11.2021
4904 Clouds 11 1024 70 10000 0.45 270 17:22 08.11.2021
4905 Clouds 12 1024 63 10000 0.45 45 15:27 08.11.2021
4906 Clouds 13 1024 63 10000 0.45 45 14:43 08.11.2021
4907 Clouds 12 1024 63 10000 0.45 90 13:56 08.11.2021
4908 Clouds 12 1024 67 10000 0.45 248 12:44 08.11.2021
4909 Clear 9 1025 84 10000 0.45 270 11:27 08.11.2021
4910 Clouds 6 1025 95 10000 1.03 0 10:00 08.11.2021
4911 Clouds 5 1024 96 10000 0 0 08:55 08.11.2021
4912 Clouds 5 1024 94 10000 0.51 20 07:38 08.11.2021
4913 Clouds 4 1023 94 10000 0 0 06:20 08.11.2021
4914 Clouds 5 1023 96 6000 0 0 03:33 08.11.2021
4915 Clear 6 1023 88 10000 1.03 0 23:51 07.11.2021
4916 Clouds 7 1023 87 10000 0.45 248 22:30 07.11.2021
4917 Clouds 8 1023 83 10000 1.03 0 21:22 07.11.2021
4918 Clouds 8 1023 84 10000 1.54 0 19:55 07.11.2021
4919 Clouds 10 1022 77 10000 1.54 290 18:26 07.11.2021
4920 Clouds 11 1022 74 10000 0.45 225 17:38 07.11.2021
4921 Clouds 13 1022 68 10000 0.45 248 15:55 07.11.2021
4922 Clouds 13 1022 72 10000 0.89 270 14:42 07.11.2021
4923 Clouds 13 1022 76 10000 0.89 270 13:55 07.11.2021
4924 Clouds 11 1022 92 10000 0.45 248 11:53 07.11.2021
4925 Mist 10 1022 95 10000 0.45 225 10:22 07.11.2021
4926 Drizzle 9 1022 94 10000 0.45 225 08:48 07.11.2021
4927 Clouds 8 1025 87 10000 1.34 225 02:49 07.11.2021
4928 Clear 7 1026 89 10000 1.34 225 00:18 07.11.2021
4929 Clear 6 1027 88 10000 0.45 225 22:54 06.11.2021
4930 Clouds 7 1027 88 10000 1.79 36 21:43 06.11.2021
4931 Clouds 7 1028 82 10000 2.24 38 20:52 06.11.2021
4932 Clouds 8 1028 78 10000 1.79 40 19:40 06.11.2021
4933 Clear 10 1029 68 10000 0.89 225 17:30 06.11.2021
4934 Clear 11 1029 62 10000 0.89 225 16:21 06.11.2021
4935 Clear 11 1031 65 10000 0.45 225 13:39 06.11.2021
4936 Clear 11 1031 66 10000 0.45 225 12:52 06.11.2021
4937 Clear 5 1031 93 9000 0.89 43 09:55 06.11.2021
4938 Clear 2 1032 95 8000 0.51 60 08:36 06.11.2021
4939 Mist 3 1031 93 4700 0 0 04:50 06.11.2021
4940 Clouds 6 1031 87 10000 1.03 240 23:41 05.11.2021
4941 Clouds 6 1031 85 10000 1.03 240 23:19 05.11.2021
4942 Clouds 7 1030 83 10000 1.54 280 22:33 05.11.2021
4943 Clouds 8 1029 81 10000 0.51 0 20:26 05.11.2021
4944 Clouds 8 1029 79 10000 1.03 330 19:51 05.11.2021
4945 Clouds 9 1028 77 10000 1.54 0 18:43 05.11.2021
4946 Clouds 10 1028 72 10000 1.54 0 17:45 05.11.2021
4947 Clouds 11 1027 70 10000 0.45 270 16:37 05.11.2021
4948 Clouds 11 1026 72 10000 0.45 45 14:21 05.11.2021
4949 Clouds 10 1026 77 10000 0.89 248 12:26 05.11.2021
4950 Clear 8 1024 89 10000 0.45 44 09:27 05.11.2021
4951 Clear 7 1023 90 10000 0.45 135 07:48 05.11.2021
4952 Clouds 7 1021 90 10000 0.45 225 05:40 05.11.2021
4953 Clouds 8 1019 91 10000 0.45 203 02:37 05.11.2021
4954 Clouds 8 1019 92 10000 0.45 270 02:18 05.11.2021
4955 Clouds 8 1018 93 10000 0.45 270 23:56 04.11.2021
4956 Clouds 8 1017 93 10000 0.45 270 22:21 04.11.2021
4957 Clouds 8 1017 93 10000 0.89 248 21:56 04.11.2021
4958 Clouds 8 1016 93 10000 0.45 270 21:27 04.11.2021
4959 Clouds 8 1015 93 10000 0.45 270 20:28 04.11.2021
4960 Clouds 8 1015 93 10000 0.89 270 19:49 04.11.2021
4961 Clouds 8 1014 93 10000 0.45 248 19:25 04.11.2021
4962 Drizzle 8 1014 92 10000 0.45 248 18:26 04.11.2021
4963 Rain 9 1013 86 10000 0.89 248 17:26 04.11.2021
4964 Clouds 10 1012 77 10000 0.89 248 15:42 04.11.2021
4965 Clouds 10 1011 79 10000 0.89 225 13:45 04.11.2021
4966 Clouds 8 1010 94 10000 0.89 270 10:35 04.11.2021
4967 Clouds 7 1008 96 8000 0.89 270 08:41 04.11.2021
4968 Drizzle 6 1008 95 4900 0.45 270 07:36 04.11.2021
4969 Clouds 6 1007 95 6000 0.45 270 06:59 04.11.2021
4970 Clear 6 1006 88 10000 1.03 230 23:18 03.11.2021
4971 Clear 6 1006 88 10000 1.54 230 22:25 03.11.2021
4972 Clear 7 1005 84 10000 1.54 270 21:37 03.11.2021
4973 Clear 7 1005 85 10000 0.45 225 20:44 03.11.2021
4974 Clear 7 1005 83 10000 1.54 290 20:25 03.11.2021
4975 Clear 8 1004 83 10000 0.45 248 19:33 03.11.2021
4976 Clouds 9 1003 77 10000 0.45 113 18:27 03.11.2021
4977 Clouds 9 1003 77 10000 0.45 113 18:27 03.11.2021
4978 Clouds 9 1003 77 10000 0.45 113 18:27 03.11.2021
4979 Clear 9 1003 74 10000 0.45 248 17:48 03.11.2021
4980 Clouds 11 1002 70 10000 0.45 68 16:49 03.11.2021
4981 Clouds 12 1002 72 10000 0.89 270 15:49 03.11.2021
4982 Clouds 12 1002 72 10000 0.45 203 15:30 03.11.2021
4983 Clouds 11 1002 77 10000 0.89 0 13:41 03.11.2021
4984 Clouds 9 1001 93 10000 0.45 270 11:35 03.11.2021
4985 Clouds 8 1001 93 10000 0.45 248 10:50 03.11.2021
4986 Clouds 7 1000 95 10000 0.45 45 09:47 03.11.2021
4987 Clouds 7 1000 95 10000 0.45 225 08:53 03.11.2021
4988 Mist 7 999 96 10000 0.45 270 07:55 03.11.2021
4989 Clouds 7 998 96 9000 0.45 270 07:32 03.11.2021
4990 Clouds 8 997 95 10000 0.45 0 04:23 03.11.2021
4991 Rain 8 998 95 10000 0.89 45 00:58 03.11.2021
4992 Rain 8 998 92 10000 0.45 45 23:24 02.11.2021
4993 Clear 9 999 91 10000 0.45 68 21:59 02.11.2021
4994 Clear 8 999 89 10000 0.89 135 20:43 02.11.2021
4995 Clear 9 1000 88 10000 2.06 120 19:58 02.11.2021
4996 Clear 9 1000 87 10000 3.6 140 19:31 02.11.2021
4997 Clear 9 1000 87 10000 3.6 140 19:31 02.11.2021
4998 Clouds 9 1000 86 10000 3.09 150 18:36 02.11.2021
4999 Clouds 10 1000 81 10000 0.89 225 17:46 02.11.2021
5000 Clouds 11 1000 79 10000 0.45 180 17:25 02.11.2021
5001 Clouds 12 1000 74 10000 0.89 225 16:19 02.11.2021
5002 Clouds 12 1001 73 10000 0.89 225 14:57 02.11.2021
5003 Clouds 12 1001 74 10000 1.34 225 13:31 02.11.2021
5004 Clouds 12 1002 76 10000 1.34 225 12:59 02.11.2021
5005 Clouds 11 1002 79 10000 1.79 225 12:18 02.11.2021
5006 Clouds 10 1001 81 10000 1.34 248 11:26 02.11.2021
5007 Clouds 9 1001 86 10000 1.34 225 10:38 02.11.2021
5008 Clouds 9 1001 89 10000 1.79 203 10:18 02.11.2021
5009 Clouds 8 1000 91 10000 1.34 225 07:47 02.11.2021
5010 Clouds 9 1000 93 10000 1.79 225 05:55 02.11.2021
5011 Clouds 8 1000 93 10000 1.34 225 03:27 02.11.2021
5012 Clear 8 1001 93 10000 0.89 203 00:19 02.11.2021
5013 Clear 8 1001 93 10000 0.45 225 22:19 01.11.2021
5014 Clear 8 1001 93 10000 0.89 252 20:46 01.11.2021
5015 Clear 8 1001 93 10000 0.89 250 20:26 01.11.2021
5016 Clear 8 1001 93 10000 0.45 222 19:42 01.11.2021
5017 Clear 8 1001 93 10000 0.45 228 18:50 01.11.2021
5018 Clear 9 1001 91 10000 0.45 203 17:49 01.11.2021
5019 Clouds 10 1001 89 10000 0.45 225 16:58 01.11.2021
5020 Rain 10 1001 87 8000 5.14 260 16:32 01.11.2021
5021 Clouds 11 1001 82 10000 0.89 225 15:39 01.11.2021
5022 Clouds 13 1001 76 10000 1.79 225 15:19 01.11.2021
5023 Clouds 14 1001 70 10000 0.89 219 14:38 01.11.2021
5024 Clouds 13 1001 72 10000 1.79 225 14:19 01.11.2021
5025 Clear 13 1002 70 10000 3.13 225 12:50 01.11.2021
5026 Clouds 12 1002 78 10000 2.68 225 11:39 01.11.2021
5027 Clouds 11 1002 86 10000 2.24 225 10:20 01.11.2021
5028 Clouds 9 1001 91 10000 0.89 225 08:20 01.11.2021
5029 Clouds 9 1001 91 10000 1.79 225 07:46 01.11.2021
5030 Clouds 9 1001 89 10000 0.89 225 03:55 01.11.2021
5031 Clouds 9 1001 89 10000 0.89 225 01:44 01.11.2021
5032 Clear 10 1001 87 10000 1.34 225 23:30 31.10.2021
5033 Clear 11 1000 89 10000 0.89 147 20:58 31.10.2021
5034 Clear 11 1000 89 10000 0.89 147 20:58 31.10.2021
5035 Clear 11 1000 91 10000 1.34 225 19:49 31.10.2021
5036 Clear 12 1000 89 10000 1.79 225 18:43 31.10.2021
5037 Clear 12 999 88 10000 1.79 225 18:20 31.10.2021
5038 Clouds 15 997 91 10000 1.79 225 16:41 31.10.2021
5039 Rain 17 996 83 10000 1.34 225 14:45 31.10.2021
5040 Clouds 17 998 83 10000 1.79 203 12:55 31.10.2021
5041 Clear 15 999 87 10000 0.89 135 11:44 31.10.2021
5042 Clouds 13 1000 93 10000 0.89 203 10:48 31.10.2021
5043 Clouds 11 1002 96 10000 0.89 135 09:26 31.10.2021
5044 Clouds 11 1002 97 10000 0.89 203 08:45 31.10.2021
5045 Clear 10 1006 95 10000 0.45 180 02:52 31.10.2021
5046 Clear 11 1007 94 10000 2.57 120 00:32 31.10.2021
5047 Clear 11 1006 92 10000 0.89 225 22:27 30.10.2021
5048 Clear 12 1005 94 10000 1.79 231 21:29 30.10.2021
5049 Clear 12 1004 93 10000 3.6 220 19:49 30.10.2021
5050 Clouds 14 1001 94 10000 1.34 225 17:49 30.10.2021
5051 Rain 15 1000 93 10000 1.34 225 15:49 30.10.2021
5052 Drizzle 14 999 96 10000 0.89 225 13:59 30.10.2021
5053 Mist 14 999 96 10000 0.89 225 13:38 30.10.2021
5054 Mist 14 999 96 10000 0.89 158 13:20 30.10.2021
5055 Mist 14 999 96 10000 0.89 225 11:50 30.10.2021
5056 Clouds 14 999 94 10000 0.89 225 10:57 30.10.2021
5057 Drizzle 13 999 95 10000 1.34 225 08:59 30.10.2021
5058 Clouds 13 999 96 10000 0.89 135 07:57 30.10.2021
5059 Clouds 12 999 97 10000 0.45 135 05:48 30.10.2021
5060 Clouds 13 1002 96 10000 0.45 135 03:28 30.10.2021
5061 Clouds 12 1005 96 10000 0.89 225 23:22 29.10.2021
5062 Clouds 12 1005 96 10000 0.45 203 22:35 29.10.2021
5063 Clouds 13 1006 95 10000 0.89 203 21:19 29.10.2021
5064 Clouds 12 1006 94 10000 0.89 225 20:33 29.10.2021
5065 Clouds 13 1005 94 10000 1.34 225 19:33 29.10.2021
5066 Clouds 13 1005 93 10000 0.89 248 18:18 29.10.2021
5067 Rain 14 1005 87 10000 1.34 225 16:20 29.10.2021
5068 Rain 14 1006 85 10000 0.89 225 13:23 29.10.2021
5069 Clear 14 1005 75 10000 0.89 203 10:49 29.10.2021
5070 Clear 13 1005 78 10000 1.34 203 10:31 29.10.2021
5071 Clear 10 1006 83 10000 0.89 158 05:43 29.10.2021
5072 Clear 12 1009 80 10000 0.45 225 00:35 29.10.2021
5073 Clear 13 1010 77 10000 0.45 203 22:40 28.10.2021
5074 Clear 13 1010 71 10000 0.89 225 21:20 28.10.2021
5075 Clear 14 1011 68 10000 0.89 225 20:19 28.10.2021
5076 Clear 16 1011 65 10000 0.89 135 18:57 28.10.2021
5077 Clear 18 1011 57 10000 0.89 180 17:57 28.10.2021
5078 Clear 18 1012 56 10000 1.79 225 16:54 28.10.2021
5079 Clear 18 1013 64 10000 1.34 225 14:59 28.10.2021
5080 Clear 15 1015 72 10000 1.34 225 13:35 28.10.2021
5081 Clear 13 1016 79 10000 0.45 203 12:53 28.10.2021
5082 Clear 13 1016 80 10000 0.89 225 12:34 28.10.2021
5083 Clear 9 1017 93 10000 0.45 225 10:48 28.10.2021
5084 Fog 7 1017 97 10000 0.45 225 09:38 28.10.2021
5085 Fog 7 1017 95 10000 0.45 248 08:37 28.10.2021
5086 Fog 7 1017 95 1000 0.89 203 07:49 28.10.2021
5087 Fog 8 1018 95 10000 0.45 135 04:36 28.10.2021
5088 Clear 11 1021 86 10000 0.45 135 23:26 27.10.2021
5089 Clear 11 1021 86 10000 1.03 0 22:30 27.10.2021
5090 Clear 11 1021 85 10000 1.03 100 21:32 27.10.2021
5091 Clear 12 1021 86 10000 2.06 120 20:49 27.10.2021
5092 Clear 13 1022 79 10000 2.06 120 19:52 27.10.2021
5093 Clear 13 1022 76 10000 0.45 135 19:32 27.10.2021
5094 Clear 15 1022 75 10000 0.45 113 18:39 27.10.2021
5095 Clear 17 1023 68 10000 0.45 158 16:26 27.10.2021
5096 Clear 16 1023 72 10000 0.45 225 15:30 27.10.2021
5097 Clear 16 1023 73 10000 0.45 203 15:30 27.10.2021
5098 Clear 16 1023 72 10000 0.45 225 15:30 27.10.2021
5099 Clear 15 1024 79 9000 0.45 180 14:39 27.10.2021
5100 Clear 10 1025 93 8000 0.45 225 11:21 27.10.2021
5101 Clear 10 1025 90 8000 0.45 225 10:58 27.10.2021
5102 Fog 9 1025 96 9000 0.89 225 09:45 27.10.2021
5103 Fog 8 1024 96 10000 2.57 130 07:53 27.10.2021
5104 Clouds 9 1025 95 9000 1.54 130 06:53 27.10.2021
5105 Clear 11 1025 90 10000 2.24 229 01:45 27.10.2021
5106 Clear 12 1025 88 10000 3.13 218 00:56 27.10.2021
5107 Clouds 12 1025 87 10000 2.68 219 00:24 27.10.2021
5108 Clouds 12 1025 88 10000 0.45 225 23:40 26.10.2021
5109 Clouds 13 1025 87 10000 1.34 225 22:37 26.10.2021
5110 Clouds 13 1025 86 10000 0.45 225 21:57 26.10.2021
5111 Clear 14 1025 84 10000 1.34 225 20:27 26.10.2021
5112 Clouds 14 1024 84 10000 1.79 225 19:26 26.10.2021
5113 Clouds 15 1024 81 10000 0.89 225 18:40 26.10.2021
5114 Clouds 15 1023 79 10000 1.34 203 16:22 26.10.2021
5115 Clouds 14 1024 81 10000 0.45 248 14:19 26.10.2021
5116 Clouds 11 1024 97 10000 0.89 225 11:34 26.10.2021
5117 Fog 10 1024 97 10000 0.45 225 10:20 26.10.2021
5118 Fog 8 1022 97 700 0.45 203 07:25 26.10.2021
5119 Fog 9 1021 95 5000 0.45 225 03:39 26.10.2021
5120 Fog 9 1021 95 5000 0.45 225 03:39 26.10.2021
5121 Clear 12 1020 94 10000 0.45 225 23:50 25.10.2021
5122 Clouds 12 1020 92 10000 0.45 225 22:53 25.10.2021
5123 Clouds 12 1020 92 10000 0.89 225 22:18 25.10.2021
5124 Clouds 12 1020 92 10000 0.89 225 21:38 25.10.2021
5125 Clouds 13 1019 90 10000 0.89 225 19:53 25.10.2021
5126 Clouds 13 1019 88 10000 3.09 170 19:25 25.10.2021
5127 Clouds 13 1019 86 10000 3.09 160 18:54 25.10.2021
5128 Clouds 15 1019 83 10000 1.34 209 17:59 25.10.2021
5129 Clouds 14 1019 88 10000 0.45 214 15:45 25.10.2021
5130 Clouds 12 1019 94 10000 3.6 200 14:28 25.10.2021
5131 Clouds 11 1019 97 10000 3.6 170 12:29 25.10.2021
5132 Mist 9 1019 95 9000 3.09 140 10:20 25.10.2021
5133 Clouds 8 1019 96 10000 3.09 140 08:34 25.10.2021
5134 Clouds 8 1019 90 10000 1.03 120 06:24 25.10.2021
5135 Clear 8 1020 82 10000 0.45 201 00:54 25.10.2021
5136 Clear 8 1020 81 10000 0.45 200 00:35 25.10.2021
5137 Clear 9 1020 80 10000 2.06 70 23:47 24.10.2021
5138 Clear 9 1020 81 10000 1.03 80 22:44 24.10.2021
5139 Clear 9 1020 81 10000 1.03 80 22:21 24.10.2021
5140 Clear 10 1020 76 10000 1.54 190 21:41 24.10.2021
5141 Clear 10 1021 74 10000 1.03 150 20:42 24.10.2021
5142 Clear 10 1021 74 10000 1.03 150 20:23 24.10.2021
5143 Clear 12 1020 70 10000 2.57 170 18:52 24.10.2021
5144 Clear 14 1020 63 10000 3.6 170 17:55 24.10.2021
5145 Clear 15 1021 59 10000 4.12 170 16:49 24.10.2021
5146 Clear 14 1021 64 10000 3.6 210 15:28 24.10.2021
5147 Clear 12 1022 71 10000 4.12 180 13:49 24.10.2021
5148 Clear 10 1022 80 10000 5.14 160 12:41 24.10.2021
5149 Clear 8 1023 86 10000 3.09 150 11:40 24.10.2021
5150 Clear 6 1022 87 10000 2.06 100 10:43 24.10.2021
5151 Clear 4 1022 94 10000 3.09 70 09:38 24.10.2021
5152 Clear 5 1024 87 10000 1.54 20 03:36 24.10.2021
5153 Clear 7 1026 83 10000 2.06 50 00:40 24.10.2021
5154 Clear 7 1026 83 10000 2.06 40 23:24 23.10.2021
5155 Clear 8 1026 77 10000 2.57 100 21:45 23.10.2021
5156 Clouds 11 1026 74 10000 3.09 110 19:47 23.10.2021
5157 Clouds 13 1026 69 10000 1.54 150 18:48 23.10.2021
5158 Clear 13 1026 67 10000 3.09 160 18:21 23.10.2021
5159 Clouds 14 1026 65 10000 2.06 190 17:42 23.10.2021
5160 Clouds 14 1027 66 10000 1.54 80 16:18 23.10.2021
5161 Clear 14 1027 70 10000 1.03 0 13:57 23.10.2021
5162 Clouds 9 1027 90 10000 2.06 240 03:32 23.10.2021
5163 Clear 9 1026 90 10000 1.54 220 23:42 22.10.2021
5164 Clouds 9 1025 89 10000 3.09 230 22:28 22.10.2021
5165 Clear 11 1025 84 10000 2.06 250 19:51 22.10.2021
5166 Clouds 12 1024 77 10000 0.45 222 18:40 22.10.2021
5167 Clear 12 1024 73 10000 1.34 35 17:25 22.10.2021
5168 Clouds 14 1023 63 10000 1.34 43 14:58 22.10.2021
5169 Clear 13 1023 71 10000 0.45 45 13:35 22.10.2021
5170 Clear 8 1023 87 10000 0.45 43 10:58 22.10.2021
5171 Clear 6 1022 91 10000 1.54 210 10:37 22.10.2021
5172 Clear 4 1022 94 10000 1.54 210 09:41 22.10.2021
5173 Clear 4 1021 97 10000 1.54 210 08:30 22.10.2021
5174 Fog 4 1020 96 10000 1.54 220 07:21 22.10.2021
5175 Clear 4 1020 94 10000 1.03 0 02:56 22.10.2021
5176 Clear 6 1019 89 10000 1.54 0 23:53 21.10.2021
5177 Clear 6 1018 89 10000 1.03 0 23:21 21.10.2021
5178 Clear 7 1017 85 10000 2.06 280 21:39 21.10.2021
5179 Clear 8 1016 85 10000 1.54 270 20:27 21.10.2021
5180 Clouds 9 1015 82 10000 1.34 43 19:57 21.10.2021
5181 Clouds 9 1014 79 10000 0.89 44 19:28 21.10.2021
5182 Clouds 11 1013 81 10000 2.68 42 18:43 21.10.2021
5183 Clouds 12 1013 86 10000 2.68 42 17:54 21.10.2021
5184 Clouds 13 1012 88 10000 0.89 43 17:32 21.10.2021
5185 Rain 13 1010 88 7000 1.34 224 15:34 21.10.2021
5186 Rain 13 1010 86 4300 0.89 225 14:57 21.10.2021
5187 Rain 13 1010 87 7000 0.89 225 14:37 21.10.2021
5188 Rain 13 1010 87 7000 0.89 225 14:37 21.10.2021
5189 Clouds 14 1011 68 10000 2.68 225 12:44 21.10.2021
5190 Clear 11 1010 81 10000 1.79 225 09:56 21.10.2021
5191 Clouds 11 1009 78 10000 1.79 225 08:21 21.10.2021
5192 Clear 11 1007 77 10000 2.24 270 07:23 21.10.2021
5193 Clouds 14 997 77 10000 3.58 225 00:58 21.10.2021
5194 Rain 17 997 77 10000 3.13 225 23:20 20.10.2021
5195 Clouds 18 1000 80 10000 2.24 203 21:51 20.10.2021
5196 Clouds 18 1000 81 10000 2.24 225 21:28 20.10.2021
5197 Clouds 18 1001 81 10000 1.79 225 20:46 20.10.2021
5198 Clouds 18 1001 81 10000 2.24 225 20:26 20.10.2021
5199 Clouds 19 1003 78 10000 1.79 225 19:32 20.10.2021
5200 Clouds 19 1003 78 10000 1.34 225 18:49 20.10.2021
5201 Clouds 19 1005 75 10000 1.34 203 17:40 20.10.2021
5202 Clouds 19 1008 78 10000 1.79 225 15:26 20.10.2021
5203 Clouds 16 1010 89 10000 1.79 225 10:25 20.10.2021
5204 Clear 16 1010 83 10000 0.89 225 08:36 20.10.2021
5205 Clear 16 1014 78 10000 1.34 342 02:47 20.10.2021
5206 Clear 17 1015 74 10000 0.45 291 00:35 20.10.2021
5207 Clear 17 1016 69 10000 4.63 160 23:32 19.10.2021
5208 Clear 18 1017 67 10000 0.45 124 21:41 19.10.2021
5209 Clear 19 1017 65 10000 5.14 180 20:45 19.10.2021
5210 Clear 19 1017 65 10000 4.63 190 20:22 19.10.2021
5211 Clear 20 1017 59 10000 4.12 190 19:39 19.10.2021
5212 Clear 21 1017 60 10000 4.63 190 18:52 19.10.2021
5213 Clear 23 1017 57 10000 4.63 190 17:57 19.10.2021
5214 Clear 23 1018 56 10000 1.34 225 15:38 19.10.2021
5215 Clear 23 1018 56 10000 1.34 225 15:19 19.10.2021
5216 Clear 22 1019 63 10000 1.79 225 14:23 19.10.2021
5217 Clouds 19 1021 77 10000 1.79 203 12:38 19.10.2021
5218 Clouds 18 1021 81 10000 0.89 225 11:31 19.10.2021
5219 Clouds 16 1020 89 10000 0.45 248 10:19 19.10.2021
5220 Clear 16 1020 90 10000 0.45 203 08:58 19.10.2021
5221 Clouds 16 1020 90 10000 0.89 315 06:34 19.10.2021
5222 Clouds 15 1020 95 10000 4.12 160 00:24 19.10.2021
5223 Clouds 15 1020 94 10000 3.6 150 23:49 18.10.2021
5224 Clouds 15 1020 94 10000 2.57 150 23:19 18.10.2021
5225 Clouds 15 1020 94 7000 2.57 180 22:53 18.10.2021
5226 Rain 16 1021 91 10000 2.57 180 21:19 18.10.2021
5227 Rain 16 1021 88 10000 2.06 190 20:41 18.10.2021
5228 Rain 16 1021 87 10000 1.54 220 19:53 18.10.2021
5229 Clouds 17 1021 86 10000 1.54 220 19:30 18.10.2021
5230 Clouds 17 1020 82 10000 3.6 210 18:54 18.10.2021
5231 Clear 18 1020 74 10000 0.45 37 15:32 18.10.2021
5232 Clear 16 1021 79 10000 3.6 150 13:32 18.10.2021
5233 Clear 10 1022 87 10000 2.57 110 10:42 18.10.2021
5234 Clear 7 1021 95 9000 2.57 60 09:30 18.10.2021
5235 Clear 7 1021 89 10000 0.45 45 03:22 18.10.2021
5236 Clear 10 1021 80 10000 1.03 30 23:31 17.10.2021
5237 Clear 11 1020 77 10000 0.45 90 21:55 17.10.2021
5238 Clear 12 1020 73 10000 0.45 90 21:18 17.10.2021
5239 Clear 12 1020 69 10000 0.89 135 20:38 17.10.2021
5240 Clear 13 1019 66 10000 0.45 113 19:42 17.10.2021
5241 Clear 13 1019 65 10000 0.45 90 19:23 17.10.2021
5242 Clear 16 1019 56 10000 0.45 68 17:34 17.10.2021
5243 Clear 16 1019 54 10000 0.89 135 15:46 17.10.2021
5244 Clear 15 1020 60 10000 0.89 68 14:26 17.10.2021
5245 Clear 15 1020 61 10000 0.45 158 13:56 17.10.2021
5246 Clear 13 1020 70 10000 0.45 158 12:35 17.10.2021
5247 Clear 9 1020 84 10000 0.89 68 10:44 17.10.2021
5248 Clear 6 1020 91 10000 0.45 68 09:43 17.10.2021
5249 Clear 6 1019 93 10000 1.03 340 07:42 17.10.2021
5250 Clear 9 1020 79 10000 1.54 20 00:56 17.10.2021
5251 Clear 9 1021 77 10000 0.45 90 00:24 17.10.2021
5252 Clear 10 1020 72 10000 1.54 50 22:31 16.10.2021
5253 Clear 12 1020 68 10000 0.45 68 20:35 16.10.2021
5254 Clear 13 1020 68 10000 0.45 90 19:56 16.10.2021
5255 Clear 13 1020 66 10000 0.45 45 19:37 16.10.2021
5256 Clear 14 1020 62 10000 0.89 68 19:18 16.10.2021
5257 Clear 15 1020 61 10000 0.89 45 18:42 16.10.2021
5258 Clear 16 1020 56 10000 1.34 45 18:19 16.10.2021
5259 Clear 17 1020 53 10000 1.34 68 17:28 16.10.2021
5260 Clear 17 1020 56 10000 0.45 158 15:39 16.10.2021
5261 Clear 15 1022 70 10000 0.45 68 12:44 16.10.2021
5262 Clear 11 1022 85 10000 0.45 90 10:51 16.10.2021
5263 Clear 9 1021 93 10000 1.03 0 08:56 16.10.2021
5264 Clouds 11 1021 93 10000 1.34 68 01:36 16.10.2021
5265 Clouds 12 1021 91 10000 1.34 68 23:59 15.10.2021
5266 Clouds 12 1021 88 10000 1.34 45 23:25 15.10.2021
5267 Clouds 13 1020 87 10000 1.34 68 22:20 15.10.2021
5268 Clouds 13 1020 85 10000 0.89 45 21:37 15.10.2021
5269 Clouds 13 1020 83 10000 2.57 10 20:52 15.10.2021
5270 Clear 13 1020 81 10000 1.54 340 20:22 15.10.2021
5271 Clouds 14 1020 78 10000 1.03 330 19:19 15.10.2021
5272 Clouds 16 1019 72 10000 0.45 68 18:21 15.10.2021
5273 Clouds 17 1019 66 10000 0.45 43 15:46 15.10.2021
5274 Clear 16 1020 69 10000 0.45 135 13:49 15.10.2021
5275 Clear 12 1020 83 10000 0.51 0 11:52 15.10.2021
5276 Clear 10 1019 85 10000 0 0 10:58 15.10.2021
5277 Clear 9 1019 90 10000 0.45 45 10:22 15.10.2021
5278 Clear 7 1019 91 10000 1.03 340 07:33 15.10.2021
5279 Clear 7 1020 90 10000 1.03 360 04:26 15.10.2021
5280 Clear 9 1022 82 10000 1.54 360 00:22 15.10.2021
5281 Clear 10 1022 80 10000 1.54 30 22:54 14.10.2021
5282 Clear 10 1022 79 10000 1.54 10 22:18 14.10.2021
5283 Clear 10 1022 78 10000 1.03 30 21:37 14.10.2021
5284 Clear 13 1023 67 10000 2.57 140 20:20 14.10.2021
5285 Clear 13 1023 67 10000 2.57 140 19:43 14.10.2021
5286 Clear 16 1023 55 10000 0 0 18:26 14.10.2021
5287 Clear 17 1024 52 10000 2.06 160 16:58 14.10.2021
5288 Clear 17 1024 51 10000 0.45 225 16:31 14.10.2021
5289 Clear 16 1026 56 10000 0.45 203 14:44 14.10.2021
5290 Clear 16 1026 57 10000 0.45 225 14:26 14.10.2021
5291 Clear 14 1027 68 10000 0.45 225 12:35 14.10.2021
5292 Clear 12 1028 77 10000 0.45 225 11:34 14.10.2021
5293 Clouds 7 1028 90 10000 0.89 178 08:26 14.10.2021
5294 Clouds 7 1028 89 10000 0.7 198 05:52 14.10.2021
5295 Clouds 9 1028 81 10000 0.51 97 00:36 14.10.2021
5296 Clear 9 1028 80 10000 1.54 10 22:40 13.10.2021
5297 Clear 9 1028 77 10000 1.54 350 21:36 13.10.2021
5298 Clear 10 1028 70 10000 1.03 330 20:43 13.10.2021
5299 Clear 12 1028 62 10000 0.45 68 19:24 13.10.2021
5300 Clear 14 1027 57 10000 0.89 68 18:38 13.10.2021
5301 Clear 15 1027 54 10000 0.45 135 16:37 13.10.2021
5302 Clouds 15 1028 56 10000 0.45 45 14:47 13.10.2021
5303 Clouds 14 1028 59 10000 0.45 68 14:24 13.10.2021
5304 Clear 13 1028 67 10000 0.89 68 12:42 13.10.2021
5305 Clear 11 1028 82 10000 1.34 68 11:37 13.10.2021
5306 Clear 8 1027 93 10000 1.03 360 09:56 13.10.2021
5307 Clear 7 1026 93 10000 1.54 350 07:53 13.10.2021
5308 Clear 10 1024 92 10000 1.34 43 03:39 13.10.2021
5309 Clouds 11 1024 88 10000 2.06 350 02:21 13.10.2021
5310 Clear 12 1023 83 10000 2.24 42 23:36 12.10.2021
5311 Clear 12 1023 81 10000 0.45 43 22:50 12.10.2021
5312 Clear 12 1023 80 10000 2.57 320 22:29 12.10.2021
5313 Clear 13 1023 79 10000 1.34 43 20:54 12.10.2021
5314 Clear 13 1023 78 10000 3.09 320 20:31 12.10.2021
5315 Clear 14 1023 78 10000 0.45 44 19:42 12.10.2021
5316 Clear 15 1022 73 10000 0.45 44 18:26 12.10.2021
5317 Clouds 15 1022 69 10000 3.6 300 17:21 12.10.2021
5318 Clouds 16 1022 68 10000 3.13 44 16:24 12.10.2021
5319 Clouds 16 1023 67 10000 1.34 42 15:33 12.10.2021
5320 Clouds 15 1024 71 10000 2.24 44 13:46 12.10.2021
5321 Clouds 15 1024 73 10000 1.34 43 13:18 12.10.2021
5322 Clouds 12 1025 87 10000 2.06 250 11:30 12.10.2021
5323 Clouds 7 1026 94 10000 1.03 240 09:41 12.10.2021
5324 Clouds 7 1026 95 10000 1.54 250 08:31 12.10.2021
5325 Clear 7 1026 92 10000 1.03 210 06:46 12.10.2021
5326 Clear 7 1026 91 10000 0.51 0 04:52 12.10.2021
5327 Clear 7 1027 93 10000 1.03 290 04:28 12.10.2021
5328 Clear 10 1028 85 10000 1.54 330 23:59 11.10.2021
5329 Clear 10 1028 85 10000 0.45 248 23:37 11.10.2021
5330 Clear 10 1028 85 10000 0.51 320 22:55 11.10.2021
5331 Clear 11 1028 80 10000 0.45 270 21:32 11.10.2021
5332 Clear 12 1028 77 10000 0.45 0 20:31 11.10.2021
5333 Clear 13 1028 71 10000 0.45 23 19:36 11.10.2021
5334 Clear 15 1028 64 10000 1.34 68 18:24 11.10.2021
5335 Clouds 16 1028 60 10000 1.34 68 16:41 11.10.2021
5336 Clouds 16 1028 59 10000 1.34 338 16:21 11.10.2021
5337 Clouds 16 1028 59 10000 1.34 90 15:45 11.10.2021
5338 Clouds 16 1028 61 10000 0.89 45 14:54 11.10.2021
5339 Clouds 16 1029 62 10000 1.79 68 14:22 11.10.2021
5340 Clouds 16 1029 63 10000 0.89 90 13:36 11.10.2021
5341 Clear 14 1029 79 10000 0.89 23 11:25 11.10.2021
5342 Clear 12 1028 93 10000 3.09 340 09:47 11.10.2021
5343 Clouds 11 1028 94 10000 0.89 44 08:41 11.10.2021
5344 Mist 11 1028 93 4400 0.45 68 03:47 11.10.2021
5345 Mist 11 1028 90 5000 2.06 340 01:34 11.10.2021
5346 Mist 11 1028 90 5000 0.45 270 00:43 11.10.2021
5347 Mist 11 1028 87 5000 1.03 330 23:52 10.10.2021
5348 Clear 11 1027 83 6000 1.03 360 21:51 10.10.2021
5349 Clear 12 1027 78 7000 0.45 0 21:28 10.10.2021
5350 Clouds 13 1027 78 9000 0.89 45 20:41 10.10.2021
5351 Clouds 13 1027 76 10000 0.89 68 20:20 10.10.2021
5352 Clouds 14 1027 76 10000 0.89 68 19:51 10.10.2021
5353 Clear 14 1027 71 10000 1.34 68 19:31 10.10.2021
5354 Clear 16 1026 67 10000 1.34 90 18:28 10.10.2021
5355 Clear 17 1026 62 10000 0.45 45 15:57 10.10.2021
5356 Clear 17 1027 62 10000 0.89 68 15:38 10.10.2021
5357 Clear 16 1027 69 10000 1.34 90 13:42 10.10.2021
5358 Clear 14 1027 75 10000 1.79 68 12:44 10.10.2021
5359 Clear 14 1027 77 10000 0.45 90 12:23 10.10.2021
5360 Mist 11 1027 87 4300 1.54 0 10:37 10.10.2021
5361 Mist 8 1027 96 3000 0.45 68 09:27 10.10.2021
5362 Fog 8 1026 96 2000 0.45 90 08:52 10.10.2021
5363 Mist 8 1026 94 4000 0.51 320 06:36 10.10.2021
5364 Mist 10 1026 91 4500 0.45 68 02:28 10.10.2021
5365 Clear 11 1026 86 6000 0.45 68 00:54 10.10.2021
5366 Clear 11 1026 85 10000 0.45 68 23:52 09.10.2021
5367 Clear 11 1026 84 10000 0.45 68 23:52 09.10.2021
5368 Clear 12 1026 79 10000 0.45 45 22:39 09.10.2021
5369 Clear 13 1026 77 10000 2.06 10 21:31 09.10.2021
5370 Clear 13 1025 75 10000 2.57 10 20:59 09.10.2021
5371 Clear 13 1025 75 10000 2.57 10 20:59 09.10.2021
5372 Clear 15 1025 69 10000 0.89 68 19:42 09.10.2021
5373 Clear 16 1025 64 10000 1.34 68 18:57 09.10.2021
5374 Clear 17 1025 61 10000 1.79 45 18:32 09.10.2021
5375 Clear 18 1025 59 10000 2.24 45 16:28 09.10.2021
5376 Clear 18 1025 61 10000 1.79 68 14:57 09.10.2021
5377 Clear 16 1026 68 10000 2.24 68 13:41 09.10.2021
5378 Clear 15 1026 74 9000 1.34 45 12:38 09.10.2021
5379 Clear 13 1026 88 10000 1.34 45 11:33 09.10.2021
5380 Mist 12 1026 92 9000 2.57 10 10:38 09.10.2021
5381 Mist 10 1026 94 5000 1.34 45 09:35 09.10.2021
5382 Mist 9 1025 94 4800 1.34 68 08:28 09.10.2021
5383 Mist 9 1025 94 5000 0.89 68 07:37 09.10.2021
5384 Clear 10 1025 90 7000 0.89 68 05:28 09.10.2021
5385 Clear 11 1026 90 10000 0.89 23 02:49 09.10.2021
5386 Clear 12 1026 88 10000 0.89 68 00:58 09.10.2021
5387 Clear 13 1026 85 10000 0.89 68 23:36 08.10.2021
5388 Clear 13 1027 83 10000 0.45 45 22:53 08.10.2021
5389 Clear 14 1026 80 10000 0.89 68 21:50 08.10.2021
5390 Clear 15 1026 75 10000 0.89 68 20:36 08.10.2021
5391 Clear 18 1026 65 10000 2.24 23 18:50 08.10.2021
5392 Clear 19 1026 62 10000 2.68 45 17:28 08.10.2021
5393 Clear 19 1026 61 10000 1.79 68 16:48 08.10.2021
5394 Clear 19 1027 61 10000 2.68 68 16:22 08.10.2021
5395 Clear 18 1028 62 10000 1.79 68 13:55 08.10.2021
5396 Clear 16 1028 70 10000 2.68 45 12:47 08.10.2021
5397 Clear 13 1029 84 10000 1.34 68 11:31 08.10.2021
5398 Clouds 11 1029 93 7000 0.45 50 10:32 08.10.2021
5399 Mist 9 1028 94 4700 0.45 90 06:53 08.10.2021
5400 Clear 11 1028 83 10000 0.45 68 23:33 07.10.2021
5401 Clear 11 1027 85 10000 1.03 350 22:58 07.10.2021
5402 Clear 12 1028 80 10000 1.54 360 21:33 07.10.2021
5403 Clear 13 1028 78 10000 0.45 68 20:56 07.10.2021
5404 Clear 15 1027 70 10000 0.45 45 19:40 07.10.2021
5405 Clear 15 1027 71 10000 0.89 68 19:22 07.10.2021
5406 Clear 18 1026 62 10000 0.89 68 17:38 07.10.2021
5407 Clouds 18 1027 60 10000 0.45 68 16:43 07.10.2021
5408 Clouds 18 1027 63 10000 1.54 60 15:23 07.10.2021
5409 Clouds 17 1027 69 10000 0.89 68 13:45 07.10.2021
5410 Clouds 17 1028 71 10000 0.45 68 13:21 07.10.2021
5411 Clear 16 1028 76 10000 0.45 68 12:36 07.10.2021
5412 Clear 12 1028 91 10000 1.03 0 10:48 07.10.2021
5413 Clear 11 1028 91 10000 1.03 0 10:19 07.10.2021
5414 Clouds 8 1027 94 10000 1.03 10 08:56 07.10.2021
5415 Clouds 8 1027 95 10000 0 0 08:25 07.10.2021
5416 Clear 9 1027 92 10000 1.54 50 07:41 07.10.2021
5417 Clear 8 1027 92 10000 0.51 270 06:54 07.10.2021
5418 Clear 9 1026 90 10000 1.03 0 02:22 07.10.2021
5419 Clear 10 1026 87 10000 2.06 220 23:37 06.10.2021
5420 Clear 11 1025 82 10000 1.54 260 22:45 06.10.2021
5421 Clear 12 1025 80 10000 2.06 270 21:46 06.10.2021
5422 Clear 13 1024 73 10000 0.45 52 20:34 06.10.2021
5423 Clear 15 1023 67 10000 0.89 270 19:46 06.10.2021
5424 Clouds 16 1022 60 10000 1.34 270 18:33 06.10.2021
5425 Clouds 17 1022 57 10000 1.34 270 16:52 06.10.2021
5426 Clouds 17 1022 57 10000 1.34 270 15:26 06.10.2021
5427 Clouds 16 1021 64 10000 1.34 270 13:51 06.10.2021
5428 Clouds 16 1021 68 10000 1.34 248 12:55 06.10.2021
5429 Clouds 15 1021 71 10000 1.79 225 12:31 06.10.2021
5430 Clouds 14 1021 76 10000 1.34 270 11:49 06.10.2021
5431 Clear 11 1020 88 10000 1.34 225 09:58 06.10.2021
5432 Clear 10 1019 91 10000 2.68 217 09:38 06.10.2021
5433 Clear 10 1019 90 10000 0.89 225 08:42 06.10.2021
5434 Clear 10 1018 91 10000 4.02 221 06:48 06.10.2021
5435 Clear 10 1017 89 10000 0.89 180 05:26 06.10.2021
5436 Clear 11 1015 86 10000 3.13 220 00:26 06.10.2021
5437 Clear 11 1015 86 10000 1.34 225 23:52 05.10.2021
5438 Clear 11 1015 86 10000 1.34 225 23:52 05.10.2021
5439 Clouds 11 1014 86 10000 1.34 225 23:32 05.10.2021
5440 Clear 11 1014 86 10000 1.34 225 22:44 05.10.2021
5441 Clouds 12 1013 84 10000 1.34 225 21:58 05.10.2021
5442 Clouds 12 1013 84 10000 0.45 203 21:58 05.10.2021
5443 Clouds 12 1013 85 10000 0.89 225 21:36 05.10.2021
5444 Clouds 12 1012 83 10000 0.89 225 20:39 05.10.2021
5445 Clouds 12 1011 83 10000 1.34 225 20:20 05.10.2021
5446 Clouds 13 1011 75 10000 1.79 270 19:33 05.10.2021
5447 Clouds 15 1010 73 10000 1.34 225 18:49 05.10.2021
5448 Clouds 16 1008 71 10000 1.34 225 16:36 05.10.2021
5449 Clouds 16 1006 73 10000 1.34 270 14:30 05.10.2021
5450 Clouds 15 1006 84 10000 0.89 248 13:33 05.10.2021
5451 Drizzle 13 1005 94 10000 0.89 225 12:38 05.10.2021
5452 Mist 13 1005 94 10000 0.89 225 11:59 05.10.2021
5453 Mist 13 1004 95 5000 2.24 225 10:39 05.10.2021
5454 Mist 13 1004 95 5000 2.24 225 10:39 05.10.2021
5455 Clouds 13 1005 92 10000 1.34 225 08:44 05.10.2021
5456 Clouds 12 1010 92 10000 0.89 225 03:56 05.10.2021
5457 Clear 15 1012 81 10000 0.89 225 23:53 04.10.2021
5458 Clouds 15 1013 78 10000 0.45 203 21:59 04.10.2021
5459 Clouds 17 1014 71 10000 0.89 203 19:34 04.10.2021
5460 Clouds 18 1014 64 10000 1.34 225 18:26 04.10.2021
5461 Clouds 18 1015 63 10000 2.24 225 16:23 04.10.2021
5462 Clouds 18 1015 64 10000 1.79 225 15:31 04.10.2021
5463 Clouds 18 1015 70 10000 0.89 225 14:42 04.10.2021
5464 Clouds 17 1016 72 10000 1.79 225 13:48 04.10.2021
5465 Clouds 17 1016 75 10000 0.89 225 13:24 04.10.2021
5466 Clouds 14 1016 82 10000 1.34 225 11:35 04.10.2021
5467 Clear 12 1016 86 10000 0.89 225 10:48 04.10.2021
5468 Clear 11 1016 90 10000 1.34 225 09:58 04.10.2021
5469 Clear 9 1015 92 10000 0.45 225 08:39 04.10.2021
5470 Clear 9 1015 92 10000 3.09 140 06:56 04.10.2021
5471 Clear 12 1014 85 10000 0.89 225 00:29 04.10.2021
5472 Clear 13 1013 85 10000 1.34 225 22:34 03.10.2021
5473 Clear 13 1012 84 10000 1.34 225 21:38 03.10.2021
5474 Clear 13 1011 84 10000 0.89 225 20:59 03.10.2021
5475 Clouds 14 1010 82 10000 0.45 203 19:57 03.10.2021
5476 Clouds 15 1008 77 10000 0.89 225 18:34 03.10.2021
5477 Clouds 15 1008 74 10000 1.34 225 17:48 03.10.2021
5478 Clouds 15 1005 78 10000 0.89 270 15:57 03.10.2021
5479 Clouds 14 1004 86 10000 0.89 248 14:46 03.10.2021
5480 Clouds 13 1003 92 10000 1.34 225 13:58 03.10.2021
5481 Clouds 13 1001 94 10000 0.89 270 13:21 03.10.2021
5482 Drizzle 13 999 94 10000 1.34 270 12:28 03.10.2021
5483 Rain 15 996 96 10000 0.45 203 10:37 03.10.2021
5484 Mist 15 995 95 3500 2.06 290 08:36 03.10.2021
5485 Clouds 17 997 95 10000 1.34 225 01:30 03.10.2021
5486 Clouds 17 998 92 10000 1.79 225 22:40 02.10.2021
5487 Clouds 17 998 93 10000 1.79 203 20:56 02.10.2021
5488 Rain 17 999 92 10000 1.79 225 19:42 02.10.2021
5489 Clouds 16 1000 90 10000 1.34 225 18:52 02.10.2021
5490 Clouds 16 1001 90 10000 8.75 160 17:54 02.10.2021
5491 Clouds 16 1003 88 10000 7.2 160 17:21 02.10.2021
5492 Clouds 17 1005 79 10000 1.34 225 14:58 02.10.2021
5493 Clear 18 1025 48 10000 0.89 225 16:34 30.09.2021
5494 Clear 17 1026 52 10000 1.34 225 14:57 30.09.2021
5495 Clear 15 1028 62 10000 1.34 225 12:56 30.09.2021
5496 Clear 13 1028 72 10000 0.45 225 11:36 30.09.2021
5497 Clear 12 1029 80 10000 0.45 225 10:42 30.09.2021
5498 Clear 8 1028 89 10000 1.03 60 09:31 30.09.2021
5499 Clear 6 1028 94 10000 0.51 0 08:28 30.09.2021
5500 Clear 7 1028 90 10000 0 0 06:59 30.09.2021
5501 Clear 7 1028 91 10000 0.51 120 04:42 30.09.2021
5502 Clear 9 1028 83 10000 3.13 52 01:19 30.09.2021
5503 Clear 10 1028 82 10000 2.57 230 23:49 29.09.2021
5504 Clear 11 1028 77 10000 0.45 248 21:58 29.09.2021
5505 Clear 12 1027 72 10000 0.89 248 20:57 29.09.2021
5506 Clear 13 1027 69 10000 0.89 270 20:24 29.09.2021
5507 Clouds 14 1026 67 10000 0.89 248 19:43 29.09.2021
5508 Clouds 15 1025 60 10000 1.34 270 18:28 29.09.2021
5509 Clouds 16 1024 60 10000 0.89 248 17:33 29.09.2021
5510 Clouds 15 1024 62 10000 1.34 270 16:46 29.09.2021
5511 Clouds 16 1024 60 10000 2.68 37 15:48 29.09.2021
5512 Clouds 15 1023 67 10000 1.34 248 14:39 29.09.2021
5513 Clouds 16 1022 65 10000 1.79 40 13:41 29.09.2021
5514 Clouds 16 1021 67 10000 1.79 248 12:47 29.09.2021
5515 Clouds 15 1021 75 10000 1.79 248 11:39 29.09.2021
5516 Clouds 14 1020 87 10000 0.89 248 10:39 29.09.2021
5517 Clouds 13 1019 89 10000 0.89 225 09:48 29.09.2021
5518 Clouds 13 1019 91 10000 0.89 225 08:45 29.09.2021
5519 Rain 13 1017 90 9000 1.34 225 07:31 29.09.2021
5520 Clear 14 1016 78 10000 1.34 225 03:29 29.09.2021
5521 Clear 14 1018 69 10000 0.89 203 23:23 28.09.2021
5522 Clear 14 1018 70 10000 0.45 225 22:22 28.09.2021
5523 Clear 15 1018 70 10000 0.45 180 21:35 28.09.2021
5524 Clear 15 1018 67 10000 0.45 225 20:35 28.09.2021
5525 Clear 17 1018 62 10000 0.89 225 19:42 28.09.2021
5526 Clear 18 1019 58 10000 0.45 203 18:44 28.09.2021
5527 Clear 19 1019 55 10000 0.89 203 17:53 28.09.2021
5528 Clear 19 1020 59 10000 0.89 203 15:44 28.09.2021
5529 Clear 17 1022 65 10000 0.89 225 13:38 28.09.2021
5530 Clear 17 1022 70 10000 0.45 225 12:30 28.09.2021
5531 Clear 17 1022 70 10000 0.45 225 12:30 28.09.2021
5532 Clear 16 1022 76 10000 0.45 225 11:59 28.09.2021
5533 Clear 15 1023 80 10000 0.45 203 11:40 28.09.2021
5534 Clear 14 1023 84 10000 0.45 135 10:49 28.09.2021
5535 Clear 12 1022 90 10000 1.54 130 09:53 28.09.2021
5536 Clear 10 1023 95 10000 1.03 0 08:57 28.09.2021
5537 Clear 9 1023 96 10000 1.54 70 08:34 28.09.2021
5538 Clear 9 1023 93 10000 0.45 225 06:51 28.09.2021
5539 Clear 10 1023 91 10000 1.54 60 05:27 28.09.2021
5540 Clear 11 1023 88 10000 0.51 0 01:23 28.09.2021
5541 Clear 12 1023 85 10000 1.03 350 00:25 28.09.2021
5542 Clear 13 1022 82 10000 0.51 340 23:32 27.09.2021
5543 Clear 13 1022 82 10000 0.51 0 22:55 27.09.2021
5544 Clear 14 1021 80 10000 2.06 240 21:44 27.09.2021
5545 Clear 15 1020 71 10000 0.45 225 20:44 27.09.2021
5546 Clear 16 1020 69 10000 0.45 225 19:53 27.09.2021
5547 Clouds 17 1019 67 10000 0.45 225 19:27 27.09.2021
5548 Clouds 18 1019 63 10000 0.89 248 18:49 27.09.2021
5549 Clouds 19 1018 68 10000 0.45 225 17:29 27.09.2021
5550 Clouds 18 1017 76 10000 0.89 225 16:48 27.09.2021
5551 Clouds 17 1017 87 10000 0.45 225 15:44 27.09.2021
5552 Clouds 15 1016 92 10000 0.45 203 15:18 27.09.2021
5553 Rain 17 1014 94 7000 0.89 225 13:32 27.09.2021
5554 Drizzle 17 1014 94 10000 0.89 225 11:31 27.09.2021
5555 Clouds 16 1014 94 10000 0.45 225 10:36 27.09.2021
5556 Clouds 16 1014 93 10000 1.34 203 08:51 27.09.2021
5557 Clouds 16 1015 96 10000 0.89 203 05:22 27.09.2021
5558 Clear 16 1015 95 10000 0.45 225 03:21 27.09.2021
5559 Clear 17 1016 92 10000 0.45 225 22:38 26.09.2021
5560 Clouds 18 1016 91 10000 0.45 225 21:53 26.09.2021
5561 Clouds 18 1016 91 10000 0.45 225 21:25 26.09.2021
5562 Clouds 19 1015 86 10000 0.45 203 20:22 26.09.2021
5563 Clouds 19 1015 85 10000 0.89 225 19:52 26.09.2021
5564 Clouds 20 1015 83 10000 1.34 225 18:46 26.09.2021
5565 Clouds 21 1015 80 10000 0.45 225 17:57 26.09.2021
5566 Clouds 21 1015 82 10000 0.89 225 17:23 26.09.2021
5567 Clouds 21 1014 82 10000 0.45 135 16:57 26.09.2021
5568 Mist 21 1014 80 4800 0.45 328 16:20 26.09.2021
5569 Rain 21 1015 79 10000 0.45 113 15:22 26.09.2021
5570 Clouds 21 1015 76 10000 1.34 225 13:57 26.09.2021
5571 Clouds 21 1015 78 10000 0.89 225 13:29 26.09.2021
5572 Clouds 20 1015 81 10000 0.89 225 12:25 26.09.2021
5573 Clouds 19 1015 84 10000 1.34 225 11:51 26.09.2021
5574 Clouds 17 1015 93 10000 0.45 225 10:38 26.09.2021
5575 Mist 16 1015 96 10000 0.45 225 09:21 26.09.2021
5576 Mist 16 1014 96 10000 0.89 203 08:20 26.09.2021
5577 Clouds 18 1014 91 10000 0.45 203 00:28 26.09.2021
5578 Clouds 18 1013 89 10000 0.89 225 23:41 25.09.2021
5579 Clouds 19 1013 86 10000 0.89 225 22:39 25.09.2021
5580 Clouds 19 1013 84 10000 0.45 338 22:18 25.09.2021
5581 Clouds 20 1013 81 10000 1.54 360 21:36 25.09.2021
5582 Clouds 20 1013 78 10000 1.03 330 20:52 25.09.2021
5583 Clouds 22 1013 67 10000 0.45 135 19:33 25.09.2021
5584 Clear 23 1013 64 10000 0.45 20 18:27 25.09.2021
5585 Clear 23 1013 61 10000 0.45 68 17:19 25.09.2021
5586 Clear 23 1014 62 10000 2.57 60 14:25 25.09.2021
5587 Clear 22 1014 63 10000 0.45 180 13:54 25.09.2021
5588 Clear 20 1015 72 10000 0.45 68 12:36 25.09.2021
5589 Clear 15 1015 87 10000 1.54 40 10:36 25.09.2021
5590 Clear 14 1016 94 10000 1.54 0 09:59 25.09.2021
5591 Mist 11 1016 100 10000 1.03 350 08:52 25.09.2021
5592 Fog 11 1016 97 6000 0.45 45 07:46 25.09.2021
5593 Clear 15 1017 86 10000 0.45 68 00:52 25.09.2021
5594 Clear 16 1017 82 10000 0.45 68 21:58 24.09.2021
5595 Clear 17 1017 80 10000 0.89 45 21:25 24.09.2021
5596 Clear 18 1017 73 10000 2.06 330 20:31 24.09.2021
5597 Clear 21 1016 63 10000 2.57 310 19:29 24.09.2021
5598 Clear 23 1016 60 10000 0.45 225 18:18 24.09.2021
5599 Clear 22 1017 59 10000 0.45 225 17:42 24.09.2021
5600 Clear 22 1017 61 10000 0.45 203 17:23 24.09.2021
5601 Clear 21 1018 64 10000 0.45 225 15:38 24.09.2021
5602 Clouds 19 1019 73 10000 0.45 225 13:21 24.09.2021
5603 Clouds 19 1020 76 10000 0.45 203 12:43 24.09.2021
5604 Clouds 19 1019 77 10000 0.45 113 12:25 24.09.2021
5605 Clouds 16 1019 88 10000 0.45 203 10:49 24.09.2021
5606 Clouds 14 1019 93 10000 0.45 135 09:37 24.09.2021
5607 Mist 14 1019 96 5000 1.54 150 07:57 24.09.2021
5608 Mist 14 1019 95 7000 1.03 140 06:59 24.09.2021
5609 Mist 14 1019 95 4700 0.45 225 05:57 24.09.2021
5610 Mist 13 1020 94 10000 0.45 248 03:56 24.09.2021
5611 Clear 16 1020 78 10000 0.45 225 22:37 23.09.2021
5612 Clear 17 1020 75 10000 0.45 203 21:59 23.09.2021
5613 Clear 18 1020 69 10000 0.45 315 20:54 23.09.2021
5614 Clear 19 1020 65 10000 0.45 42 20:31 23.09.2021
5615 Clear 22 1020 52 10000 0.45 248 18:32 23.09.2021
5616 Clear 23 1020 49 10000 0.89 225 16:39 23.09.2021
5617 Clear 22 1021 54 10000 0.89 248 15:19 23.09.2021
5618 Clear 21 1021 54 10000 0.45 68 14:25 23.09.2021
5619 Clear 20 1022 60 10000 0.45 248 13:27 23.09.2021
5620 Clear 19 1022 60 10000 0.45 248 12:57 23.09.2021
5621 Clear 19 1022 64 10000 0.45 248 12:37 23.09.2021
5622 Clear 18 1022 66 10000 0.45 225 12:18 23.09.2021
5623 Clear 15 1023 81 10000 1.03 0 10:31 23.09.2021
5624 Clear 13 1023 85 10000 0.45 270 09:57 23.09.2021
5625 Clear 12 1023 90 10000 0 0 09:38 23.09.2021
5626 Clear 10 1022 89 10000 0.45 68 06:24 23.09.2021
5627 Clear 14 1025 79 10000 1.54 350 00:25 23.09.2021
5628 Clear 15 1024 74 10000 0.45 68 22:54 22.09.2021
5629 Clear 15 1025 71 10000 0.45 68 22:20 22.09.2021
5630 Clear 16 1024 70 10000 2.06 20 21:44 22.09.2021
5631 Clear 16 1025 69 10000 0.45 68 20:58 22.09.2021
5632 Clear 18 1024 60 10000 0.89 45 19:53 22.09.2021
5633 Clear 19 1024 58 10000 0.45 45 19:27 22.09.2021
5634 Clear 20 1025 52 10000 1.79 45 18:35 22.09.2021
5635 Clouds 21 1025 53 10000 1.34 68 17:33 22.09.2021
5636 Clouds 21 1026 53 10000 1.79 45 15:52 22.09.2021
5637 Clear 19 1027 52 10000 1.34 45 14:29 22.09.2021
5638 Clear 18 1028 55 10000 0.89 90 13:24 22.09.2021
5639 Clear 15 1029 75 10000 0.45 68 11:20 22.09.2021
5640 Clouds 11 1029 88 8000 0.89 68 09:35 22.09.2021
5641 Clouds 10 1028 90 6000 0.45 45 08:51 22.09.2021
5642 Clouds 10 1028 90 7000 0.89 45 07:41 22.09.2021
5643 Clouds 10 1028 89 7000 0.89 68 06:54 22.09.2021
5644 Clouds 11 1028 90 7000 0.45 90 05:49 22.09.2021
5645 Clouds 11 1028 88 7000 0.45 90 05:18 22.09.2021
5646 Clear 11 1029 87 9000 0.45 23 03:33 22.09.2021
5647 Clear 13 1030 83 10000 1.03 0 00:18 22.09.2021
5648 Clear 14 1029 81 10000 2.06 360 22:28 21.09.2021
5649 Clear 15 1029 78 10000 0.89 68 21:31 21.09.2021
5650 Clouds 17 1029 73 10000 1.79 45 19:38 21.09.2021
5651 Clouds 17 1029 69 10000 0.89 68 19:19 21.09.2021
5652 Clouds 18 1028 67 10000 4.63 50 16:58 21.09.2021
5653 Clouds 18 1028 67 10000 0.89 45 16:27 21.09.2021
5654 Clouds 18 1028 64 10000 1.34 40 15:25 21.09.2021
5655 Clouds 18 1028 62 10000 0.89 40 14:49 21.09.2021
5656 Clouds 17 1029 60 10000 2.24 23 13:40 21.09.2021
5657 Clear 16 1029 62 10000 3.58 68 12:58 21.09.2021
5658 Clouds 15 1028 55 10000 3.89 26 11:19 21.09.2021
5659 Clear 12 1028 78 10000 4.12 10 09:54 21.09.2021
5660 Mist 11 1027 89 5000 3.09 350 07:47 21.09.2021
5661 Clouds 12 1026 89 7000 4.12 350 06:18 21.09.2021
5662 Mist 16 1024 92 6000 2.06 360 23:58 20.09.2021
5663 Clouds 17 1023 92 7000 2.06 320 21:58 20.09.2021
5664 Clouds 17 1023 92 9000 1.54 330 21:32 20.09.2021
5665 Clouds 18 1022 83 10000 0.45 248 20:27 20.09.2021
5666 Clouds 19 1021 79 10000 0.45 203 19:24 20.09.2021
5667 Clouds 20 1020 76 10000 0.45 270 17:39 20.09.2021
5668 Clouds 20 1020 71 10000 0.45 270 16:27 20.09.2021
5669 Clouds 20 1020 76 10000 0.45 248 15:47 20.09.2021
5670 Clouds 19 1020 78 10000 0.45 225 15:18 20.09.2021
5671 Clouds 18 1019 84 10000 0.45 203 13:43 20.09.2021
5672 Clouds 17 1019 88 10000 0.45 225 12:35 20.09.2021
5673 Clouds 17 1019 92 10000 0.45 248 11:19 20.09.2021
5674 Clouds 15 1018 96 10000 0.45 248 09:55 20.09.2021
5675 Mist 15 1018 96 10000 0.45 44 09:34 20.09.2021
5676 Mist 15 1018 96 10000 0.45 270 08:58 20.09.2021
5677 Clouds 14 1017 96 10000 1.03 240 06:51 20.09.2021
5678 Clouds 16 1017 87 10000 0.45 248 23:45 19.09.2021
5679 Clouds 17 1016 87 10000 0.89 248 22:21 19.09.2021
5680 Clouds 17 1016 85 10000 0.45 225 21:39 19.09.2021
5681 Clouds 18 1015 83 10000 1.34 270 20:34 19.09.2021
5682 Clear 21 1014 61 10000 2.57 360 19:18 19.09.2021
5683 Clear 22 1013 60 10000 1.79 68 18:26 19.09.2021
5684 Clear 22 1013 60 10000 1.34 45 17:22 19.09.2021
5685 Clouds 22 1013 62 10000 1.79 68 15:55 19.09.2021
5686 Clouds 22 1013 62 10000 1.79 68 15:55 19.09.2021
5687 Clouds 22 1013 63 10000 1.34 45 15:29 19.09.2021
5688 Clouds 22 1013 65 10000 0.45 68 14:46 19.09.2021
5689 Clear 20 1013 72 10000 0.45 248 13:21 19.09.2021
5690 Clear 20 1013 74 10000 0.89 45 12:50 19.09.2021
5691 Clear 18 1013 80 10000 0.45 270 11:27 19.09.2021
5692 Clouds 17 1012 83 10000 0.45 68 10:47 19.09.2021
5693 Clear 16 1012 87 10000 0.45 68 09:40 19.09.2021
5694 Clear 15 1011 89 10000 0.89 68 08:31 19.09.2021
5695 Clear 16 1011 90 10000 1.34 68 06:41 19.09.2021
5696 Clear 18 1012 84 10000 1.54 280 23:38 18.09.2021
5697 Clear 18 1012 82 10000 2.57 270 22:23 18.09.2021
5698 Clear 20 1012 76 10000 0.89 225 20:52 18.09.2021
5699 Clear 20 1012 76 10000 0.89 225 20:52 18.09.2021
5700 Clear 20 1012 70 10000 0.45 68 20:32 18.09.2021
5701 Clear 22 1012 64 10000 0.45 135 19:39 18.09.2021
5702 Clear 22 1012 63 10000 0.45 135 19:20 18.09.2021
5703 Clear 23 1012 61 10000 0.45 135 18:32 18.09.2021
5704 Clear 24 1012 57 10000 0.89 68 17:34 18.09.2021
5705 Clear 24 1013 56 10000 0.89 45 16:20 18.09.2021
5706 Clouds 23 1013 58 10000 0.45 158 13:49 18.09.2021
5707 Clouds 23 1014 60 10000 0.89 135 13:29 18.09.2021
5708 Clouds 22 1014 63 10000 0.45 135 12:49 18.09.2021
5709 Clear 19 1014 70 10000 1.34 68 11:41 18.09.2021
5710 Clear 18 1014 77 10000 2.06 70 10:32 18.09.2021
5711 Clear 16 1014 85 10000 0.45 45 09:35 18.09.2021
5712 Clear 16 1014 85 10000 0.45 45 09:35 18.09.2021
5713 Clear 15 1014 84 10000 0.45 68 08:59 18.09.2021
5714 Clouds 15 1013 86 10000 0.89 68 05:51 18.09.2021
5715 Clouds 16 1014 81 10000 2.15 94 00:42 18.09.2021
5716 Clear 17 1014 80 10000 2.13 94 23:50 17.09.2021
5717 Clear 17 1014 72 10000 2.06 60 22:38 17.09.2021
5718 Clear 17 1014 72 10000 2.06 60 22:19 17.09.2021
5719 Clear 18 1014 68 10000 2.06 100 21:23 17.09.2021
5720 Clear 21 1013 59 10000 0.45 45 19:23 17.09.2021
5721 Clear 23 1014 56 10000 0.89 113 17:25 17.09.2021
5722 Clouds 23 1014 56 10000 0.89 68 16:27 17.09.2021
5723 Clouds 22 1015 59 10000 0.45 135 14:23 17.09.2021
5724 Clear 18 1016 77 10000 0.45 225 10:53 17.09.2021
5725 Clear 14 1016 93 10000 0.45 45 08:54 17.09.2021
5726 Clear 12 1016 93 9000 0.45 45 07:33 17.09.2021
5727 Clear 14 1017 91 10000 0.89 68 03:54 17.09.2021
5728 Clear 16 1018 84 10000 1.03 360 23:35 16.09.2021
5729 Clear 16 1018 79 10000 1.54 340 22:33 16.09.2021
5730 Clear 17 1018 76 10000 2.06 40 21:52 16.09.2021
5731 Clear 18 1018 74 10000 2.06 350 21:26 16.09.2021
5732 Clear 19 1017 67 10000 2.06 360 20:19 16.09.2021
5733 Clear 21 1018 60 10000 0.89 68 18:21 16.09.2021
5734 Clear 21 1017 59 10000 1.79 68 17:54 16.09.2021
5735 Clouds 21 1018 60 10000 0.89 45 14:59 16.09.2021
5736 Clouds 21 1018 59 10000 0.45 225 14:26 16.09.2021
5737 Clouds 20 1018 63 10000 0.89 68 12:52 16.09.2021
5738 Clear 20 1019 63 10000 0.89 45 12:33 16.09.2021
5739 Clear 19 1019 70 10000 1.79 0 11:28 16.09.2021
5740 Clear 18 1019 78 10000 0.89 45 10:34 16.09.2021
5741 Clear 17 1019 85 10000 0.45 45 09:59 16.09.2021
5742 Clouds 15 1018 91 10000 1.34 45 08:43 16.09.2021
5743 Clouds 15 1018 92 10000 0.45 68 07:43 16.09.2021
5744 Clouds 15 1017 92 10000 0.45 68 06:54 16.09.2021
5745 Clouds 15 1017 92 10000 1.79 45 05:57 16.09.2021
5746 Clouds 16 1016 88 10000 1.79 45 01:57 16.09.2021
5747 Clouds 17 1016 85 10000 0.45 43 00:45 16.09.2021
5748 Clouds 18 1016 86 10000 0.89 23 22:47 15.09.2021
5749 Clouds 19 1015 88 10000 1.34 68 21:56 15.09.2021
5750 Clouds 19 1015 89 10000 0.89 68 21:30 15.09.2021
5751 Clouds 19 1015 89 10000 0.89 68 21:30 15.09.2021
5752 Clouds 19 1015 89 10000 0.89 68 21:30 15.09.2021
5753 Clouds 20 1014 88 10000 0.89 68 20:23 15.09.2021
5754 Clouds 20 1014 88 10000 0.45 45 19:29 15.09.2021
5755 Clouds 20 1013 89 8000 0.89 68 18:25 15.09.2021
5756 Mist 20 1013 93 7000 3.6 330 17:26 15.09.2021
5757 Mist 20 1013 94 8000 3.6 340 16:27 15.09.2021
5758 Rain 21 1012 91 10000 3.09 350 14:46 15.09.2021
5759 Clouds 22 1012 92 10000 1.54 0 14:24 15.09.2021
5760 Fog 21 1011 94 700 1.03 0 13:40 15.09.2021
5761 Clouds 21 1011 95 10000 1.54 150 13:21 15.09.2021
5762 Clouds 20 1011 96 6000 2.57 140 12:21 15.09.2021
5763 Clouds 20 1011 96 6000 0.45 215 11:47 15.09.2021
5764 Clouds 19 1011 97 9000 2.06 120 10:56 15.09.2021
5765 Clouds 19 1011 96 6000 0.51 0 09:31 15.09.2021
5766 Drizzle 19 1010 97 10000 1.54 160 08:41 15.09.2021
5767 Clouds 19 1010 96 10000 2.57 130 05:55 15.09.2021
5768 Clouds 20 1011 94 9000 1.54 330 23:56 14.09.2021
5769 Clouds 21 1011 92 10000 1.54 360 21:58 14.09.2021
5770 Clouds 21 1011 92 10000 1.54 0 20:56 14.09.2021
5771 Clouds 22 1010 88 10000 2.06 150 19:54 14.09.2021
5772 Clouds 25 1010 70 10000 0.45 225 18:24 14.09.2021
5773 Clouds 25 1010 68 10000 0.45 158 17:28 14.09.2021
5774 Clouds 26 1011 66 10000 1.79 222 15:58 14.09.2021
5775 Clear 24 1011 75 10000 0.89 203 14:32 14.09.2021
5776 Clear 24 1011 76 10000 0.89 225 14:32 14.09.2021
5777 Clouds 22 1012 87 10000 0.89 203 13:26 14.09.2021
5778 Clouds 19 1012 96 10000 0.45 225 10:57 14.09.2021
5779 Clouds 18 1011 95 7000 0.89 135 09:51 14.09.2021
5780 Clouds 18 1012 93 10000 1.34 225 09:18 14.09.2021
5781 Clouds 18 1010 93 10000 0.45 135 07:25 14.09.2021
5782 Clear 20 1012 76 10000 0.45 135 00:56 14.09.2021
5783 Clear 20 1012 73 10000 0.45 45 22:58 13.09.2021
5784 Clear 21 1013 71 10000 0.45 90 22:27 13.09.2021
5785 Clear 21 1013 69 10000 0.45 68 21:54 13.09.2021
5786 Clear 22 1013 64 10000 0.45 68 21:19 13.09.2021
5787 Clear 24 1013 57 10000 0.45 113 19:34 13.09.2021
5788 Clear 25 1013 53 10000 0.89 68 18:43 13.09.2021
5789 Clear 26 1013 52 10000 0.89 135 17:18 13.09.2021
5790 Clouds 26 1014 54 10000 0.89 113 15:55 13.09.2021
5791 Clear 25 1015 56 10000 1.34 135 14:30 13.09.2021
5792 Clear 20 1016 69 10000 0.89 45 11:21 13.09.2021
5793 Clear 17 1016 80 10000 1.34 23 09:54 13.09.2021
5794 Clouds 13 1016 89 10000 0.89 45 07:46 13.09.2021
5795 Clear 16 1018 73 10000 1.54 360 23:50 12.09.2021
5796 Clear 17 1018 70 10000 0.45 45 22:42 12.09.2021
5797 Clear 17 1018 70 10000 2.57 30 22:20 12.09.2021
5798 Clouds 19 1017 63 10000 1.34 45 20:41 12.09.2021
5799 Clear 20 1016 62 10000 1.34 45 19:56 12.09.2021
5800 Clouds 21 1016 58 10000 1.34 68 19:29 12.09.2021
5801 Clear 22 1017 56 10000 0.89 68 18:50 12.09.2021
5802 Clouds 22 1017 55 10000 2.57 290 16:58 12.09.2021
5803 Clouds 22 1018 55 10000 0.45 248 15:37 12.09.2021
5804 Clouds 22 1018 55 10000 0.89 270 14:32 12.09.2021
5805 Clear 19 1019 65 10000 0.89 68 11:49 12.09.2021
5806 Clear 17 1019 77 10000 0.45 248 10:19 12.09.2021
5807 Clouds 13 1019 88 10000 0.45 293 08:38 12.09.2021
5808 Clear 14 1019 83 10000 1.03 10 04:59 12.09.2021
5809 Clouds 15 1019 77 10000 1.03 10 00:46 12.09.2021
5810 Clear 17 1019 67 10000 1.03 350 22:29 11.09.2021
5811 Clear 18 1019 65 10000 0.45 248 21:38 11.09.2021
5812 Clear 21 1018 60 10000 0.45 248 19:34 11.09.2021
5813 Clouds 22 1018 58 10000 0.89 225 17:56 11.09.2021
5814 Clouds 22 1019 59 10000 0.45 214 16:41 11.09.2021
5815 Clouds 21 1019 61 10000 0.89 270 14:45 11.09.2021
5816 Clouds 21 1019 64 10000 1.34 203 13:22 11.09.2021
5817 Clouds 19 1020 70 10000 0.89 248 11:40 11.09.2021
5818 Clouds 16 1019 87 10000 0.45 248 09:42 11.09.2021
5819 Clear 14 1019 93 10000 0.89 248 08:31 11.09.2021
5820 Clear 14 1018 93 10000 1.54 260 07:34 11.09.2021
5821 Clouds 16 1018 91 10000 0.89 248 02:29 11.09.2021
5822 Clear 19 1016 86 10000 0.45 225 22:27 10.09.2021
5823 Clouds 19 1016 85 10000 0.89 225 21:56 10.09.2021
5824 Clouds 19 1015 85 10000 0.45 248 21:25 10.09.2021
5825 Clouds 22 1014 78 10000 0.89 203 18:43 10.09.2021
5826 Clouds 24 1013 70 10000 0.45 203 17:42 10.09.2021
5827 Clouds 23 1013 76 10000 0.45 225 15:38 10.09.2021
5828 Clouds 23 1013 71 10000 0.45 225 13:18 10.09.2021
5829 Clouds 20 1013 88 10000 0.89 225 10:32 10.09.2021
5830 Clouds 19 1012 90 10000 2.06 220 07:51 10.09.2021
5831 Clouds 19 1012 90 10000 0.89 203 04:33 10.09.2021
5832 Clear 20 1011 84 10000 0.45 225 23:24 09.09.2021
5833 Clear 20 1011 82 10000 1.54 160 21:47 09.09.2021
5834 Clouds 21 1011 82 10000 3.09 200 20:47 09.09.2021
5835 Clouds 21 1010 81 10000 3.09 220 20:23 09.09.2021
5836 Clouds 21 1010 81 10000 3.09 220 20:23 09.09.2021
5837 Clouds 25 1010 58 10000 1.79 225 18:37 09.09.2021
5838 Clear 26 1010 57 10000 1.34 203 17:41 09.09.2021
5839 Clouds 26 1010 59 10000 0.89 225 16:27 09.09.2021
5840 Clouds 25 1011 72 10000 0.89 248 13:35 09.09.2021
5841 Clouds 21 1011 90 10000 0.89 225 11:50 09.09.2021
5842 Mist 21 1011 93 8000 0.45 203 10:54 09.09.2021
5843 Mist 20 1011 95 6000 0.45 203 09:27 09.09.2021
5844 Mist 20 1010 95 9000 1.54 240 06:55 09.09.2021
5845 Clouds 21 1010 94 10000 0.89 225 04:18 09.09.2021
5846 Clear 23 1010 81 10000 1.54 290 22:58 08.09.2021
5847 Clouds 25 1009 69 10000 0.89 223 21:47 08.09.2021
5848 Clear 27 1009 61 10000 1.34 225 20:37 08.09.2021
5849 Clear 29 1010 51 10000 2.06 160 19:44 08.09.2021
5850 Clear 30 1009 50 10000 0.45 135 18:34 08.09.2021
5851 Clear 30 1009 49 10000 0.89 90 17:58 08.09.2021
5852 Clear 30 1009 48 10000 0.45 90 17:39 08.09.2021
5853 Clear 29 1011 50 10000 1.34 135 14:57 08.09.2021
5854 Clear 27 1011 54 10000 1.34 45 13:28 08.09.2021
5855 Clear 26 1012 55 10000 0.89 45 12:41 08.09.2021
5856 Clear 25 1012 57 10000 0.89 135 12:22 08.09.2021
5857 Clear 23 1012 61 10000 1.34 45 11:26 08.09.2021
5858 Clear 21 1012 64 10000 0.45 113 10:31 08.09.2021
5859 Clear 20 1012 69 10000 0.45 113 09:37 08.09.2021
5860 Clear 17 1013 72 10000 0.45 90 07:44 08.09.2021
5861 Clear 18 1013 69 10000 1.54 30 06:40 08.09.2021
5862 Clear 23 1016 52 10000 0.89 68 23:18 07.09.2021
5863 Clear 24 1016 51 10000 0.89 68 22:19 07.09.2021
5864 Clear 26 1016 45 10000 0.45 68 20:41 07.09.2021
5865 Clear 29 1017 36 10000 0.89 135 18:53 07.09.2021
5866 Clear 29 1017 36 10000 0.89 135 18:25 07.09.2021
5867 Clear 30 1017 35 10000 1.79 68 17:22 07.09.2021
5868 Clear 30 1019 35 10000 1.34 135 15:56 07.09.2021
5869 Clear 29 1019 37 10000 1.79 135 14:48 07.09.2021
5870 Clear 28 1020 40 10000 1.34 135 13:50 07.09.2021
5871 Clear 26 1021 49 10000 1.34 135 11:58 07.09.2021
5872 Clear 23 1021 57 10000 1.34 68 10:48 07.09.2021
5873 Clear 20 1021 67 10000 2.06 360 09:40 07.09.2021
5874 Clear 16 1021 80 10000 0.89 45 07:46 07.09.2021
5875 Clear 17 1021 75 10000 0.45 68 06:19 07.09.2021
5876 Clear 19 1022 67 10000 1.03 40 02:38 07.09.2021
5877 Clear 20 1022 60 10000 0.45 45 00:55 07.09.2021
5878 Clear 22 1022 57 10000 0.89 45 23:46 06.09.2021
5879 Clear 22 1022 57 10000 0.89 45 23:28 06.09.2021
5880 Clear 22 1022 59 10000 0.45 45 22:49 06.09.2021
5881 Clear 23 1022 60 10000 0.45 68 21:55 06.09.2021
5882 Clear 26 1021 54 10000 0.45 68 20:34 06.09.2021
5883 Clear 28 1021 45 10000 0.45 158 19:18 06.09.2021
5884 Clear 29 1021 44 10000 0.89 135 18:33 06.09.2021
5885 Clear 29 1021 43 10000 0.89 113 17:50 06.09.2021
5886 Clear 29 1022 45 10000 0.89 45 16:20 06.09.2021
5887 Clear 29 1022 47 10000 0.45 135 14:59 06.09.2021
5888 Clear 27 1023 47 10000 0.45 113 12:50 06.09.2021
5889 Clear 26 1023 52 10000 0.89 68 11:52 06.09.2021
5890 Clear 22 1023 69 10000 0.89 45 10:27 06.09.2021
5891 Clear 17 1022 84 10000 1.54 10 07:39 06.09.2021
5892 Clear 19 1021 77 10000 2.06 350 03:34 06.09.2021
5893 Clear 22 1020 71 10000 0.45 45 23:22 05.09.2021
5894 Clear 23 1020 69 10000 0.89 45 22:32 05.09.2021
5895 Clear 23 1019 68 10000 2.57 50 21:55 05.09.2021
5896 Clouds 24 1019 66 10000 3.09 60 21:20 05.09.2021
5897 Clear 27 1018 59 10000 2.68 45 19:45 05.09.2021
5898 Clouds 28 1018 53 10000 2.06 70 17:52 05.09.2021
5899 Clear 28 1018 52 10000 0.89 23 15:58 05.09.2021
5900 Clouds 28 1018 56 10000 0.45 135 15:19 05.09.2021
5901 Clear 26 1018 65 10000 0.45 113 12:44 05.09.2021
5902 Clear 23 1018 74 10000 0.45 68 11:31 05.09.2021
5903 Clear 21 1018 81 10000 0.45 23 10:40 05.09.2021
5904 Clear 19 1018 89 10000 0.45 68 09:34 05.09.2021
5905 Clear 18 1017 92 10000 1.54 20 08:31 05.09.2021
5906 Clear 19 1016 90 10000 0.51 0 05:47 05.09.2021
5907 Clouds 20 1016 83 10000 1.03 320 00:39 05.09.2021
5908 Clear 20 1016 83 10000 0.45 22 23:56 04.09.2021
5909 Clear 21 1016 83 10000 0.89 68 23:24 04.09.2021
5910 Clear 22 1015 80 10000 0.89 45 22:35 04.09.2021
5911 Clouds 23 1015 73 10000 2.06 350 20:58 04.09.2021
5912 Clouds 25 1014 65 10000 0.45 158 19:33 04.09.2021
5913 Thunderstorm 26 1014 61 10000 0.89 68 17:25 04.09.2021
5914 Clear 26 1015 61 10000 2.57 80 14:37 04.09.2021
5915 Clear 23 1015 76 10000 1.03 0 11:37 04.09.2021
5916 Clouds 22 1015 78 10000 0.45 90 10:55 04.09.2021
5917 Clear 18 1015 87 10000 0.45 68 08:18 04.09.2021
5918 Clear 20 1015 76 10000 1.54 320 00:50 04.09.2021
5919 Clear 21 1015 73 10000 1.03 0 00:19 04.09.2021
5920 Clear 22 1016 70 10000 2.57 20 23:21 03.09.2021
5921 Clear 23 1015 64 10000 0.89 45 21:43 03.09.2021
5922 Clear 24 1015 63 10000 2.57 20 21:23 03.09.2021
5923 Clear 25 1015 58 10000 1.54 50 20:30 03.09.2021
5924 Clear 27 1015 50 10000 0.45 0 19:38 03.09.2021
5925 Clouds 28 1015 50 10000 0.45 45 18:33 03.09.2021
5926 Clear 28 1015 48 10000 0.45 158 17:21 03.09.2021
5927 Clear 27 1017 51 10000 0.45 68 15:42 03.09.2021
5928 Clear 26 1017 54 10000 0.89 135 14:40 03.09.2021
5929 Clear 20 1018 68 10000 1.34 45 11:21 03.09.2021
5930 Clear 17 1018 78 10000 2.06 30 09:55 03.09.2021
5931 Mist 14 1019 89 4800 1.34 68 08:22 03.09.2021
5932 Clear 14 1018 90 6000 1.34 23 06:50 03.09.2021
5933 Clear 18 1020 71 10000 1.34 68 23:58 02.09.2021
5934 Clear 19 1021 62 10000 0.89 68 22:21 02.09.2021
5935 Clear 21 1020 54 10000 0.45 45 20:59 02.09.2021
5936 Clear 25 1020 44 10000 2.68 45 18:52 02.09.2021
5937 Clear 25 1021 48 10000 1.79 68 16:39 02.09.2021
5938 Clear 24 1022 49 10000 1.79 45 15:32 02.09.2021
5939 Clear 22 1023 58 10000 0.45 36 13:42 02.09.2021
5940 Clear 19 1023 66 10000 5.14 40 11:46 02.09.2021
5941 Clear 18 1023 71 10000 1.79 68 11:24 02.09.2021
5942 Clear 14 1024 85 9000 2.24 45 09:20 02.09.2021
5943 Clear 12 1024 89 9000 2.24 45 07:40 02.09.2021
5944 Clear 12 1024 87 10000 1.34 45 06:40 02.09.2021
5945 Clear 14 1025 82 10000 1.79 68 02:38 02.09.2021
5946 Clear 14 1025 82 10000 2.24 45 01:50 02.09.2021
5947 Clear 16 1025 76 10000 3.13 45 23:41 01.09.2021
5948 Clear 16 1025 76 10000 2.68 45 23:23 01.09.2021
5949 Clear 17 1025 72 10000 3.13 45 22:30 01.09.2021
5950 Clear 17 1025 72 10000 3.13 45 22:30 01.09.2021
5951 Clear 18 1024 70 10000 2.68 45 21:32 01.09.2021
5952 Clouds 21 1024 61 10000 4.47 45 19:38 01.09.2021
5953 Clouds 23 1024 55 10000 2.68 68 17:57 01.09.2021
5954 Clouds 23 1025 55 10000 2.68 68 17:18 01.09.2021
5955 Clouds 23 1025 56 10000 2.68 68 16:46 01.09.2021
5956 Clouds 22 1026 57 10000 2.24 45 15:18 01.09.2021
5957 Clouds 18 1027 75 10000 2.68 45 11:48 01.09.2021
5958 Clouds 16 1027 82 10000 1.34 45 10:39 01.09.2021
5959 Clouds 15 1027 86 10000 2.24 45 08:46 01.09.2021
5960 Clouds 15 1027 88 10000 2.68 45 07:50 01.09.2021
5961 Clear 17 1025 67 10000 0.89 45 23:40 31.08.2021
5962 Clear 18 1025 63 10000 1.79 45 22:24 31.08.2021
5963 Clear 21 1024 56 10000 3.58 45 20:34 31.08.2021
5964 Clear 22 1024 53 10000 2.68 45 19:43 31.08.2021
5965 Clouds 23 1024 51 10000 2.68 45 17:53 31.08.2021
5966 Clouds 23 1024 52 10000 2.68 45 17:53 31.08.2021
5967 Clouds 23 1024 52 10000 1.79 45 17:27 31.08.2021
5968 Clouds 23 1024 53 10000 3.13 45 16:41 31.08.2021
5969 Clouds 23 1024 55 10000 3.58 68 15:56 31.08.2021
5970 Clouds 21 1024 67 10000 2.68 45 12:54 31.08.2021
5971 Clouds 18 1024 77 10000 2.24 68 11:20 31.08.2021
5972 Clouds 18 1024 79 10000 1.79 45 10:45 31.08.2021
5973 Clouds 17 1024 83 10000 2.24 68 09:43 31.08.2021
5974 Clouds 16 1023 86 10000 1.34 45 08:23 31.08.2021
5975 Clouds 16 1023 86 10000 0.89 68 05:57 31.08.2021
5976 Clouds 17 1022 83 10000 1.34 68 00:23 31.08.2021
5977 Clouds 18 1022 85 10000 2.24 68 23:25 30.08.2021
5978 Clear 18 1021 79 10000 1.34 68 21:42 30.08.2021
5979 Clear 20 1021 74 10000 1.79 68 20:42 30.08.2021
5980 Clouds 20 1020 71 10000 2.24 68 19:55 30.08.2021
5981 Clouds 21 1020 67 10000 2.68 90 19:28 30.08.2021
5982 Clouds 22 1021 63 10000 2.68 68 18:23 30.08.2021
5983 Clouds 22 1020 63 10000 2.24 68 16:49 30.08.2021
5984 Clouds 21 1020 65 10000 3.13 68 15:50 30.08.2021
5985 Clouds 20 1021 69 10000 2.68 45 14:37 30.08.2021
5986 Clouds 20 1021 71 10000 2.68 68 13:22 30.08.2021
5987 Clouds 19 1021 76 10000 3.13 68 11:56 30.08.2021
5988 Drizzle 16 1020 93 10000 1.34 68 08:23 30.08.2021
5989 Clear 17 1021 72 10000 2.24 45 22:18 29.08.2021
5990 Clear 17 1020 71 10000 1.79 68 21:25 29.08.2021
5991 Clear 18 1020 69 10000 2.24 68 19:32 29.08.2021
5992 Clouds 19 1020 68 10000 0.89 68 18:30 29.08.2021
5993 Clouds 19 1021 67 10000 1.79 68 16:33 29.08.2021
5994 Clouds 19 1021 68 10000 1.34 68 15:25 29.08.2021
5995 Clouds 19 1021 69 10000 2.24 68 13:57 29.08.2021
5996 Clouds 18 1022 74 10000 0.89 68 12:58 29.08.2021
5997 Clouds 17 1022 78 10000 1.34 68 12:19 29.08.2021
5998 Clouds 17 1022 81 10000 1.79 68 11:41 29.08.2021
5999 Clouds 16 1022 83 10000 1.34 68 10:49 29.08.2021
6000 Clouds 16 1022 85 10000 1.79 68 10:30 29.08.2021
6001 Clouds 15 1022 87 10000 2.24 68 09:44 29.08.2021
6002 Clouds 14 1022 88 10000 0.89 45 06:38 29.08.2021
6003 Clear 17 1022 76 10000 0.45 248 23:33 28.08.2021
6004 Clear 19 1021 68 10000 0.89 68 20:46 28.08.2021
6005 Clouds 20 1021 68 10000 1.34 68 19:43 28.08.2021
6006 Clouds 21 1020 63 10000 1.34 225 18:27 28.08.2021
6007 Clouds 21 1021 63 10000 1.79 68 17:47 28.08.2021
6008 Clear 21 1021 64 10000 0.89 45 16:57 28.08.2021
6009 Clouds 21 1021 60 10000 1.34 68 15:27 28.08.2021
6010 Clouds 20 1021 66 10000 2.24 68 14:18 28.08.2021
6011 Clouds 20 1021 68 10000 1.34 68 13:42 28.08.2021
6012 Clouds 19 1022 74 10000 1.34 45 12:40 28.08.2021
6013 Clouds 17 1022 79 10000 2.24 68 11:48 28.08.2021
6014 Clouds 15 1022 86 10000 1.34 68 10:18 28.08.2021
6015 Clouds 13 1021 90 10000 3.6 340 08:36 28.08.2021
6016 Clear 12 1021 88 10000 0.45 90 05:22 28.08.2021
6017 Clouds 18 1020 68 10000 1.34 68 21:59 27.08.2021
6018 Clouds 19 1020 62 10000 0.45 45 20:55 27.08.2021
6019 Clear 20 1019 58 10000 0.45 90 19:57 27.08.2021
6020 Clear 21 1019 52 10000 0.89 68 18:39 27.08.2021
6021 Clouds 21 1019 51 10000 0.89 68 18:20 27.08.2021
6022 Clouds 22 1019 50 10000 2.68 45 16:47 27.08.2021
6023 Clouds 21 1019 51 10000 3.58 42 15:21 27.08.2021
6024 Clouds 21 1020 52 10000 1.34 0 14:37 27.08.2021
6025 Clouds 20 1020 58 10000 3.13 68 12:28 27.08.2021
6026 Clouds 18 1020 69 10000 3.13 68 11:23 27.08.2021
6027 Clouds 17 1020 78 10000 0.89 45 10:41 27.08.2021
6028 Clouds 15 1020 85 10000 1.34 45 09:26 27.08.2021
6029 Clouds 14 1019 86 10000 0.89 68 08:38 27.08.2021
6030 Clouds 14 1018 84 10000 0.45 248 05:52 27.08.2021
6031 Clear 16 1019 73 10000 0.45 315 00:50 27.08.2021
6032 Clear 16 1019 73 10000 1.34 23 00:28 27.08.2021
6033 Clear 17 1019 70 10000 0.89 45 22:28 26.08.2021
6034 Clouds 17 1018 68 10000 0.89 338 21:57 26.08.2021
6035 Clear 19 1018 58 10000 1.34 68 19:54 26.08.2021
6036 Clear 21 1017 53 10000 0.89 270 18:42 26.08.2021
6037 Clear 21 1017 54 10000 2.24 68 17:28 26.08.2021
6038 Clear 21 1017 60 10000 0.89 68 16:32 26.08.2021
6039 Clouds 21 1018 66 10000 1.34 270 15:37 26.08.2021
6040 Clouds 19 1018 80 10000 0.45 42 13:29 26.08.2021
6041 Clouds 19 1018 81 10000 0.45 41 12:49 26.08.2021
6042 Clouds 18 1018 84 10000 0.45 68 11:51 26.08.2021
6043 Clouds 15 1018 87 10000 1.79 43 09:40 26.08.2021
6044 Clouds 14 1018 89 10000 0.45 43 08:27 26.08.2021
6045 Clear 17 1019 75 10000 0.89 68 01:30 26.08.2021
6046 Clear 19 1019 60 10000 0.45 45 22:47 25.08.2021
6047 Clear 20 1019 60 10000 0.45 45 22:28 25.08.2021
6048 Clear 22 1018 53 10000 1.79 45 20:58 25.08.2021
6049 Clear 22 1018 51 10000 2.24 45 20:31 25.08.2021
6050 Clear 23 1018 49 10000 1.79 45 19:55 25.08.2021
6051 Clear 24 1018 46 10000 0.89 45 18:32 25.08.2021
6052 Clear 24 1019 45 10000 0.45 45 16:31 25.08.2021
6053 Clear 24 1019 45 10000 1.34 23 15:42 25.08.2021
6054 Clear 23 1020 48 10000 2.68 45 14:47 25.08.2021
6055 Clear 23 1020 51 10000 0.89 45 13:59 25.08.2021
6056 Clear 22 1021 54 10000 2.24 45 12:53 25.08.2021
6057 Clear 19 1021 64 10000 0.89 45 11:25 25.08.2021
6058 Clear 20 1021 64 10000 2.24 68 11:25 25.08.2021
6059 Clear 18 1022 69 10000 0.89 45 10:26 25.08.2021
6060 Clear 17 1022 72 10000 3.09 20 09:43 25.08.2021
6061 Clear 14 1022 81 10000 0.45 45 08:40 25.08.2021
6062 Clear 13 1022 82 10000 0.45 23 07:43 25.08.2021
6063 Clear 17 1023 66 10000 0.45 34 01:26 25.08.2021
6064 Clear 18 1023 61 10000 0.45 45 23:40 24.08.2021
6065 Clear 19 1023 56 10000 1.79 45 21:48 24.08.2021
6066 Clear 21 1022 50 10000 3.13 45 20:38 24.08.2021
6067 Clear 22 1022 46 10000 3.13 68 19:45 24.08.2021
6068 Clouds 23 1022 43 10000 2.68 45 17:58 24.08.2021
6069 Clear 23 1022 43 10000 2.24 45 17:26 24.08.2021
6070 Clear 23 1023 46 10000 3.13 45 16:41 24.08.2021
6071 Clear 23 1023 47 10000 1.34 45 14:25 24.08.2021
6072 Clear 23 1024 49 10000 3.58 45 13:24 24.08.2021
6073 Clear 20 1024 71 10000 2.24 45 11:26 24.08.2021
6074 Clear 19 1024 80 10000 1.34 45 10:48 24.08.2021
6075 Clear 18 1024 84 10000 1.79 68 10:26 24.08.2021
6076 Clouds 16 1024 91 10000 1.34 45 08:49 24.08.2021
6077 Clouds 15 1024 93 7000 0.89 45 06:36 24.08.2021
6078 Clear 16 1024 91 10000 0.45 45 04:40 24.08.2021
6079 Clouds 18 1024 79 10000 0.89 68 00:28 24.08.2021
6080 Clouds 18 1024 78 10000 1.34 68 22:52 23.08.2021
6081 Clouds 18 1024 79 10000 0.89 23 22:21 23.08.2021
6082 Clouds 20 1023 73 10000 1.79 68 20:27 23.08.2021
6083 Clouds 20 1023 75 10000 2.24 68 18:50 23.08.2021
6084 Clouds 20 1023 75 10000 0.89 68 16:37 23.08.2021
6085 Clouds 20 1023 79 10000 0.45 270 14:29 23.08.2021
6086 Clouds 20 1024 77 10000 0.89 68 12:56 23.08.2021
6087 Clouds 20 1024 75 10000 0.45 23 11:48 23.08.2021
6088 Clouds 18 1024 80 10000 0.45 248 10:38 23.08.2021
6089 Clouds 17 1024 85 10000 1.34 40 09:40 23.08.2021
6090 Clear 16 1023 90 10000 0.45 42 08:20 23.08.2021
6091 Clouds 16 1023 89 10000 0.45 41 06:48 23.08.2021
6092 Clouds 16 1023 88 10000 2.06 290 05:40 23.08.2021
6093 Clear 17 1023 82 10000 1.34 42 00:52 23.08.2021
6094 Clear 18 1023 72 10000 1.34 44 22:44 22.08.2021
6095 Clear 18 1022 71 10000 0.45 44 22:25 22.08.2021
6096 Clouds 21 1021 61 10000 1.34 39 20:21 22.08.2021
6097 Clouds 22 1020 59 10000 0.89 39 19:28 22.08.2021
6098 Clouds 22 1020 59 10000 0.89 225 16:33 22.08.2021
6099 Clouds 21 1020 67 10000 0.45 248 14:56 22.08.2021
6100 Clouds 21 1020 65 10000 1.34 248 14:37 22.08.2021
6101 Clouds 20 1020 71 10000 0.45 248 13:21 22.08.2021
6102 Clouds 20 1020 72 10000 4.63 250 12:51 22.08.2021
6103 Clouds 20 1020 71 10000 0.45 222 12:25 22.08.2021
6104 Clouds 20 1020 71 10000 2.24 223 11:42 22.08.2021
6105 Clouds 17 1019 81 10000 0.45 203 10:21 22.08.2021
6106 Clouds 16 1018 86 10000 0.45 217 08:19 22.08.2021
6107 Clouds 17 1018 89 10000 0.45 220 04:56 22.08.2021
6108 Clouds 19 1017 82 10000 3.09 260 23:57 21.08.2021
6109 Clouds 19 1017 82 10000 3.09 260 23:57 21.08.2021
6110 Clear 20 1017 76 10000 0.89 219 22:34 21.08.2021
6111 Clouds 22 1016 73 10000 1.79 220 20:35 21.08.2021
6112 Clear 24 1015 64 10000 1.34 220 18:39 21.08.2021
6113 Clear 25 1015 61 10000 3.09 280 17:59 21.08.2021
6114 Clouds 25 1015 58 10000 1.79 221 16:54 21.08.2021
6115 Clouds 25 1016 54 10000 5.14 240 16:25 21.08.2021
6116 Clouds 26 1015 59 10000 3.6 210 15:36 21.08.2021
6117 Clouds 26 1015 60 10000 0.89 214 14:38 21.08.2021
6118 Clouds 26 1015 61 10000 3.6 160 13:31 21.08.2021
6119 Clear 25 1015 65 10000 2.57 160 12:34 21.08.2021
6120 Clear 18 1016 81 10000 1.54 70 09:29 21.08.2021
6121 Clear 16 1016 84 10000 2.06 360 05:41 21.08.2021
6122 Clear 15 1016 84 10000 2.06 360 05:41 21.08.2021
6123 Clear 19 1017 72 10000 1.54 40 22:56 20.08.2021
6124 Clear 20 1017 67 10000 2.06 60 21:48 20.08.2021
6125 Clouds 24 1016 53 10000 1.54 0 18:26 20.08.2021
6126 Clouds 24 1017 54 10000 1.03 0 15:57 20.08.2021
6127 Clouds 22 1018 62 10000 2.06 150 13:36 20.08.2021
6128 Clouds 19 1017 76 10000 2.06 140 11:38 20.08.2021
6129 Clouds 18 1018 79 10000 2.06 140 10:51 20.08.2021
6130 Clouds 17 1017 83 10000 0.51 110 09:42 20.08.2021
6131 Clouds 16 1017 83 10000 0 0 08:42 20.08.2021
6132 Clouds 15 1017 84 10000 1.03 230 07:44 20.08.2021
6133 Clouds 15 1016 81 10000 1.03 250 04:22 20.08.2021
6134 Clouds 17 1017 77 10000 0.45 225 00:20 20.08.2021
6135 Clouds 17 1017 75 10000 2.06 200 23:20 19.08.2021
6136 Clouds 17 1017 75 10000 0.45 225 22:33 19.08.2021
6137 Clear 19 1016 70 10000 2.57 200 20:39 19.08.2021
6138 Clouds 20 1016 65 10000 3.6 190 19:43 19.08.2021
6139 Clouds 19 1017 69 10000 3.09 260 17:26 19.08.2021
6140 Clouds 19 1017 72 10000 2.06 270 16:30 19.08.2021
6141 Clouds 18 1017 75 10000 2.57 280 13:47 19.08.2021
6142 Clouds 18 1017 78 10000 3.09 240 12:37 19.08.2021
6143 Clouds 18 1017 78 10000 0.89 225 11:30 19.08.2021
6144 Clouds 17 1017 81 10000 2.57 240 10:24 19.08.2021
6145 Clouds 17 1017 83 10000 0.89 44 09:47 19.08.2021
6146 Clouds 17 1017 84 10000 0.45 225 09:21 19.08.2021
6147 Clouds 16 1017 85 10000 2.06 250 07:35 19.08.2021
6148 Clouds 18 1017 81 10000 2.06 290 02:25 19.08.2021
6149 Clouds 18 1017 81 10000 3.6 270 01:51 19.08.2021
6150 Clouds 19 1017 78 10000 1.54 250 22:56 18.08.2021
6151 Clouds 19 1017 76 10000 2.06 280 21:41 18.08.2021
6152 Clouds 20 1017 74 10000 2.57 300 20:32 18.08.2021
6153 Clouds 20 1017 73 10000 3.09 240 19:34 18.08.2021
6154 Clouds 21 1018 71 10000 3.09 260 18:54 18.08.2021
6155 Clear 21 1018 71 10000 3.6 270 17:57 18.08.2021
6156 Clouds 21 1019 71 10000 0.89 42 16:23 18.08.2021
6157 Clouds 20 1019 71 10000 0.45 43 15:38 18.08.2021
6158 Clouds 21 1019 72 10000 0.45 43 15:20 18.08.2021
6159 Clouds 19 1019 75 10000 3.6 260 12:43 18.08.2021
6160 Drizzle 19 1020 78 10000 4.12 270 12:25 18.08.2021
6161 Clouds 17 1020 85 10000 0.89 44 10:43 18.08.2021
6162 Drizzle 16 1020 89 10000 0.45 225 07:47 18.08.2021
6163 Clouds 17 1020 82 10000 0.89 42 00:45 18.08.2021
6164 Clouds 17 1020 76 10000 0.45 225 22:30 17.08.2021
6165 Clouds 18 1020 72 10000 2.24 221 21:27 17.08.2021
6166 Clouds 18 1020 71 10000 0.89 219 20:45 17.08.2021
6167 Clouds 18 1020 71 10000 5.14 270 19:18 17.08.2021
6168 Clouds 19 1021 68 10000 7.2 270 17:33 17.08.2021
6169 Clouds 19 1021 68 10000 7.2 270 17:33 17.08.2021
6170 Clouds 19 1021 64 10000 5.14 260 16:40 17.08.2021
6171 Clouds 19 1021 63 10000 0.45 203 15:38 17.08.2021
6172 Clouds 18 1022 66 10000 4.12 280 14:29 17.08.2021
6173 Clouds 18 1022 72 10000 1.34 221 12:23 17.08.2021
6174 Clear 14 1022 86 10000 2.57 250 09:22 17.08.2021
6175 Clear 13 1022 89 10000 1.03 0 07:54 17.08.2021
6176 Clear 12 1021 89 10000 2.06 220 05:48 17.08.2021
6177 Clear 16 1022 68 10000 1.34 40 23:18 16.08.2021
6178 Clear 16 1021 65 10000 0.89 40 22:46 16.08.2021
6179 Clear 17 1021 64 10000 0.45 39 22:27 16.08.2021
6180 Clear 18 1021 61 10000 1.34 38 21:36 16.08.2021
6181 Clear 18 1020 59 10000 3.13 38 20:50 16.08.2021
6182 Clear 20 1019 54 10000 0.89 248 19:25 16.08.2021
6183 Clouds 21 1019 53 10000 0.89 248 18:25 16.08.2021
6184 Clear 21 1019 52 10000 1.34 248 17:51 16.08.2021
6185 Clouds 21 1018 54 10000 0.45 248 15:53 16.08.2021
6186 Clouds 20 1018 61 10000 0.89 248 14:57 16.08.2021
6187 Clouds 19 1017 75 10000 0.45 270 13:39 16.08.2021
6188 Clouds 19 1017 78 10000 4.63 270 12:56 16.08.2021
6189 Clouds 18 1016 80 10000 1.79 220 11:29 16.08.2021
6190 Clouds 17 1015 79 10000 0.89 203 08:54 16.08.2021
6191 Clouds 17 1015 78 10000 0.89 225 07:45 16.08.2021
6192 Clouds 17 1014 77 10000 0.45 203 07:26 16.08.2021
6193 Clear 17 1014 77 10000 0.45 225 05:51 16.08.2021
6194 Clear 19 1014 76 10000 1.54 0 23:46 15.08.2021
6195 Clear 25 1013 59 10000 1.79 42 20:51 15.08.2021
6196 Clear 28 1012 52 10000 3.13 42 19:25 15.08.2021
6197 Clear 29 1012 50 10000 0.45 225 18:38 15.08.2021
6198 Clear 30 1012 47 10000 0.89 248 17:42 15.08.2021
6199 Clear 30 1013 46 10000 1.34 203 16:29 15.08.2021
6200 Clear 30 1013 47 10000 0.45 203 15:32 15.08.2021
6201 Clear 29 1014 48 10000 0.45 225 14:31 15.08.2021
6202 Clear 27 1015 58 10000 0.45 43 11:54 15.08.2021
6203 Clear 22 1016 70 10000 1.54 0 09:41 15.08.2021
6204 Clear 17 1015 81 10000 0.51 350 06:31 15.08.2021
6205 Clear 20 1017 64 10000 1.03 360 00:44 15.08.2021
6206 Clear 22 1018 59 10000 1.54 10 23:45 14.08.2021
6207 Clear 26 1018 48 10000 0.45 45 21:21 14.08.2021
6208 Clear 29 1018 42 10000 0.45 23 19:45 14.08.2021
6209 Clear 29 1018 41 10000 1.03 0 19:25 14.08.2021
6210 Clear 29 1019 38 10000 0.89 45 17:32 14.08.2021
6211 Clear 29 1020 41 10000 1.54 0 16:38 14.08.2021
6212 Clear 28 1020 44 10000 1.03 0 15:33 14.08.2021
6213 Clear 25 1021 48 10000 0.89 45 12:49 14.08.2021
6214 Clear 22 1022 58 10000 0.45 45 10:55 14.08.2021
6215 Clear 18 1022 76 10000 0.89 68 08:53 14.08.2021
6216 Clear 21 1022 59 10000 1.34 68 23:56 13.08.2021
6217 Clear 21 1022 56 10000 0.45 41 23:38 13.08.2021
6218 Clear 24 1022 60 10000 1.34 221 21:49 13.08.2021
6219 Clear 28 1021 49 10000 0.45 221 19:29 13.08.2021
6220 Clear 29 1022 47 10000 2.57 270 18:45 13.08.2021
6221 Clear 29 1022 49 10000 3.6 250 16:51 13.08.2021
6222 Clouds 28 1022 52 10000 2.06 0 15:53 13.08.2021
6223 Clouds 23 1023 63 10000 1.54 0 11:43 13.08.2021
6224 Clouds 22 1023 66 10000 0.45 42 11:18 13.08.2021
6225 Clear 18 1022 82 10000 1.03 0 08:39 13.08.2021
6226 Clouds 17 1022 82 10000 1.54 340 07:48 13.08.2021
6227 Clouds 17 1021 84 10000 0.45 39 06:32 13.08.2021
6228 Clear 22 1019 72 10000 3.09 330 00:27 13.08.2021
6229 Clear 25 1018 63 10000 1.03 340 21:48 12.08.2021
6230 Clear 28 1017 55 10000 1.54 300 20:27 12.08.2021
6231 Clear 29 1017 52 10000 0.45 225 19:50 12.08.2021
6232 Clear 30 1017 50 10000 0.51 0 18:29 12.08.2021
6233 Clear 30 1017 48 10000 1.03 0 16:50 12.08.2021
6234 Clear 30 1017 48 10000 1.03 0 16:50 12.08.2021
6235 Clear 30 1017 49 10000 1.54 0 15:39 12.08.2021
6236 Clear 28 1018 55 10000 1.79 219 13:52 12.08.2021
6237 Clear 24 1018 68 10000 1.54 0 11:38 12.08.2021
6238 Clear 19 1019 84 10000 1.03 0 08:59 12.08.2021
6239 Clear 16 1018 91 10000 1.03 0 07:30 12.08.2021
6240 Clear 20 1019 74 10000 2.06 360 23:22 11.08.2021
6241 Clear 22 1018 67 10000 1.54 360 21:53 11.08.2021
6242 Clouds 26 1018 54 10000 1.54 350 19:20 11.08.2021
6243 Clear 26 1018 54 10000 0.89 68 18:26 11.08.2021
6244 Clouds 26 1019 54 10000 2.06 270 15:37 11.08.2021
6245 Clouds 26 1019 54 10000 2.06 270 15:19 11.08.2021
6246 Clouds 24 1019 61 10000 1.34 219 13:50 11.08.2021
6247 Clouds 23 1019 66 10000 1.54 0 12:29 11.08.2021
6248 Clouds 23 1019 69 10000 0.45 219 11:45 11.08.2021
6249 Clouds 22 1020 72 10000 0.45 219 11:21 11.08.2021
6250 Clouds 19 1019 86 10000 1.54 360 09:21 11.08.2021
6251 Clouds 16 1019 92 10000 1.54 330 07:23 11.08.2021
6252 Clear 21 1018 73 10000 2.57 280 22:46 10.08.2021
6253 Clear 21 1018 72 10000 0.45 225 22:20 10.08.2021
6254 Clear 22 1017 70 10000 1.03 0 20:55 10.08.2021
6255 Clouds 24 1017 64 10000 3.6 240 19:29 10.08.2021
6256 Clouds 24 1017 61 10000 0.45 225 18:29 10.08.2021
6257 Clouds 24 1017 62 10000 0.45 225 15:47 10.08.2021
6258 Clouds 24 1017 62 10000 0.45 203 14:41 10.08.2021
6259 Clouds 19 1018 85 10000 0.45 203 10:58 10.08.2021
6260 Clouds 17 1017 93 10000 1.54 180 09:37 10.08.2021
6261 Clouds 16 1017 93 10000 0 0 06:24 10.08.2021
6262 Clouds 17 1017 81 10000 0.89 240 02:40 10.08.2021
6263 Clear 18 1017 75 10000 0.89 239 23:37 09.08.2021
6264 Clear 20 1017 68 10000 1.79 225 21:54 09.08.2021
6265 Clear 20 1016 67 10000 1.34 203 21:29 09.08.2021
6266 Clouds 22 1016 60 10000 1.79 225 18:56 09.08.2021
6267 Clouds 21 1017 65 10000 1.34 203 16:57 09.08.2021
6268 Clouds 21 1017 62 10000 0.89 225 15:27 09.08.2021
6269 Clouds 20 1017 72 10000 1.34 225 13:32 09.08.2021
6270 Clouds 19 1017 77 10000 0.89 225 12:40 09.08.2021
6271 Clouds 15 1017 89 10000 3.6 190 09:56 09.08.2021
6272 Clear 15 1016 87 10000 0.45 203 08:25 09.08.2021
6273 Clouds 17 1015 75 10000 6.17 260 22:41 08.08.2021
6274 Clear 19 1014 62 10000 0.45 203 21:25 08.08.2021
6275 Clear 22 1013 51 10000 1.34 203 18:50 08.08.2021
6276 Clear 22 1013 50 10000 1.79 225 16:53 08.08.2021
6277 Clear 22 1013 50 10000 1.79 225 16:53 08.08.2021
6278 Clouds 21 1012 59 10000 2.24 225 15:30 08.08.2021
6279 Clouds 19 1012 64 10000 2.24 225 12:49 08.08.2021
6280 Clouds 16 1012 80 10000 0.89 203 10:44 08.08.2021
6281 Clouds 14 1010 90 10000 1.34 221 06:44 08.08.2021
6282 Clear 14 1009 89 10000 2.24 222 05:37 08.08.2021
6283 Clear 16 1008 83 10000 2.68 221 00:30 08.08.2021
6284 Clear 16 1008 83 10000 2.68 221 00:30 08.08.2021
6285 Clear 16 1008 83 10000 2.68 221 00:30 08.08.2021
6286 Clear 16 1006 85 10000 2.68 221 22:19 07.08.2021
6287 Clear 16 1005 85 10000 5.36 218 21:40 07.08.2021
6288 Clouds 17 1004 83 10000 2.68 216 19:46 07.08.2021
6289 Clouds 21 1002 66 10000 0.89 220 17:27 07.08.2021
6290 Clouds 21 1001 65 10000 3.13 225 16:34 07.08.2021
6291 Clouds 19 1001 79 10000 1.34 203 14:25 07.08.2021
6292 Rain 18 1002 87 10000 1.79 312 12:53 07.08.2021
6293 Clouds 18 1002 79 10000 2.68 354 10:22 07.08.2021
6294 Clear 14 1004 87 10000 3.09 220 05:40 07.08.2021
6295 Clear 18 1005 72 10000 0.45 203 23:55 06.08.2021
6296 Clear 20 1005 62 10000 1.34 203 21:23 06.08.2021
6297 Clear 21 1005 58 10000 0.89 203 20:27 06.08.2021
6298 Clear 22 1005 56 10000 1.34 225 19:55 06.08.2021
6299 Clear 23 1005 56 10000 1.79 225 18:29 06.08.2021
6300 Clouds 20 1006 71 10000 1.34 203 13:56 06.08.2021
6301 Clouds 17 1006 82 10000 1.34 203 10:31 06.08.2021
6302 Clouds 17 1005 84 10000 1.34 225 09:26 06.08.2021
6303 Clouds 17 1005 84 10000 1.34 225 09:26 06.08.2021
6304 Clouds 17 1004 88 10000 1.34 203 02:33 06.08.2021
6305 Clouds 18 1004 90 10000 6.69 190 23:27 05.08.2021
6306 Clouds 18 1004 85 10000 0.89 180 21:31 05.08.2021
6307 Clouds 20 1005 77 10000 0.89 225 19:56 05.08.2021
6308 Clouds 20 1006 70 10000 0.89 225 18:49 05.08.2021
6309 Clouds 24 1007 53 10000 0.45 203 16:20 05.08.2021
6310 Clouds 22 1009 61 10000 0.89 203 13:57 05.08.2021
6311 Clear 19 1010 79 10000 0.45 219 10:53 05.08.2021
6312 Clear 16 1010 91 10000 1.03 0 08:21 05.08.2021
6313 Clear 16 1011 88 10000 1.03 350 03:45 05.08.2021
6314 Clear 18 1012 84 10000 2.06 180 22:41 04.08.2021
6315 Clouds 18 1011 81 10000 1.54 150 21:40 04.08.2021
6316 Clouds 18 1011 80 10000 3.09 150 21:18 04.08.2021
6317 Clouds 20 1012 61 10000 2.06 70 17:24 04.08.2021
6318 Clouds 19 1013 83 10000 0.45 225 15:32 04.08.2021
6319 Clouds 18 1012 76 10000 0.45 135 14:41 04.08.2021
6320 Clear 16 1013 79 10000 1.03 0 09:48 04.08.2021
6321 Clouds 16 1014 76 10000 1.54 280 23:20 03.08.2021
6322 Clear 18 1013 64 10000 1.34 218 20:32 03.08.2021
6323 Clouds 19 1013 61 10000 2.24 218 18:59 03.08.2021
6324 Clouds 20 1013 60 10000 0.89 219 17:31 03.08.2021
6325 Clouds 19 1014 73 10000 3.6 250 14:58 03.08.2021
6326 Clouds 17 1013 83 10000 2.57 300 10:58 03.08.2021
6327 Clouds 17 1013 90 10000 2.06 320 10:38 03.08.2021
6328 Rain 17 1015 89 10000 2.06 270 23:46 02.08.2021
6329 Clouds 22 1014 64 10000 2.57 220 17:28 02.08.2021
6330 Clouds 22 1014 61 10000 3.13 218 15:46 02.08.2021
6331 Clouds 21 1015 63 10000 0.89 217 12:54 02.08.2021
6332 Clouds 20 1015 69 10000 4.63 230 11:58 02.08.2021
6333 Clouds 20 1015 69 10000 4.63 230 11:58 02.08.2021
6334 Clouds 19 1015 76 10000 0.45 42 10:58 02.08.2021
6335 Clouds 17 1015 83 10000 1.54 240 09:47 02.08.2021
6336 Clear 19 1013 66 10000 0.89 42 21:43 01.08.2021
6337 Clear 23 1012 49 10000 0.45 42 18:18 01.08.2021
6338 Clouds 21 1012 58 10000 2.68 221 13:18 01.08.2021
6339 Clouds 19 1012 67 10000 2.24 41 11:37 01.08.2021
6340 Clear 14 1012 88 10000 1.03 360 04:53 01.08.2021
6341 Clear 14 1012 86 10000 1.03 240 03:47 01.08.2021
6342 Clear 17 1012 75 10000 0.45 42 22:43 31.07.2021
6343 Clouds 21 1011 62 10000 2.06 330 19:53 31.07.2021
6344 Clear 23 1011 53 10000 2.24 220 16:40 31.07.2021
6345 Clouds 22 1011 55 10000 2.68 187 15:38 31.07.2021
6346 Clouds 20 1012 66 10000 1.79 209 12:21 31.07.2021
6347 Clouds 14 1012 85 10000 0.45 217 06:18 31.07.2021
6348 Clear 17 1011 69 10000 0.89 222 23:27 30.07.2021
6349 Clear 21 1010 54 10000 3.58 195 20:26 30.07.2021
6350 Clear 23 1009 48 10000 3.13 232 16:32 30.07.2021
6351 Clear 19 1012 63 10000 2.06 230 22:26 29.07.2021
6352 Clear 15 1015 87 10000 1.34 221 08:43 29.07.2021
6353 Clouds 14 1014 84 10000 2.24 220 04:53 29.07.2021
6354 Clouds 15 1014 82 10000 2.68 221 04:28 29.07.2021
6355 Clear 22 1012 57 10000 2.24 224 19:55 28.07.2021
6356 Clear 22 1013 56 10000 2.24 221 17:19 28.07.2021
6357 Clouds 19 1013 78 10000 1.34 223 10:48 28.07.2021
6358 Clouds 17 1011 95 10000 1.54 230 01:53 28.07.2021
6359 Clouds 19 1011 87 10000 3.09 190 21:37 27.07.2021
6360 Clouds 19 1011 89 8000 5.66 190 18:26 27.07.2021
6361 Rain 18 1012 91 10000 5.14 170 14:51 27.07.2021
6362 Rain 18 1012 84 10000 5.66 210 10:44 27.07.2021
6363 Clouds 17 1012 91 10000 0.51 0 07:31 27.07.2021
6364 Clouds 22 1011 72 10000 1.79 12 15:35 26.07.2021
6365 Clouds 21 1012 86 10000 2.24 220 13:43 26.07.2021
6366 Clouds 19 1007 80 10000 0.89 222 21:44 25.07.2021
6367 Clouds 20 1007 79 10000 0.45 221 20:55 25.07.2021
6368 Clouds 22 1006 71 10000 4.02 282 17:45 25.07.2021
6369 Clouds 21 1006 76 10000 1.34 341 15:27 25.07.2021
6370 Clouds 19 1007 86 10000 0.45 146 10:30 25.07.2021
6371 Clouds 17 1007 94 9000 0.89 166 08:18 25.07.2021
6372 Clouds 21 1008 73 10000 5.66 170 20:23 24.07.2021
6373 Rain 23 1008 64 10000 4.47 222 19:54 24.07.2021
6374 Clouds 23 1009 62 10000 2.24 228 12:34 24.07.2021
6375 Clouds 26 1007 51 10000 4.63 60 21:47 23.07.2021
6376 Clear 28 1012 48 10000 5.14 80 14:36 23.07.2021
6377 Clear 26 1014 56 10000 3.6 60 12:40 23.07.2021
6378 Clear 23 1018 57 10000 3.09 20 22:58 22.07.2021
6379 Clear 28 1020 44 10000 2.68 42 15:28 22.07.2021
6380 Clear 25 1021 53 10000 0.45 42 11:21 22.07.2021
6381 Clear 20 1021 75 10000 1.54 10 08:34 22.07.2021
6382 Clear 20 1021 75 10000 1.54 10 08:34 22.07.2021
6383 Clear 20 1021 69 10000 2.57 30 01:58 22.07.2021
6384 Clear 25 1021 56 10000 3.09 40 21:43 21.07.2021
6385 Clear 26 1020 53 10000 3.6 50 21:23 21.07.2021
6386 Clear 26 1022 54 10000 3.09 50 11:54 21.07.2021
6387 Clear 21 1022 74 10000 2.06 360 09:20 21.07.2021
6388 Clear 17 1021 87 10000 1.03 360 06:50 21.07.2021
6389 Clear 24 1019 59 10000 2.57 40 22:34 20.07.2021
6390 Clouds 29 1018 45 10000 3.6 60 16:37 20.07.2021
6391 Clear 28 1019 48 10000 3.09 30 15:28 20.07.2021
6392 Clear 26 1019 55 10000 0.45 34 12:58 20.07.2021
6393 Clear 23 1020 59 10000 3.6 80 10:21 20.07.2021
6394 Clear 19 1019 80 10000 2.06 350 03:20 20.07.2021
6395 Clear 26 1018 54 10000 3.09 40 21:29 19.07.2021
6396 Clear 28 1020 51 10000 0.45 306 12:52 19.07.2021
6397 Clear 24 1020 63 10000 1.79 41 10:28 19.07.2021
6398 Clear 29 1020 45 10000 6.71 39 18:30 18.07.2021
6399 Clear 23 1023 68 10000 0.45 41 10:55 18.07.2021
6400 Clear 22 1023 71 10000 4.12 40 10:18 18.07.2021
6401 Clear 23 1023 69 10000 0.89 41 22:24 17.07.2021
6402 Clear 24 1023 65 10000 3.6 10 21:43 17.07.2021
6403 Clear 25 1023 60 10000 4.12 360 20:49 17.07.2021
6404 Clouds 19 1026 75 10000 3.6 360 12:25 17.07.2021
6405 Clouds 14 1025 92 10000 0.89 42 07:19 17.07.2021
6406 Clear 21 1023 64 10000 0.45 42 20:48 16.07.2021
6407 Clouds 18 1024 79 10000 4.02 42 13:22 16.07.2021
6408 Clouds 17 1022 85 10000 4.02 40 07:32 16.07.2021
6409 Clouds 18 1021 76 10000 4.92 42 00:36 16.07.2021
6410 Clouds 24 1018 62 10000 4.92 37 13:52 15.07.2021
6411 Clear 20 1018 76 10000 2.68 40 10:32 15.07.2021
6412 Clear 16 1018 89 10000 1.34 39 07:25 15.07.2021
6413 Clouds 20 1017 70 10000 4.47 38 19:27 14.07.2021
6414 Clouds 20 1016 71 10000 2.68 211 15:55 14.07.2021
6415 Clouds 21 1016 72 10000 5.36 38 15:55 14.07.2021
6416 Rain 15 1015 95 10000 2.24 40 07:52 14.07.2021
6417 Clouds 17 1013 96 8000 0.45 40 21:50 13.07.2021
6418 Rain 18 1012 94 10000 3.13 40 19:55 13.07.2021
6419 Rain 18 1012 95 8000 0.45 40 19:28 13.07.2021
6420 Rain 18 1012 95 4800 0.45 39 18:46 13.07.2021
6421 Rain 18 1012 95 4800 0.45 39 18:28 13.07.2021
6422 Rain 18 1011 95 2100 2.24 39 17:56 13.07.2021
6423 Rain 18 1011 95 7000 2.06 340 13:21 13.07.2021
6424 Clouds 16 1010 94 10000 0.45 215 08:50 13.07.2021
6425 Thunderstorm 18 1008 87 10000 0.45 215 20:24 12.07.2021
6426 Clouds 22 1008 76 10000 0.89 235 16:45 12.07.2021
6427 Drizzle 18 1009 91 10000 3.09 170 12:21 12.07.2021
6428 Clear 19 1012 75 10000 3.09 40 23:20 11.07.2021
6429 Clear 23 1013 57 10000 2.57 90 19:54 11.07.2021
6430 Clouds 19 1017 84 10000 1.03 0 11:26 11.07.2021
6431 Clouds 17 1016 86 10000 2.06 270 22:45 10.07.2021
6432 Clouds 19 1016 77 10000 0.89 272 12:37 10.07.2021
6433 Clouds 16 1017 89 10000 1.03 0 07:49 10.07.2021
6434 Clear 17 1019 80 10000 1.03 10 01:23 10.07.2021
6435 Clear 22 1021 59 10000 2.24 289 18:20 09.07.2021
6436 Clouds 22 1022 59 10000 2.57 260 14:48 09.07.2021
6437 Clear 16 1023 88 10000 0 0 08:41 09.07.2021
6438 Clear 18 1023 74 10000 2.06 310 23:51 08.07.2021
6439 Clear 18 1023 71 10000 2.57 300 22:48 08.07.2021
6440 Clouds 22 1021 55 10000 1.34 217 18:57 08.07.2021
6441 Clouds 22 1021 58 10000 0.45 220 17:42 08.07.2021
6442 Clouds 21 1021 60 10000 2.68 219 13:31 08.07.2021
6443 Clouds 22 1021 60 10000 1.34 218 12:44 08.07.2021
6444 Clear 20 1021 67 10000 0.89 220 11:32 08.07.2021
6445 Clear 18 1021 80 10000 3.09 240 09:52 08.07.2021
6446 Clear 13 1019 83 10000 1.54 210 04:47 08.07.2021
6447 Clear 14 1020 80 10000 0 0 01:43 08.07.2021
6448 Clear 18 1017 60 10000 1.54 320 22:56 07.07.2021
6449 Clear 19 1017 53 10000 3.09 260 22:19 07.07.2021
6450 Clear 20 1017 50 10000 2.57 250 21:41 07.07.2021
6451 Clear 21 1017 47 10000 4.12 260 21:22 07.07.2021
6452 Clouds 23 1016 48 10000 4.12 240 19:57 07.07.2021
6453 Clear 23 1016 51 10000 1.79 220 19:28 07.07.2021
6454 Clouds 22 1015 59 10000 4.63 190 17:36 07.07.2021
6455 Clouds 21 1015 71 10000 0.45 337 15:45 07.07.2021
6456 Clouds 20 1016 65 10000 4.63 210 12:25 07.07.2021
6457 Clouds 16 1014 82 10000 5.14 200 08:36 07.07.2021
6458 Clear 14 1013 87 10000 2.57 210 06:43 07.07.2021
6459 Clouds 15 1013 82 10000 2.06 210 05:42 07.07.2021
6460 Clear 20 1010 53 10000 3.6 220 21:32 06.07.2021
6461 Clear 22 1009 47 10000 0.89 221 19:30 06.07.2021
6462 Clear 22 1009 47 10000 2.68 72 18:47 06.07.2021
6463 Clear 22 1009 46 10000 4.02 218 18:28 06.07.2021
6464 Clouds 20 1008 58 10000 5.81 224 13:46 06.07.2021
6465 Clouds 19 1008 63 10000 3.58 229 12:34 06.07.2021
6466 Clouds 16 1006 73 10000 3.58 229 09:41 06.07.2021
6467 Clouds 17 1005 73 10000 3.58 281 08:34 06.07.2021
6468 Clouds 16 1004 79 10000 2.24 252 06:45 06.07.2021
6469 Rain 19 1003 84 10000 0.45 213 01:42 06.07.2021
6470 Clouds 20 1005 76 10000 3.09 170 22:43 05.07.2021
6471 Clouds 21 1007 66 10000 0.45 268 18:52 05.07.2021
6472 Clouds 22 1008 67 10000 3.13 315 15:45 05.07.2021
6473 Clouds 15 1008 95 10000 2.57 150 07:26 05.07.2021
6474 Clouds 15 1009 91 10000 1.54 240 05:46 05.07.2021
6475 Clear 16 1009 87 10000 3.6 230 04:40 05.07.2021
6476 Clouds 17 1011 88 10000 1.54 150 23:18 04.07.2021
6477 Clouds 19 1009 84 10000 2.68 38 19:55 04.07.2021
6478 Clouds 21 1009 77 10000 4.02 336 16:51 04.07.2021
6479 Clouds 21 1010 74 10000 0.45 227 13:27 04.07.2021
6480 Clouds 17 1011 94 10000 1.54 0 09:25 04.07.2021
6481 Clouds 20 1013 78 10000 2.57 190 23:34 03.07.2021
6482 Clouds 20 1013 75 10000 3.09 190 22:40 03.07.2021
6483 Clear 23 1014 59 10000 0.45 234 14:58 03.07.2021
6484 Clouds 21 1015 76 10000 3.09 260 12:38 03.07.2021
6485 Clear 21 1014 79 10000 0.45 241 09:41 03.07.2021
6486 Clear 20 1014 81 10000 1.54 0 09:20 03.07.2021
6487 Clear 19 1013 84 10000 1.54 130 08:44 03.07.2021
6488 Clear 27 1015 49 10000 0.45 259 17:57 02.07.2021
6489 Clear 16 1017 93 7000 1.03 10 07:41 02.07.2021
6490 Fog 14 1017 95 6000 1.03 350 06:34 02.07.2021
6491 Clear 18 1018 80 10000 1.54 330 23:37 01.07.2021
6492 Clear 19 1017 74 10000 0.51 350 22:30 01.07.2021
6493 Clouds 21 1017 68 10000 0.45 40 21:34 01.07.2021
6494 Clouds 23 1017 62 10000 1.34 40 19:38 01.07.2021
6495 Clouds 23 1017 62 10000 0.45 40 19:19 01.07.2021
6496 Clouds 23 1017 62 10000 1.79 41 18:46 01.07.2021
6497 Clouds 23 1017 62 10000 1.79 41 18:46 01.07.2021
6498 Clouds 23 1017 61 10000 1.34 43 17:33 01.07.2021
6499 Clouds 21 1018 64 10000 0.45 42 15:51 01.07.2021
6500 Clouds 21 1018 65 10000 0.45 42 15:22 01.07.2021
6501 Clouds 19 1018 68 10000 0.89 41 11:56 01.07.2021
6502 Clouds 16 1018 85 10000 2.06 250 09:34 01.07.2021
6503 Clouds 15 1018 84 10000 1.54 0 23:26 30.06.2021
6504 Clouds 16 1017 81 10000 0.45 43 22:26 30.06.2021
6505 Clouds 16 1017 80 10000 0.89 43 21:57 30.06.2021
6506 Clouds 17 1017 80 10000 0.89 43 21:18 30.06.2021
6507 Clouds 17 1017 80 10000 1.34 41 20:20 30.06.2021
6508 Clouds 18 1017 72 10000 0.45 41 16:45 30.06.2021
6509 Clouds 17 1016 79 10000 2.68 42 13:26 30.06.2021
6510 Clouds 14 1015 94 10000 2.57 280 10:27 30.06.2021
6511 Clouds 15 1014 92 10000 0.45 44 00:31 30.06.2021
6512 Rain 17 1013 80 10000 0.45 215 19:47 29.06.2021
6513 Clouds 18 1013 77 10000 2.57 10 17:47 29.06.2021
6514 Clouds 18 1013 75 10000 2.57 10 17:28 29.06.2021
6515 Clouds 18 1014 66 10000 2.57 320 15:51 29.06.2021
6516 Clouds 18 1014 66 10000 2.57 320 15:51 29.06.2021
6517 Clouds 18 1014 66 10000 2.57 320 15:51 29.06.2021
6518 Clouds 18 1014 66 10000 2.57 320 15:51 29.06.2021
6519 Clouds 19 1013 63 10000 2.06 280 14:55 29.06.2021
6520 Clouds 18 1014 72 10000 2.57 290 13:24 29.06.2021
6521 Clear 13 1012 95 10000 2.06 120 05:25 29.06.2021
6522 Clear 16 1014 83 10000 0.51 330 23:26 28.06.2021
6523 Mist 18 1012 84 4600 2.24 219 21:31 28.06.2021
6524 Clouds 23 1013 59 10000 5.66 150 18:44 28.06.2021
6525 Clouds 24 1013 63 10000 3.6 140 16:58 28.06.2021
6526 Clouds 22 1013 70 10000 4.12 140 14:31 28.06.2021
6527 Clouds 21 1014 71 10000 0.45 236 12:24 28.06.2021
6528 Clouds 19 1013 90 10000 2.57 40 23:55 27.06.2021
6529 Clouds 20 1013 78 10000 2.06 340 22:32 27.06.2021
6530 Clouds 23 1012 71 10000 2.57 190 19:45 27.06.2021
6531 Clouds 23 1012 71 10000 0.89 258 18:56 27.06.2021
6532 Clouds 21 1013 79 10000 1.03 0 15:39 27.06.2021
6533 Rain 19 1012 87 10000 1.54 0 11:23 27.06.2021
6534 Clear 18 1013 83 10000 3.6 60 01:38 27.06.2021
6535 Clear 20 1014 80 10000 3.09 40 22:30 26.06.2021
6536 Clear 21 1014 76 10000 4.63 30 20:54 26.06.2021
6537 Clear 21 1014 73 10000 0.45 250 20:35 26.06.2021
6538 Clear 22 1016 74 10000 0.45 221 16:33 26.06.2021
6539 Clouds 20 1017 77 10000 0.45 221 14:47 26.06.2021
6540 Clouds 18 1017 89 10000 1.54 160 12:25 26.06.2021
6541 Clouds 16 1017 98 6000 1.54 110 07:33 26.06.2021
6542 Clouds 17 1018 92 7000 2.57 310 23:24 25.06.2021
6543 Clouds 19 1017 82 10000 1.54 280 20:38 25.06.2021
6544 Clouds 20 1017 80 10000 0.45 221 19:28 25.06.2021
6545 Clouds 20 1017 80 10000 0.89 221 17:31 25.06.2021
6546 Clouds 20 1018 77 10000 2.57 240 16:43 25.06.2021
6547 Clouds 20 1019 70 10000 0.45 220 14:22 25.06.2021
6548 Clear 18 1019 69 10000 1.34 204 10:46 25.06.2021
6549 Clear 12 1020 89 10000 1.03 40 07:39 25.06.2021
6550 Clear 11 1020 91 10000 1.03 30 07:18 25.06.2021
6551 Clear 12 1022 84 10000 0 0 01:40 25.06.2021
6552 Clear 18 1021 51 10000 2.57 340 21:49 24.06.2021
6553 Clear 20 1021 37 10000 4.12 310 20:45 24.06.2021
6554 Clear 20 1021 40 10000 4.12 310 20:22 24.06.2021
6555 Clear 20 1021 45 10000 2.06 310 18:35 24.06.2021
6556 Clouds 19 1021 59 10000 2.57 320 15:25 24.06.2021
6557 Clouds 19 1022 60 10000 1.54 0 14:55 24.06.2021
6558 Clouds 18 1021 67 10000 1.34 42 13:57 24.06.2021
6559 Clouds 14 1021 83 10000 1.34 42 10:37 24.06.2021
6560 Clouds 13 1021 85 10000 2.24 43 09:23 24.06.2021
6561 Clouds 13 1021 85 10000 1.79 44 08:19 24.06.2021
6562 Clouds 14 1021 86 10000 0.45 44 02:21 24.06.2021
6563 Clouds 15 1021 79 10000 1.79 42 22:36 23.06.2021
6564 Clouds 16 1021 79 10000 2.24 42 21:43 23.06.2021
6565 Clouds 16 1020 80 10000 2.57 360 20:21 23.06.2021
6566 Clouds 16 1020 81 10000 3.13 43 18:33 23.06.2021
6567 Clouds 16 1020 81 10000 1.34 44 17:21 23.06.2021
6568 Clouds 16 1021 84 10000 0.89 42 14:58 23.06.2021
6569 Clouds 15 1020 86 10000 1.34 42 12:51 23.06.2021
6570 Clouds 14 1020 88 10000 0.89 42 11:53 23.06.2021
6571 Mist 13 1020 91 8000 1.79 42 09:55 23.06.2021
6572 Clouds 13 1020 94 7000 3.09 350 08:45 23.06.2021
6573 Clouds 13 1019 93 8000 3.58 42 07:51 23.06.2021
6574 Clouds 13 1019 93 8000 1.34 43 06:43 23.06.2021
6575 Clouds 14 1018 90 7000 0.89 41 02:29 23.06.2021
6576 Clouds 14 1018 90 8000 3.13 44 00:43 23.06.2021
6577 Clouds 14 1018 89 7000 1.79 43 23:55 22.06.2021
6578 Clouds 14 1017 89 8000 4.02 41 22:44 22.06.2021
6579 Clouds 14 1017 90 8000 3.13 42 22:19 22.06.2021
6580 Clouds 14 1017 90 10000 2.68 44 21:36 22.06.2021
6581 Clouds 15 1016 89 10000 2.68 42 19:37 22.06.2021
6582 Clouds 15 1015 89 10000 0.89 40 18:53 22.06.2021
6583 Clouds 15 1015 89 10000 0.45 42 18:21 22.06.2021
6584 Clouds 15 1014 91 10000 3.13 42 17:21 22.06.2021
6585 Clouds 15 1014 93 10000 3.13 43 16:30 22.06.2021
6586 Rain 16 1013 94 10000 2.68 42 14:36 22.06.2021
6587 Rain 16 1013 92 10000 3.58 44 13:48 22.06.2021
6588 Rain 17 1012 89 10000 2.24 42 12:35 22.06.2021
6589 Clouds 18 1011 84 10000 5.66 40 10:58 22.06.2021
6590 Clouds 17 1011 90 10000 3.09 30 09:21 22.06.2021
6591 Clouds 15 1010 94 10000 3.09 40 06:41 22.06.2021
6592 Clear 16 1010 89 10000 0.45 213 00:42 22.06.2021
6593 Clouds 17 1008 82 10000 0.45 219 22:59 21.06.2021
6594 Clouds 19 1009 70 10000 5.81 223 21:54 21.06.2021
6595 Clouds 21 1008 63 10000 4.12 140 20:55 21.06.2021
6596 Clear 22 1008 60 10000 3.09 150 20:28 21.06.2021
6597 Clouds 23 1008 54 10000 4.12 90 19:50 21.06.2021
6598 Clear 24 1008 51 10000 1.54 0 18:30 21.06.2021
6599 Clear 25 1007 50 10000 1.54 200 17:23 21.06.2021
6600 Clouds 25 1007 50 10000 0.45 215 16:40 21.06.2021
6601 Clouds 25 1007 49 10000 1.03 0 16:19 21.06.2021
6602 Clouds 25 1007 52 10000 1.54 0 15:40 21.06.2021
6603 Clear 23 1008 57 10000 1.54 0 13:55 21.06.2021
6604 Clear 22 1008 62 10000 2.57 250 13:21 21.06.2021
6605 Clear 22 1008 62 10000 0.45 221 12:36 21.06.2021
6606 Clouds 21 1007 68 10000 1.34 225 11:25 21.06.2021
6607 Clouds 19 1007 74 10000 2.68 211 10:24 21.06.2021
6608 Clouds 18 1007 85 10000 0.45 223 09:18 21.06.2021
6609 Clouds 17 1006 94 10000 0.45 225 08:19 21.06.2021
6610 Clouds 17 1006 94 10000 0.45 225 08:19 21.06.2021
6611 Clouds 17 1005 94 10000 3.09 210 06:44 21.06.2021
6612 Clouds 18 1005 94 10000 2.06 30 23:58 20.06.2021
6613 Clouds 18 1005 93 10000 2.06 10 23:34 20.06.2021
6614 Clouds 19 1004 93 10000 1.03 0 22:57 20.06.2021
6615 Mist 19 1004 92 3300 3.09 50 21:55 20.06.2021
6616 Clouds 20 1005 89 10000 5.66 60 20:30 20.06.2021
6617 Clouds 22 1004 75 10000 0.45 148 19:41 20.06.2021
6618 Clouds 23 1004 65 10000 0.45 161 19:20 20.06.2021
6619 Clouds 24 1005 59 10000 4.63 60 17:47 20.06.2021
6620 Clouds 24 1006 60 10000 4.12 70 16:46 20.06.2021
6621 Clouds 24 1006 60 10000 3.09 80 15:48 20.06.2021
6622 Clouds 25 1006 59 10000 3.09 110 15:27 20.06.2021
6623 Clouds 24 1007 60 10000 2.57 50 14:43 20.06.2021
6624 Clouds 23 1007 63 10000 1.54 0 13:35 20.06.2021
6625 Clear 22 1008 66 10000 1.54 0 12:39 20.06.2021
6626 Clouds 21 1009 71 10000 1.54 280 11:45 20.06.2021
6627 Clouds 20 1009 78 10000 2.06 210 10:23 20.06.2021
6628 Clouds 18 1010 84 10000 1.54 0 09:43 20.06.2021
6629 Clear 16 1009 94 10000 2.06 190 06:56 20.06.2021
6630 Clouds 19 1008 95 10000 2.06 60 23:37 19.06.2021
6631 Clouds 19 1008 95 10000 3.09 30 22:58 19.06.2021
6632 Clouds 20 1008 94 10000 0.89 43 21:51 19.06.2021
6633 Clouds 20 1009 96 10000 0.45 43 21:19 19.06.2021
6634 Mist 20 1009 94 2300 0.45 42 18:53 19.06.2021
6635 Rain 23 1008 80 10000 2.68 225 18:22 19.06.2021
6636 Clouds 25 1009 70 10000 0.89 34 17:26 19.06.2021
6637 Clouds 25 1010 66 10000 2.24 229 16:40 19.06.2021
6638 Clouds 26 1011 65 10000 2.06 0 15:25 19.06.2021
6639 Clouds 24 1013 71 10000 1.54 40 12:54 19.06.2021
6640 Clouds 22 1013 80 10000 2.57 50 11:54 19.06.2021
6641 Clouds 20 1013 84 10000 0.45 221 10:46 19.06.2021
6642 Clouds 20 1014 84 10000 1.03 0 10:26 19.06.2021
6643 Clouds 20 1014 84 10000 0.45 221 09:56 19.06.2021
6644 Clouds 18 1015 91 10000 1.03 0 07:50 19.06.2021
6645 Clouds 16 1015 95 10000 1.54 40 06:34 19.06.2021
6646 Clouds 18 1014 90 10000 1.03 220 02:28 19.06.2021
6647 Clouds 19 1014 84 10000 2.57 250 00:20 19.06.2021
6648 Clouds 20 1014 80 10000 4.12 250 23:34 18.06.2021
6649 Clouds 21 1014 78 10000 1.34 222 22:55 18.06.2021
6650 Clouds 21 1013 75 10000 1.34 218 22:27 18.06.2021
6651 Clouds 22 1014 69 10000 5.66 230 21:47 18.06.2021
6652 Clouds 23 1013 70 10000 4.47 220 21:23 18.06.2021
6653 Clouds 24 1012 66 10000 2.24 224 20:23 18.06.2021
6654 Clouds 23 1011 82 8000 0.89 47 18:33 18.06.2021
6655 Rain 24 1011 68 9000 6.26 237 17:40 18.06.2021
6656 Clouds 25 1011 64 9000 0.89 78 16:37 18.06.2021
6657 Clouds 25 1011 65 10000 1.79 241 15:46 18.06.2021
6658 Clouds 25 1011 64 9000 3.58 0 14:36 18.06.2021
6659 Clouds 25 1011 64 9000 2.68 81 13:43 18.06.2021
6660 Clouds 25 1010 65 10000 2.24 336 12:52 18.06.2021
6661 Clouds 25 1010 66 9000 0.89 64 12:33 18.06.2021
6662 Clouds 24 1010 70 10000 0.89 215 11:44 18.06.2021